<?xml version="1.0" encoding="UTF-8" standalone="no" ?>
<gpx xmlns="http://www.topografix.com/GPX/1/1" xmlns:xsi="http://www.w3.org/2001/XMLSchema-instance" xsi:schemaLocation="http://www.topografix.com/GPX/1/1 http://www.topografix.com/GPX/1/1/gpx.xsd" version="1.1" creator="VisuGPX - https://www.visugpx.com">
  <metadata>
    <name>2020-10-18 18:26:07</name>
  </metadata>
  <trk>
    <name><![CDATA[2020-10-18 18:26:07]]></name>
    <trkseg>
      <trkpt lat="43.50477" lon="2.40927">
        <ele>264.5</ele>
        <time>2020-10-18T07:20:41Z</time>
      </trkpt>
      <trkpt lat="43.50472" lon="2.40921">
        <ele>262.1</ele>
        <time>2020-10-18T07:20:50Z</time>
      </trkpt>
      <trkpt lat="43.50468" lon="2.40919">
        <ele>261.62</ele>
        <time>2020-10-18T07:20:59Z</time>
      </trkpt>
      <trkpt lat="43.50463" lon="2.40912">
        <ele>262.58</ele>
        <time>2020-10-18T07:21:08Z</time>
      </trkpt>
      <trkpt lat="43.5046" lon="2.40905">
        <ele>262.1</ele>
        <time>2020-10-18T07:21:14Z</time>
      </trkpt>
      <trkpt lat="43.50456" lon="2.40901">
        <ele>262.1</ele>
        <time>2020-10-18T07:21:21Z</time>
      </trkpt>
      <trkpt lat="43.50454" lon="2.40902">
        <ele>262.58</ele>
        <time>2020-10-18T07:21:24Z</time>
      </trkpt>
      <trkpt lat="43.50441" lon="2.40905">
        <ele>262.58</ele>
        <time>2020-10-18T07:21:36Z</time>
      </trkpt>
      <trkpt lat="43.50439" lon="2.40905">
        <ele>262.58</ele>
        <time>2020-10-18T07:21:38Z</time>
      </trkpt>
      <trkpt lat="43.50435" lon="2.40901">
        <ele>264.02</ele>
        <time>2020-10-18T07:21:42Z</time>
      </trkpt>
      <trkpt lat="43.5043" lon="2.40899">
        <ele>264.98</ele>
        <time>2020-10-18T07:21:46Z</time>
      </trkpt>
      <trkpt lat="43.50426" lon="2.40885">
        <ele>270.75</ele>
        <time>2020-10-18T07:21:55Z</time>
      </trkpt>
      <trkpt lat="43.50426" lon="2.40881">
        <ele>271.23</ele>
        <time>2020-10-18T07:21:58Z</time>
      </trkpt>
      <trkpt lat="43.50426" lon="2.40868">
        <ele>267.86</ele>
        <time>2020-10-18T07:22:08Z</time>
      </trkpt>
      <trkpt lat="43.50425" lon="2.40853">
        <ele>266.42</ele>
        <time>2020-10-18T07:22:18Z</time>
      </trkpt>
      <trkpt lat="43.50421" lon="2.40839">
        <ele>265.94</ele>
        <time>2020-10-18T07:22:28Z</time>
      </trkpt>
      <trkpt lat="43.50418" lon="2.40832">
        <ele>267.38</ele>
        <time>2020-10-18T07:22:34Z</time>
      </trkpt>
      <trkpt lat="43.50415" lon="2.40826">
        <ele>268.35</ele>
        <time>2020-10-18T07:22:38Z</time>
      </trkpt>
      <trkpt lat="43.50404" lon="2.40824">
        <ele>271.23</ele>
        <time>2020-10-18T07:22:47Z</time>
      </trkpt>
      <trkpt lat="43.50401" lon="2.40824">
        <ele>272.67</ele>
        <time>2020-10-18T07:22:50Z</time>
      </trkpt>
      <trkpt lat="43.50397" lon="2.40825">
        <ele>273.15</ele>
        <time>2020-10-18T07:22:54Z</time>
      </trkpt>
      <trkpt lat="43.50389" lon="2.40833">
        <ele>271.71</ele>
        <time>2020-10-18T07:23:04Z</time>
      </trkpt>
      <trkpt lat="43.50384" lon="2.40838">
        <ele>274.59</ele>
        <time>2020-10-18T07:23:11Z</time>
      </trkpt>
      <trkpt lat="43.50381" lon="2.40843">
        <ele>287.57</ele>
        <time>2020-10-18T07:23:19Z</time>
      </trkpt>
      <trkpt lat="43.5038" lon="2.40843">
        <ele>287.57</ele>
        <time>2020-10-18T07:23:20Z</time>
      </trkpt>
      <trkpt lat="43.50371" lon="2.40851">
        <ele>278.92</ele>
        <time>2020-10-18T07:23:28Z</time>
      </trkpt>
      <trkpt lat="43.5036" lon="2.40851">
        <ele>268.83</ele>
        <time>2020-10-18T07:23:36Z</time>
      </trkpt>
      <trkpt lat="43.50356" lon="2.40849">
        <ele>265.94</ele>
        <time>2020-10-18T07:23:46Z</time>
      </trkpt>
      <trkpt lat="43.50354" lon="2.40848">
        <ele>264.98</ele>
        <time>2020-10-18T07:23:48Z</time>
      </trkpt>
      <trkpt lat="43.50352" lon="2.40852">
        <ele>263.06</ele>
        <time>2020-10-18T07:23:52Z</time>
      </trkpt>
      <trkpt lat="43.50346" lon="2.40855">
        <ele>262.58</ele>
        <time>2020-10-18T07:23:57Z</time>
      </trkpt>
      <trkpt lat="43.50342" lon="2.40869">
        <ele>260.65</ele>
        <time>2020-10-18T07:24:05Z</time>
      </trkpt>
      <trkpt lat="43.5034" lon="2.40891">
        <ele>260.17</ele>
        <time>2020-10-18T07:24:16Z</time>
      </trkpt>
      <trkpt lat="43.50339" lon="2.40908">
        <ele>259.69</ele>
        <time>2020-10-18T07:24:24Z</time>
      </trkpt>
      <trkpt lat="43.50339" lon="2.40909">
        <ele>260.65</ele>
        <time>2020-10-18T07:24:25Z</time>
      </trkpt>
      <trkpt lat="43.5034" lon="2.40934">
        <ele>262.58</ele>
        <time>2020-10-18T07:24:36Z</time>
      </trkpt>
      <trkpt lat="43.50341" lon="2.40953">
        <ele>257.29</ele>
        <time>2020-10-18T07:24:45Z</time>
      </trkpt>
      <trkpt lat="43.50338" lon="2.40967">
        <ele>257.29</ele>
        <time>2020-10-18T07:24:53Z</time>
      </trkpt>
      <trkpt lat="43.50335" lon="2.40983">
        <ele>258.25</ele>
        <time>2020-10-18T07:25:02Z</time>
      </trkpt>
      <trkpt lat="43.50335" lon="2.40992">
        <ele>258.25</ele>
        <time>2020-10-18T07:25:10Z</time>
      </trkpt>
      <trkpt lat="43.50335" lon="2.41001">
        <ele>257.77</ele>
        <time>2020-10-18T07:25:17Z</time>
      </trkpt>
      <trkpt lat="43.50336" lon="2.41011">
        <ele>259.21</ele>
        <time>2020-10-18T07:25:25Z</time>
      </trkpt>
      <trkpt lat="43.50339" lon="2.4102">
        <ele>260.65</ele>
        <time>2020-10-18T07:25:33Z</time>
      </trkpt>
      <trkpt lat="43.50341" lon="2.41028">
        <ele>262.1</ele>
        <time>2020-10-18T07:25:41Z</time>
      </trkpt>
      <trkpt lat="43.50343" lon="2.41039">
        <ele>262.58</ele>
        <time>2020-10-18T07:25:50Z</time>
      </trkpt>
      <trkpt lat="43.50343" lon="2.41047">
        <ele>263.54</ele>
        <time>2020-10-18T07:25:57Z</time>
      </trkpt>
      <trkpt lat="43.50344" lon="2.41055">
        <ele>264.5</ele>
        <time>2020-10-18T07:26:04Z</time>
      </trkpt>
      <trkpt lat="43.50345" lon="2.41067">
        <ele>266.42</ele>
        <time>2020-10-18T07:26:12Z</time>
      </trkpt>
      <trkpt lat="43.50346" lon="2.41077">
        <ele>268.35</ele>
        <time>2020-10-18T07:26:20Z</time>
      </trkpt>
      <trkpt lat="43.50346" lon="2.41084">
        <ele>269.79</ele>
        <time>2020-10-18T07:26:28Z</time>
      </trkpt>
      <trkpt lat="43.50346" lon="2.41091">
        <ele>271.71</ele>
        <time>2020-10-18T07:26:36Z</time>
      </trkpt>
      <trkpt lat="43.50347" lon="2.41099">
        <ele>274.11</ele>
        <time>2020-10-18T07:26:43Z</time>
      </trkpt>
      <trkpt lat="43.50346" lon="2.41106">
        <ele>275.56</ele>
        <time>2020-10-18T07:26:50Z</time>
      </trkpt>
      <trkpt lat="43.50345" lon="2.41115">
        <ele>277.48</ele>
        <time>2020-10-18T07:26:58Z</time>
      </trkpt>
      <trkpt lat="43.50344" lon="2.41124">
        <ele>279.88</ele>
        <time>2020-10-18T07:27:05Z</time>
      </trkpt>
      <trkpt lat="43.50345" lon="2.41134">
        <ele>281.8</ele>
        <time>2020-10-18T07:27:13Z</time>
      </trkpt>
      <trkpt lat="43.50345" lon="2.41145">
        <ele>285.17</ele>
        <time>2020-10-18T07:27:21Z</time>
      </trkpt>
      <trkpt lat="43.50344" lon="2.41153">
        <ele>286.61</ele>
        <time>2020-10-18T07:27:27Z</time>
      </trkpt>
      <trkpt lat="43.50345" lon="2.41159">
        <ele>287.57</ele>
        <time>2020-10-18T07:27:33Z</time>
      </trkpt>
      <trkpt lat="43.50346" lon="2.41166">
        <ele>289.01</ele>
        <time>2020-10-18T07:27:40Z</time>
      </trkpt>
      <trkpt lat="43.50345" lon="2.4117">
        <ele>289.49</ele>
        <time>2020-10-18T07:27:47Z</time>
      </trkpt>
      <trkpt lat="43.50345" lon="2.41178">
        <ele>289.49</ele>
        <time>2020-10-18T07:27:54Z</time>
      </trkpt>
      <trkpt lat="43.50344" lon="2.41189">
        <ele>292.38</ele>
        <time>2020-10-18T07:28:04Z</time>
      </trkpt>
      <trkpt lat="43.50345" lon="2.41193">
        <ele>292.86</ele>
        <time>2020-10-18T07:28:12Z</time>
      </trkpt>
      <trkpt lat="43.50345" lon="2.41196">
        <ele>291.9</ele>
        <time>2020-10-18T07:28:23Z</time>
      </trkpt>
      <trkpt lat="43.50343" lon="2.41196">
        <ele>292.86</ele>
        <time>2020-10-18T07:28:27Z</time>
      </trkpt>
      <trkpt lat="43.50341" lon="2.41203">
        <ele>296.7</ele>
        <time>2020-10-18T07:28:34Z</time>
      </trkpt>
      <trkpt lat="43.5034" lon="2.41207">
        <ele>296.22</ele>
        <time>2020-10-18T07:28:40Z</time>
      </trkpt>
      <trkpt lat="43.50339" lon="2.41214">
        <ele>297.67</ele>
        <time>2020-10-18T07:28:47Z</time>
      </trkpt>
      <trkpt lat="43.50336" lon="2.41222">
        <ele>300.07</ele>
        <time>2020-10-18T07:28:55Z</time>
      </trkpt>
      <trkpt lat="43.50334" lon="2.41229">
        <ele>301.99</ele>
        <time>2020-10-18T07:29:01Z</time>
      </trkpt>
      <trkpt lat="43.50332" lon="2.41237">
        <ele>305.84</ele>
        <time>2020-10-18T07:29:08Z</time>
      </trkpt>
      <trkpt lat="43.5033" lon="2.41245">
        <ele>307.28</ele>
        <time>2020-10-18T07:29:15Z</time>
      </trkpt>
      <trkpt lat="43.50329" lon="2.41254">
        <ele>307.76</ele>
        <time>2020-10-18T07:29:21Z</time>
      </trkpt>
      <trkpt lat="43.50324" lon="2.41267">
        <ele>306.32</ele>
        <time>2020-10-18T07:29:31Z</time>
      </trkpt>
      <trkpt lat="43.50319" lon="2.41275">
        <ele>305.36</ele>
        <time>2020-10-18T07:29:38Z</time>
      </trkpt>
      <trkpt lat="43.50317" lon="2.41278">
        <ele>305.84</ele>
        <time>2020-10-18T07:29:44Z</time>
      </trkpt>
      <trkpt lat="43.50312" lon="2.4129">
        <ele>305.84</ele>
        <time>2020-10-18T07:29:54Z</time>
      </trkpt>
      <trkpt lat="43.5031" lon="2.41298">
        <ele>305.36</ele>
        <time>2020-10-18T07:30:01Z</time>
      </trkpt>
      <trkpt lat="43.5031" lon="2.41298">
        <ele>306.32</ele>
        <time>2020-10-18T07:30:06Z</time>
      </trkpt>
      <trkpt lat="43.5031" lon="2.41301">
        <ele>306.8</ele>
        <time>2020-10-18T07:30:08Z</time>
      </trkpt>
      <trkpt lat="43.50309" lon="2.41311">
        <ele>309.2</ele>
        <time>2020-10-18T07:30:16Z</time>
      </trkpt>
      <trkpt lat="43.50307" lon="2.41324">
        <ele>309.68</ele>
        <time>2020-10-18T07:30:26Z</time>
      </trkpt>
      <trkpt lat="43.50307" lon="2.41339">
        <ele>312.09</ele>
        <time>2020-10-18T07:30:36Z</time>
      </trkpt>
      <trkpt lat="43.50306" lon="2.41348">
        <ele>314.49</ele>
        <time>2020-10-18T07:30:44Z</time>
      </trkpt>
      <trkpt lat="43.50305" lon="2.41356">
        <ele>314.97</ele>
        <time>2020-10-18T07:30:50Z</time>
      </trkpt>
      <trkpt lat="43.50302" lon="2.41363">
        <ele>315.45</ele>
        <time>2020-10-18T07:30:56Z</time>
      </trkpt>
      <trkpt lat="43.50302" lon="2.41368">
        <ele>315.45</ele>
        <time>2020-10-18T07:31:00Z</time>
      </trkpt>
      <trkpt lat="43.50303" lon="2.41374">
        <ele>315.45</ele>
        <time>2020-10-18T07:31:05Z</time>
      </trkpt>
      <trkpt lat="43.50304" lon="2.41378">
        <ele>315.93</ele>
        <time>2020-10-18T07:31:08Z</time>
      </trkpt>
      <trkpt lat="43.50307" lon="2.41384">
        <ele>315.93</ele>
        <time>2020-10-18T07:31:15Z</time>
      </trkpt>
      <trkpt lat="43.50312" lon="2.41392">
        <ele>316.89</ele>
        <time>2020-10-18T07:31:23Z</time>
      </trkpt>
      <trkpt lat="43.50312" lon="2.41392">
        <ele>316.89</ele>
        <time>2020-10-18T07:31:24Z</time>
      </trkpt>
      <trkpt lat="43.50315" lon="2.4139">
        <ele>316.41</ele>
        <time>2020-10-18T07:31:27Z</time>
      </trkpt>
      <trkpt lat="43.50325" lon="2.41395">
        <ele>316.89</ele>
        <time>2020-10-18T07:31:37Z</time>
      </trkpt>
      <trkpt lat="43.50329" lon="2.41408">
        <ele>317.37</ele>
        <time>2020-10-18T07:31:46Z</time>
      </trkpt>
      <trkpt lat="43.50331" lon="2.41415">
        <ele>318.33</ele>
        <time>2020-10-18T07:31:52Z</time>
      </trkpt>
      <trkpt lat="43.50332" lon="2.41423">
        <ele>317.85</ele>
        <time>2020-10-18T07:31:56Z</time>
      </trkpt>
      <trkpt lat="43.50332" lon="2.41434">
        <ele>316.89</ele>
        <time>2020-10-18T07:32:02Z</time>
      </trkpt>
      <trkpt lat="43.50333" lon="2.41437">
        <ele>317.37</ele>
        <time>2020-10-18T07:32:04Z</time>
      </trkpt>
      <trkpt lat="43.50342" lon="2.41449">
        <ele>318.81</ele>
        <time>2020-10-18T07:32:14Z</time>
      </trkpt>
      <trkpt lat="43.50345" lon="2.41451">
        <ele>320.26</ele>
        <time>2020-10-18T07:32:19Z</time>
      </trkpt>
      <trkpt lat="43.50353" lon="2.41459">
        <ele>323.62</ele>
        <time>2020-10-18T07:32:27Z</time>
      </trkpt>
      <trkpt lat="43.50361" lon="2.41468">
        <ele>324.1</ele>
        <time>2020-10-18T07:32:35Z</time>
      </trkpt>
      <trkpt lat="43.50365" lon="2.41476">
        <ele>323.62</ele>
        <time>2020-10-18T07:32:41Z</time>
      </trkpt>
      <trkpt lat="43.50369" lon="2.41489">
        <ele>324.1</ele>
        <time>2020-10-18T07:32:50Z</time>
      </trkpt>
      <trkpt lat="43.50368" lon="2.41491">
        <ele>323.14</ele>
        <time>2020-10-18T07:32:59Z</time>
      </trkpt>
      <trkpt lat="43.50368" lon="2.41494">
        <ele>323.14</ele>
        <time>2020-10-18T07:33:03Z</time>
      </trkpt>
      <trkpt lat="43.50369" lon="2.41504">
        <ele>324.58</ele>
        <time>2020-10-18T07:33:11Z</time>
      </trkpt>
      <trkpt lat="43.50367" lon="2.41505">
        <ele>325.54</ele>
        <time>2020-10-18T07:33:20Z</time>
      </trkpt>
      <trkpt lat="43.50367" lon="2.41506">
        <ele>325.06</ele>
        <time>2020-10-18T07:33:25Z</time>
      </trkpt>
      <trkpt lat="43.50365" lon="2.41512">
        <ele>323.14</ele>
        <time>2020-10-18T07:33:29Z</time>
      </trkpt>
      <trkpt lat="43.50366" lon="2.41518">
        <ele>324.58</ele>
        <time>2020-10-18T07:33:34Z</time>
      </trkpt>
      <trkpt lat="43.50371" lon="2.41533">
        <ele>327.47</ele>
        <time>2020-10-18T07:33:42Z</time>
      </trkpt>
      <trkpt lat="43.50378" lon="2.41551">
        <ele>326.99</ele>
        <time>2020-10-18T07:33:52Z</time>
      </trkpt>
      <trkpt lat="43.5038" lon="2.41556">
        <ele>324.1</ele>
        <time>2020-10-18T07:34:00Z</time>
      </trkpt>
      <trkpt lat="43.50383" lon="2.41564">
        <ele>321.7</ele>
        <time>2020-10-18T07:34:09Z</time>
      </trkpt>
      <trkpt lat="43.50384" lon="2.41582">
        <ele>322.18</ele>
        <time>2020-10-18T07:34:16Z</time>
      </trkpt>
      <trkpt lat="43.50384" lon="2.41584">
        <ele>322.18</ele>
        <time>2020-10-18T07:34:17Z</time>
      </trkpt>
      <trkpt lat="43.50388" lon="2.41594">
        <ele>321.7</ele>
        <time>2020-10-18T07:34:22Z</time>
      </trkpt>
      <trkpt lat="43.50394" lon="2.41611">
        <ele>322.66</ele>
        <time>2020-10-18T07:34:31Z</time>
      </trkpt>
      <trkpt lat="43.50395" lon="2.41615">
        <ele>322.18</ele>
        <time>2020-10-18T07:34:33Z</time>
      </trkpt>
      <trkpt lat="43.50397" lon="2.41622">
        <ele>322.18</ele>
        <time>2020-10-18T07:34:37Z</time>
      </trkpt>
      <trkpt lat="43.50404" lon="2.41638">
        <ele>323.62</ele>
        <time>2020-10-18T07:34:45Z</time>
      </trkpt>
      <trkpt lat="43.5041" lon="2.41648">
        <ele>323.62</ele>
        <time>2020-10-18T07:34:51Z</time>
      </trkpt>
      <trkpt lat="43.50417" lon="2.41658">
        <ele>322.18</ele>
        <time>2020-10-18T07:34:58Z</time>
      </trkpt>
      <trkpt lat="43.50426" lon="2.41662">
        <ele>324.1</ele>
        <time>2020-10-18T07:35:06Z</time>
      </trkpt>
      <trkpt lat="43.50437" lon="2.41662">
        <ele>324.1</ele>
        <time>2020-10-18T07:35:15Z</time>
      </trkpt>
      <trkpt lat="43.50444" lon="2.4167">
        <ele>323.62</ele>
        <time>2020-10-18T07:35:25Z</time>
      </trkpt>
      <trkpt lat="43.50446" lon="2.4167">
        <ele>322.66</ele>
        <time>2020-10-18T07:35:32Z</time>
      </trkpt>
      <trkpt lat="43.50449" lon="2.41687">
        <ele>321.7</ele>
        <time>2020-10-18T07:35:41Z</time>
      </trkpt>
      <trkpt lat="43.50452" lon="2.41698">
        <ele>320.74</ele>
        <time>2020-10-18T07:35:48Z</time>
      </trkpt>
      <trkpt lat="43.50457" lon="2.41702">
        <ele>324.58</ele>
        <time>2020-10-18T07:35:55Z</time>
      </trkpt>
      <trkpt lat="43.50462" lon="2.41706">
        <ele>327.95</ele>
        <time>2020-10-18T07:36:00Z</time>
      </trkpt>
      <trkpt lat="43.50473" lon="2.41722">
        <ele>328.43</ele>
        <time>2020-10-18T07:36:10Z</time>
      </trkpt>
      <trkpt lat="43.50482" lon="2.41736">
        <ele>327.95</ele>
        <time>2020-10-18T07:36:18Z</time>
      </trkpt>
      <trkpt lat="43.50483" lon="2.41737">
        <ele>327.95</ele>
        <time>2020-10-18T07:36:19Z</time>
      </trkpt>
      <trkpt lat="43.50492" lon="2.4175">
        <ele>329.87</ele>
        <time>2020-10-18T07:36:30Z</time>
      </trkpt>
      <trkpt lat="43.50501" lon="2.41758">
        <ele>328.91</ele>
        <time>2020-10-18T07:36:39Z</time>
      </trkpt>
      <trkpt lat="43.50508" lon="2.41764">
        <ele>328.91</ele>
        <time>2020-10-18T07:36:46Z</time>
      </trkpt>
      <trkpt lat="43.50515" lon="2.41772">
        <ele>329.39</ele>
        <time>2020-10-18T07:36:54Z</time>
      </trkpt>
      <trkpt lat="43.50523" lon="2.41777">
        <ele>328.91</ele>
        <time>2020-10-18T07:37:01Z</time>
      </trkpt>
      <trkpt lat="43.50529" lon="2.41783">
        <ele>328.91</ele>
        <time>2020-10-18T07:37:07Z</time>
      </trkpt>
      <trkpt lat="43.50538" lon="2.41792">
        <ele>329.87</ele>
        <time>2020-10-18T07:37:15Z</time>
      </trkpt>
      <trkpt lat="43.50543" lon="2.41794">
        <ele>329.39</ele>
        <time>2020-10-18T07:37:18Z</time>
      </trkpt>
      <trkpt lat="43.50553" lon="2.41799">
        <ele>325.54</ele>
        <time>2020-10-18T07:37:25Z</time>
      </trkpt>
      <trkpt lat="43.5056" lon="2.41806">
        <ele>323.62</ele>
        <time>2020-10-18T07:37:32Z</time>
      </trkpt>
      <trkpt lat="43.50564" lon="2.41821">
        <ele>320.74</ele>
        <time>2020-10-18T07:37:42Z</time>
      </trkpt>
      <trkpt lat="43.50565" lon="2.41822">
        <ele>320.74</ele>
        <time>2020-10-18T07:37:43Z</time>
      </trkpt>
      <trkpt lat="43.5057" lon="2.41832">
        <ele>318.33</ele>
        <time>2020-10-18T07:37:49Z</time>
      </trkpt>
      <trkpt lat="43.50575" lon="2.41842">
        <ele>316.41</ele>
        <time>2020-10-18T07:37:55Z</time>
      </trkpt>
      <trkpt lat="43.50585" lon="2.41845">
        <ele>316.41</ele>
        <time>2020-10-18T07:38:03Z</time>
      </trkpt>
      <trkpt lat="43.50592" lon="2.41848">
        <ele>317.85</ele>
        <time>2020-10-18T07:38:10Z</time>
      </trkpt>
      <trkpt lat="43.50595" lon="2.41848">
        <ele>318.33</ele>
        <time>2020-10-18T07:38:12Z</time>
      </trkpt>
      <trkpt lat="43.50605" lon="2.41854">
        <ele>318.81</ele>
        <time>2020-10-18T07:38:20Z</time>
      </trkpt>
      <trkpt lat="43.50616" lon="2.41867">
        <ele>317.85</ele>
        <time>2020-10-18T07:38:31Z</time>
      </trkpt>
      <trkpt lat="43.50624" lon="2.4188">
        <ele>318.81</ele>
        <time>2020-10-18T07:38:40Z</time>
      </trkpt>
      <trkpt lat="43.5063" lon="2.41894">
        <ele>316.89</ele>
        <time>2020-10-18T07:38:48Z</time>
      </trkpt>
      <trkpt lat="43.50636" lon="2.41909">
        <ele>316.41</ele>
        <time>2020-10-18T07:38:56Z</time>
      </trkpt>
      <trkpt lat="43.50637" lon="2.4191">
        <ele>316.41</ele>
        <time>2020-10-18T07:38:57Z</time>
      </trkpt>
      <trkpt lat="43.50643" lon="2.41921">
        <ele>317.37</ele>
        <time>2020-10-18T07:39:05Z</time>
      </trkpt>
      <trkpt lat="43.50645" lon="2.41923">
        <ele>317.37</ele>
        <time>2020-10-18T07:39:07Z</time>
      </trkpt>
      <trkpt lat="43.50657" lon="2.41936">
        <ele>314.97</ele>
        <time>2020-10-18T07:39:19Z</time>
      </trkpt>
      <trkpt lat="43.50667" lon="2.41945">
        <ele>314.97</ele>
        <time>2020-10-18T07:39:27Z</time>
      </trkpt>
      <trkpt lat="43.5067" lon="2.41947">
        <ele>315.45</ele>
        <time>2020-10-18T07:39:30Z</time>
      </trkpt>
      <trkpt lat="43.50681" lon="2.41956">
        <ele>314.97</ele>
        <time>2020-10-18T07:39:39Z</time>
      </trkpt>
      <trkpt lat="43.50691" lon="2.4197">
        <ele>314.97</ele>
        <time>2020-10-18T07:39:50Z</time>
      </trkpt>
      <trkpt lat="43.50697" lon="2.4198">
        <ele>313.05</ele>
        <time>2020-10-18T07:39:58Z</time>
      </trkpt>
      <trkpt lat="43.50703" lon="2.41989">
        <ele>314.01</ele>
        <time>2020-10-18T07:40:06Z</time>
      </trkpt>
      <trkpt lat="43.50704" lon="2.41992">
        <ele>315.93</ele>
        <time>2020-10-18T07:40:13Z</time>
      </trkpt>
      <trkpt lat="43.50705" lon="2.41991">
        <ele>317.37</ele>
        <time>2020-10-18T07:40:24Z</time>
      </trkpt>
      <trkpt lat="43.50705" lon="2.41992">
        <ele>316.89</ele>
        <time>2020-10-18T07:40:34Z</time>
      </trkpt>
      <trkpt lat="43.50708" lon="2.41999">
        <ele>317.85</ele>
        <time>2020-10-18T07:40:43Z</time>
      </trkpt>
      <trkpt lat="43.50715" lon="2.42006">
        <ele>321.22</ele>
        <time>2020-10-18T07:40:53Z</time>
      </trkpt>
      <trkpt lat="43.50721" lon="2.42014">
        <ele>325.06</ele>
        <time>2020-10-18T07:41:02Z</time>
      </trkpt>
      <trkpt lat="43.50728" lon="2.42019">
        <ele>326.99</ele>
        <time>2020-10-18T07:41:10Z</time>
      </trkpt>
      <trkpt lat="43.50731" lon="2.42026">
        <ele>328.43</ele>
        <time>2020-10-18T07:41:17Z</time>
      </trkpt>
      <trkpt lat="43.50735" lon="2.42037">
        <ele>332.27</ele>
        <time>2020-10-18T07:41:25Z</time>
      </trkpt>
      <trkpt lat="43.50738" lon="2.42046">
        <ele>336.6</ele>
        <time>2020-10-18T07:41:32Z</time>
      </trkpt>
      <trkpt lat="43.50742" lon="2.42057">
        <ele>342.85</ele>
        <time>2020-10-18T07:41:40Z</time>
      </trkpt>
      <trkpt lat="43.50743" lon="2.42061">
        <ele>345.73</ele>
        <time>2020-10-18T07:41:46Z</time>
      </trkpt>
      <trkpt lat="43.50747" lon="2.4207">
        <ele>350.06</ele>
        <time>2020-10-18T07:41:54Z</time>
      </trkpt>
      <trkpt lat="43.50752" lon="2.42079">
        <ele>351.5</ele>
        <time>2020-10-18T07:42:02Z</time>
      </trkpt>
      <trkpt lat="43.50756" lon="2.4209">
        <ele>350.54</ele>
        <time>2020-10-18T07:42:10Z</time>
      </trkpt>
      <trkpt lat="43.50762" lon="2.42096">
        <ele>349.1</ele>
        <time>2020-10-18T07:42:17Z</time>
      </trkpt>
      <trkpt lat="43.50768" lon="2.42102">
        <ele>347.17</ele>
        <time>2020-10-18T07:42:26Z</time>
      </trkpt>
      <trkpt lat="43.5077" lon="2.42102">
        <ele>343.33</ele>
        <time>2020-10-18T07:42:31Z</time>
      </trkpt>
      <trkpt lat="43.50773" lon="2.42107">
        <ele>339.48</ele>
        <time>2020-10-18T07:42:39Z</time>
      </trkpt>
      <trkpt lat="43.50775" lon="2.42117">
        <ele>336.6</ele>
        <time>2020-10-18T07:42:48Z</time>
      </trkpt>
      <trkpt lat="43.5078" lon="2.4213">
        <ele>335.64</ele>
        <time>2020-10-18T07:42:57Z</time>
      </trkpt>
      <trkpt lat="43.50781" lon="2.42132">
        <ele>335.64</ele>
        <time>2020-10-18T07:42:59Z</time>
      </trkpt>
      <trkpt lat="43.50784" lon="2.42147">
        <ele>334.2</ele>
        <time>2020-10-18T07:43:08Z</time>
      </trkpt>
      <trkpt lat="43.50786" lon="2.42157">
        <ele>333.71</ele>
        <time>2020-10-18T07:43:15Z</time>
      </trkpt>
      <trkpt lat="43.50791" lon="2.42164">
        <ele>334.2</ele>
        <time>2020-10-18T07:43:22Z</time>
      </trkpt>
      <trkpt lat="43.50797" lon="2.42174">
        <ele>334.68</ele>
        <time>2020-10-18T07:43:30Z</time>
      </trkpt>
      <trkpt lat="43.50799" lon="2.4218">
        <ele>334.68</ele>
        <time>2020-10-18T07:43:34Z</time>
      </trkpt>
      <trkpt lat="43.50808" lon="2.42193">
        <ele>338.52</ele>
        <time>2020-10-18T07:43:45Z</time>
      </trkpt>
      <trkpt lat="43.5081" lon="2.42194">
        <ele>339</ele>
        <time>2020-10-18T07:43:47Z</time>
      </trkpt>
      <trkpt lat="43.50815" lon="2.42206">
        <ele>340.92</ele>
        <time>2020-10-18T07:43:56Z</time>
      </trkpt>
      <trkpt lat="43.50817" lon="2.42215">
        <ele>340.92</ele>
        <time>2020-10-18T07:44:03Z</time>
      </trkpt>
      <trkpt lat="43.5082" lon="2.42231">
        <ele>339.96</ele>
        <time>2020-10-18T07:44:13Z</time>
      </trkpt>
      <trkpt lat="43.5082" lon="2.42233">
        <ele>339.96</ele>
        <time>2020-10-18T07:44:15Z</time>
      </trkpt>
      <trkpt lat="43.50824" lon="2.4225">
        <ele>338.52</ele>
        <time>2020-10-18T07:44:25Z</time>
      </trkpt>
      <trkpt lat="43.5083" lon="2.42259">
        <ele>339</ele>
        <time>2020-10-18T07:44:33Z</time>
      </trkpt>
      <trkpt lat="43.50834" lon="2.42266">
        <ele>340.92</ele>
        <time>2020-10-18T07:44:40Z</time>
      </trkpt>
      <trkpt lat="43.50836" lon="2.4227">
        <ele>341.41</ele>
        <time>2020-10-18T07:44:47Z</time>
      </trkpt>
      <trkpt lat="43.5084" lon="2.42277">
        <ele>339.96</ele>
        <time>2020-10-18T07:44:53Z</time>
      </trkpt>
      <trkpt lat="43.50843" lon="2.42286">
        <ele>339.48</ele>
        <time>2020-10-18T07:45:00Z</time>
      </trkpt>
      <trkpt lat="43.50848" lon="2.42294">
        <ele>339.48</ele>
        <time>2020-10-18T07:45:07Z</time>
      </trkpt>
      <trkpt lat="43.50854" lon="2.42307">
        <ele>340.44</ele>
        <time>2020-10-18T07:45:17Z</time>
      </trkpt>
      <trkpt lat="43.50858" lon="2.42318">
        <ele>339.96</ele>
        <time>2020-10-18T07:45:25Z</time>
      </trkpt>
      <trkpt lat="43.5086" lon="2.42326">
        <ele>339.96</ele>
        <time>2020-10-18T07:45:31Z</time>
      </trkpt>
      <trkpt lat="43.50862" lon="2.4234">
        <ele>338.04</ele>
        <time>2020-10-18T07:45:40Z</time>
      </trkpt>
      <trkpt lat="43.50863" lon="2.42349">
        <ele>338.52</ele>
        <time>2020-10-18T07:45:46Z</time>
      </trkpt>
      <trkpt lat="43.50866" lon="2.42364">
        <ele>338.04</ele>
        <time>2020-10-18T07:45:54Z</time>
      </trkpt>
      <trkpt lat="43.50869" lon="2.42379">
        <ele>338.04</ele>
        <time>2020-10-18T07:46:03Z</time>
      </trkpt>
      <trkpt lat="43.50872" lon="2.4239">
        <ele>338.04</ele>
        <time>2020-10-18T07:46:11Z</time>
      </trkpt>
      <trkpt lat="43.50877" lon="2.42406">
        <ele>339</ele>
        <time>2020-10-18T07:46:20Z</time>
      </trkpt>
      <trkpt lat="43.50884" lon="2.42419">
        <ele>341.41</ele>
        <time>2020-10-18T07:46:29Z</time>
      </trkpt>
      <trkpt lat="43.50886" lon="2.42424">
        <ele>343.33</ele>
        <time>2020-10-18T07:46:33Z</time>
      </trkpt>
      <trkpt lat="43.50893" lon="2.42436">
        <ele>345.73</ele>
        <time>2020-10-18T07:46:43Z</time>
      </trkpt>
      <trkpt lat="43.50901" lon="2.42446">
        <ele>343.81</ele>
        <time>2020-10-18T07:46:53Z</time>
      </trkpt>
      <trkpt lat="43.50906" lon="2.42456">
        <ele>342.85</ele>
        <time>2020-10-18T07:47:01Z</time>
      </trkpt>
      <trkpt lat="43.5091" lon="2.42463">
        <ele>342.37</ele>
        <time>2020-10-18T07:47:06Z</time>
      </trkpt>
      <trkpt lat="43.50918" lon="2.42475">
        <ele>339.48</ele>
        <time>2020-10-18T07:47:13Z</time>
      </trkpt>
      <trkpt lat="43.50928" lon="2.42497">
        <ele>332.27</ele>
        <time>2020-10-18T07:47:24Z</time>
      </trkpt>
      <trkpt lat="43.50927" lon="2.42503">
        <ele>326.99</ele>
        <time>2020-10-18T07:47:33Z</time>
      </trkpt>
      <trkpt lat="43.50926" lon="2.42502">
        <ele>325.06</ele>
        <time>2020-10-18T07:47:41Z</time>
      </trkpt>
      <trkpt lat="43.50922" lon="2.42502">
        <ele>324.1</ele>
        <time>2020-10-18T07:47:45Z</time>
      </trkpt>
      <trkpt lat="43.50921" lon="2.42505">
        <ele>323.62</ele>
        <time>2020-10-18T07:47:47Z</time>
      </trkpt>
      <trkpt lat="43.50921" lon="2.42518">
        <ele>323.14</ele>
        <time>2020-10-18T07:47:55Z</time>
      </trkpt>
      <trkpt lat="43.50923" lon="2.42529">
        <ele>324.1</ele>
        <time>2020-10-18T07:48:02Z</time>
      </trkpt>
      <trkpt lat="43.50926" lon="2.4254">
        <ele>328.43</ele>
        <time>2020-10-18T07:48:09Z</time>
      </trkpt>
      <trkpt lat="43.5093" lon="2.4256">
        <ele>330.83</ele>
        <time>2020-10-18T07:48:20Z</time>
      </trkpt>
      <trkpt lat="43.50931" lon="2.42563">
        <ele>330.83</ele>
        <time>2020-10-18T07:48:22Z</time>
      </trkpt>
      <trkpt lat="43.50932" lon="2.42569">
        <ele>330.83</ele>
        <time>2020-10-18T07:48:25Z</time>
      </trkpt>
      <trkpt lat="43.5093" lon="2.42576">
        <ele>329.87</ele>
        <time>2020-10-18T07:48:29Z</time>
      </trkpt>
      <trkpt lat="43.5093" lon="2.42592">
        <ele>331.31</ele>
        <time>2020-10-18T07:48:39Z</time>
      </trkpt>
      <trkpt lat="43.50934" lon="2.42604">
        <ele>332.75</ele>
        <time>2020-10-18T07:48:47Z</time>
      </trkpt>
      <trkpt lat="43.5094" lon="2.42619">
        <ele>335.64</ele>
        <time>2020-10-18T07:48:56Z</time>
      </trkpt>
      <trkpt lat="43.50944" lon="2.42633">
        <ele>336.6</ele>
        <time>2020-10-18T07:49:05Z</time>
      </trkpt>
      <trkpt lat="43.50944" lon="2.42644">
        <ele>336.12</ele>
        <time>2020-10-18T07:49:13Z</time>
      </trkpt>
      <trkpt lat="43.50944" lon="2.42661">
        <ele>335.16</ele>
        <time>2020-10-18T07:49:21Z</time>
      </trkpt>
      <trkpt lat="43.50946" lon="2.4267">
        <ele>337.56</ele>
        <time>2020-10-18T07:49:26Z</time>
      </trkpt>
      <trkpt lat="43.50951" lon="2.42688">
        <ele>342.85</ele>
        <time>2020-10-18T07:49:36Z</time>
      </trkpt>
      <trkpt lat="43.50957" lon="2.42699">
        <ele>345.73</ele>
        <time>2020-10-18T07:49:43Z</time>
      </trkpt>
      <trkpt lat="43.50961" lon="2.42713">
        <ele>348.13</ele>
        <time>2020-10-18T07:49:51Z</time>
      </trkpt>
      <trkpt lat="43.50962" lon="2.4272">
        <ele>348.13</ele>
        <time>2020-10-18T07:49:55Z</time>
      </trkpt>
      <trkpt lat="43.50964" lon="2.42729">
        <ele>347.17</ele>
        <time>2020-10-18T07:50:00Z</time>
      </trkpt>
      <trkpt lat="43.50969" lon="2.42746">
        <ele>344.77</ele>
        <time>2020-10-18T07:50:09Z</time>
      </trkpt>
      <trkpt lat="43.50978" lon="2.42761">
        <ele>345.25</ele>
        <time>2020-10-18T07:50:19Z</time>
      </trkpt>
      <trkpt lat="43.50983" lon="2.42773">
        <ele>344.77</ele>
        <time>2020-10-18T07:50:27Z</time>
      </trkpt>
      <trkpt lat="43.50991" lon="2.42786">
        <ele>346.69</ele>
        <time>2020-10-18T07:50:36Z</time>
      </trkpt>
      <trkpt lat="43.50998" lon="2.42799">
        <ele>344.77</ele>
        <time>2020-10-18T07:50:46Z</time>
      </trkpt>
      <trkpt lat="43.50998" lon="2.42803">
        <ele>344.77</ele>
        <time>2020-10-18T07:50:48Z</time>
      </trkpt>
      <trkpt lat="43.51001" lon="2.42819">
        <ele>345.25</ele>
        <time>2020-10-18T07:50:57Z</time>
      </trkpt>
      <trkpt lat="43.51001" lon="2.42822">
        <ele>346.21</ele>
        <time>2020-10-18T07:50:59Z</time>
      </trkpt>
      <trkpt lat="43.51002" lon="2.42828">
        <ele>347.17</ele>
        <time>2020-10-18T07:51:02Z</time>
      </trkpt>
      <trkpt lat="43.51006" lon="2.42837">
        <ele>349.58</ele>
        <time>2020-10-18T07:51:08Z</time>
      </trkpt>
      <trkpt lat="43.51009" lon="2.42853">
        <ele>354.38</ele>
        <time>2020-10-18T07:51:17Z</time>
      </trkpt>
      <trkpt lat="43.51012" lon="2.42867">
        <ele>359.19</ele>
        <time>2020-10-18T07:51:26Z</time>
      </trkpt>
      <trkpt lat="43.51017" lon="2.42887">
        <ele>360.63</ele>
        <time>2020-10-18T07:51:36Z</time>
      </trkpt>
      <trkpt lat="43.51024" lon="2.42905">
        <ele>362.55</ele>
        <time>2020-10-18T07:51:47Z</time>
      </trkpt>
      <trkpt lat="43.51029" lon="2.42914">
        <ele>364</ele>
        <time>2020-10-18T07:51:54Z</time>
      </trkpt>
      <trkpt lat="43.51033" lon="2.42928">
        <ele>366.88</ele>
        <time>2020-10-18T07:52:02Z</time>
      </trkpt>
      <trkpt lat="43.51038" lon="2.42942">
        <ele>366.4</ele>
        <time>2020-10-18T07:52:10Z</time>
      </trkpt>
      <trkpt lat="43.51038" lon="2.42944">
        <ele>366.4</ele>
        <time>2020-10-18T07:52:11Z</time>
      </trkpt>
      <trkpt lat="43.51044" lon="2.42955">
        <ele>369.28</ele>
        <time>2020-10-18T07:52:20Z</time>
      </trkpt>
      <trkpt lat="43.51047" lon="2.42965">
        <ele>372.17</ele>
        <time>2020-10-18T07:52:27Z</time>
      </trkpt>
      <trkpt lat="43.51048" lon="2.42975">
        <ele>373.61</ele>
        <time>2020-10-18T07:52:32Z</time>
      </trkpt>
      <trkpt lat="43.51053" lon="2.42988">
        <ele>376.01</ele>
        <time>2020-10-18T07:52:40Z</time>
      </trkpt>
      <trkpt lat="43.51054" lon="2.42989">
        <ele>376.49</ele>
        <time>2020-10-18T07:52:41Z</time>
      </trkpt>
      <trkpt lat="43.51057" lon="2.42999">
        <ele>378.9</ele>
        <time>2020-10-18T07:52:47Z</time>
      </trkpt>
      <trkpt lat="43.51061" lon="2.43015">
        <ele>380.82</ele>
        <time>2020-10-18T07:52:56Z</time>
      </trkpt>
      <trkpt lat="43.51063" lon="2.43031">
        <ele>379.38</ele>
        <time>2020-10-18T07:53:04Z</time>
      </trkpt>
      <trkpt lat="43.51067" lon="2.43046">
        <ele>376.01</ele>
        <time>2020-10-18T07:53:12Z</time>
      </trkpt>
      <trkpt lat="43.51067" lon="2.43048">
        <ele>376.01</ele>
        <time>2020-10-18T07:53:13Z</time>
      </trkpt>
      <trkpt lat="43.5107" lon="2.43063">
        <ele>374.57</ele>
        <time>2020-10-18T07:53:22Z</time>
      </trkpt>
      <trkpt lat="43.51071" lon="2.43073">
        <ele>376.01</ele>
        <time>2020-10-18T07:53:28Z</time>
      </trkpt>
      <trkpt lat="43.51071" lon="2.43076">
        <ele>376.49</ele>
        <time>2020-10-18T07:53:30Z</time>
      </trkpt>
      <trkpt lat="43.51072" lon="2.43093">
        <ele>377.94</ele>
        <time>2020-10-18T07:53:40Z</time>
      </trkpt>
      <trkpt lat="43.51077" lon="2.431">
        <ele>376.49</ele>
        <time>2020-10-18T07:53:45Z</time>
      </trkpt>
      <trkpt lat="43.51084" lon="2.43115">
        <ele>374.57</ele>
        <time>2020-10-18T07:53:54Z</time>
      </trkpt>
      <trkpt lat="43.5109" lon="2.43127">
        <ele>374.57</ele>
        <time>2020-10-18T07:54:02Z</time>
      </trkpt>
      <trkpt lat="43.51095" lon="2.4314">
        <ele>375.53</ele>
        <time>2020-10-18T07:54:10Z</time>
      </trkpt>
      <trkpt lat="43.51102" lon="2.43153">
        <ele>375.05</ele>
        <time>2020-10-18T07:54:18Z</time>
      </trkpt>
      <trkpt lat="43.51106" lon="2.43164">
        <ele>369.76</ele>
        <time>2020-10-18T07:54:28Z</time>
      </trkpt>
      <trkpt lat="43.51106" lon="2.43166">
        <ele>368.8</ele>
        <time>2020-10-18T07:54:35Z</time>
      </trkpt>
      <trkpt lat="43.51109" lon="2.4317">
        <ele>361.59</ele>
        <time>2020-10-18T07:54:43Z</time>
      </trkpt>
      <trkpt lat="43.5111" lon="2.43171">
        <ele>360.15</ele>
        <time>2020-10-18T07:54:45Z</time>
      </trkpt>
      <trkpt lat="43.51109" lon="2.43184">
        <ele>358.23</ele>
        <time>2020-10-18T07:54:52Z</time>
      </trkpt>
      <trkpt lat="43.51108" lon="2.43191">
        <ele>360.15</ele>
        <time>2020-10-18T07:54:58Z</time>
      </trkpt>
      <trkpt lat="43.51108" lon="2.43192">
        <ele>360.63</ele>
        <time>2020-10-18T07:54:59Z</time>
      </trkpt>
      <trkpt lat="43.51108" lon="2.43201">
        <ele>362.55</ele>
        <time>2020-10-18T07:55:04Z</time>
      </trkpt>
      <trkpt lat="43.51111" lon="2.43209">
        <ele>366.4</ele>
        <time>2020-10-18T07:55:10Z</time>
      </trkpt>
      <trkpt lat="43.51114" lon="2.43212">
        <ele>368.8</ele>
        <time>2020-10-18T07:55:13Z</time>
      </trkpt>
      <trkpt lat="43.5112" lon="2.4323">
        <ele>375.05</ele>
        <time>2020-10-18T07:55:22Z</time>
      </trkpt>
      <trkpt lat="43.51127" lon="2.43239">
        <ele>378.42</ele>
        <time>2020-10-18T07:55:29Z</time>
      </trkpt>
      <trkpt lat="43.51134" lon="2.4325">
        <ele>381.3</ele>
        <time>2020-10-18T07:55:36Z</time>
      </trkpt>
      <trkpt lat="43.5114" lon="2.43262">
        <ele>383.7</ele>
        <time>2020-10-18T07:55:44Z</time>
      </trkpt>
      <trkpt lat="43.51145" lon="2.43276">
        <ele>383.7</ele>
        <time>2020-10-18T07:55:52Z</time>
      </trkpt>
      <trkpt lat="43.51147" lon="2.43283">
        <ele>383.7</ele>
        <time>2020-10-18T07:55:56Z</time>
      </trkpt>
      <trkpt lat="43.51152" lon="2.43297">
        <ele>384.18</ele>
        <time>2020-10-18T07:56:03Z</time>
      </trkpt>
      <trkpt lat="43.51152" lon="2.43306">
        <ele>384.18</ele>
        <time>2020-10-18T07:56:07Z</time>
      </trkpt>
      <trkpt lat="43.51149" lon="2.43325">
        <ele>384.18</ele>
        <time>2020-10-18T07:56:16Z</time>
      </trkpt>
      <trkpt lat="43.51143" lon="2.43347">
        <ele>385.63</ele>
        <time>2020-10-18T07:56:28Z</time>
      </trkpt>
      <trkpt lat="43.51137" lon="2.43356">
        <ele>384.66</ele>
        <time>2020-10-18T07:56:36Z</time>
      </trkpt>
      <trkpt lat="43.51136" lon="2.43362">
        <ele>377.94</ele>
        <time>2020-10-18T07:56:43Z</time>
      </trkpt>
      <trkpt lat="43.51137" lon="2.43365">
        <ele>370.73</ele>
        <time>2020-10-18T07:56:49Z</time>
      </trkpt>
      <trkpt lat="43.51133" lon="2.43372">
        <ele>366.4</ele>
        <time>2020-10-18T07:56:56Z</time>
      </trkpt>
      <trkpt lat="43.51132" lon="2.43374">
        <ele>365.92</ele>
        <time>2020-10-18T07:57:02Z</time>
      </trkpt>
      <trkpt lat="43.51128" lon="2.43376">
        <ele>364.48</ele>
        <time>2020-10-18T07:57:10Z</time>
      </trkpt>
      <trkpt lat="43.51125" lon="2.43378">
        <ele>364</ele>
        <time>2020-10-18T07:57:12Z</time>
      </trkpt>
      <trkpt lat="43.51118" lon="2.43389">
        <ele>365.44</ele>
        <time>2020-10-18T07:57:20Z</time>
      </trkpt>
      <trkpt lat="43.51115" lon="2.43399">
        <ele>370.73</ele>
        <time>2020-10-18T07:57:27Z</time>
      </trkpt>
      <trkpt lat="43.51113" lon="2.43406">
        <ele>373.61</ele>
        <time>2020-10-18T07:57:31Z</time>
      </trkpt>
      <trkpt lat="43.51105" lon="2.43417">
        <ele>376.97</ele>
        <time>2020-10-18T07:57:39Z</time>
      </trkpt>
      <trkpt lat="43.51101" lon="2.43423">
        <ele>377.94</ele>
        <time>2020-10-18T07:57:43Z</time>
      </trkpt>
      <trkpt lat="43.51093" lon="2.43435">
        <ele>378.9</ele>
        <time>2020-10-18T07:57:51Z</time>
      </trkpt>
      <trkpt lat="43.51091" lon="2.43441">
        <ele>378.42</ele>
        <time>2020-10-18T07:57:54Z</time>
      </trkpt>
      <trkpt lat="43.51083" lon="2.43455">
        <ele>376.01</ele>
        <time>2020-10-18T07:58:03Z</time>
      </trkpt>
      <trkpt lat="43.51079" lon="2.43468">
        <ele>372.17</ele>
        <time>2020-10-18T07:58:11Z</time>
      </trkpt>
      <trkpt lat="43.51079" lon="2.4348">
        <ele>366.4</ele>
        <time>2020-10-18T07:58:18Z</time>
      </trkpt>
      <trkpt lat="43.5108" lon="2.43482">
        <ele>365.44</ele>
        <time>2020-10-18T07:58:20Z</time>
      </trkpt>
      <trkpt lat="43.51082" lon="2.43494">
        <ele>353.9</ele>
        <time>2020-10-18T07:58:28Z</time>
      </trkpt>
      <trkpt lat="43.51083" lon="2.43498">
        <ele>343.81</ele>
        <time>2020-10-18T07:58:38Z</time>
      </trkpt>
      <trkpt lat="43.51081" lon="2.43498">
        <ele>337.08</ele>
        <time>2020-10-18T07:58:47Z</time>
      </trkpt>
      <trkpt lat="43.51082" lon="2.43503">
        <ele>337.56</ele>
        <time>2020-10-18T07:58:52Z</time>
      </trkpt>
      <trkpt lat="43.51082" lon="2.43516">
        <ele>335.16</ele>
        <time>2020-10-18T07:59:02Z</time>
      </trkpt>
      <trkpt lat="43.51082" lon="2.43525">
        <ele>334.2</ele>
        <time>2020-10-18T07:59:08Z</time>
      </trkpt>
      <trkpt lat="43.51084" lon="2.43541">
        <ele>335.16</ele>
        <time>2020-10-18T07:59:17Z</time>
      </trkpt>
      <trkpt lat="43.51086" lon="2.43544">
        <ele>335.16</ele>
        <time>2020-10-18T07:59:19Z</time>
      </trkpt>
      <trkpt lat="43.51088" lon="2.4356">
        <ele>337.08</ele>
        <time>2020-10-18T07:59:29Z</time>
      </trkpt>
      <trkpt lat="43.51093" lon="2.43578">
        <ele>334.2</ele>
        <time>2020-10-18T07:59:38Z</time>
      </trkpt>
      <trkpt lat="43.51097" lon="2.4359">
        <ele>333.23</ele>
        <time>2020-10-18T07:59:46Z</time>
      </trkpt>
      <trkpt lat="43.51099" lon="2.43594">
        <ele>333.23</ele>
        <time>2020-10-18T07:59:49Z</time>
      </trkpt>
      <trkpt lat="43.51109" lon="2.43609">
        <ele>335.64</ele>
        <time>2020-10-18T07:59:59Z</time>
      </trkpt>
      <trkpt lat="43.51122" lon="2.43623">
        <ele>336.6</ele>
        <time>2020-10-18T08:00:11Z</time>
      </trkpt>
      <trkpt lat="43.51125" lon="2.43627">
        <ele>337.08</ele>
        <time>2020-10-18T08:00:14Z</time>
      </trkpt>
      <trkpt lat="43.51134" lon="2.43634">
        <ele>339</ele>
        <time>2020-10-18T08:00:22Z</time>
      </trkpt>
      <trkpt lat="43.51135" lon="2.43635">
        <ele>339</ele>
        <time>2020-10-18T08:00:23Z</time>
      </trkpt>
      <trkpt lat="43.51147" lon="2.43646">
        <ele>340.92</ele>
        <time>2020-10-18T08:00:35Z</time>
      </trkpt>
      <trkpt lat="43.51157" lon="2.43653">
        <ele>342.85</ele>
        <time>2020-10-18T08:00:44Z</time>
      </trkpt>
      <trkpt lat="43.51162" lon="2.43654">
        <ele>342.85</ele>
        <time>2020-10-18T08:00:52Z</time>
      </trkpt>
      <trkpt lat="43.51165" lon="2.43655">
        <ele>341.41</ele>
        <time>2020-10-18T08:01:00Z</time>
      </trkpt>
      <trkpt lat="43.51168" lon="2.43656">
        <ele>339</ele>
        <time>2020-10-18T08:01:10Z</time>
      </trkpt>
      <trkpt lat="43.51168" lon="2.43654">
        <ele>338.52</ele>
        <time>2020-10-18T08:01:17Z</time>
      </trkpt>
      <trkpt lat="43.51169" lon="2.43653">
        <ele>338.52</ele>
        <time>2020-10-18T08:01:24Z</time>
      </trkpt>
      <trkpt lat="43.5117" lon="2.43653">
        <ele>336.6</ele>
        <time>2020-10-18T08:01:33Z</time>
      </trkpt>
      <trkpt lat="43.51172" lon="2.43654">
        <ele>335.16</ele>
        <time>2020-10-18T08:01:42Z</time>
      </trkpt>
      <trkpt lat="43.51173" lon="2.43655">
        <ele>334.68</ele>
        <time>2020-10-18T08:01:49Z</time>
      </trkpt>
      <trkpt lat="43.51175" lon="2.43654">
        <ele>333.23</ele>
        <time>2020-10-18T08:01:56Z</time>
      </trkpt>
      <trkpt lat="43.51178" lon="2.43652">
        <ele>331.79</ele>
        <time>2020-10-18T08:02:04Z</time>
      </trkpt>
      <trkpt lat="43.51182" lon="2.43656">
        <ele>331.79</ele>
        <time>2020-10-18T08:02:10Z</time>
      </trkpt>
      <trkpt lat="43.51187" lon="2.43659">
        <ele>331.79</ele>
        <time>2020-10-18T08:02:18Z</time>
      </trkpt>
      <trkpt lat="43.51189" lon="2.43663">
        <ele>332.75</ele>
        <time>2020-10-18T08:02:25Z</time>
      </trkpt>
      <trkpt lat="43.51191" lon="2.43665">
        <ele>334.2</ele>
        <time>2020-10-18T08:02:31Z</time>
      </trkpt>
      <trkpt lat="43.51196" lon="2.43666">
        <ele>334.2</ele>
        <time>2020-10-18T08:02:39Z</time>
      </trkpt>
      <trkpt lat="43.51199" lon="2.43666">
        <ele>333.23</ele>
        <time>2020-10-18T08:02:48Z</time>
      </trkpt>
      <trkpt lat="43.51202" lon="2.4367">
        <ele>335.16</ele>
        <time>2020-10-18T08:02:57Z</time>
      </trkpt>
      <trkpt lat="43.51203" lon="2.43673">
        <ele>336.6</ele>
        <time>2020-10-18T08:03:08Z</time>
      </trkpt>
      <trkpt lat="43.512" lon="2.43672">
        <ele>336.6</ele>
        <time>2020-10-18T08:03:15Z</time>
      </trkpt>
      <trkpt lat="43.51198" lon="2.43671">
        <ele>336.6</ele>
        <time>2020-10-18T08:03:21Z</time>
      </trkpt>
      <trkpt lat="43.51194" lon="2.43673">
        <ele>335.64</ele>
        <time>2020-10-18T08:03:29Z</time>
      </trkpt>
      <trkpt lat="43.51193" lon="2.43676">
        <ele>336.6</ele>
        <time>2020-10-18T08:03:35Z</time>
      </trkpt>
      <trkpt lat="43.51189" lon="2.43676">
        <ele>335.64</ele>
        <time>2020-10-18T08:03:44Z</time>
      </trkpt>
      <trkpt lat="43.51187" lon="2.43676">
        <ele>333.23</ele>
        <time>2020-10-18T08:03:50Z</time>
      </trkpt>
      <trkpt lat="43.51184" lon="2.43676">
        <ele>331.79</ele>
        <time>2020-10-18T08:03:58Z</time>
      </trkpt>
      <trkpt lat="43.51181" lon="2.43677">
        <ele>332.27</ele>
        <time>2020-10-18T08:04:05Z</time>
      </trkpt>
      <trkpt lat="43.5118" lon="2.43685">
        <ele>333.71</ele>
        <time>2020-10-18T08:04:15Z</time>
      </trkpt>
      <trkpt lat="43.51182" lon="2.43693">
        <ele>336.6</ele>
        <time>2020-10-18T08:04:24Z</time>
      </trkpt>
      <trkpt lat="43.51182" lon="2.43698">
        <ele>336.12</ele>
        <time>2020-10-18T08:04:31Z</time>
      </trkpt>
      <trkpt lat="43.51182" lon="2.43698">
        <ele>336.12</ele>
        <time>2020-10-18T08:04:38Z</time>
      </trkpt>
      <trkpt lat="43.5118" lon="2.43697">
        <ele>334.2</ele>
        <time>2020-10-18T08:04:44Z</time>
      </trkpt>
      <trkpt lat="43.51176" lon="2.43695">
        <ele>332.75</ele>
        <time>2020-10-18T08:04:53Z</time>
      </trkpt>
      <trkpt lat="43.51172" lon="2.43692">
        <ele>333.23</ele>
        <time>2020-10-18T08:04:59Z</time>
      </trkpt>
      <trkpt lat="43.51169" lon="2.43692">
        <ele>333.23</ele>
        <time>2020-10-18T08:05:06Z</time>
      </trkpt>
      <trkpt lat="43.51167" lon="2.4369">
        <ele>333.71</ele>
        <time>2020-10-18T08:05:14Z</time>
      </trkpt>
      <trkpt lat="43.51166" lon="2.43689">
        <ele>334.68</ele>
        <time>2020-10-18T08:05:26Z</time>
      </trkpt>
      <trkpt lat="43.51165" lon="2.43686">
        <ele>334.68</ele>
        <time>2020-10-18T08:05:32Z</time>
      </trkpt>
      <trkpt lat="43.51163" lon="2.43685">
        <ele>333.71</ele>
        <time>2020-10-18T08:05:39Z</time>
      </trkpt>
      <trkpt lat="43.51162" lon="2.43682">
        <ele>332.75</ele>
        <time>2020-10-18T08:05:47Z</time>
      </trkpt>
      <trkpt lat="43.5116" lon="2.43681">
        <ele>332.27</ele>
        <time>2020-10-18T08:05:54Z</time>
      </trkpt>
      <trkpt lat="43.51156" lon="2.43681">
        <ele>332.75</ele>
        <time>2020-10-18T08:06:01Z</time>
      </trkpt>
      <trkpt lat="43.51152" lon="2.43681">
        <ele>333.23</ele>
        <time>2020-10-18T08:06:07Z</time>
      </trkpt>
      <trkpt lat="43.51148" lon="2.43681">
        <ele>333.71</ele>
        <time>2020-10-18T08:06:15Z</time>
      </trkpt>
      <trkpt lat="43.51143" lon="2.43684">
        <ele>335.16</ele>
        <time>2020-10-18T08:06:23Z</time>
      </trkpt>
      <trkpt lat="43.51142" lon="2.43688">
        <ele>334.2</ele>
        <time>2020-10-18T08:06:33Z</time>
      </trkpt>
      <trkpt lat="43.5114" lon="2.43687">
        <ele>332.75</ele>
        <time>2020-10-18T08:06:46Z</time>
      </trkpt>
      <trkpt lat="43.51139" lon="2.43692">
        <ele>333.23</ele>
        <time>2020-10-18T08:06:55Z</time>
      </trkpt>
      <trkpt lat="43.51139" lon="2.43697">
        <ele>334.68</ele>
        <time>2020-10-18T08:07:03Z</time>
      </trkpt>
      <trkpt lat="43.51137" lon="2.43701">
        <ele>336.6</ele>
        <time>2020-10-18T08:07:10Z</time>
      </trkpt>
      <trkpt lat="43.51135" lon="2.43706">
        <ele>338.04</ele>
        <time>2020-10-18T08:07:17Z</time>
      </trkpt>
      <trkpt lat="43.51133" lon="2.43707">
        <ele>339.96</ele>
        <time>2020-10-18T08:07:26Z</time>
      </trkpt>
      <trkpt lat="43.51128" lon="2.43713">
        <ele>340.92</ele>
        <time>2020-10-18T08:07:33Z</time>
      </trkpt>
      <trkpt lat="43.51122" lon="2.43716">
        <ele>341.89</ele>
        <time>2020-10-18T08:07:40Z</time>
      </trkpt>
      <trkpt lat="43.51116" lon="2.43719">
        <ele>343.33</ele>
        <time>2020-10-18T08:07:48Z</time>
      </trkpt>
      <trkpt lat="43.51114" lon="2.43723">
        <ele>345.73</ele>
        <time>2020-10-18T08:07:55Z</time>
      </trkpt>
      <trkpt lat="43.5111" lon="2.43727">
        <ele>348.62</ele>
        <time>2020-10-18T08:08:02Z</time>
      </trkpt>
      <trkpt lat="43.5111" lon="2.43729">
        <ele>350.54</ele>
        <time>2020-10-18T08:08:13Z</time>
      </trkpt>
      <trkpt lat="43.51107" lon="2.43732">
        <ele>351.5</ele>
        <time>2020-10-18T08:08:25Z</time>
      </trkpt>
      <trkpt lat="43.51104" lon="2.43733">
        <ele>352.46</ele>
        <time>2020-10-18T08:08:30Z</time>
      </trkpt>
      <trkpt lat="43.51097" lon="2.43737">
        <ele>354.86</ele>
        <time>2020-10-18T08:08:38Z</time>
      </trkpt>
      <trkpt lat="43.51095" lon="2.43742">
        <ele>357.75</ele>
        <time>2020-10-18T08:08:46Z</time>
      </trkpt>
      <trkpt lat="43.51093" lon="2.43743">
        <ele>360.15</ele>
        <time>2020-10-18T08:08:59Z</time>
      </trkpt>
      <trkpt lat="43.51089" lon="2.43746">
        <ele>362.55</ele>
        <time>2020-10-18T08:09:04Z</time>
      </trkpt>
      <trkpt lat="43.51083" lon="2.43754">
        <ele>365.44</ele>
        <time>2020-10-18T08:09:11Z</time>
      </trkpt>
      <trkpt lat="43.5108" lon="2.43756">
        <ele>363.04</ele>
        <time>2020-10-18T08:09:19Z</time>
      </trkpt>
      <trkpt lat="43.51079" lon="2.43753">
        <ele>363.52</ele>
        <time>2020-10-18T08:09:27Z</time>
      </trkpt>
      <trkpt lat="43.51076" lon="2.43751">
        <ele>364</ele>
        <time>2020-10-18T08:09:35Z</time>
      </trkpt>
      <trkpt lat="43.51071" lon="2.43756">
        <ele>367.84</ele>
        <time>2020-10-18T08:09:44Z</time>
      </trkpt>
      <trkpt lat="43.5107" lon="2.43758">
        <ele>368.8</ele>
        <time>2020-10-18T08:09:51Z</time>
      </trkpt>
      <trkpt lat="43.51067" lon="2.4376">
        <ele>368.8</ele>
        <time>2020-10-18T08:09:57Z</time>
      </trkpt>
      <trkpt lat="43.51065" lon="2.43759">
        <ele>369.28</ele>
        <time>2020-10-18T08:10:10Z</time>
      </trkpt>
      <trkpt lat="43.51064" lon="2.43761">
        <ele>369.28</ele>
        <time>2020-10-18T08:10:17Z</time>
      </trkpt>
      <trkpt lat="43.51063" lon="2.43757">
        <ele>369.28</ele>
        <time>2020-10-18T08:10:23Z</time>
      </trkpt>
      <trkpt lat="43.51064" lon="2.43753">
        <ele>370.73</ele>
        <time>2020-10-18T08:10:27Z</time>
      </trkpt>
      <trkpt lat="43.51067" lon="2.43745">
        <ele>373.61</ele>
        <time>2020-10-18T08:10:35Z</time>
      </trkpt>
      <trkpt lat="43.51067" lon="2.43744">
        <ele>374.09</ele>
        <time>2020-10-18T08:10:36Z</time>
      </trkpt>
      <trkpt lat="43.5107" lon="2.43738">
        <ele>375.53</ele>
        <time>2020-10-18T08:10:41Z</time>
      </trkpt>
      <trkpt lat="43.51073" lon="2.43727">
        <ele>376.49</ele>
        <time>2020-10-18T08:10:48Z</time>
      </trkpt>
      <trkpt lat="43.51071" lon="2.43726">
        <ele>377.45</ele>
        <time>2020-10-18T08:10:55Z</time>
      </trkpt>
      <trkpt lat="43.5107" lon="2.43727">
        <ele>379.86</ele>
        <time>2020-10-18T08:11:13Z</time>
      </trkpt>
      <trkpt lat="43.51067" lon="2.43724">
        <ele>379.86</ele>
        <time>2020-10-18T08:11:26Z</time>
      </trkpt>
      <trkpt lat="43.51069" lon="2.43724">
        <ele>378.42</ele>
        <time>2020-10-18T08:11:39Z</time>
      </trkpt>
      <trkpt lat="43.51068" lon="2.43723">
        <ele>378.42</ele>
        <time>2020-10-18T08:11:41Z</time>
      </trkpt>
      <trkpt lat="43.5106" lon="2.4373">
        <ele>376.49</ele>
        <time>2020-10-18T08:11:49Z</time>
      </trkpt>
      <trkpt lat="43.51052" lon="2.43738">
        <ele>377.94</ele>
        <time>2020-10-18T08:11:56Z</time>
      </trkpt>
      <trkpt lat="43.51047" lon="2.43744">
        <ele>379.38</ele>
        <time>2020-10-18T08:12:01Z</time>
      </trkpt>
      <trkpt lat="43.51045" lon="2.43742">
        <ele>380.82</ele>
        <time>2020-10-18T08:12:07Z</time>
      </trkpt>
      <trkpt lat="43.51049" lon="2.43738">
        <ele>386.11</ele>
        <time>2020-10-18T08:12:16Z</time>
      </trkpt>
      <trkpt lat="43.5105" lon="2.43734">
        <ele>388.03</ele>
        <time>2020-10-18T08:12:24Z</time>
      </trkpt>
      <trkpt lat="43.51052" lon="2.43725">
        <ele>389.47</ele>
        <time>2020-10-18T08:12:31Z</time>
      </trkpt>
      <trkpt lat="43.51052" lon="2.43717">
        <ele>389.95</ele>
        <time>2020-10-18T08:12:36Z</time>
      </trkpt>
      <trkpt lat="43.51053" lon="2.4371">
        <ele>391.87</ele>
        <time>2020-10-18T08:12:42Z</time>
      </trkpt>
      <trkpt lat="43.51053" lon="2.43706">
        <ele>392.84</ele>
        <time>2020-10-18T08:12:45Z</time>
      </trkpt>
      <trkpt lat="43.51054" lon="2.43697">
        <ele>394.76</ele>
        <time>2020-10-18T08:12:52Z</time>
      </trkpt>
      <trkpt lat="43.51053" lon="2.43687">
        <ele>397.16</ele>
        <time>2020-10-18T08:13:00Z</time>
      </trkpt>
      <trkpt lat="43.5105" lon="2.43686">
        <ele>398.6</ele>
        <time>2020-10-18T08:13:06Z</time>
      </trkpt>
      <trkpt lat="43.51047" lon="2.43689">
        <ele>399.57</ele>
        <time>2020-10-18T08:13:21Z</time>
      </trkpt>
      <trkpt lat="43.51046" lon="2.43689">
        <ele>401.97</ele>
        <time>2020-10-18T08:13:36Z</time>
      </trkpt>
      <trkpt lat="43.51046" lon="2.43689">
        <ele>403.41</ele>
        <time>2020-10-18T08:13:54Z</time>
      </trkpt>
      <trkpt lat="43.51046" lon="2.43687">
        <ele>402.93</ele>
        <time>2020-10-18T08:13:55Z</time>
      </trkpt>
      <trkpt lat="43.51044" lon="2.43684">
        <ele>402.45</ele>
        <time>2020-10-18T08:13:58Z</time>
      </trkpt>
      <trkpt lat="43.51037" lon="2.43685">
        <ele>402.93</ele>
        <time>2020-10-18T08:14:06Z</time>
      </trkpt>
      <trkpt lat="43.51033" lon="2.43691">
        <ele>405.81</ele>
        <time>2020-10-18T08:14:14Z</time>
      </trkpt>
      <trkpt lat="43.51026" lon="2.43698">
        <ele>407.74</ele>
        <time>2020-10-18T08:14:21Z</time>
      </trkpt>
      <trkpt lat="43.51018" lon="2.43703">
        <ele>410.62</ele>
        <time>2020-10-18T08:14:29Z</time>
      </trkpt>
      <trkpt lat="43.51011" lon="2.43711">
        <ele>413.5</ele>
        <time>2020-10-18T08:14:38Z</time>
      </trkpt>
      <trkpt lat="43.51006" lon="2.43716">
        <ele>414.95</ele>
        <time>2020-10-18T08:14:46Z</time>
      </trkpt>
      <trkpt lat="43.51001" lon="2.4372">
        <ele>415.91</ele>
        <time>2020-10-18T08:14:54Z</time>
      </trkpt>
      <trkpt lat="43.50996" lon="2.43723">
        <ele>416.39</ele>
        <time>2020-10-18T08:15:01Z</time>
      </trkpt>
      <trkpt lat="43.50992" lon="2.43728">
        <ele>417.35</ele>
        <time>2020-10-18T08:15:07Z</time>
      </trkpt>
      <trkpt lat="43.5099" lon="2.43729">
        <ele>417.83</ele>
        <time>2020-10-18T08:15:14Z</time>
      </trkpt>
      <trkpt lat="43.50989" lon="2.43733">
        <ele>420.23</ele>
        <time>2020-10-18T08:15:21Z</time>
      </trkpt>
      <trkpt lat="43.50987" lon="2.43736">
        <ele>422.64</ele>
        <time>2020-10-18T08:15:27Z</time>
      </trkpt>
      <trkpt lat="43.50984" lon="2.4374">
        <ele>426.48</ele>
        <time>2020-10-18T08:15:34Z</time>
      </trkpt>
      <trkpt lat="43.50978" lon="2.43745">
        <ele>430.81</ele>
        <time>2020-10-18T08:15:45Z</time>
      </trkpt>
      <trkpt lat="43.50974" lon="2.43749">
        <ele>434.65</ele>
        <time>2020-10-18T08:15:53Z</time>
      </trkpt>
      <trkpt lat="43.5097" lon="2.43752">
        <ele>436.1</ele>
        <time>2020-10-18T08:16:00Z</time>
      </trkpt>
      <trkpt lat="43.50964" lon="2.43757">
        <ele>436.58</ele>
        <time>2020-10-18T08:16:08Z</time>
      </trkpt>
      <trkpt lat="43.50962" lon="2.43759">
        <ele>439.46</ele>
        <time>2020-10-18T08:16:17Z</time>
      </trkpt>
      <trkpt lat="43.50958" lon="2.4376">
        <ele>440.9</ele>
        <time>2020-10-18T08:16:25Z</time>
      </trkpt>
      <trkpt lat="43.50951" lon="2.43766">
        <ele>442.34</ele>
        <time>2020-10-18T08:16:33Z</time>
      </trkpt>
      <trkpt lat="43.50944" lon="2.43768">
        <ele>443.31</ele>
        <time>2020-10-18T08:16:41Z</time>
      </trkpt>
      <trkpt lat="43.50943" lon="2.4376">
        <ele>443.31</ele>
        <time>2020-10-18T08:16:50Z</time>
      </trkpt>
      <trkpt lat="43.50944" lon="2.43753">
        <ele>445.71</ele>
        <time>2020-10-18T08:16:57Z</time>
      </trkpt>
      <trkpt lat="43.50944" lon="2.43749">
        <ele>446.67</ele>
        <time>2020-10-18T08:17:05Z</time>
      </trkpt>
      <trkpt lat="43.50944" lon="2.43745">
        <ele>449.07</ele>
        <time>2020-10-18T08:17:12Z</time>
      </trkpt>
      <trkpt lat="43.50944" lon="2.43743">
        <ele>451</ele>
        <time>2020-10-18T08:17:22Z</time>
      </trkpt>
      <trkpt lat="43.50942" lon="2.4374">
        <ele>451</ele>
        <time>2020-10-18T08:17:32Z</time>
      </trkpt>
      <trkpt lat="43.50939" lon="2.43744">
        <ele>450.52</ele>
        <time>2020-10-18T08:17:40Z</time>
      </trkpt>
      <trkpt lat="43.50935" lon="2.43755">
        <ele>451.48</ele>
        <time>2020-10-18T08:17:49Z</time>
      </trkpt>
      <trkpt lat="43.50929" lon="2.43764">
        <ele>454.36</ele>
        <time>2020-10-18T08:17:58Z</time>
      </trkpt>
      <trkpt lat="43.50924" lon="2.43764">
        <ele>456.28</ele>
        <time>2020-10-18T08:18:06Z</time>
      </trkpt>
      <trkpt lat="43.50917" lon="2.43772">
        <ele>457.24</ele>
        <time>2020-10-18T08:18:14Z</time>
      </trkpt>
      <trkpt lat="43.50908" lon="2.43788">
        <ele>457.72</ele>
        <time>2020-10-18T08:18:22Z</time>
      </trkpt>
      <trkpt lat="43.50905" lon="2.43799">
        <ele>454.84</ele>
        <time>2020-10-18T08:18:31Z</time>
      </trkpt>
      <trkpt lat="43.50905" lon="2.43807">
        <ele>455.8</ele>
        <time>2020-10-18T08:18:38Z</time>
      </trkpt>
      <trkpt lat="43.50905" lon="2.43817">
        <ele>457.72</ele>
        <time>2020-10-18T08:18:46Z</time>
      </trkpt>
      <trkpt lat="43.50906" lon="2.43825">
        <ele>459.65</ele>
        <time>2020-10-18T08:18:53Z</time>
      </trkpt>
      <trkpt lat="43.50904" lon="2.43832">
        <ele>461.57</ele>
        <time>2020-10-18T08:19:00Z</time>
      </trkpt>
      <trkpt lat="43.50904" lon="2.43841">
        <ele>464.45</ele>
        <time>2020-10-18T08:19:06Z</time>
      </trkpt>
      <trkpt lat="43.50903" lon="2.43854">
        <ele>466.38</ele>
        <time>2020-10-18T08:19:15Z</time>
      </trkpt>
      <trkpt lat="43.50903" lon="2.4387">
        <ele>464.45</ele>
        <time>2020-10-18T08:19:24Z</time>
      </trkpt>
      <trkpt lat="43.50907" lon="2.43879">
        <ele>464.45</ele>
        <time>2020-10-18T08:19:30Z</time>
      </trkpt>
      <trkpt lat="43.50912" lon="2.43894">
        <ele>463.01</ele>
        <time>2020-10-18T08:19:38Z</time>
      </trkpt>
      <trkpt lat="43.50918" lon="2.43907">
        <ele>462.05</ele>
        <time>2020-10-18T08:19:46Z</time>
      </trkpt>
      <trkpt lat="43.50921" lon="2.43914">
        <ele>462.05</ele>
        <time>2020-10-18T08:19:53Z</time>
      </trkpt>
      <trkpt lat="43.50923" lon="2.43922">
        <ele>462.05</ele>
        <time>2020-10-18T08:20:00Z</time>
      </trkpt>
      <trkpt lat="43.50926" lon="2.4393">
        <ele>461.57</ele>
        <time>2020-10-18T08:20:07Z</time>
      </trkpt>
      <trkpt lat="43.50926" lon="2.43934">
        <ele>460.61</ele>
        <time>2020-10-18T08:20:14Z</time>
      </trkpt>
      <trkpt lat="43.50927" lon="2.43941">
        <ele>460.61</ele>
        <time>2020-10-18T08:20:21Z</time>
      </trkpt>
      <trkpt lat="43.50933" lon="2.4395">
        <ele>461.57</ele>
        <time>2020-10-18T08:20:29Z</time>
      </trkpt>
      <trkpt lat="43.50938" lon="2.43955">
        <ele>457.72</ele>
        <time>2020-10-18T08:20:40Z</time>
      </trkpt>
      <trkpt lat="43.50938" lon="2.43953">
        <ele>458.21</ele>
        <time>2020-10-18T08:20:47Z</time>
      </trkpt>
      <trkpt lat="43.50937" lon="2.43951">
        <ele>458.21</ele>
        <time>2020-10-18T08:20:51Z</time>
      </trkpt>
      <trkpt lat="43.5093" lon="2.43947">
        <ele>456.28</ele>
        <time>2020-10-18T08:20:58Z</time>
      </trkpt>
      <trkpt lat="43.50922" lon="2.43946">
        <ele>455.8</ele>
        <time>2020-10-18T08:21:06Z</time>
      </trkpt>
      <trkpt lat="43.50916" lon="2.43955">
        <ele>455.8</ele>
        <time>2020-10-18T08:21:14Z</time>
      </trkpt>
      <trkpt lat="43.50912" lon="2.43958">
        <ele>456.28</ele>
        <time>2020-10-18T08:21:18Z</time>
      </trkpt>
      <trkpt lat="43.50909" lon="2.43971">
        <ele>459.65</ele>
        <time>2020-10-18T08:21:26Z</time>
      </trkpt>
      <trkpt lat="43.50909" lon="2.43988">
        <ele>461.09</ele>
        <time>2020-10-18T08:21:34Z</time>
      </trkpt>
      <trkpt lat="43.5091" lon="2.44001">
        <ele>462.53</ele>
        <time>2020-10-18T08:21:42Z</time>
      </trkpt>
      <trkpt lat="43.50911" lon="2.44015">
        <ele>465.42</ele>
        <time>2020-10-18T08:21:50Z</time>
      </trkpt>
      <trkpt lat="43.50914" lon="2.44031">
        <ele>467.34</ele>
        <time>2020-10-18T08:21:58Z</time>
      </trkpt>
      <trkpt lat="43.50915" lon="2.44043">
        <ele>468.3</ele>
        <time>2020-10-18T08:22:03Z</time>
      </trkpt>
      <trkpt lat="43.50914" lon="2.44062">
        <ele>470.22</ele>
        <time>2020-10-18T08:22:12Z</time>
      </trkpt>
      <trkpt lat="43.50915" lon="2.44076">
        <ele>472.63</ele>
        <time>2020-10-18T08:22:20Z</time>
      </trkpt>
      <trkpt lat="43.50918" lon="2.44091">
        <ele>474.07</ele>
        <time>2020-10-18T08:22:28Z</time>
      </trkpt>
      <trkpt lat="43.50924" lon="2.44107">
        <ele>476.47</ele>
        <time>2020-10-18T08:22:37Z</time>
      </trkpt>
      <trkpt lat="43.50929" lon="2.44128">
        <ele>477.91</ele>
        <time>2020-10-18T08:22:45Z</time>
      </trkpt>
      <trkpt lat="43.50934" lon="2.4414">
        <ele>478.39</ele>
        <time>2020-10-18T08:22:52Z</time>
      </trkpt>
      <trkpt lat="43.50935" lon="2.44148">
        <ele>478.87</ele>
        <time>2020-10-18T08:22:56Z</time>
      </trkpt>
      <trkpt lat="43.5094" lon="2.44159">
        <ele>480.32</ele>
        <time>2020-10-18T08:23:03Z</time>
      </trkpt>
      <trkpt lat="43.50945" lon="2.4417">
        <ele>481.76</ele>
        <time>2020-10-18T08:23:10Z</time>
      </trkpt>
      <trkpt lat="43.5095" lon="2.44181">
        <ele>483.68</ele>
        <time>2020-10-18T08:23:17Z</time>
      </trkpt>
      <trkpt lat="43.50964" lon="2.44204">
        <ele>478.87</ele>
        <time>2020-10-18T08:23:26Z</time>
      </trkpt>
      <trkpt lat="43.50978" lon="2.44217">
        <ele>476.47</ele>
        <time>2020-10-18T08:23:34Z</time>
      </trkpt>
      <trkpt lat="43.50991" lon="2.44224">
        <ele>474.55</ele>
        <time>2020-10-18T08:23:43Z</time>
      </trkpt>
      <trkpt lat="43.51002" lon="2.44228">
        <ele>472.14</ele>
        <time>2020-10-18T08:23:51Z</time>
      </trkpt>
      <trkpt lat="43.51013" lon="2.4423">
        <ele>471.66</ele>
        <time>2020-10-18T08:24:00Z</time>
      </trkpt>
      <trkpt lat="43.51021" lon="2.44233">
        <ele>471.66</ele>
        <time>2020-10-18T08:24:08Z</time>
      </trkpt>
      <trkpt lat="43.51028" lon="2.44237">
        <ele>472.63</ele>
        <time>2020-10-18T08:24:15Z</time>
      </trkpt>
      <trkpt lat="43.51031" lon="2.44237">
        <ele>473.11</ele>
        <time>2020-10-18T08:24:17Z</time>
      </trkpt>
      <trkpt lat="43.51039" lon="2.44243">
        <ele>475.03</ele>
        <time>2020-10-18T08:24:27Z</time>
      </trkpt>
      <trkpt lat="43.51042" lon="2.44247">
        <ele>475.51</ele>
        <time>2020-10-18T08:24:30Z</time>
      </trkpt>
      <trkpt lat="43.51051" lon="2.44254">
        <ele>474.07</ele>
        <time>2020-10-18T08:24:39Z</time>
      </trkpt>
      <trkpt lat="43.51056" lon="2.4426">
        <ele>473.59</ele>
        <time>2020-10-18T08:24:45Z</time>
      </trkpt>
      <trkpt lat="43.51065" lon="2.44274">
        <ele>473.59</ele>
        <time>2020-10-18T08:24:55Z</time>
      </trkpt>
      <trkpt lat="43.51066" lon="2.44275">
        <ele>474.07</ele>
        <time>2020-10-18T08:24:56Z</time>
      </trkpt>
      <trkpt lat="43.5107" lon="2.44285">
        <ele>476.47</ele>
        <time>2020-10-18T08:25:03Z</time>
      </trkpt>
      <trkpt lat="43.51075" lon="2.4429">
        <ele>478.87</ele>
        <time>2020-10-18T08:25:10Z</time>
      </trkpt>
      <trkpt lat="43.51082" lon="2.44301">
        <ele>483.2</ele>
        <time>2020-10-18T08:25:20Z</time>
      </trkpt>
      <trkpt lat="43.51089" lon="2.44313">
        <ele>483.68</ele>
        <time>2020-10-18T08:25:28Z</time>
      </trkpt>
      <trkpt lat="43.51094" lon="2.44324">
        <ele>485.12</ele>
        <time>2020-10-18T08:25:36Z</time>
      </trkpt>
      <trkpt lat="43.51097" lon="2.44337">
        <ele>487.53</ele>
        <time>2020-10-18T08:25:46Z</time>
      </trkpt>
      <trkpt lat="43.51098" lon="2.44351">
        <ele>489.45</ele>
        <time>2020-10-18T08:25:55Z</time>
      </trkpt>
      <trkpt lat="43.51101" lon="2.44362">
        <ele>492.33</ele>
        <time>2020-10-18T08:26:03Z</time>
      </trkpt>
      <trkpt lat="43.51102" lon="2.44376">
        <ele>496.18</ele>
        <time>2020-10-18T08:26:12Z</time>
      </trkpt>
      <trkpt lat="43.51106" lon="2.4439">
        <ele>498.1</ele>
        <time>2020-10-18T08:26:21Z</time>
      </trkpt>
      <trkpt lat="43.51111" lon="2.4441">
        <ele>497.62</ele>
        <time>2020-10-18T08:26:30Z</time>
      </trkpt>
      <trkpt lat="43.51112" lon="2.44414">
        <ele>498.58</ele>
        <time>2020-10-18T08:26:33Z</time>
      </trkpt>
      <trkpt lat="43.51113" lon="2.44419">
        <ele>499.06</ele>
        <time>2020-10-18T08:26:37Z</time>
      </trkpt>
      <trkpt lat="43.51117" lon="2.44428">
        <ele>500.02</ele>
        <time>2020-10-18T08:26:44Z</time>
      </trkpt>
      <trkpt lat="43.51118" lon="2.44431">
        <ele>500.5</ele>
        <time>2020-10-18T08:26:46Z</time>
      </trkpt>
      <trkpt lat="43.51124" lon="2.44445">
        <ele>499.06</ele>
        <time>2020-10-18T08:26:54Z</time>
      </trkpt>
      <trkpt lat="43.51133" lon="2.44461">
        <ele>498.1</ele>
        <time>2020-10-18T08:27:04Z</time>
      </trkpt>
      <trkpt lat="43.51139" lon="2.44471">
        <ele>499.06</ele>
        <time>2020-10-18T08:27:12Z</time>
      </trkpt>
      <trkpt lat="43.51146" lon="2.4448">
        <ele>499.06</ele>
        <time>2020-10-18T08:27:20Z</time>
      </trkpt>
      <trkpt lat="43.51149" lon="2.44482">
        <ele>497.62</ele>
        <time>2020-10-18T08:27:26Z</time>
      </trkpt>
      <trkpt lat="43.51154" lon="2.44485">
        <ele>497.62</ele>
        <time>2020-10-18T08:27:35Z</time>
      </trkpt>
      <trkpt lat="43.51159" lon="2.44487">
        <ele>498.1</ele>
        <time>2020-10-18T08:27:43Z</time>
      </trkpt>
      <trkpt lat="43.51161" lon="2.44485">
        <ele>494.74</ele>
        <time>2020-10-18T08:27:50Z</time>
      </trkpt>
      <trkpt lat="43.51165" lon="2.44485">
        <ele>492.33</ele>
        <time>2020-10-18T08:28:00Z</time>
      </trkpt>
      <trkpt lat="43.51167" lon="2.44487">
        <ele>490.89</ele>
        <time>2020-10-18T08:28:01Z</time>
      </trkpt>
      <trkpt lat="43.51182" lon="2.44494">
        <ele>485.12</ele>
        <time>2020-10-18T08:28:10Z</time>
      </trkpt>
      <trkpt lat="43.51188" lon="2.44491">
        <ele>487.05</ele>
        <time>2020-10-18T08:28:16Z</time>
      </trkpt>
      <trkpt lat="43.51202" lon="2.4449">
        <ele>488.01</ele>
        <time>2020-10-18T08:28:26Z</time>
      </trkpt>
      <trkpt lat="43.51205" lon="2.4449">
        <ele>487.53</ele>
        <time>2020-10-18T08:28:32Z</time>
      </trkpt>
      <trkpt lat="43.5121" lon="2.44492">
        <ele>491.37</ele>
        <time>2020-10-18T08:28:40Z</time>
      </trkpt>
      <trkpt lat="43.51214" lon="2.44494">
        <ele>496.18</ele>
        <time>2020-10-18T08:28:48Z</time>
      </trkpt>
      <trkpt lat="43.51214" lon="2.44504">
        <ele>500.98</ele>
        <time>2020-10-18T08:28:56Z</time>
      </trkpt>
      <trkpt lat="43.51216" lon="2.44504">
        <ele>501.95</ele>
        <time>2020-10-18T08:29:04Z</time>
      </trkpt>
      <trkpt lat="43.51215" lon="2.44505">
        <ele>501.95</ele>
        <time>2020-10-18T08:29:11Z</time>
      </trkpt>
      <trkpt lat="43.51214" lon="2.44507">
        <ele>500.98</ele>
        <time>2020-10-18T08:29:18Z</time>
      </trkpt>
      <trkpt lat="43.51211" lon="2.44515">
        <ele>502.91</ele>
        <time>2020-10-18T08:29:26Z</time>
      </trkpt>
      <trkpt lat="43.51209" lon="2.44522">
        <ele>503.39</ele>
        <time>2020-10-18T08:29:35Z</time>
      </trkpt>
      <trkpt lat="43.51211" lon="2.44522">
        <ele>501.46</ele>
        <time>2020-10-18T08:29:45Z</time>
      </trkpt>
      <trkpt lat="43.51214" lon="2.4453">
        <ele>497.62</ele>
        <time>2020-10-18T08:29:53Z</time>
      </trkpt>
      <trkpt lat="43.51214" lon="2.44538">
        <ele>495.7</ele>
        <time>2020-10-18T08:30:00Z</time>
      </trkpt>
      <trkpt lat="43.51214" lon="2.44548">
        <ele>497.14</ele>
        <time>2020-10-18T08:30:08Z</time>
      </trkpt>
      <trkpt lat="43.51214" lon="2.44555">
        <ele>498.58</ele>
        <time>2020-10-18T08:30:14Z</time>
      </trkpt>
      <trkpt lat="43.51214" lon="2.44566">
        <ele>500.02</ele>
        <time>2020-10-18T08:30:21Z</time>
      </trkpt>
      <trkpt lat="43.51215" lon="2.44576">
        <ele>501.46</ele>
        <time>2020-10-18T08:30:28Z</time>
      </trkpt>
      <trkpt lat="43.51216" lon="2.44584">
        <ele>501.95</ele>
        <time>2020-10-18T08:30:36Z</time>
      </trkpt>
      <trkpt lat="43.51217" lon="2.44587">
        <ele>499.54</ele>
        <time>2020-10-18T08:30:45Z</time>
      </trkpt>
      <trkpt lat="43.51218" lon="2.4459">
        <ele>498.58</ele>
        <time>2020-10-18T08:30:58Z</time>
      </trkpt>
      <trkpt lat="43.51222" lon="2.446">
        <ele>498.1</ele>
        <time>2020-10-18T08:31:05Z</time>
      </trkpt>
      <trkpt lat="43.51224" lon="2.44609">
        <ele>500.98</ele>
        <time>2020-10-18T08:31:13Z</time>
      </trkpt>
      <trkpt lat="43.51222" lon="2.44618">
        <ele>504.83</ele>
        <time>2020-10-18T08:31:21Z</time>
      </trkpt>
      <trkpt lat="43.51222" lon="2.44619">
        <ele>504.83</ele>
        <time>2020-10-18T08:31:22Z</time>
      </trkpt>
      <trkpt lat="43.5122" lon="2.44624">
        <ele>504.83</ele>
        <time>2020-10-18T08:31:26Z</time>
      </trkpt>
      <trkpt lat="43.51217" lon="2.4464">
        <ele>505.31</ele>
        <time>2020-10-18T08:31:35Z</time>
      </trkpt>
      <trkpt lat="43.51214" lon="2.44654">
        <ele>506.27</ele>
        <time>2020-10-18T08:31:42Z</time>
      </trkpt>
      <trkpt lat="43.51214" lon="2.44661">
        <ele>506.75</ele>
        <time>2020-10-18T08:31:46Z</time>
      </trkpt>
      <trkpt lat="43.51216" lon="2.44668">
        <ele>506.27</ele>
        <time>2020-10-18T08:31:53Z</time>
      </trkpt>
      <trkpt lat="43.51223" lon="2.44682">
        <ele>507.71</ele>
        <time>2020-10-18T08:32:02Z</time>
      </trkpt>
      <trkpt lat="43.51225" lon="2.44687">
        <ele>508.19</ele>
        <time>2020-10-18T08:32:07Z</time>
      </trkpt>
      <trkpt lat="43.5123" lon="2.44701">
        <ele>509.16</ele>
        <time>2020-10-18T08:32:14Z</time>
      </trkpt>
      <trkpt lat="43.51235" lon="2.44712">
        <ele>511.56</ele>
        <time>2020-10-18T08:32:22Z</time>
      </trkpt>
      <trkpt lat="43.51235" lon="2.44714">
        <ele>511.56</ele>
        <time>2020-10-18T08:32:23Z</time>
      </trkpt>
      <trkpt lat="43.51242" lon="2.44722">
        <ele>513</ele>
        <time>2020-10-18T08:32:30Z</time>
      </trkpt>
      <trkpt lat="43.5125" lon="2.44726">
        <ele>513.96</ele>
        <time>2020-10-18T08:32:36Z</time>
      </trkpt>
      <trkpt lat="43.51256" lon="2.44723">
        <ele>511.56</ele>
        <time>2020-10-18T08:32:40Z</time>
      </trkpt>
      <trkpt lat="43.51277" lon="2.44721">
        <ele>494.26</ele>
        <time>2020-10-18T08:32:50Z</time>
      </trkpt>
      <trkpt lat="43.51286" lon="2.44716">
        <ele>489.45</ele>
        <time>2020-10-18T08:32:59Z</time>
      </trkpt>
      <trkpt lat="43.51288" lon="2.44715">
        <ele>488.01</ele>
        <time>2020-10-18T08:33:06Z</time>
      </trkpt>
      <trkpt lat="43.51294" lon="2.44713">
        <ele>486.08</ele>
        <time>2020-10-18T08:33:14Z</time>
      </trkpt>
      <trkpt lat="43.51295" lon="2.44713">
        <ele>486.08</ele>
        <time>2020-10-18T08:33:15Z</time>
      </trkpt>
      <trkpt lat="43.51301" lon="2.44716">
        <ele>484.64</ele>
        <time>2020-10-18T08:33:21Z</time>
      </trkpt>
      <trkpt lat="43.51304" lon="2.44719">
        <ele>484.16</ele>
        <time>2020-10-18T08:33:27Z</time>
      </trkpt>
      <trkpt lat="43.51305" lon="2.44725">
        <ele>483.2</ele>
        <time>2020-10-18T08:33:36Z</time>
      </trkpt>
      <trkpt lat="43.51305" lon="2.44727">
        <ele>483.68</ele>
        <time>2020-10-18T08:33:44Z</time>
      </trkpt>
      <trkpt lat="43.51307" lon="2.44737">
        <ele>482.72</ele>
        <time>2020-10-18T08:33:52Z</time>
      </trkpt>
      <trkpt lat="43.51307" lon="2.4474">
        <ele>481.28</ele>
        <time>2020-10-18T08:33:54Z</time>
      </trkpt>
      <trkpt lat="43.51312" lon="2.44752">
        <ele>478.87</ele>
        <time>2020-10-18T08:34:02Z</time>
      </trkpt>
      <trkpt lat="43.51314" lon="2.44761">
        <ele>481.28</ele>
        <time>2020-10-18T08:34:11Z</time>
      </trkpt>
      <trkpt lat="43.51315" lon="2.44764">
        <ele>481.76</ele>
        <time>2020-10-18T08:34:14Z</time>
      </trkpt>
      <trkpt lat="43.51316" lon="2.44775">
        <ele>485.6</ele>
        <time>2020-10-18T08:34:22Z</time>
      </trkpt>
      <trkpt lat="43.51314" lon="2.44785">
        <ele>488.49</ele>
        <time>2020-10-18T08:34:30Z</time>
      </trkpt>
      <trkpt lat="43.51313" lon="2.44802">
        <ele>494.74</ele>
        <time>2020-10-18T08:34:42Z</time>
      </trkpt>
      <trkpt lat="43.51313" lon="2.44808">
        <ele>498.1</ele>
        <time>2020-10-18T08:34:49Z</time>
      </trkpt>
      <trkpt lat="43.51312" lon="2.44813">
        <ele>500.98</ele>
        <time>2020-10-18T08:34:56Z</time>
      </trkpt>
      <trkpt lat="43.5131" lon="2.44826">
        <ele>501.46</ele>
        <time>2020-10-18T08:35:05Z</time>
      </trkpt>
      <trkpt lat="43.51309" lon="2.44836">
        <ele>500.02</ele>
        <time>2020-10-18T08:35:13Z</time>
      </trkpt>
      <trkpt lat="43.51307" lon="2.44845">
        <ele>500.5</ele>
        <time>2020-10-18T08:35:21Z</time>
      </trkpt>
      <trkpt lat="43.51308" lon="2.44847">
        <ele>500.02</ele>
        <time>2020-10-18T08:35:28Z</time>
      </trkpt>
      <trkpt lat="43.51307" lon="2.44852">
        <ele>497.14</ele>
        <time>2020-10-18T08:35:36Z</time>
      </trkpt>
      <trkpt lat="43.51306" lon="2.44858">
        <ele>496.66</ele>
        <time>2020-10-18T08:35:43Z</time>
      </trkpt>
      <trkpt lat="43.51307" lon="2.44867">
        <ele>496.18</ele>
        <time>2020-10-18T08:35:51Z</time>
      </trkpt>
      <trkpt lat="43.51308" lon="2.44876">
        <ele>496.66</ele>
        <time>2020-10-18T08:35:59Z</time>
      </trkpt>
      <trkpt lat="43.51313" lon="2.44884">
        <ele>499.06</ele>
        <time>2020-10-18T08:36:07Z</time>
      </trkpt>
      <trkpt lat="43.51316" lon="2.44892">
        <ele>499.06</ele>
        <time>2020-10-18T08:36:16Z</time>
      </trkpt>
      <trkpt lat="43.51318" lon="2.44898">
        <ele>499.54</ele>
        <time>2020-10-18T08:36:22Z</time>
      </trkpt>
      <trkpt lat="43.51322" lon="2.44905">
        <ele>500.5</ele>
        <time>2020-10-18T08:36:30Z</time>
      </trkpt>
      <trkpt lat="43.51326" lon="2.44914">
        <ele>500.02</ele>
        <time>2020-10-18T08:36:38Z</time>
      </trkpt>
      <trkpt lat="43.51329" lon="2.44925">
        <ele>501.46</ele>
        <time>2020-10-18T08:36:48Z</time>
      </trkpt>
      <trkpt lat="43.51331" lon="2.44934">
        <ele>502.91</ele>
        <time>2020-10-18T08:36:57Z</time>
      </trkpt>
      <trkpt lat="43.51332" lon="2.44942">
        <ele>502.91</ele>
        <time>2020-10-18T08:37:05Z</time>
      </trkpt>
      <trkpt lat="43.51333" lon="2.44947">
        <ele>504.83</ele>
        <time>2020-10-18T08:37:11Z</time>
      </trkpt>
      <trkpt lat="43.51335" lon="2.44954">
        <ele>506.27</ele>
        <time>2020-10-18T08:37:19Z</time>
      </trkpt>
      <trkpt lat="43.5134" lon="2.44961">
        <ele>506.75</ele>
        <time>2020-10-18T08:37:26Z</time>
      </trkpt>
      <trkpt lat="43.51342" lon="2.44967">
        <ele>507.71</ele>
        <time>2020-10-18T08:37:34Z</time>
      </trkpt>
      <trkpt lat="43.51341" lon="2.44972">
        <ele>507.23</ele>
        <time>2020-10-18T08:37:41Z</time>
      </trkpt>
      <trkpt lat="43.51342" lon="2.44976">
        <ele>506.75</ele>
        <time>2020-10-18T08:37:56Z</time>
      </trkpt>
      <trkpt lat="43.51343" lon="2.44984">
        <ele>507.23</ele>
        <time>2020-10-18T08:38:04Z</time>
      </trkpt>
      <trkpt lat="43.51344" lon="2.44988">
        <ele>508.67</ele>
        <time>2020-10-18T08:38:12Z</time>
      </trkpt>
      <trkpt lat="43.51346" lon="2.44993">
        <ele>508.67</ele>
        <time>2020-10-18T08:38:23Z</time>
      </trkpt>
      <trkpt lat="43.51346" lon="2.44995">
        <ele>507.23</ele>
        <time>2020-10-18T08:38:39Z</time>
      </trkpt>
      <trkpt lat="43.51345" lon="2.44996">
        <ele>508.19</ele>
        <time>2020-10-18T08:38:51Z</time>
      </trkpt>
      <trkpt lat="43.51344" lon="2.44999">
        <ele>509.64</ele>
        <time>2020-10-18T08:39:00Z</time>
      </trkpt>
      <trkpt lat="43.51343" lon="2.44999">
        <ele>509.16</ele>
        <time>2020-10-18T08:39:09Z</time>
      </trkpt>
      <trkpt lat="43.51343" lon="2.45">
        <ele>509.16</ele>
        <time>2020-10-18T08:39:17Z</time>
      </trkpt>
      <trkpt lat="43.51341" lon="2.45004">
        <ele>509.16</ele>
        <time>2020-10-18T08:39:25Z</time>
      </trkpt>
      <trkpt lat="43.51339" lon="2.4501">
        <ele>510.12</ele>
        <time>2020-10-18T08:39:33Z</time>
      </trkpt>
      <trkpt lat="43.51336" lon="2.45018">
        <ele>511.08</ele>
        <time>2020-10-18T08:39:41Z</time>
      </trkpt>
      <trkpt lat="43.51333" lon="2.45025">
        <ele>512.52</ele>
        <time>2020-10-18T08:39:51Z</time>
      </trkpt>
      <trkpt lat="43.51334" lon="2.45032">
        <ele>512.52</ele>
        <time>2020-10-18T08:40:01Z</time>
      </trkpt>
      <trkpt lat="43.51334" lon="2.45037">
        <ele>512.52</ele>
        <time>2020-10-18T08:40:08Z</time>
      </trkpt>
      <trkpt lat="43.51336" lon="2.45041">
        <ele>511.56</ele>
        <time>2020-10-18T08:40:15Z</time>
      </trkpt>
      <trkpt lat="43.51335" lon="2.45048">
        <ele>510.6</ele>
        <time>2020-10-18T08:40:22Z</time>
      </trkpt>
      <trkpt lat="43.51335" lon="2.45058">
        <ele>510.6</ele>
        <time>2020-10-18T08:40:30Z</time>
      </trkpt>
      <trkpt lat="43.51339" lon="2.45063">
        <ele>507.71</ele>
        <time>2020-10-18T08:40:34Z</time>
      </trkpt>
      <trkpt lat="43.51341" lon="2.45069">
        <ele>509.16</ele>
        <time>2020-10-18T08:40:40Z</time>
      </trkpt>
      <trkpt lat="43.51342" lon="2.45073">
        <ele>508.67</ele>
        <time>2020-10-18T08:40:47Z</time>
      </trkpt>
      <trkpt lat="43.51345" lon="2.45077">
        <ele>510.12</ele>
        <time>2020-10-18T08:40:51Z</time>
      </trkpt>
      <trkpt lat="43.51354" lon="2.45081">
        <ele>509.64</ele>
        <time>2020-10-18T08:41:01Z</time>
      </trkpt>
      <trkpt lat="43.51358" lon="2.45083">
        <ele>509.16</ele>
        <time>2020-10-18T08:41:06Z</time>
      </trkpt>
      <trkpt lat="43.51366" lon="2.45088">
        <ele>510.6</ele>
        <time>2020-10-18T08:41:15Z</time>
      </trkpt>
      <trkpt lat="43.51368" lon="2.45089">
        <ele>512.04</ele>
        <time>2020-10-18T08:41:23Z</time>
      </trkpt>
      <trkpt lat="43.51369" lon="2.45089">
        <ele>512.04</ele>
        <time>2020-10-18T08:41:27Z</time>
      </trkpt>
      <trkpt lat="43.51371" lon="2.45092">
        <ele>513</ele>
        <time>2020-10-18T08:41:30Z</time>
      </trkpt>
      <trkpt lat="43.51379" lon="2.45098">
        <ele>516.37</ele>
        <time>2020-10-18T08:41:40Z</time>
      </trkpt>
      <trkpt lat="43.51385" lon="2.45101">
        <ele>517.33</ele>
        <time>2020-10-18T08:41:47Z</time>
      </trkpt>
      <trkpt lat="43.51388" lon="2.45103">
        <ele>517.33</ele>
        <time>2020-10-18T08:41:55Z</time>
      </trkpt>
      <trkpt lat="43.51389" lon="2.45104">
        <ele>515.88</ele>
        <time>2020-10-18T08:42:05Z</time>
      </trkpt>
      <trkpt lat="43.51395" lon="2.45106">
        <ele>514.92</ele>
        <time>2020-10-18T08:42:13Z</time>
      </trkpt>
      <trkpt lat="43.514" lon="2.45111">
        <ele>517.81</ele>
        <time>2020-10-18T08:42:21Z</time>
      </trkpt>
      <trkpt lat="43.51403" lon="2.45116">
        <ele>521.17</ele>
        <time>2020-10-18T08:42:28Z</time>
      </trkpt>
      <trkpt lat="43.51408" lon="2.45122">
        <ele>522.61</ele>
        <time>2020-10-18T08:42:35Z</time>
      </trkpt>
      <trkpt lat="43.51408" lon="2.45125">
        <ele>522.13</ele>
        <time>2020-10-18T08:42:38Z</time>
      </trkpt>
      <trkpt lat="43.51408" lon="2.45131">
        <ele>523.58</ele>
        <time>2020-10-18T08:42:46Z</time>
      </trkpt>
      <trkpt lat="43.51408" lon="2.45135">
        <ele>524.54</ele>
        <time>2020-10-18T08:42:51Z</time>
      </trkpt>
      <trkpt lat="43.51412" lon="2.45147">
        <ele>525.02</ele>
        <time>2020-10-18T08:43:01Z</time>
      </trkpt>
      <trkpt lat="43.51416" lon="2.45157">
        <ele>522.61</ele>
        <time>2020-10-18T08:43:10Z</time>
      </trkpt>
      <trkpt lat="43.51422" lon="2.45166">
        <ele>521.65</ele>
        <time>2020-10-18T08:43:19Z</time>
      </trkpt>
      <trkpt lat="43.51425" lon="2.4517">
        <ele>524.06</ele>
        <time>2020-10-18T08:43:23Z</time>
      </trkpt>
      <trkpt lat="43.51433" lon="2.45178">
        <ele>528.38</ele>
        <time>2020-10-18T08:43:31Z</time>
      </trkpt>
      <trkpt lat="43.5144" lon="2.45185">
        <ele>535.59</ele>
        <time>2020-10-18T08:43:40Z</time>
      </trkpt>
      <trkpt lat="43.51447" lon="2.45189">
        <ele>539.92</ele>
        <time>2020-10-18T08:43:48Z</time>
      </trkpt>
      <trkpt lat="43.51455" lon="2.45194">
        <ele>543.28</ele>
        <time>2020-10-18T08:43:56Z</time>
      </trkpt>
      <trkpt lat="43.51461" lon="2.45201">
        <ele>546.17</ele>
        <time>2020-10-18T08:44:04Z</time>
      </trkpt>
      <trkpt lat="43.51466" lon="2.45203">
        <ele>547.61</ele>
        <time>2020-10-18T08:44:10Z</time>
      </trkpt>
      <trkpt lat="43.51474" lon="2.45206">
        <ele>548.57</ele>
        <time>2020-10-18T08:44:18Z</time>
      </trkpt>
      <trkpt lat="43.51482" lon="2.4521">
        <ele>545.69</ele>
        <time>2020-10-18T08:44:26Z</time>
      </trkpt>
      <trkpt lat="43.51484" lon="2.45208">
        <ele>540.88</ele>
        <time>2020-10-18T08:44:32Z</time>
      </trkpt>
      <trkpt lat="43.51485" lon="2.45206">
        <ele>534.63</ele>
        <time>2020-10-18T08:44:39Z</time>
      </trkpt>
      <trkpt lat="43.51489" lon="2.4521">
        <ele>534.15</ele>
        <time>2020-10-18T08:44:47Z</time>
      </trkpt>
      <trkpt lat="43.51493" lon="2.45213">
        <ele>534.63</ele>
        <time>2020-10-18T08:44:55Z</time>
      </trkpt>
      <trkpt lat="43.51494" lon="2.45218">
        <ele>537.03</ele>
        <time>2020-10-18T08:45:02Z</time>
      </trkpt>
      <trkpt lat="43.51496" lon="2.45224">
        <ele>541.36</ele>
        <time>2020-10-18T08:45:09Z</time>
      </trkpt>
      <trkpt lat="43.51498" lon="2.4523">
        <ele>546.65</ele>
        <time>2020-10-18T08:45:18Z</time>
      </trkpt>
      <trkpt lat="43.51502" lon="2.45232">
        <ele>546.17</ele>
        <time>2020-10-18T08:45:26Z</time>
      </trkpt>
      <trkpt lat="43.51507" lon="2.45235">
        <ele>542.8</ele>
        <time>2020-10-18T08:45:35Z</time>
      </trkpt>
      <trkpt lat="43.51511" lon="2.45236">
        <ele>540.88</ele>
        <time>2020-10-18T08:45:43Z</time>
      </trkpt>
      <trkpt lat="43.51512" lon="2.45237">
        <ele>538.48</ele>
        <time>2020-10-18T08:45:51Z</time>
      </trkpt>
      <trkpt lat="43.51514" lon="2.45239">
        <ele>536.55</ele>
        <time>2020-10-18T08:45:58Z</time>
      </trkpt>
      <trkpt lat="43.51513" lon="2.45242">
        <ele>534.63</ele>
        <time>2020-10-18T08:46:05Z</time>
      </trkpt>
      <trkpt lat="43.51512" lon="2.45248">
        <ele>533.19</ele>
        <time>2020-10-18T08:46:12Z</time>
      </trkpt>
      <trkpt lat="43.51508" lon="2.45253">
        <ele>531.75</ele>
        <time>2020-10-18T08:46:20Z</time>
      </trkpt>
      <trkpt lat="43.51505" lon="2.45255">
        <ele>530.3</ele>
        <time>2020-10-18T08:46:28Z</time>
      </trkpt>
      <trkpt lat="43.51503" lon="2.45253">
        <ele>529.34</ele>
        <time>2020-10-18T08:46:36Z</time>
      </trkpt>
      <trkpt lat="43.51503" lon="2.45254">
        <ele>529.34</ele>
        <time>2020-10-18T08:46:41Z</time>
      </trkpt>
      <trkpt lat="43.51503" lon="2.45252">
        <ele>529.34</ele>
        <time>2020-10-18T08:46:48Z</time>
      </trkpt>
      <trkpt lat="43.51505" lon="2.45253">
        <ele>527.42</ele>
        <time>2020-10-18T08:46:56Z</time>
      </trkpt>
      <trkpt lat="43.51503" lon="2.45251">
        <ele>526.46</ele>
        <time>2020-10-18T08:47:04Z</time>
      </trkpt>
      <trkpt lat="43.51502" lon="2.45253">
        <ele>526.46</ele>
        <time>2020-10-18T08:47:10Z</time>
      </trkpt>
      <trkpt lat="43.51501" lon="2.45261">
        <ele>527.9</ele>
        <time>2020-10-18T08:47:16Z</time>
      </trkpt>
      <trkpt lat="43.51503" lon="2.45274">
        <ele>530.3</ele>
        <time>2020-10-18T08:47:25Z</time>
      </trkpt>
      <trkpt lat="43.51507" lon="2.4529">
        <ele>531.75</ele>
        <time>2020-10-18T08:47:34Z</time>
      </trkpt>
      <trkpt lat="43.51508" lon="2.45295">
        <ele>532.71</ele>
        <time>2020-10-18T08:47:37Z</time>
      </trkpt>
      <trkpt lat="43.51511" lon="2.45311">
        <ele>533.67</ele>
        <time>2020-10-18T08:47:46Z</time>
      </trkpt>
      <trkpt lat="43.51512" lon="2.45318">
        <ele>534.63</ele>
        <time>2020-10-18T08:47:51Z</time>
      </trkpt>
      <trkpt lat="43.51515" lon="2.45331">
        <ele>534.63</ele>
        <time>2020-10-18T08:47:59Z</time>
      </trkpt>
      <trkpt lat="43.51518" lon="2.45345">
        <ele>533.19</ele>
        <time>2020-10-18T08:48:08Z</time>
      </trkpt>
      <trkpt lat="43.51522" lon="2.45361">
        <ele>531.27</ele>
        <time>2020-10-18T08:48:17Z</time>
      </trkpt>
      <trkpt lat="43.51525" lon="2.45374">
        <ele>531.27</ele>
        <time>2020-10-18T08:48:25Z</time>
      </trkpt>
      <trkpt lat="43.51527" lon="2.45386">
        <ele>533.67</ele>
        <time>2020-10-18T08:48:34Z</time>
      </trkpt>
      <trkpt lat="43.51527" lon="2.45398">
        <ele>535.59</ele>
        <time>2020-10-18T08:48:42Z</time>
      </trkpt>
      <trkpt lat="43.51531" lon="2.45408">
        <ele>529.82</ele>
        <time>2020-10-18T08:48:50Z</time>
      </trkpt>
      <trkpt lat="43.51532" lon="2.45412">
        <ele>528.86</ele>
        <time>2020-10-18T08:49:01Z</time>
      </trkpt>
      <trkpt lat="43.51535" lon="2.45419">
        <ele>530.79</ele>
        <time>2020-10-18T08:49:10Z</time>
      </trkpt>
      <trkpt lat="43.51537" lon="2.45422">
        <ele>531.75</ele>
        <time>2020-10-18T08:49:16Z</time>
      </trkpt>
      <trkpt lat="43.51539" lon="2.45427">
        <ele>531.75</ele>
        <time>2020-10-18T08:49:20Z</time>
      </trkpt>
      <trkpt lat="43.51548" lon="2.45445">
        <ele>531.75</ele>
        <time>2020-10-18T08:49:32Z</time>
      </trkpt>
      <trkpt lat="43.51555" lon="2.45456">
        <ele>530.3</ele>
        <time>2020-10-18T08:49:42Z</time>
      </trkpt>
      <trkpt lat="43.51559" lon="2.45465">
        <ele>529.82</ele>
        <time>2020-10-18T08:49:49Z</time>
      </trkpt>
      <trkpt lat="43.51564" lon="2.45476">
        <ele>530.79</ele>
        <time>2020-10-18T08:49:56Z</time>
      </trkpt>
      <trkpt lat="43.51573" lon="2.45489">
        <ele>531.75</ele>
        <time>2020-10-18T08:50:06Z</time>
      </trkpt>
      <trkpt lat="43.51575" lon="2.45493">
        <ele>533.19</ele>
        <time>2020-10-18T08:50:09Z</time>
      </trkpt>
      <trkpt lat="43.51578" lon="2.45502">
        <ele>533.67</ele>
        <time>2020-10-18T08:50:14Z</time>
      </trkpt>
      <trkpt lat="43.51589" lon="2.45518">
        <ele>533.67</ele>
        <time>2020-10-18T08:50:26Z</time>
      </trkpt>
      <trkpt lat="43.51597" lon="2.45532">
        <ele>534.63</ele>
        <time>2020-10-18T08:50:36Z</time>
      </trkpt>
      <trkpt lat="43.51608" lon="2.45549">
        <ele>537.99</ele>
        <time>2020-10-18T08:50:48Z</time>
      </trkpt>
      <trkpt lat="43.51616" lon="2.45563">
        <ele>539.44</ele>
        <time>2020-10-18T08:50:57Z</time>
      </trkpt>
      <trkpt lat="43.5162" lon="2.45574">
        <ele>540.4</ele>
        <time>2020-10-18T08:51:06Z</time>
      </trkpt>
      <trkpt lat="43.51624" lon="2.45586">
        <ele>541.84</ele>
        <time>2020-10-18T08:51:15Z</time>
      </trkpt>
      <trkpt lat="43.51631" lon="2.45597">
        <ele>541.84</ele>
        <time>2020-10-18T08:51:24Z</time>
      </trkpt>
      <trkpt lat="43.51635" lon="2.45611">
        <ele>542.8</ele>
        <time>2020-10-18T08:51:33Z</time>
      </trkpt>
      <trkpt lat="43.51641" lon="2.45621">
        <ele>543.28</ele>
        <time>2020-10-18T08:51:41Z</time>
      </trkpt>
      <trkpt lat="43.51639" lon="2.45605">
        <ele>541.84</ele>
        <time>2020-10-18T08:51:51Z</time>
      </trkpt>
      <trkpt lat="43.51635" lon="2.45591">
        <ele>540.4</ele>
        <time>2020-10-18T08:52:00Z</time>
      </trkpt>
      <trkpt lat="43.51629" lon="2.45581">
        <ele>539.92</ele>
        <time>2020-10-18T08:52:09Z</time>
      </trkpt>
      <trkpt lat="43.51626" lon="2.45581">
        <ele>539.44</ele>
        <time>2020-10-18T08:52:13Z</time>
      </trkpt>
      <trkpt lat="43.5162" lon="2.45591">
        <ele>539.92</ele>
        <time>2020-10-18T08:52:21Z</time>
      </trkpt>
      <trkpt lat="43.51619" lon="2.45595">
        <ele>539.92</ele>
        <time>2020-10-18T08:52:27Z</time>
      </trkpt>
      <trkpt lat="43.51618" lon="2.45601">
        <ele>541.36</ele>
        <time>2020-10-18T08:52:34Z</time>
      </trkpt>
      <trkpt lat="43.51615" lon="2.45607">
        <ele>542.8</ele>
        <time>2020-10-18T08:52:41Z</time>
      </trkpt>
      <trkpt lat="43.51613" lon="2.45609">
        <ele>543.28</ele>
        <time>2020-10-18T08:52:48Z</time>
      </trkpt>
      <trkpt lat="43.51611" lon="2.45619">
        <ele>544.24</ele>
        <time>2020-10-18T08:52:55Z</time>
      </trkpt>
      <trkpt lat="43.51608" lon="2.45627">
        <ele>544.24</ele>
        <time>2020-10-18T08:53:01Z</time>
      </trkpt>
      <trkpt lat="43.51608" lon="2.45631">
        <ele>544.24</ele>
        <time>2020-10-18T08:53:07Z</time>
      </trkpt>
      <trkpt lat="43.51607" lon="2.45638">
        <ele>544.24</ele>
        <time>2020-10-18T08:53:15Z</time>
      </trkpt>
      <trkpt lat="43.51607" lon="2.45639">
        <ele>544.24</ele>
        <time>2020-10-18T08:53:16Z</time>
      </trkpt>
      <trkpt lat="43.51605" lon="2.45649">
        <ele>543.76</ele>
        <time>2020-10-18T08:53:25Z</time>
      </trkpt>
      <trkpt lat="43.51604" lon="2.45655">
        <ele>544.24</ele>
        <time>2020-10-18T08:53:32Z</time>
      </trkpt>
      <trkpt lat="43.51604" lon="2.45662">
        <ele>544.72</ele>
        <time>2020-10-18T08:53:38Z</time>
      </trkpt>
      <trkpt lat="43.51602" lon="2.45669">
        <ele>545.2</ele>
        <time>2020-10-18T08:53:44Z</time>
      </trkpt>
      <trkpt lat="43.51601" lon="2.45681">
        <ele>544.72</ele>
        <time>2020-10-18T08:53:52Z</time>
      </trkpt>
      <trkpt lat="43.51598" lon="2.45693">
        <ele>542.32</ele>
        <time>2020-10-18T08:54:01Z</time>
      </trkpt>
      <trkpt lat="43.51597" lon="2.45698">
        <ele>541.84</ele>
        <time>2020-10-18T08:54:06Z</time>
      </trkpt>
      <trkpt lat="43.51595" lon="2.45709">
        <ele>541.84</ele>
        <time>2020-10-18T08:54:13Z</time>
      </trkpt>
      <trkpt lat="43.51594" lon="2.4572">
        <ele>542.32</ele>
        <time>2020-10-18T08:54:21Z</time>
      </trkpt>
      <trkpt lat="43.51594" lon="2.45722">
        <ele>542.32</ele>
        <time>2020-10-18T08:54:23Z</time>
      </trkpt>
      <trkpt lat="43.5159" lon="2.45735">
        <ele>545.2</ele>
        <time>2020-10-18T08:54:33Z</time>
      </trkpt>
      <trkpt lat="43.51589" lon="2.4574">
        <ele>548.09</ele>
        <time>2020-10-18T08:54:41Z</time>
      </trkpt>
      <trkpt lat="43.51588" lon="2.45748">
        <ele>551.45</ele>
        <time>2020-10-18T08:54:47Z</time>
      </trkpt>
      <trkpt lat="43.51585" lon="2.45759">
        <ele>554.34</ele>
        <time>2020-10-18T08:54:55Z</time>
      </trkpt>
      <trkpt lat="43.51583" lon="2.45772">
        <ele>558.66</ele>
        <time>2020-10-18T08:55:03Z</time>
      </trkpt>
      <trkpt lat="43.5158" lon="2.45787">
        <ele>562.51</ele>
        <time>2020-10-18T08:55:12Z</time>
      </trkpt>
      <trkpt lat="43.51579" lon="2.45796">
        <ele>564.91</ele>
        <time>2020-10-18T08:55:18Z</time>
      </trkpt>
      <trkpt lat="43.51577" lon="2.45811">
        <ele>566.83</ele>
        <time>2020-10-18T08:55:26Z</time>
      </trkpt>
      <trkpt lat="43.51576" lon="2.45825">
        <ele>569.72</ele>
        <time>2020-10-18T08:55:35Z</time>
      </trkpt>
      <trkpt lat="43.51573" lon="2.45838">
        <ele>571.16</ele>
        <time>2020-10-18T08:55:43Z</time>
      </trkpt>
      <trkpt lat="43.51574" lon="2.45844">
        <ele>573.56</ele>
        <time>2020-10-18T08:55:49Z</time>
      </trkpt>
      <trkpt lat="43.51574" lon="2.45847">
        <ele>575.49</ele>
        <time>2020-10-18T08:55:54Z</time>
      </trkpt>
      <trkpt lat="43.51573" lon="2.45849">
        <ele>575.49</ele>
        <time>2020-10-18T08:55:56Z</time>
      </trkpt>
      <trkpt lat="43.51572" lon="2.45868">
        <ele>578.37</ele>
        <time>2020-10-18T08:56:06Z</time>
      </trkpt>
      <trkpt lat="43.51569" lon="2.45873">
        <ele>579.81</ele>
        <time>2020-10-18T08:56:12Z</time>
      </trkpt>
      <trkpt lat="43.51564" lon="2.45879">
        <ele>578.37</ele>
        <time>2020-10-18T08:56:22Z</time>
      </trkpt>
      <trkpt lat="43.51557" lon="2.45898">
        <ele>579.81</ele>
        <time>2020-10-18T08:56:31Z</time>
      </trkpt>
      <trkpt lat="43.51555" lon="2.45904">
        <ele>579.81</ele>
        <time>2020-10-18T08:56:35Z</time>
      </trkpt>
      <trkpt lat="43.51549" lon="2.45913">
        <ele>581.25</ele>
        <time>2020-10-18T08:56:44Z</time>
      </trkpt>
      <trkpt lat="43.51549" lon="2.45916">
        <ele>582.7</ele>
        <time>2020-10-18T08:56:52Z</time>
      </trkpt>
      <trkpt lat="43.51548" lon="2.45918">
        <ele>583.66</ele>
        <time>2020-10-18T08:56:56Z</time>
      </trkpt>
      <trkpt lat="43.51545" lon="2.45925">
        <ele>584.14</ele>
        <time>2020-10-18T08:57:02Z</time>
      </trkpt>
      <trkpt lat="43.51541" lon="2.45931">
        <ele>584.62</ele>
        <time>2020-10-18T08:57:09Z</time>
      </trkpt>
      <trkpt lat="43.51538" lon="2.45941">
        <ele>586.06</ele>
        <time>2020-10-18T08:57:15Z</time>
      </trkpt>
      <trkpt lat="43.51536" lon="2.45954">
        <ele>585.58</ele>
        <time>2020-10-18T08:57:23Z</time>
      </trkpt>
      <trkpt lat="43.51533" lon="2.45966">
        <ele>584.62</ele>
        <time>2020-10-18T08:57:32Z</time>
      </trkpt>
      <trkpt lat="43.5153" lon="2.45975">
        <ele>584.14</ele>
        <time>2020-10-18T08:57:39Z</time>
      </trkpt>
      <trkpt lat="43.51526" lon="2.45987">
        <ele>584.62</ele>
        <time>2020-10-18T08:57:48Z</time>
      </trkpt>
      <trkpt lat="43.51521" lon="2.45999">
        <ele>585.1</ele>
        <time>2020-10-18T08:57:56Z</time>
      </trkpt>
      <trkpt lat="43.51517" lon="2.46011">
        <ele>583.66</ele>
        <time>2020-10-18T08:58:02Z</time>
      </trkpt>
      <trkpt lat="43.51513" lon="2.46019">
        <ele>583.18</ele>
        <time>2020-10-18T08:58:09Z</time>
      </trkpt>
      <trkpt lat="43.51508" lon="2.46035">
        <ele>585.1</ele>
        <time>2020-10-18T08:58:18Z</time>
      </trkpt>
      <trkpt lat="43.51505" lon="2.4605">
        <ele>584.62</ele>
        <time>2020-10-18T08:58:26Z</time>
      </trkpt>
      <trkpt lat="43.51503" lon="2.46057">
        <ele>583.66</ele>
        <time>2020-10-18T08:58:33Z</time>
      </trkpt>
      <trkpt lat="43.51502" lon="2.46058">
        <ele>584.14</ele>
        <time>2020-10-18T08:58:40Z</time>
      </trkpt>
      <trkpt lat="43.51499" lon="2.46066">
        <ele>585.1</ele>
        <time>2020-10-18T08:58:47Z</time>
      </trkpt>
      <trkpt lat="43.51499" lon="2.46076">
        <ele>586.54</ele>
        <time>2020-10-18T08:58:54Z</time>
      </trkpt>
      <trkpt lat="43.51501" lon="2.46081">
        <ele>589.43</ele>
        <time>2020-10-18T08:59:02Z</time>
      </trkpt>
      <trkpt lat="43.51503" lon="2.46085">
        <ele>591.35</ele>
        <time>2020-10-18T08:59:10Z</time>
      </trkpt>
      <trkpt lat="43.51504" lon="2.4609">
        <ele>593.75</ele>
        <time>2020-10-18T08:59:19Z</time>
      </trkpt>
      <trkpt lat="43.51505" lon="2.46093">
        <ele>590.39</ele>
        <time>2020-10-18T08:59:29Z</time>
      </trkpt>
      <trkpt lat="43.51503" lon="2.46097">
        <ele>588.46</ele>
        <time>2020-10-18T08:59:37Z</time>
      </trkpt>
      <trkpt lat="43.515" lon="2.46096">
        <ele>588.46</ele>
        <time>2020-10-18T08:59:46Z</time>
      </trkpt>
      <trkpt lat="43.51496" lon="2.46098">
        <ele>587.98</ele>
        <time>2020-10-18T08:59:57Z</time>
      </trkpt>
      <trkpt lat="43.51486" lon="2.461">
        <ele>588.46</ele>
        <time>2020-10-18T09:00:12Z</time>
      </trkpt>
      <trkpt lat="43.51484" lon="2.46105">
        <ele>589.43</ele>
        <time>2020-10-18T09:00:21Z</time>
      </trkpt>
      <trkpt lat="43.51484" lon="2.46117">
        <ele>590.39</ele>
        <time>2020-10-18T09:00:32Z</time>
      </trkpt>
      <trkpt lat="43.51482" lon="2.46123">
        <ele>591.35</ele>
        <time>2020-10-18T09:00:41Z</time>
      </trkpt>
      <trkpt lat="43.5148" lon="2.46136">
        <ele>592.31</ele>
        <time>2020-10-18T09:00:49Z</time>
      </trkpt>
      <trkpt lat="43.51475" lon="2.46147">
        <ele>594.23</ele>
        <time>2020-10-18T09:00:58Z</time>
      </trkpt>
      <trkpt lat="43.51472" lon="2.46159">
        <ele>597.6</ele>
        <time>2020-10-18T09:01:06Z</time>
      </trkpt>
      <trkpt lat="43.51468" lon="2.46171">
        <ele>598.56</ele>
        <time>2020-10-18T09:01:16Z</time>
      </trkpt>
      <trkpt lat="43.51462" lon="2.46188">
        <ele>595.19</ele>
        <time>2020-10-18T09:01:26Z</time>
      </trkpt>
      <trkpt lat="43.5146" lon="2.46196">
        <ele>593.75</ele>
        <time>2020-10-18T09:01:36Z</time>
      </trkpt>
      <trkpt lat="43.51457" lon="2.462">
        <ele>593.75</ele>
        <time>2020-10-18T09:01:44Z</time>
      </trkpt>
      <trkpt lat="43.51455" lon="2.46206">
        <ele>596.64</ele>
        <time>2020-10-18T09:01:52Z</time>
      </trkpt>
      <trkpt lat="43.51454" lon="2.46214">
        <ele>599.52</ele>
        <time>2020-10-18T09:02:00Z</time>
      </trkpt>
      <trkpt lat="43.5145" lon="2.46219">
        <ele>601.44</ele>
        <time>2020-10-18T09:02:08Z</time>
      </trkpt>
      <trkpt lat="43.51453" lon="2.46221">
        <ele>600.96</ele>
        <time>2020-10-18T09:02:18Z</time>
      </trkpt>
      <trkpt lat="43.51451" lon="2.46224">
        <ele>601.44</ele>
        <time>2020-10-18T09:02:26Z</time>
      </trkpt>
      <trkpt lat="43.51446" lon="2.46228">
        <ele>603.36</ele>
        <time>2020-10-18T09:02:33Z</time>
      </trkpt>
      <trkpt lat="43.51442" lon="2.46234">
        <ele>604.81</ele>
        <time>2020-10-18T09:02:42Z</time>
      </trkpt>
      <trkpt lat="43.51435" lon="2.46241">
        <ele>606.25</ele>
        <time>2020-10-18T09:02:50Z</time>
      </trkpt>
      <trkpt lat="43.51431" lon="2.46247">
        <ele>608.17</ele>
        <time>2020-10-18T09:02:56Z</time>
      </trkpt>
      <trkpt lat="43.51428" lon="2.46254">
        <ele>610.57</ele>
        <time>2020-10-18T09:03:03Z</time>
      </trkpt>
      <trkpt lat="43.51422" lon="2.46265">
        <ele>613.46</ele>
        <time>2020-10-18T09:03:12Z</time>
      </trkpt>
      <trkpt lat="43.5142" lon="2.46275">
        <ele>614.9</ele>
        <time>2020-10-18T09:03:19Z</time>
      </trkpt>
      <trkpt lat="43.51415" lon="2.46285">
        <ele>617.3</ele>
        <time>2020-10-18T09:03:27Z</time>
      </trkpt>
      <trkpt lat="43.51413" lon="2.4629">
        <ele>618.26</ele>
        <time>2020-10-18T09:03:30Z</time>
      </trkpt>
      <trkpt lat="43.5141" lon="2.46296">
        <ele>619.71</ele>
        <time>2020-10-18T09:03:36Z</time>
      </trkpt>
      <trkpt lat="43.51409" lon="2.46297">
        <ele>619.71</ele>
        <time>2020-10-18T09:03:37Z</time>
      </trkpt>
      <trkpt lat="43.51403" lon="2.46311">
        <ele>622.59</ele>
        <time>2020-10-18T09:03:45Z</time>
      </trkpt>
      <trkpt lat="43.51396" lon="2.46321">
        <ele>624.99</ele>
        <time>2020-10-18T09:03:53Z</time>
      </trkpt>
      <trkpt lat="43.51391" lon="2.46333">
        <ele>625.47</ele>
        <time>2020-10-18T09:04:00Z</time>
      </trkpt>
      <trkpt lat="43.51384" lon="2.46347">
        <ele>626.92</ele>
        <time>2020-10-18T09:04:09Z</time>
      </trkpt>
      <trkpt lat="43.51382" lon="2.46354">
        <ele>626.44</ele>
        <time>2020-10-18T09:04:13Z</time>
      </trkpt>
      <trkpt lat="43.5138" lon="2.46359">
        <ele>626.92</ele>
        <time>2020-10-18T09:04:16Z</time>
      </trkpt>
      <trkpt lat="43.51373" lon="2.4637">
        <ele>624.99</ele>
        <time>2020-10-18T09:04:23Z</time>
      </trkpt>
      <trkpt lat="43.51367" lon="2.46378">
        <ele>625.47</ele>
        <time>2020-10-18T09:04:30Z</time>
      </trkpt>
      <trkpt lat="43.51362" lon="2.46389">
        <ele>623.55</ele>
        <time>2020-10-18T09:04:37Z</time>
      </trkpt>
      <trkpt lat="43.51354" lon="2.46404">
        <ele>615.38</ele>
        <time>2020-10-18T09:04:45Z</time>
      </trkpt>
      <trkpt lat="43.51348" lon="2.46412">
        <ele>609.13</ele>
        <time>2020-10-18T09:04:52Z</time>
      </trkpt>
      <trkpt lat="43.51339" lon="2.46421">
        <ele>609.13</ele>
        <time>2020-10-18T09:05:01Z</time>
      </trkpt>
      <trkpt lat="43.5133" lon="2.46424">
        <ele>607.21</ele>
        <time>2020-10-18T09:05:09Z</time>
      </trkpt>
      <trkpt lat="43.51323" lon="2.46431">
        <ele>603.36</ele>
        <time>2020-10-18T09:05:17Z</time>
      </trkpt>
      <trkpt lat="43.5132" lon="2.46436">
        <ele>601.44</ele>
        <time>2020-10-18T09:05:22Z</time>
      </trkpt>
      <trkpt lat="43.51316" lon="2.46451">
        <ele>599.52</ele>
        <time>2020-10-18T09:05:29Z</time>
      </trkpt>
      <trkpt lat="43.51311" lon="2.46463">
        <ele>597.6</ele>
        <time>2020-10-18T09:05:36Z</time>
      </trkpt>
      <trkpt lat="43.51308" lon="2.46468">
        <ele>595.67</ele>
        <time>2020-10-18T09:05:45Z</time>
      </trkpt>
      <trkpt lat="43.51307" lon="2.46475">
        <ele>593.27</ele>
        <time>2020-10-18T09:05:54Z</time>
      </trkpt>
      <trkpt lat="43.513" lon="2.46489">
        <ele>591.83</ele>
        <time>2020-10-18T09:06:02Z</time>
      </trkpt>
      <trkpt lat="43.51293" lon="2.465">
        <ele>592.31</ele>
        <time>2020-10-18T09:06:10Z</time>
      </trkpt>
      <trkpt lat="43.51293" lon="2.46512">
        <ele>588.95</ele>
        <time>2020-10-18T09:06:18Z</time>
      </trkpt>
      <trkpt lat="43.51291" lon="2.46515">
        <ele>587.98</ele>
        <time>2020-10-18T09:06:24Z</time>
      </trkpt>
      <trkpt lat="43.51287" lon="2.46526">
        <ele>588.46</ele>
        <time>2020-10-18T09:06:31Z</time>
      </trkpt>
      <trkpt lat="43.51286" lon="2.46529">
        <ele>588.46</ele>
        <time>2020-10-18T09:06:33Z</time>
      </trkpt>
      <trkpt lat="43.51284" lon="2.46536">
        <ele>580.77</ele>
        <time>2020-10-18T09:06:41Z</time>
      </trkpt>
      <trkpt lat="43.51283" lon="2.46537">
        <ele>577.89</ele>
        <time>2020-10-18T09:06:46Z</time>
      </trkpt>
      <trkpt lat="43.51281" lon="2.46536">
        <ele>574.53</ele>
        <time>2020-10-18T09:06:53Z</time>
      </trkpt>
      <trkpt lat="43.51278" lon="2.4654">
        <ele>574.04</ele>
        <time>2020-10-18T09:06:58Z</time>
      </trkpt>
      <trkpt lat="43.51277" lon="2.46542">
        <ele>573.56</ele>
        <time>2020-10-18T09:07:00Z</time>
      </trkpt>
      <trkpt lat="43.51268" lon="2.46545">
        <ele>573.56</ele>
        <time>2020-10-18T09:07:09Z</time>
      </trkpt>
      <trkpt lat="43.51262" lon="2.46554">
        <ele>575.01</ele>
        <time>2020-10-18T09:07:16Z</time>
      </trkpt>
      <trkpt lat="43.51258" lon="2.46564">
        <ele>573.56</ele>
        <time>2020-10-18T09:07:24Z</time>
      </trkpt>
      <trkpt lat="43.51254" lon="2.4657">
        <ele>569.72</ele>
        <time>2020-10-18T09:07:30Z</time>
      </trkpt>
      <trkpt lat="43.5125" lon="2.46578">
        <ele>565.39</ele>
        <time>2020-10-18T09:07:36Z</time>
      </trkpt>
      <trkpt lat="43.51245" lon="2.46586">
        <ele>564.43</ele>
        <time>2020-10-18T09:07:43Z</time>
      </trkpt>
      <trkpt lat="43.51241" lon="2.46592">
        <ele>563.95</ele>
        <time>2020-10-18T09:07:50Z</time>
      </trkpt>
      <trkpt lat="43.51235" lon="2.466">
        <ele>562.03</ele>
        <time>2020-10-18T09:07:58Z</time>
      </trkpt>
      <trkpt lat="43.51232" lon="2.46604">
        <ele>561.55</ele>
        <time>2020-10-18T09:08:01Z</time>
      </trkpt>
      <trkpt lat="43.51225" lon="2.46613">
        <ele>559.62</ele>
        <time>2020-10-18T09:08:10Z</time>
      </trkpt>
      <trkpt lat="43.5122" lon="2.46619">
        <ele>558.66</ele>
        <time>2020-10-18T09:08:17Z</time>
      </trkpt>
      <trkpt lat="43.51215" lon="2.46625">
        <ele>559.14</ele>
        <time>2020-10-18T09:08:25Z</time>
      </trkpt>
      <trkpt lat="43.51212" lon="2.46634">
        <ele>558.66</ele>
        <time>2020-10-18T09:08:33Z</time>
      </trkpt>
      <trkpt lat="43.51206" lon="2.46644">
        <ele>559.62</ele>
        <time>2020-10-18T09:08:42Z</time>
      </trkpt>
      <trkpt lat="43.51197" lon="2.46653">
        <ele>562.03</ele>
        <time>2020-10-18T09:08:49Z</time>
      </trkpt>
      <trkpt lat="43.51194" lon="2.46658">
        <ele>564.43</ele>
        <time>2020-10-18T09:08:57Z</time>
      </trkpt>
      <trkpt lat="43.51188" lon="2.46664">
        <ele>566.83</ele>
        <time>2020-10-18T09:09:05Z</time>
      </trkpt>
      <trkpt lat="43.51182" lon="2.46669">
        <ele>569.24</ele>
        <time>2020-10-18T09:09:12Z</time>
      </trkpt>
      <trkpt lat="43.51177" lon="2.46674">
        <ele>570.68</ele>
        <time>2020-10-18T09:09:19Z</time>
      </trkpt>
      <trkpt lat="43.5117" lon="2.46678">
        <ele>572.6</ele>
        <time>2020-10-18T09:09:25Z</time>
      </trkpt>
      <trkpt lat="43.51163" lon="2.46692">
        <ele>574.53</ele>
        <time>2020-10-18T09:09:36Z</time>
      </trkpt>
      <trkpt lat="43.51155" lon="2.46708">
        <ele>574.04</ele>
        <time>2020-10-18T09:09:46Z</time>
      </trkpt>
      <trkpt lat="43.5115" lon="2.46715">
        <ele>574.04</ele>
        <time>2020-10-18T09:09:53Z</time>
      </trkpt>
      <trkpt lat="43.51144" lon="2.46726">
        <ele>573.08</ele>
        <time>2020-10-18T09:10:02Z</time>
      </trkpt>
      <trkpt lat="43.5114" lon="2.46736">
        <ele>571.64</ele>
        <time>2020-10-18T09:10:10Z</time>
      </trkpt>
      <trkpt lat="43.51133" lon="2.46749">
        <ele>572.12</ele>
        <time>2020-10-18T09:10:21Z</time>
      </trkpt>
      <trkpt lat="43.51128" lon="2.46759">
        <ele>571.16</ele>
        <time>2020-10-18T09:10:29Z</time>
      </trkpt>
      <trkpt lat="43.51121" lon="2.46773">
        <ele>570.68</ele>
        <time>2020-10-18T09:10:40Z</time>
      </trkpt>
      <trkpt lat="43.51117" lon="2.46787">
        <ele>571.16</ele>
        <time>2020-10-18T09:10:49Z</time>
      </trkpt>
      <trkpt lat="43.51111" lon="2.46791">
        <ele>571.16</ele>
        <time>2020-10-18T09:10:59Z</time>
      </trkpt>
      <trkpt lat="43.51106" lon="2.4679">
        <ele>571.64</ele>
        <time>2020-10-18T09:11:07Z</time>
      </trkpt>
      <trkpt lat="43.511" lon="2.46799">
        <ele>572.12</ele>
        <time>2020-10-18T09:11:16Z</time>
      </trkpt>
      <trkpt lat="43.51093" lon="2.46809">
        <ele>572.12</ele>
        <time>2020-10-18T09:11:27Z</time>
      </trkpt>
      <trkpt lat="43.51084" lon="2.46816">
        <ele>571.16</ele>
        <time>2020-10-18T09:11:35Z</time>
      </trkpt>
      <trkpt lat="43.51078" lon="2.46824">
        <ele>570.2</ele>
        <time>2020-10-18T09:11:42Z</time>
      </trkpt>
      <trkpt lat="43.51071" lon="2.46834">
        <ele>570.68</ele>
        <time>2020-10-18T09:11:52Z</time>
      </trkpt>
      <trkpt lat="43.51068" lon="2.46844">
        <ele>568.28</ele>
        <time>2020-10-18T09:12:01Z</time>
      </trkpt>
      <trkpt lat="43.51067" lon="2.46847">
        <ele>568.76</ele>
        <time>2020-10-18T09:12:12Z</time>
      </trkpt>
      <trkpt lat="43.51067" lon="2.46844">
        <ele>569.24</ele>
        <time>2020-10-18T09:12:20Z</time>
      </trkpt>
      <trkpt lat="43.51065" lon="2.46846">
        <ele>569.24</ele>
        <time>2020-10-18T09:12:30Z</time>
      </trkpt>
      <trkpt lat="43.51063" lon="2.46852">
        <ele>569.24</ele>
        <time>2020-10-18T09:12:42Z</time>
      </trkpt>
      <trkpt lat="43.5106" lon="2.46857">
        <ele>568.28</ele>
        <time>2020-10-18T09:12:48Z</time>
      </trkpt>
      <trkpt lat="43.51058" lon="2.46859">
        <ele>567.32</ele>
        <time>2020-10-18T09:12:54Z</time>
      </trkpt>
      <trkpt lat="43.51054" lon="2.46863">
        <ele>567.32</ele>
        <time>2020-10-18T09:13:02Z</time>
      </trkpt>
      <trkpt lat="43.51053" lon="2.46868">
        <ele>567.8</ele>
        <time>2020-10-18T09:13:10Z</time>
      </trkpt>
      <trkpt lat="43.51049" lon="2.46872">
        <ele>567.32</ele>
        <time>2020-10-18T09:13:20Z</time>
      </trkpt>
      <trkpt lat="43.51042" lon="2.46876">
        <ele>567.32</ele>
        <time>2020-10-18T09:13:29Z</time>
      </trkpt>
      <trkpt lat="43.51033" lon="2.46881">
        <ele>568.28</ele>
        <time>2020-10-18T09:13:38Z</time>
      </trkpt>
      <trkpt lat="43.51024" lon="2.46884">
        <ele>566.35</ele>
        <time>2020-10-18T09:13:44Z</time>
      </trkpt>
      <trkpt lat="43.51016" lon="2.46882">
        <ele>557.22</ele>
        <time>2020-10-18T09:13:55Z</time>
      </trkpt>
      <trkpt lat="43.51014" lon="2.46883">
        <ele>556.26</ele>
        <time>2020-10-18T09:14:03Z</time>
      </trkpt>
      <trkpt lat="43.51012" lon="2.46883">
        <ele>555.78</ele>
        <time>2020-10-18T09:14:13Z</time>
      </trkpt>
      <trkpt lat="43.51009" lon="2.4688">
        <ele>553.38</ele>
        <time>2020-10-18T09:14:21Z</time>
      </trkpt>
      <trkpt lat="43.51004" lon="2.46874">
        <ele>554.82</ele>
        <time>2020-10-18T09:14:29Z</time>
      </trkpt>
      <trkpt lat="43.51004" lon="2.46873">
        <ele>554.82</ele>
        <time>2020-10-18T09:14:31Z</time>
      </trkpt>
      <trkpt lat="43.50995" lon="2.46864">
        <ele>554.82</ele>
        <time>2020-10-18T09:14:40Z</time>
      </trkpt>
      <trkpt lat="43.50987" lon="2.46855">
        <ele>554.34</ele>
        <time>2020-10-18T09:14:48Z</time>
      </trkpt>
      <trkpt lat="43.50985" lon="2.46855">
        <ele>554.34</ele>
        <time>2020-10-18T09:14:49Z</time>
      </trkpt>
      <trkpt lat="43.5098" lon="2.46851">
        <ele>550.97</ele>
        <time>2020-10-18T09:14:56Z</time>
      </trkpt>
      <trkpt lat="43.50978" lon="2.4685">
        <ele>549.53</ele>
        <time>2020-10-18T09:15:00Z</time>
      </trkpt>
      <trkpt lat="43.50978" lon="2.46863">
        <ele>548.09</ele>
        <time>2020-10-18T09:15:09Z</time>
      </trkpt>
      <trkpt lat="43.50977" lon="2.46873">
        <ele>547.61</ele>
        <time>2020-10-18T09:15:17Z</time>
      </trkpt>
      <trkpt lat="43.50978" lon="2.46877">
        <ele>546.17</ele>
        <time>2020-10-18T09:15:22Z</time>
      </trkpt>
      <trkpt lat="43.50978" lon="2.46886">
        <ele>544.72</ele>
        <time>2020-10-18T09:15:28Z</time>
      </trkpt>
      <trkpt lat="43.50977" lon="2.46888">
        <ele>544.24</ele>
        <time>2020-10-18T09:15:29Z</time>
      </trkpt>
      <trkpt lat="43.50978" lon="2.46892">
        <ele>543.76</ele>
        <time>2020-10-18T09:15:32Z</time>
      </trkpt>
      <trkpt lat="43.50979" lon="2.46902">
        <ele>543.28</ele>
        <time>2020-10-18T09:15:38Z</time>
      </trkpt>
      <trkpt lat="43.5098" lon="2.46913">
        <ele>544.24</ele>
        <time>2020-10-18T09:15:46Z</time>
      </trkpt>
      <trkpt lat="43.50983" lon="2.46929">
        <ele>544.24</ele>
        <time>2020-10-18T09:15:55Z</time>
      </trkpt>
      <trkpt lat="43.50987" lon="2.46942">
        <ele>543.76</ele>
        <time>2020-10-18T09:16:03Z</time>
      </trkpt>
      <trkpt lat="43.5099" lon="2.4696">
        <ele>543.28</ele>
        <time>2020-10-18T09:16:12Z</time>
      </trkpt>
      <trkpt lat="43.50992" lon="2.46966">
        <ele>543.76</ele>
        <time>2020-10-18T09:16:17Z</time>
      </trkpt>
      <trkpt lat="43.50988" lon="2.4698">
        <ele>545.69</ele>
        <time>2020-10-18T09:16:27Z</time>
      </trkpt>
      <trkpt lat="43.50988" lon="2.46989">
        <ele>546.17</ele>
        <time>2020-10-18T09:16:34Z</time>
      </trkpt>
      <trkpt lat="43.50986" lon="2.47002">
        <ele>547.13</ele>
        <time>2020-10-18T09:16:42Z</time>
      </trkpt>
      <trkpt lat="43.50984" lon="2.47015">
        <ele>548.09</ele>
        <time>2020-10-18T09:16:50Z</time>
      </trkpt>
      <trkpt lat="43.50983" lon="2.47021">
        <ele>548.09</ele>
        <time>2020-10-18T09:16:54Z</time>
      </trkpt>
      <trkpt lat="43.50981" lon="2.47036">
        <ele>548.57</ele>
        <time>2020-10-18T09:17:03Z</time>
      </trkpt>
      <trkpt lat="43.5098" lon="2.47043">
        <ele>547.61</ele>
        <time>2020-10-18T09:17:09Z</time>
      </trkpt>
      <trkpt lat="43.50976" lon="2.47048">
        <ele>550.01</ele>
        <time>2020-10-18T09:17:17Z</time>
      </trkpt>
      <trkpt lat="43.50976" lon="2.4705">
        <ele>552.41</ele>
        <time>2020-10-18T09:17:24Z</time>
      </trkpt>
      <trkpt lat="43.50977" lon="2.4705">
        <ele>552.41</ele>
        <time>2020-10-18T09:17:39Z</time>
      </trkpt>
      <trkpt lat="43.50976" lon="2.47058">
        <ele>554.34</ele>
        <time>2020-10-18T09:17:46Z</time>
      </trkpt>
      <trkpt lat="43.50973" lon="2.47071">
        <ele>555.3</ele>
        <time>2020-10-18T09:17:55Z</time>
      </trkpt>
      <trkpt lat="43.50972" lon="2.47091">
        <ele>556.26</ele>
        <time>2020-10-18T09:18:06Z</time>
      </trkpt>
      <trkpt lat="43.50975" lon="2.47106">
        <ele>557.7</ele>
        <time>2020-10-18T09:18:15Z</time>
      </trkpt>
      <trkpt lat="43.50976" lon="2.47109">
        <ele>558.18</ele>
        <time>2020-10-18T09:18:17Z</time>
      </trkpt>
      <trkpt lat="43.50984" lon="2.47124">
        <ele>558.66</ele>
        <time>2020-10-18T09:18:27Z</time>
      </trkpt>
      <trkpt lat="43.50987" lon="2.47129">
        <ele>557.7</ele>
        <time>2020-10-18T09:18:34Z</time>
      </trkpt>
      <trkpt lat="43.50992" lon="2.47139">
        <ele>558.18</ele>
        <time>2020-10-18T09:18:41Z</time>
      </trkpt>
      <trkpt lat="43.50997" lon="2.47148">
        <ele>561.55</ele>
        <time>2020-10-18T09:18:49Z</time>
      </trkpt>
      <trkpt lat="43.51001" lon="2.47158">
        <ele>562.51</ele>
        <time>2020-10-18T09:18:57Z</time>
      </trkpt>
      <trkpt lat="43.51005" lon="2.47164">
        <ele>562.99</ele>
        <time>2020-10-18T09:19:05Z</time>
      </trkpt>
      <trkpt lat="43.51006" lon="2.47165">
        <ele>563.47</ele>
        <time>2020-10-18T09:19:13Z</time>
      </trkpt>
      <trkpt lat="43.51005" lon="2.47164">
        <ele>562.99</ele>
        <time>2020-10-18T09:19:19Z</time>
      </trkpt>
      <trkpt lat="43.51009" lon="2.47169">
        <ele>564.43</ele>
        <time>2020-10-18T09:19:27Z</time>
      </trkpt>
      <trkpt lat="43.51014" lon="2.47177">
        <ele>567.8</ele>
        <time>2020-10-18T09:19:33Z</time>
      </trkpt>
      <trkpt lat="43.51019" lon="2.47186">
        <ele>571.16</ele>
        <time>2020-10-18T09:19:39Z</time>
      </trkpt>
      <trkpt lat="43.51023" lon="2.47193">
        <ele>574.04</ele>
        <time>2020-10-18T09:19:47Z</time>
      </trkpt>
      <trkpt lat="43.5102" lon="2.47193">
        <ele>573.56</ele>
        <time>2020-10-18T09:19:55Z</time>
      </trkpt>
      <trkpt lat="43.51018" lon="2.47195">
        <ele>573.56</ele>
        <time>2020-10-18T09:20:00Z</time>
      </trkpt>
      <trkpt lat="43.51012" lon="2.47196">
        <ele>572.6</ele>
        <time>2020-10-18T09:20:09Z</time>
      </trkpt>
      <trkpt lat="43.51005" lon="2.47196">
        <ele>571.64</ele>
        <time>2020-10-18T09:20:19Z</time>
      </trkpt>
      <trkpt lat="43.51" lon="2.47199">
        <ele>572.12</ele>
        <time>2020-10-18T09:20:25Z</time>
      </trkpt>
      <trkpt lat="43.50993" lon="2.47201">
        <ele>572.6</ele>
        <time>2020-10-18T09:20:30Z</time>
      </trkpt>
      <trkpt lat="43.50983" lon="2.47205">
        <ele>572.6</ele>
        <time>2020-10-18T09:20:40Z</time>
      </trkpt>
      <trkpt lat="43.50978" lon="2.47212">
        <ele>573.56</ele>
        <time>2020-10-18T09:20:48Z</time>
      </trkpt>
      <trkpt lat="43.5097" lon="2.47219">
        <ele>575.01</ele>
        <time>2020-10-18T09:20:57Z</time>
      </trkpt>
      <trkpt lat="43.50963" lon="2.47223">
        <ele>577.89</ele>
        <time>2020-10-18T09:21:05Z</time>
      </trkpt>
      <trkpt lat="43.50952" lon="2.4723">
        <ele>580.77</ele>
        <time>2020-10-18T09:21:14Z</time>
      </trkpt>
      <trkpt lat="43.50942" lon="2.47245">
        <ele>577.41</ele>
        <time>2020-10-18T09:21:23Z</time>
      </trkpt>
      <trkpt lat="43.50938" lon="2.47263">
        <ele>573.56</ele>
        <time>2020-10-18T09:21:31Z</time>
      </trkpt>
      <trkpt lat="43.50937" lon="2.4727">
        <ele>575.01</ele>
        <time>2020-10-18T09:21:38Z</time>
      </trkpt>
      <trkpt lat="43.50939" lon="2.47275">
        <ele>577.41</ele>
        <time>2020-10-18T09:21:46Z</time>
      </trkpt>
      <trkpt lat="43.50942" lon="2.47276">
        <ele>578.37</ele>
        <time>2020-10-18T09:21:55Z</time>
      </trkpt>
      <trkpt lat="43.50943" lon="2.47277">
        <ele>577.89</ele>
        <time>2020-10-18T09:22:02Z</time>
      </trkpt>
      <trkpt lat="43.50941" lon="2.47282">
        <ele>578.85</ele>
        <time>2020-10-18T09:22:08Z</time>
      </trkpt>
      <trkpt lat="43.50942" lon="2.47282">
        <ele>578.85</ele>
        <time>2020-10-18T09:22:09Z</time>
      </trkpt>
      <trkpt lat="43.50945" lon="2.47301">
        <ele>580.29</ele>
        <time>2020-10-18T09:22:21Z</time>
      </trkpt>
      <trkpt lat="43.50944" lon="2.47311">
        <ele>580.29</ele>
        <time>2020-10-18T09:22:30Z</time>
      </trkpt>
      <trkpt lat="43.50944" lon="2.47316">
        <ele>578.85</ele>
        <time>2020-10-18T09:22:38Z</time>
      </trkpt>
      <trkpt lat="43.50944" lon="2.47316">
        <ele>577.41</ele>
        <time>2020-10-18T09:22:44Z</time>
      </trkpt>
      <trkpt lat="43.50941" lon="2.47316">
        <ele>575.97</ele>
        <time>2020-10-18T09:22:48Z</time>
      </trkpt>
      <trkpt lat="43.5094" lon="2.47319">
        <ele>573.08</ele>
        <time>2020-10-18T09:22:55Z</time>
      </trkpt>
      <trkpt lat="43.5094" lon="2.47319">
        <ele>572.12</ele>
        <time>2020-10-18T09:23:05Z</time>
      </trkpt>
      <trkpt lat="43.50936" lon="2.47319">
        <ele>570.68</ele>
        <time>2020-10-18T09:23:25Z</time>
      </trkpt>
      <trkpt lat="43.50937" lon="2.47319">
        <ele>567.8</ele>
        <time>2020-10-18T09:23:46Z</time>
      </trkpt>
      <trkpt lat="43.50936" lon="2.47319">
        <ele>566.35</ele>
        <time>2020-10-18T09:24:10Z</time>
      </trkpt>
      <trkpt lat="43.50935" lon="2.47319">
        <ele>566.35</ele>
        <time>2020-10-18T09:24:29Z</time>
      </trkpt>
      <trkpt lat="43.50935" lon="2.4732">
        <ele>565.39</ele>
        <time>2020-10-18T09:24:47Z</time>
      </trkpt>
      <trkpt lat="43.50937" lon="2.4732">
        <ele>562.03</ele>
        <time>2020-10-18T09:25:10Z</time>
      </trkpt>
      <trkpt lat="43.50937" lon="2.4732">
        <ele>561.55</ele>
        <time>2020-10-18T09:25:24Z</time>
      </trkpt>
      <trkpt lat="43.50939" lon="2.47319">
        <ele>563.47</ele>
        <time>2020-10-18T09:25:48Z</time>
      </trkpt>
      <trkpt lat="43.50939" lon="2.47322">
        <ele>564.91</ele>
        <time>2020-10-18T09:26:09Z</time>
      </trkpt>
      <trkpt lat="43.50936" lon="2.47319">
        <ele>565.39</ele>
        <time>2020-10-18T09:26:30Z</time>
      </trkpt>
      <trkpt lat="43.50934" lon="2.47315">
        <ele>565.39</ele>
        <time>2020-10-18T09:26:49Z</time>
      </trkpt>
      <trkpt lat="43.50933" lon="2.47317">
        <ele>564.43</ele>
        <time>2020-10-18T09:27:06Z</time>
      </trkpt>
      <trkpt lat="43.50933" lon="2.47317">
        <ele>564.43</ele>
        <time>2020-10-18T09:27:20Z</time>
      </trkpt>
      <trkpt lat="43.50934" lon="2.47319">
        <ele>563.47</ele>
        <time>2020-10-18T09:27:40Z</time>
      </trkpt>
      <trkpt lat="43.50936" lon="2.47321">
        <ele>560.59</ele>
        <time>2020-10-18T09:27:57Z</time>
      </trkpt>
      <trkpt lat="43.50937" lon="2.47322">
        <ele>560.11</ele>
        <time>2020-10-18T09:28:10Z</time>
      </trkpt>
      <trkpt lat="43.5094" lon="2.47322">
        <ele>559.14</ele>
        <time>2020-10-18T09:28:28Z</time>
      </trkpt>
      <trkpt lat="43.5094" lon="2.47323">
        <ele>560.59</ele>
        <time>2020-10-18T09:28:46Z</time>
      </trkpt>
      <trkpt lat="43.5094" lon="2.47325">
        <ele>561.55</ele>
        <time>2020-10-18T09:29:05Z</time>
      </trkpt>
      <trkpt lat="43.50941" lon="2.47323">
        <ele>561.07</ele>
        <time>2020-10-18T09:29:27Z</time>
      </trkpt>
      <trkpt lat="43.50939" lon="2.47322">
        <ele>559.62</ele>
        <time>2020-10-18T09:29:46Z</time>
      </trkpt>
      <trkpt lat="43.50938" lon="2.47321">
        <ele>559.14</ele>
        <time>2020-10-18T09:30:02Z</time>
      </trkpt>
      <trkpt lat="43.50937" lon="2.47318">
        <ele>557.22</ele>
        <time>2020-10-18T09:30:22Z</time>
      </trkpt>
      <trkpt lat="43.50937" lon="2.47319">
        <ele>561.07</ele>
        <time>2020-10-18T09:30:34Z</time>
      </trkpt>
      <trkpt lat="43.50937" lon="2.47321">
        <ele>562.03</ele>
        <time>2020-10-18T09:30:42Z</time>
      </trkpt>
      <trkpt lat="43.50938" lon="2.47323">
        <ele>562.99</ele>
        <time>2020-10-18T09:30:55Z</time>
      </trkpt>
      <trkpt lat="43.50939" lon="2.47323">
        <ele>563.95</ele>
        <time>2020-10-18T09:31:01Z</time>
      </trkpt>
      <trkpt lat="43.5094" lon="2.47324">
        <ele>566.83</ele>
        <time>2020-10-18T09:31:14Z</time>
      </trkpt>
      <trkpt lat="43.5094" lon="2.47324">
        <ele>569.24</ele>
        <time>2020-10-18T09:31:30Z</time>
      </trkpt>
      <trkpt lat="43.50941" lon="2.47326">
        <ele>570.2</ele>
        <time>2020-10-18T09:31:38Z</time>
      </trkpt>
      <trkpt lat="43.50942" lon="2.47324">
        <ele>569.72</ele>
        <time>2020-10-18T09:31:47Z</time>
      </trkpt>
      <trkpt lat="43.50943" lon="2.4732">
        <ele>565.87</ele>
        <time>2020-10-18T09:32:10Z</time>
      </trkpt>
      <trkpt lat="43.50944" lon="2.47323">
        <ele>565.39</ele>
        <time>2020-10-18T09:32:25Z</time>
      </trkpt>
      <trkpt lat="43.50944" lon="2.47321">
        <ele>566.35</ele>
        <time>2020-10-18T09:32:35Z</time>
      </trkpt>
      <trkpt lat="43.50944" lon="2.4732">
        <ele>565.87</ele>
        <time>2020-10-18T09:32:53Z</time>
      </trkpt>
      <trkpt lat="43.50945" lon="2.47319">
        <ele>564.91</ele>
        <time>2020-10-18T09:33:13Z</time>
      </trkpt>
      <trkpt lat="43.50945" lon="2.47319">
        <ele>565.39</ele>
        <time>2020-10-18T09:33:21Z</time>
      </trkpt>
      <trkpt lat="43.50944" lon="2.4732">
        <ele>564.91</ele>
        <time>2020-10-18T09:33:33Z</time>
      </trkpt>
      <trkpt lat="43.50945" lon="2.47322">
        <ele>565.87</ele>
        <time>2020-10-18T09:33:42Z</time>
      </trkpt>
      <trkpt lat="43.50945" lon="2.47325">
        <ele>565.87</ele>
        <time>2020-10-18T09:33:50Z</time>
      </trkpt>
      <trkpt lat="43.50944" lon="2.47337">
        <ele>567.32</ele>
        <time>2020-10-18T09:33:59Z</time>
      </trkpt>
      <trkpt lat="43.50944" lon="2.47346">
        <ele>568.76</ele>
        <time>2020-10-18T09:34:06Z</time>
      </trkpt>
      <trkpt lat="43.50943" lon="2.47357">
        <ele>570.2</ele>
        <time>2020-10-18T09:34:14Z</time>
      </trkpt>
      <trkpt lat="43.50944" lon="2.47363">
        <ele>571.16</ele>
        <time>2020-10-18T09:34:20Z</time>
      </trkpt>
      <trkpt lat="43.50944" lon="2.47371">
        <ele>572.12</ele>
        <time>2020-10-18T09:34:26Z</time>
      </trkpt>
      <trkpt lat="43.50942" lon="2.4738">
        <ele>571.64</ele>
        <time>2020-10-18T09:34:34Z</time>
      </trkpt>
      <trkpt lat="43.5094" lon="2.47388">
        <ele>571.64</ele>
        <time>2020-10-18T09:34:42Z</time>
      </trkpt>
      <trkpt lat="43.50939" lon="2.47396">
        <ele>572.6</ele>
        <time>2020-10-18T09:34:51Z</time>
      </trkpt>
      <trkpt lat="43.50938" lon="2.47406">
        <ele>573.56</ele>
        <time>2020-10-18T09:34:58Z</time>
      </trkpt>
      <trkpt lat="43.50936" lon="2.47417">
        <ele>574.53</ele>
        <time>2020-10-18T09:35:06Z</time>
      </trkpt>
      <trkpt lat="43.50936" lon="2.47432">
        <ele>576.93</ele>
        <time>2020-10-18T09:35:15Z</time>
      </trkpt>
      <trkpt lat="43.50937" lon="2.47445">
        <ele>578.85</ele>
        <time>2020-10-18T09:35:23Z</time>
      </trkpt>
      <trkpt lat="43.50935" lon="2.47456">
        <ele>580.29</ele>
        <time>2020-10-18T09:35:31Z</time>
      </trkpt>
      <trkpt lat="43.50934" lon="2.47466">
        <ele>581.73</ele>
        <time>2020-10-18T09:35:38Z</time>
      </trkpt>
      <trkpt lat="43.50932" lon="2.47477">
        <ele>583.18</ele>
        <time>2020-10-18T09:35:46Z</time>
      </trkpt>
      <trkpt lat="43.50932" lon="2.47487">
        <ele>584.62</ele>
        <time>2020-10-18T09:35:53Z</time>
      </trkpt>
      <trkpt lat="43.50932" lon="2.47499">
        <ele>586.54</ele>
        <time>2020-10-18T09:36:01Z</time>
      </trkpt>
      <trkpt lat="43.50931" lon="2.47511">
        <ele>588.46</ele>
        <time>2020-10-18T09:36:10Z</time>
      </trkpt>
      <trkpt lat="43.50931" lon="2.47525">
        <ele>590.39</ele>
        <time>2020-10-18T09:36:19Z</time>
      </trkpt>
      <trkpt lat="43.5093" lon="2.47541">
        <ele>590.87</ele>
        <time>2020-10-18T09:36:29Z</time>
      </trkpt>
      <trkpt lat="43.50929" lon="2.47557">
        <ele>592.79</ele>
        <time>2020-10-18T09:36:38Z</time>
      </trkpt>
      <trkpt lat="43.50927" lon="2.47572">
        <ele>594.23</ele>
        <time>2020-10-18T09:36:47Z</time>
      </trkpt>
      <trkpt lat="43.50925" lon="2.4758">
        <ele>592.79</ele>
        <time>2020-10-18T09:36:56Z</time>
      </trkpt>
      <trkpt lat="43.50924" lon="2.47588">
        <ele>591.83</ele>
        <time>2020-10-18T09:37:02Z</time>
      </trkpt>
      <trkpt lat="43.50923" lon="2.47602">
        <ele>591.35</ele>
        <time>2020-10-18T09:37:10Z</time>
      </trkpt>
      <trkpt lat="43.50921" lon="2.47617">
        <ele>594.71</ele>
        <time>2020-10-18T09:37:21Z</time>
      </trkpt>
      <trkpt lat="43.50914" lon="2.47625">
        <ele>594.71</ele>
        <time>2020-10-18T09:37:28Z</time>
      </trkpt>
      <trkpt lat="43.50908" lon="2.47638">
        <ele>591.35</ele>
        <time>2020-10-18T09:37:35Z</time>
      </trkpt>
      <trkpt lat="43.50907" lon="2.4765">
        <ele>589.91</ele>
        <time>2020-10-18T09:37:43Z</time>
      </trkpt>
      <trkpt lat="43.50906" lon="2.47668">
        <ele>589.43</ele>
        <time>2020-10-18T09:37:51Z</time>
      </trkpt>
      <trkpt lat="43.50902" lon="2.47687">
        <ele>588.95</ele>
        <time>2020-10-18T09:38:02Z</time>
      </trkpt>
      <trkpt lat="43.50897" lon="2.47709">
        <ele>586.06</ele>
        <time>2020-10-18T09:38:12Z</time>
      </trkpt>
      <trkpt lat="43.50894" lon="2.47724">
        <ele>587.5</ele>
        <time>2020-10-18T09:38:20Z</time>
      </trkpt>
      <trkpt lat="43.50892" lon="2.47734">
        <ele>589.91</ele>
        <time>2020-10-18T09:38:26Z</time>
      </trkpt>
      <trkpt lat="43.50892" lon="2.47739">
        <ele>590.87</ele>
        <time>2020-10-18T09:38:29Z</time>
      </trkpt>
      <trkpt lat="43.5089" lon="2.4776">
        <ele>592.31</ele>
        <time>2020-10-18T09:38:38Z</time>
      </trkpt>
      <trkpt lat="43.50888" lon="2.47784">
        <ele>589.91</ele>
        <time>2020-10-18T09:38:49Z</time>
      </trkpt>
      <trkpt lat="43.50888" lon="2.47805">
        <ele>588.95</ele>
        <time>2020-10-18T09:38:59Z</time>
      </trkpt>
      <trkpt lat="43.50888" lon="2.47821">
        <ele>587.5</ele>
        <time>2020-10-18T09:39:08Z</time>
      </trkpt>
      <trkpt lat="43.50887" lon="2.47835">
        <ele>587.5</ele>
        <time>2020-10-18T09:39:17Z</time>
      </trkpt>
      <trkpt lat="43.50885" lon="2.47849">
        <ele>587.5</ele>
        <time>2020-10-18T09:39:26Z</time>
      </trkpt>
      <trkpt lat="43.50883" lon="2.47858">
        <ele>586.54</ele>
        <time>2020-10-18T09:39:33Z</time>
      </trkpt>
      <trkpt lat="43.50882" lon="2.47863">
        <ele>586.06</ele>
        <time>2020-10-18T09:39:40Z</time>
      </trkpt>
      <trkpt lat="43.50882" lon="2.47863">
        <ele>585.58</ele>
        <time>2020-10-18T09:39:45Z</time>
      </trkpt>
      <trkpt lat="43.50884" lon="2.47865">
        <ele>583.66</ele>
        <time>2020-10-18T09:39:55Z</time>
      </trkpt>
      <trkpt lat="43.50888" lon="2.47881">
        <ele>583.18</ele>
        <time>2020-10-18T09:40:05Z</time>
      </trkpt>
      <trkpt lat="43.5089" lon="2.47889">
        <ele>582.22</ele>
        <time>2020-10-18T09:40:10Z</time>
      </trkpt>
      <trkpt lat="43.50894" lon="2.47906">
        <ele>582.7</ele>
        <time>2020-10-18T09:40:21Z</time>
      </trkpt>
      <trkpt lat="43.50897" lon="2.47918">
        <ele>583.66</ele>
        <time>2020-10-18T09:40:30Z</time>
      </trkpt>
      <trkpt lat="43.509" lon="2.4793">
        <ele>586.06</ele>
        <time>2020-10-18T09:40:39Z</time>
      </trkpt>
      <trkpt lat="43.50903" lon="2.47947">
        <ele>590.39</ele>
        <time>2020-10-18T09:40:50Z</time>
      </trkpt>
      <trkpt lat="43.50903" lon="2.47949">
        <ele>590.39</ele>
        <time>2020-10-18T09:40:51Z</time>
      </trkpt>
      <trkpt lat="43.50904" lon="2.47959">
        <ele>590.39</ele>
        <time>2020-10-18T09:40:56Z</time>
      </trkpt>
      <trkpt lat="43.50906" lon="2.47969">
        <ele>590.39</ele>
        <time>2020-10-18T09:41:03Z</time>
      </trkpt>
      <trkpt lat="43.50909" lon="2.47982">
        <ele>590.87</ele>
        <time>2020-10-18T09:41:12Z</time>
      </trkpt>
      <trkpt lat="43.50913" lon="2.47999">
        <ele>591.83</ele>
        <time>2020-10-18T09:41:22Z</time>
      </trkpt>
      <trkpt lat="43.50917" lon="2.4802">
        <ele>592.31</ele>
        <time>2020-10-18T09:41:34Z</time>
      </trkpt>
      <trkpt lat="43.50921" lon="2.48035">
        <ele>592.31</ele>
        <time>2020-10-18T09:41:43Z</time>
      </trkpt>
      <trkpt lat="43.50925" lon="2.48051">
        <ele>593.27</ele>
        <time>2020-10-18T09:41:53Z</time>
      </trkpt>
      <trkpt lat="43.50926" lon="2.48059">
        <ele>593.75</ele>
        <time>2020-10-18T09:41:59Z</time>
      </trkpt>
      <trkpt lat="43.50928" lon="2.48073">
        <ele>594.71</ele>
        <time>2020-10-18T09:42:07Z</time>
      </trkpt>
      <trkpt lat="43.50931" lon="2.48086">
        <ele>594.23</ele>
        <time>2020-10-18T09:42:15Z</time>
      </trkpt>
      <trkpt lat="43.50933" lon="2.48106">
        <ele>594.71</ele>
        <time>2020-10-18T09:42:26Z</time>
      </trkpt>
      <trkpt lat="43.50936" lon="2.48125">
        <ele>594.23</ele>
        <time>2020-10-18T09:42:36Z</time>
      </trkpt>
      <trkpt lat="43.50939" lon="2.48135">
        <ele>594.23</ele>
        <time>2020-10-18T09:42:42Z</time>
      </trkpt>
      <trkpt lat="43.50941" lon="2.48149">
        <ele>594.71</ele>
        <time>2020-10-18T09:42:51Z</time>
      </trkpt>
      <trkpt lat="43.50944" lon="2.48162">
        <ele>594.71</ele>
        <time>2020-10-18T09:43:00Z</time>
      </trkpt>
      <trkpt lat="43.50949" lon="2.48182">
        <ele>596.64</ele>
        <time>2020-10-18T09:43:13Z</time>
      </trkpt>
      <trkpt lat="43.50952" lon="2.48197">
        <ele>596.64</ele>
        <time>2020-10-18T09:43:22Z</time>
      </trkpt>
      <trkpt lat="43.50956" lon="2.48216">
        <ele>597.6</ele>
        <time>2020-10-18T09:43:33Z</time>
      </trkpt>
      <trkpt lat="43.50958" lon="2.4823">
        <ele>597.12</ele>
        <time>2020-10-18T09:43:42Z</time>
      </trkpt>
      <trkpt lat="43.50961" lon="2.48246">
        <ele>595.67</ele>
        <time>2020-10-18T09:43:52Z</time>
      </trkpt>
      <trkpt lat="43.50965" lon="2.48265">
        <ele>594.71</ele>
        <time>2020-10-18T09:44:02Z</time>
      </trkpt>
      <trkpt lat="43.5097" lon="2.48281">
        <ele>593.27</ele>
        <time>2020-10-18T09:44:11Z</time>
      </trkpt>
      <trkpt lat="43.50971" lon="2.48284">
        <ele>593.27</ele>
        <time>2020-10-18T09:44:13Z</time>
      </trkpt>
      <trkpt lat="43.50973" lon="2.48292">
        <ele>592.79</ele>
        <time>2020-10-18T09:44:18Z</time>
      </trkpt>
      <trkpt lat="43.50974" lon="2.48296">
        <ele>592.31</ele>
        <time>2020-10-18T09:44:20Z</time>
      </trkpt>
      <trkpt lat="43.50977" lon="2.48307">
        <ele>591.83</ele>
        <time>2020-10-18T09:44:27Z</time>
      </trkpt>
      <trkpt lat="43.50984" lon="2.48326">
        <ele>592.31</ele>
        <time>2020-10-18T09:44:38Z</time>
      </trkpt>
      <trkpt lat="43.5099" lon="2.48345">
        <ele>591.83</ele>
        <time>2020-10-18T09:44:48Z</time>
      </trkpt>
      <trkpt lat="43.50997" lon="2.48363">
        <ele>592.79</ele>
        <time>2020-10-18T09:45:00Z</time>
      </trkpt>
      <trkpt lat="43.51006" lon="2.48385">
        <ele>592.31</ele>
        <time>2020-10-18T09:45:15Z</time>
      </trkpt>
      <trkpt lat="43.51014" lon="2.48405">
        <ele>593.27</ele>
        <time>2020-10-18T09:45:27Z</time>
      </trkpt>
      <trkpt lat="43.5102" lon="2.48427">
        <ele>592.31</ele>
        <time>2020-10-18T09:45:39Z</time>
      </trkpt>
      <trkpt lat="43.51025" lon="2.48444">
        <ele>592.79</ele>
        <time>2020-10-18T09:45:49Z</time>
      </trkpt>
      <trkpt lat="43.51028" lon="2.48466">
        <ele>592.79</ele>
        <time>2020-10-18T09:45:59Z</time>
      </trkpt>
      <trkpt lat="43.5103" lon="2.48472">
        <ele>592.31</ele>
        <time>2020-10-18T09:46:03Z</time>
      </trkpt>
      <trkpt lat="43.51033" lon="2.48484">
        <ele>592.79</ele>
        <time>2020-10-18T09:46:10Z</time>
      </trkpt>
      <trkpt lat="43.51034" lon="2.48491">
        <ele>592.31</ele>
        <time>2020-10-18T09:46:14Z</time>
      </trkpt>
      <trkpt lat="43.51038" lon="2.48513">
        <ele>592.31</ele>
        <time>2020-10-18T09:46:26Z</time>
      </trkpt>
      <trkpt lat="43.51039" lon="2.48532">
        <ele>591.83</ele>
        <time>2020-10-18T09:46:36Z</time>
      </trkpt>
      <trkpt lat="43.51042" lon="2.48556">
        <ele>592.31</ele>
        <time>2020-10-18T09:46:49Z</time>
      </trkpt>
      <trkpt lat="43.51042" lon="2.48559">
        <ele>592.31</ele>
        <time>2020-10-18T09:46:51Z</time>
      </trkpt>
      <trkpt lat="43.51043" lon="2.48572">
        <ele>592.79</ele>
        <time>2020-10-18T09:46:58Z</time>
      </trkpt>
      <trkpt lat="43.51044" lon="2.48594">
        <ele>592.31</ele>
        <time>2020-10-18T09:47:10Z</time>
      </trkpt>
      <trkpt lat="43.51044" lon="2.48601">
        <ele>591.83</ele>
        <time>2020-10-18T09:47:14Z</time>
      </trkpt>
      <trkpt lat="43.51044" lon="2.48621">
        <ele>592.31</ele>
        <time>2020-10-18T09:47:25Z</time>
      </trkpt>
      <trkpt lat="43.51044" lon="2.48643">
        <ele>593.27</ele>
        <time>2020-10-18T09:47:37Z</time>
      </trkpt>
      <trkpt lat="43.51044" lon="2.48655">
        <ele>593.27</ele>
        <time>2020-10-18T09:47:45Z</time>
      </trkpt>
      <trkpt lat="43.51044" lon="2.48676">
        <ele>593.27</ele>
        <time>2020-10-18T09:47:57Z</time>
      </trkpt>
      <trkpt lat="43.51042" lon="2.48696">
        <ele>594.71</ele>
        <time>2020-10-18T09:48:09Z</time>
      </trkpt>
      <trkpt lat="43.51041" lon="2.48697">
        <ele>594.71</ele>
        <time>2020-10-18T09:48:10Z</time>
      </trkpt>
      <trkpt lat="43.5104" lon="2.4871">
        <ele>596.15</ele>
        <time>2020-10-18T09:48:18Z</time>
      </trkpt>
      <trkpt lat="43.5104" lon="2.48711">
        <ele>596.64</ele>
        <time>2020-10-18T09:48:19Z</time>
      </trkpt>
      <trkpt lat="43.5104" lon="2.48716">
        <ele>597.6</ele>
        <time>2020-10-18T09:48:22Z</time>
      </trkpt>
      <trkpt lat="43.51036" lon="2.48731">
        <ele>598.56</ele>
        <time>2020-10-18T09:48:31Z</time>
      </trkpt>
      <trkpt lat="43.51033" lon="2.48747">
        <ele>599.52</ele>
        <time>2020-10-18T09:48:40Z</time>
      </trkpt>
      <trkpt lat="43.51033" lon="2.48749">
        <ele>599.52</ele>
        <time>2020-10-18T09:48:41Z</time>
      </trkpt>
      <trkpt lat="43.51032" lon="2.48763">
        <ele>601.44</ele>
        <time>2020-10-18T09:48:49Z</time>
      </trkpt>
      <trkpt lat="43.51031" lon="2.48777">
        <ele>602.88</ele>
        <time>2020-10-18T09:48:58Z</time>
      </trkpt>
      <trkpt lat="43.51029" lon="2.48794">
        <ele>603.85</ele>
        <time>2020-10-18T09:49:08Z</time>
      </trkpt>
      <trkpt lat="43.51029" lon="2.48815">
        <ele>604.81</ele>
        <time>2020-10-18T09:49:19Z</time>
      </trkpt>
      <trkpt lat="43.51029" lon="2.48836">
        <ele>606.25</ele>
        <time>2020-10-18T09:49:30Z</time>
      </trkpt>
      <trkpt lat="43.51028" lon="2.48846">
        <ele>605.77</ele>
        <time>2020-10-18T09:49:35Z</time>
      </trkpt>
      <trkpt lat="43.51028" lon="2.48859">
        <ele>606.73</ele>
        <time>2020-10-18T09:49:43Z</time>
      </trkpt>
      <trkpt lat="43.51025" lon="2.48872">
        <ele>607.21</ele>
        <time>2020-10-18T09:49:51Z</time>
      </trkpt>
      <trkpt lat="43.51023" lon="2.48884">
        <ele>608.65</ele>
        <time>2020-10-18T09:49:59Z</time>
      </trkpt>
      <trkpt lat="43.51023" lon="2.48897">
        <ele>609.13</ele>
        <time>2020-10-18T09:50:08Z</time>
      </trkpt>
      <trkpt lat="43.51023" lon="2.48901">
        <ele>607.21</ele>
        <time>2020-10-18T09:50:16Z</time>
      </trkpt>
      <trkpt lat="43.51024" lon="2.48909">
        <ele>606.25</ele>
        <time>2020-10-18T09:50:22Z</time>
      </trkpt>
      <trkpt lat="43.51024" lon="2.48916">
        <ele>605.29</ele>
        <time>2020-10-18T09:50:27Z</time>
      </trkpt>
      <trkpt lat="43.51021" lon="2.48928">
        <ele>604.33</ele>
        <time>2020-10-18T09:50:34Z</time>
      </trkpt>
      <trkpt lat="43.51023" lon="2.48939">
        <ele>603.36</ele>
        <time>2020-10-18T09:50:41Z</time>
      </trkpt>
      <trkpt lat="43.51027" lon="2.48953">
        <ele>603.36</ele>
        <time>2020-10-18T09:50:49Z</time>
      </trkpt>
      <trkpt lat="43.51031" lon="2.4897">
        <ele>602.4</ele>
        <time>2020-10-18T09:50:58Z</time>
      </trkpt>
      <trkpt lat="43.51033" lon="2.48975">
        <ele>602.4</ele>
        <time>2020-10-18T09:51:01Z</time>
      </trkpt>
      <trkpt lat="43.51038" lon="2.48991">
        <ele>605.29</ele>
        <time>2020-10-18T09:51:12Z</time>
      </trkpt>
      <trkpt lat="43.51042" lon="2.49004">
        <ele>607.21</ele>
        <time>2020-10-18T09:51:21Z</time>
      </trkpt>
      <trkpt lat="43.51047" lon="2.49022">
        <ele>607.69</ele>
        <time>2020-10-18T09:51:32Z</time>
      </trkpt>
      <trkpt lat="43.51054" lon="2.49037">
        <ele>609.61</ele>
        <time>2020-10-18T09:51:42Z</time>
      </trkpt>
      <trkpt lat="43.51059" lon="2.49051">
        <ele>611.54</ele>
        <time>2020-10-18T09:51:51Z</time>
      </trkpt>
      <trkpt lat="43.51064" lon="2.49064">
        <ele>614.42</ele>
        <time>2020-10-18T09:51:59Z</time>
      </trkpt>
      <trkpt lat="43.51069" lon="2.49079">
        <ele>617.78</ele>
        <time>2020-10-18T09:52:08Z</time>
      </trkpt>
      <trkpt lat="43.51074" lon="2.49094">
        <ele>619.71</ele>
        <time>2020-10-18T09:52:17Z</time>
      </trkpt>
      <trkpt lat="43.51079" lon="2.49107">
        <ele>622.11</ele>
        <time>2020-10-18T09:52:26Z</time>
      </trkpt>
      <trkpt lat="43.51083" lon="2.49119">
        <ele>624.99</ele>
        <time>2020-10-18T09:52:34Z</time>
      </trkpt>
      <trkpt lat="43.51083" lon="2.4912">
        <ele>624.99</ele>
        <time>2020-10-18T09:52:35Z</time>
      </trkpt>
      <trkpt lat="43.51086" lon="2.49132">
        <ele>626.44</ele>
        <time>2020-10-18T09:52:44Z</time>
      </trkpt>
      <trkpt lat="43.51089" lon="2.4914">
        <ele>626.92</ele>
        <time>2020-10-18T09:52:52Z</time>
      </trkpt>
      <trkpt lat="43.51091" lon="2.49149">
        <ele>627.4</ele>
        <time>2020-10-18T09:52:59Z</time>
      </trkpt>
      <trkpt lat="43.51091" lon="2.49151">
        <ele>626.92</ele>
        <time>2020-10-18T09:53:00Z</time>
      </trkpt>
      <trkpt lat="43.51091" lon="2.49157">
        <ele>627.4</ele>
        <time>2020-10-18T09:53:05Z</time>
      </trkpt>
      <trkpt lat="43.51093" lon="2.49171">
        <ele>626.92</ele>
        <time>2020-10-18T09:53:14Z</time>
      </trkpt>
      <trkpt lat="43.51095" lon="2.49177">
        <ele>626.44</ele>
        <time>2020-10-18T09:53:22Z</time>
      </trkpt>
      <trkpt lat="43.51097" lon="2.49183">
        <ele>627.4</ele>
        <time>2020-10-18T09:53:26Z</time>
      </trkpt>
      <trkpt lat="43.51103" lon="2.49191">
        <ele>629.32</ele>
        <time>2020-10-18T09:53:35Z</time>
      </trkpt>
      <trkpt lat="43.51104" lon="2.49193">
        <ele>629.8</ele>
        <time>2020-10-18T09:53:37Z</time>
      </trkpt>
      <trkpt lat="43.51109" lon="2.49195">
        <ele>631.24</ele>
        <time>2020-10-18T09:53:43Z</time>
      </trkpt>
      <trkpt lat="43.51113" lon="2.49195">
        <ele>633.65</ele>
        <time>2020-10-18T09:53:50Z</time>
      </trkpt>
      <trkpt lat="43.51116" lon="2.49193">
        <ele>633.65</ele>
        <time>2020-10-18T09:54:00Z</time>
      </trkpt>
      <trkpt lat="43.51122" lon="2.49193">
        <ele>635.09</ele>
        <time>2020-10-18T09:54:08Z</time>
      </trkpt>
      <trkpt lat="43.51128" lon="2.49191">
        <ele>636.53</ele>
        <time>2020-10-18T09:54:15Z</time>
      </trkpt>
      <trkpt lat="43.51133" lon="2.49184">
        <ele>639.41</ele>
        <time>2020-10-18T09:54:23Z</time>
      </trkpt>
      <trkpt lat="43.51135" lon="2.49183">
        <ele>643.26</ele>
        <time>2020-10-18T09:54:29Z</time>
      </trkpt>
      <trkpt lat="43.51133" lon="2.49183">
        <ele>642.78</ele>
        <time>2020-10-18T09:54:37Z</time>
      </trkpt>
      <trkpt lat="43.51134" lon="2.49178">
        <ele>640.86</ele>
        <time>2020-10-18T09:54:51Z</time>
      </trkpt>
      <trkpt lat="43.51135" lon="2.49179">
        <ele>637.97</ele>
        <time>2020-10-18T09:55:05Z</time>
      </trkpt>
      <trkpt lat="43.51137" lon="2.49175">
        <ele>637.01</ele>
        <time>2020-10-18T09:55:13Z</time>
      </trkpt>
      <trkpt lat="43.51142" lon="2.49173">
        <ele>637.49</ele>
        <time>2020-10-18T09:55:20Z</time>
      </trkpt>
      <trkpt lat="43.51147" lon="2.49172">
        <ele>638.45</ele>
        <time>2020-10-18T09:55:27Z</time>
      </trkpt>
      <trkpt lat="43.51152" lon="2.49169">
        <ele>637.97</ele>
        <time>2020-10-18T09:55:33Z</time>
      </trkpt>
      <trkpt lat="43.51155" lon="2.49168">
        <ele>638.93</ele>
        <time>2020-10-18T09:55:37Z</time>
      </trkpt>
      <trkpt lat="43.51161" lon="2.49166">
        <ele>640.38</ele>
        <time>2020-10-18T09:55:45Z</time>
      </trkpt>
      <trkpt lat="43.51164" lon="2.49161">
        <ele>642.78</ele>
        <time>2020-10-18T09:55:53Z</time>
      </trkpt>
      <trkpt lat="43.51171" lon="2.49156">
        <ele>645.18</ele>
        <time>2020-10-18T09:56:02Z</time>
      </trkpt>
      <trkpt lat="43.51174" lon="2.49151">
        <ele>649.51</ele>
        <time>2020-10-18T09:56:09Z</time>
      </trkpt>
      <trkpt lat="43.51179" lon="2.49145">
        <ele>653.35</ele>
        <time>2020-10-18T09:56:16Z</time>
      </trkpt>
      <trkpt lat="43.51183" lon="2.49145">
        <ele>656.24</ele>
        <time>2020-10-18T09:56:23Z</time>
      </trkpt>
      <trkpt lat="43.51185" lon="2.49149">
        <ele>657.68</ele>
        <time>2020-10-18T09:56:30Z</time>
      </trkpt>
      <trkpt lat="43.51187" lon="2.49149">
        <ele>659.6</ele>
        <time>2020-10-18T09:56:37Z</time>
      </trkpt>
      <trkpt lat="43.51187" lon="2.49145">
        <ele>659.12</ele>
        <time>2020-10-18T09:56:41Z</time>
      </trkpt>
      <trkpt lat="43.51193" lon="2.49137">
        <ele>659.12</ele>
        <time>2020-10-18T09:56:48Z</time>
      </trkpt>
      <trkpt lat="43.51196" lon="2.49137">
        <ele>659.6</ele>
        <time>2020-10-18T09:56:52Z</time>
      </trkpt>
      <trkpt lat="43.51206" lon="2.49129">
        <ele>661.04</ele>
        <time>2020-10-18T09:57:00Z</time>
      </trkpt>
      <trkpt lat="43.51216" lon="2.49124">
        <ele>664.41</ele>
        <time>2020-10-18T09:57:08Z</time>
      </trkpt>
      <trkpt lat="43.51222" lon="2.49123">
        <ele>665.85</ele>
        <time>2020-10-18T09:57:13Z</time>
      </trkpt>
      <trkpt lat="43.51229" lon="2.49122">
        <ele>666.81</ele>
        <time>2020-10-18T09:57:20Z</time>
      </trkpt>
      <trkpt lat="43.51237" lon="2.49119">
        <ele>665.37</ele>
        <time>2020-10-18T09:57:28Z</time>
      </trkpt>
      <trkpt lat="43.51246" lon="2.49116">
        <ele>668.25</ele>
        <time>2020-10-18T09:57:36Z</time>
      </trkpt>
      <trkpt lat="43.51253" lon="2.49117">
        <ele>672.1</ele>
        <time>2020-10-18T09:57:44Z</time>
      </trkpt>
      <trkpt lat="43.51258" lon="2.49119">
        <ele>674.02</ele>
        <time>2020-10-18T09:57:49Z</time>
      </trkpt>
      <trkpt lat="43.51269" lon="2.49121">
        <ele>675.94</ele>
        <time>2020-10-18T09:57:58Z</time>
      </trkpt>
      <trkpt lat="43.51278" lon="2.49123">
        <ele>677.39</ele>
        <time>2020-10-18T09:58:06Z</time>
      </trkpt>
      <trkpt lat="43.51287" lon="2.49126">
        <ele>679.79</ele>
        <time>2020-10-18T09:58:15Z</time>
      </trkpt>
      <trkpt lat="43.51293" lon="2.49122">
        <ele>682.67</ele>
        <time>2020-10-18T09:58:23Z</time>
      </trkpt>
      <trkpt lat="43.51297" lon="2.4912">
        <ele>682.67</ele>
        <time>2020-10-18T09:58:29Z</time>
      </trkpt>
      <trkpt lat="43.51301" lon="2.49124">
        <ele>681.71</ele>
        <time>2020-10-18T09:58:36Z</time>
      </trkpt>
      <trkpt lat="43.51309" lon="2.49127">
        <ele>679.31</ele>
        <time>2020-10-18T09:58:44Z</time>
      </trkpt>
      <trkpt lat="43.51316" lon="2.49133">
        <ele>678.35</ele>
        <time>2020-10-18T09:58:52Z</time>
      </trkpt>
      <trkpt lat="43.5132" lon="2.49137">
        <ele>678.35</ele>
        <time>2020-10-18T09:58:57Z</time>
      </trkpt>
      <trkpt lat="43.51333" lon="2.49148">
        <ele>677.39</ele>
        <time>2020-10-18T09:59:06Z</time>
      </trkpt>
      <trkpt lat="43.51339" lon="2.49154">
        <ele>676.42</ele>
        <time>2020-10-18T09:59:12Z</time>
      </trkpt>
      <trkpt lat="43.51346" lon="2.49164">
        <ele>674.98</ele>
        <time>2020-10-18T09:59:20Z</time>
      </trkpt>
      <trkpt lat="43.51353" lon="2.49168">
        <ele>673.06</ele>
        <time>2020-10-18T09:59:27Z</time>
      </trkpt>
      <trkpt lat="43.51355" lon="2.49171">
        <ele>672.58</ele>
        <time>2020-10-18T09:59:29Z</time>
      </trkpt>
      <trkpt lat="43.51364" lon="2.49183">
        <ele>671.14</ele>
        <time>2020-10-18T09:59:38Z</time>
      </trkpt>
      <trkpt lat="43.51371" lon="2.49192">
        <ele>669.7</ele>
        <time>2020-10-18T09:59:46Z</time>
      </trkpt>
      <trkpt lat="43.51377" lon="2.492">
        <ele>668.25</ele>
        <time>2020-10-18T09:59:53Z</time>
      </trkpt>
      <trkpt lat="43.51385" lon="2.49215">
        <ele>664.41</ele>
        <time>2020-10-18T10:00:01Z</time>
      </trkpt>
      <trkpt lat="43.51391" lon="2.49229">
        <ele>662.49</ele>
        <time>2020-10-18T10:00:09Z</time>
      </trkpt>
      <trkpt lat="43.51394" lon="2.49238">
        <ele>660.56</ele>
        <time>2020-10-18T10:00:17Z</time>
      </trkpt>
      <trkpt lat="43.514" lon="2.49248">
        <ele>659.6</ele>
        <time>2020-10-18T10:00:25Z</time>
      </trkpt>
      <trkpt lat="43.51405" lon="2.49259">
        <ele>657.68</ele>
        <time>2020-10-18T10:00:32Z</time>
      </trkpt>
      <trkpt lat="43.51407" lon="2.4927">
        <ele>656.24</ele>
        <time>2020-10-18T10:00:40Z</time>
      </trkpt>
      <trkpt lat="43.5141" lon="2.49282">
        <ele>656.24</ele>
        <time>2020-10-18T10:00:47Z</time>
      </trkpt>
      <trkpt lat="43.51414" lon="2.49293">
        <ele>656.24</ele>
        <time>2020-10-18T10:00:54Z</time>
      </trkpt>
      <trkpt lat="43.51417" lon="2.49306">
        <ele>656.24</ele>
        <time>2020-10-18T10:01:02Z</time>
      </trkpt>
      <trkpt lat="43.51419" lon="2.49318">
        <ele>656.24</ele>
        <time>2020-10-18T10:01:11Z</time>
      </trkpt>
      <trkpt lat="43.51421" lon="2.4933">
        <ele>656.72</ele>
        <time>2020-10-18T10:01:20Z</time>
      </trkpt>
      <trkpt lat="43.51422" lon="2.49339">
        <ele>656.24</ele>
        <time>2020-10-18T10:01:25Z</time>
      </trkpt>
      <trkpt lat="43.51422" lon="2.49352">
        <ele>656.72</ele>
        <time>2020-10-18T10:01:32Z</time>
      </trkpt>
      <trkpt lat="43.51423" lon="2.49372">
        <ele>656.72</ele>
        <time>2020-10-18T10:01:40Z</time>
      </trkpt>
      <trkpt lat="43.51423" lon="2.49387">
        <ele>658.64</ele>
        <time>2020-10-18T10:01:48Z</time>
      </trkpt>
      <trkpt lat="43.51425" lon="2.49399">
        <ele>660.08</ele>
        <time>2020-10-18T10:01:54Z</time>
      </trkpt>
      <trkpt lat="43.51429" lon="2.49413">
        <ele>661.04</ele>
        <time>2020-10-18T10:02:02Z</time>
      </trkpt>
      <trkpt lat="43.5143" lon="2.49422">
        <ele>661.04</ele>
        <time>2020-10-18T10:02:11Z</time>
      </trkpt>
      <trkpt lat="43.51433" lon="2.49432">
        <ele>660.56</ele>
        <time>2020-10-18T10:02:19Z</time>
      </trkpt>
      <trkpt lat="43.51436" lon="2.49445">
        <ele>660.08</ele>
        <time>2020-10-18T10:02:29Z</time>
      </trkpt>
      <trkpt lat="43.5144" lon="2.49463">
        <ele>659.12</ele>
        <time>2020-10-18T10:02:39Z</time>
      </trkpt>
      <trkpt lat="43.51445" lon="2.49478">
        <ele>658.16</ele>
        <time>2020-10-18T10:02:48Z</time>
      </trkpt>
      <trkpt lat="43.51449" lon="2.49489">
        <ele>656.24</ele>
        <time>2020-10-18T10:02:55Z</time>
      </trkpt>
      <trkpt lat="43.51453" lon="2.49504">
        <ele>653.83</ele>
        <time>2020-10-18T10:03:03Z</time>
      </trkpt>
      <trkpt lat="43.51459" lon="2.49513">
        <ele>651.43</ele>
        <time>2020-10-18T10:03:12Z</time>
      </trkpt>
      <trkpt lat="43.5146" lon="2.49516">
        <ele>651.43</ele>
        <time>2020-10-18T10:03:14Z</time>
      </trkpt>
      <trkpt lat="43.51468" lon="2.49525">
        <ele>652.39</ele>
        <time>2020-10-18T10:03:23Z</time>
      </trkpt>
      <trkpt lat="43.51475" lon="2.49533">
        <ele>653.83</ele>
        <time>2020-10-18T10:03:32Z</time>
      </trkpt>
      <trkpt lat="43.51482" lon="2.49544">
        <ele>654.8</ele>
        <time>2020-10-18T10:03:41Z</time>
      </trkpt>
      <trkpt lat="43.51492" lon="2.49559">
        <ele>655.28</ele>
        <time>2020-10-18T10:03:49Z</time>
      </trkpt>
      <trkpt lat="43.51503" lon="2.49568">
        <ele>656.24</ele>
        <time>2020-10-18T10:03:56Z</time>
      </trkpt>
      <trkpt lat="43.5151" lon="2.49574">
        <ele>658.16</ele>
        <time>2020-10-18T10:04:04Z</time>
      </trkpt>
      <trkpt lat="43.51517" lon="2.49575">
        <ele>661.52</ele>
        <time>2020-10-18T10:04:13Z</time>
      </trkpt>
      <trkpt lat="43.5152" lon="2.49576">
        <ele>663.93</ele>
        <time>2020-10-18T10:04:19Z</time>
      </trkpt>
      <trkpt lat="43.51525" lon="2.49577">
        <ele>665.85</ele>
        <time>2020-10-18T10:04:28Z</time>
      </trkpt>
      <trkpt lat="43.51533" lon="2.49578">
        <ele>665.85</ele>
        <time>2020-10-18T10:04:35Z</time>
      </trkpt>
      <trkpt lat="43.51539" lon="2.49575">
        <ele>667.29</ele>
        <time>2020-10-18T10:04:44Z</time>
      </trkpt>
      <trkpt lat="43.51549" lon="2.49576">
        <ele>668.73</ele>
        <time>2020-10-18T10:04:52Z</time>
      </trkpt>
      <trkpt lat="43.51559" lon="2.49573">
        <ele>669.7</ele>
        <time>2020-10-18T10:05:00Z</time>
      </trkpt>
      <trkpt lat="43.51569" lon="2.49576">
        <ele>670.66</ele>
        <time>2020-10-18T10:05:07Z</time>
      </trkpt>
      <trkpt lat="43.51579" lon="2.49575">
        <ele>672.1</ele>
        <time>2020-10-18T10:05:13Z</time>
      </trkpt>
      <trkpt lat="43.51584" lon="2.49576">
        <ele>675.94</ele>
        <time>2020-10-18T10:05:20Z</time>
      </trkpt>
      <trkpt lat="43.5159" lon="2.49573">
        <ele>680.27</ele>
        <time>2020-10-18T10:05:28Z</time>
      </trkpt>
      <trkpt lat="43.51599" lon="2.49574">
        <ele>685.56</ele>
        <time>2020-10-18T10:05:37Z</time>
      </trkpt>
      <trkpt lat="43.51605" lon="2.49574">
        <ele>687.96</ele>
        <time>2020-10-18T10:05:43Z</time>
      </trkpt>
      <trkpt lat="43.51615" lon="2.49566">
        <ele>686.04</ele>
        <time>2020-10-18T10:05:50Z</time>
      </trkpt>
      <trkpt lat="43.51625" lon="2.4956">
        <ele>681.71</ele>
        <time>2020-10-18T10:05:57Z</time>
      </trkpt>
      <trkpt lat="43.51631" lon="2.49559">
        <ele>683.63</ele>
        <time>2020-10-18T10:06:05Z</time>
      </trkpt>
      <trkpt lat="43.51639" lon="2.49557">
        <ele>685.56</ele>
        <time>2020-10-18T10:06:13Z</time>
      </trkpt>
      <trkpt lat="43.5166" lon="2.49555">
        <ele>670.66</ele>
        <time>2020-10-18T10:06:24Z</time>
      </trkpt>
      <trkpt lat="43.51667" lon="2.4955">
        <ele>665.85</ele>
        <time>2020-10-18T10:06:33Z</time>
      </trkpt>
      <trkpt lat="43.51668" lon="2.49546">
        <ele>665.85</ele>
        <time>2020-10-18T10:06:40Z</time>
      </trkpt>
      <trkpt lat="43.51673" lon="2.49541">
        <ele>656.72</ele>
        <time>2020-10-18T10:06:48Z</time>
      </trkpt>
      <trkpt lat="43.51674" lon="2.49538">
        <ele>654.31</ele>
        <time>2020-10-18T10:06:55Z</time>
      </trkpt>
      <trkpt lat="43.51672" lon="2.49534">
        <ele>650.95</ele>
        <time>2020-10-18T10:07:04Z</time>
      </trkpt>
      <trkpt lat="43.51668" lon="2.4953">
        <ele>640.38</ele>
        <time>2020-10-18T10:07:11Z</time>
      </trkpt>
      <trkpt lat="43.51671" lon="2.49527">
        <ele>625.96</ele>
        <time>2020-10-18T10:07:18Z</time>
      </trkpt>
      <trkpt lat="43.51669" lon="2.49523">
        <ele>625.47</ele>
        <time>2020-10-18T10:07:23Z</time>
      </trkpt>
      <trkpt lat="43.51664" lon="2.49519">
        <ele>625.47</ele>
        <time>2020-10-18T10:07:31Z</time>
      </trkpt>
      <trkpt lat="43.51658" lon="2.49515">
        <ele>624.51</ele>
        <time>2020-10-18T10:07:40Z</time>
      </trkpt>
      <trkpt lat="43.51656" lon="2.49517">
        <ele>623.55</ele>
        <time>2020-10-18T10:07:48Z</time>
      </trkpt>
      <trkpt lat="43.51656" lon="2.4952">
        <ele>624.51</ele>
        <time>2020-10-18T10:07:56Z</time>
      </trkpt>
      <trkpt lat="43.51658" lon="2.49521">
        <ele>628.84</ele>
        <time>2020-10-18T10:08:07Z</time>
      </trkpt>
      <trkpt lat="43.51661" lon="2.49519">
        <ele>633.17</ele>
        <time>2020-10-18T10:08:15Z</time>
      </trkpt>
      <trkpt lat="43.51661" lon="2.49514">
        <ele>636.53</ele>
        <time>2020-10-18T10:08:22Z</time>
      </trkpt>
      <trkpt lat="43.51666" lon="2.49514">
        <ele>639.89</ele>
        <time>2020-10-18T10:08:30Z</time>
      </trkpt>
      <trkpt lat="43.51674" lon="2.4951">
        <ele>642.3</ele>
        <time>2020-10-18T10:08:38Z</time>
      </trkpt>
      <trkpt lat="43.5168" lon="2.49506">
        <ele>645.18</ele>
        <time>2020-10-18T10:08:46Z</time>
      </trkpt>
      <trkpt lat="43.51686" lon="2.49502">
        <ele>646.62</ele>
        <time>2020-10-18T10:08:54Z</time>
      </trkpt>
      <trkpt lat="43.51696" lon="2.49497">
        <ele>645.18</ele>
        <time>2020-10-18T10:09:04Z</time>
      </trkpt>
      <trkpt lat="43.51701" lon="2.49493">
        <ele>633.65</ele>
        <time>2020-10-18T10:09:11Z</time>
      </trkpt>
      <trkpt lat="43.51703" lon="2.49497">
        <ele>625.47</ele>
        <time>2020-10-18T10:09:23Z</time>
      </trkpt>
      <trkpt lat="43.51709" lon="2.49498">
        <ele>619.71</ele>
        <time>2020-10-18T10:09:33Z</time>
      </trkpt>
      <trkpt lat="43.51713" lon="2.49499">
        <ele>614.42</ele>
        <time>2020-10-18T10:09:42Z</time>
      </trkpt>
      <trkpt lat="43.51714" lon="2.49502">
        <ele>614.42</ele>
        <time>2020-10-18T10:09:51Z</time>
      </trkpt>
      <trkpt lat="43.51717" lon="2.49502">
        <ele>612.98</ele>
        <time>2020-10-18T10:10:02Z</time>
      </trkpt>
      <trkpt lat="43.51721" lon="2.495">
        <ele>610.09</ele>
        <time>2020-10-18T10:10:16Z</time>
      </trkpt>
      <trkpt lat="43.51725" lon="2.495">
        <ele>604.81</ele>
        <time>2020-10-18T10:10:28Z</time>
      </trkpt>
      <trkpt lat="43.51731" lon="2.495">
        <ele>598.08</ele>
        <time>2020-10-18T10:10:40Z</time>
      </trkpt>
      <trkpt lat="43.51733" lon="2.495">
        <ele>591.83</ele>
        <time>2020-10-18T10:10:48Z</time>
      </trkpt>
      <trkpt lat="43.51733" lon="2.49493">
        <ele>589.43</ele>
        <time>2020-10-18T10:10:57Z</time>
      </trkpt>
      <trkpt lat="43.51731" lon="2.49489">
        <ele>588.95</ele>
        <time>2020-10-18T10:11:04Z</time>
      </trkpt>
      <trkpt lat="43.5173" lon="2.49496">
        <ele>583.18</ele>
        <time>2020-10-18T10:11:14Z</time>
      </trkpt>
      <trkpt lat="43.51736" lon="2.49496">
        <ele>582.22</ele>
        <time>2020-10-18T10:11:26Z</time>
      </trkpt>
      <trkpt lat="43.51743" lon="2.49492">
        <ele>583.18</ele>
        <time>2020-10-18T10:11:34Z</time>
      </trkpt>
      <trkpt lat="43.51748" lon="2.49487">
        <ele>584.14</ele>
        <time>2020-10-18T10:11:41Z</time>
      </trkpt>
      <trkpt lat="43.51755" lon="2.49481">
        <ele>582.7</ele>
        <time>2020-10-18T10:11:49Z</time>
      </trkpt>
      <trkpt lat="43.5176" lon="2.49473">
        <ele>582.22</ele>
        <time>2020-10-18T10:11:59Z</time>
      </trkpt>
      <trkpt lat="43.51768" lon="2.4947">
        <ele>581.73</ele>
        <time>2020-10-18T10:12:07Z</time>
      </trkpt>
      <trkpt lat="43.5178" lon="2.49463">
        <ele>585.58</ele>
        <time>2020-10-18T10:12:16Z</time>
      </trkpt>
      <trkpt lat="43.51785" lon="2.49456">
        <ele>590.39</ele>
        <time>2020-10-18T10:12:26Z</time>
      </trkpt>
      <trkpt lat="43.51794" lon="2.49452">
        <ele>593.27</ele>
        <time>2020-10-18T10:12:36Z</time>
      </trkpt>
      <trkpt lat="43.51802" lon="2.4945">
        <ele>592.79</ele>
        <time>2020-10-18T10:12:45Z</time>
      </trkpt>
      <trkpt lat="43.51809" lon="2.4945">
        <ele>592.79</ele>
        <time>2020-10-18T10:12:52Z</time>
      </trkpt>
      <trkpt lat="43.51816" lon="2.49451">
        <ele>592.79</ele>
        <time>2020-10-18T10:13:00Z</time>
      </trkpt>
      <trkpt lat="43.51826" lon="2.49448">
        <ele>593.75</ele>
        <time>2020-10-18T10:13:12Z</time>
      </trkpt>
      <trkpt lat="43.51835" lon="2.49448">
        <ele>595.19</ele>
        <time>2020-10-18T10:13:21Z</time>
      </trkpt>
      <trkpt lat="43.51841" lon="2.49449">
        <ele>596.64</ele>
        <time>2020-10-18T10:13:27Z</time>
      </trkpt>
      <trkpt lat="43.51847" lon="2.49448">
        <ele>599.04</ele>
        <time>2020-10-18T10:13:36Z</time>
      </trkpt>
      <trkpt lat="43.5185" lon="2.49444">
        <ele>600.48</ele>
        <time>2020-10-18T10:13:43Z</time>
      </trkpt>
      <trkpt lat="43.51853" lon="2.49442">
        <ele>605.77</ele>
        <time>2020-10-18T10:13:51Z</time>
      </trkpt>
      <trkpt lat="43.51857" lon="2.49437">
        <ele>607.21</ele>
        <time>2020-10-18T10:13:57Z</time>
      </trkpt>
      <trkpt lat="43.51863" lon="2.49432">
        <ele>609.61</ele>
        <time>2020-10-18T10:14:05Z</time>
      </trkpt>
      <trkpt lat="43.51869" lon="2.49427">
        <ele>612.5</ele>
        <time>2020-10-18T10:14:15Z</time>
      </trkpt>
      <trkpt lat="43.51878" lon="2.49424">
        <ele>607.21</ele>
        <time>2020-10-18T10:14:31Z</time>
      </trkpt>
      <trkpt lat="43.51881" lon="2.49426">
        <ele>605.77</ele>
        <time>2020-10-18T10:14:41Z</time>
      </trkpt>
      <trkpt lat="43.51889" lon="2.49431">
        <ele>607.21</ele>
        <time>2020-10-18T10:14:50Z</time>
      </trkpt>
      <trkpt lat="43.51898" lon="2.49433">
        <ele>609.13</ele>
        <time>2020-10-18T10:14:57Z</time>
      </trkpt>
      <trkpt lat="43.51908" lon="2.49434">
        <ele>612.5</ele>
        <time>2020-10-18T10:15:07Z</time>
      </trkpt>
      <trkpt lat="43.51917" lon="2.4944">
        <ele>610.09</ele>
        <time>2020-10-18T10:15:20Z</time>
      </trkpt>
      <trkpt lat="43.51923" lon="2.4944">
        <ele>609.61</ele>
        <time>2020-10-18T10:15:29Z</time>
      </trkpt>
      <trkpt lat="43.51929" lon="2.49441">
        <ele>610.57</ele>
        <time>2020-10-18T10:15:37Z</time>
      </trkpt>
      <trkpt lat="43.51933" lon="2.49439">
        <ele>612.98</ele>
        <time>2020-10-18T10:15:44Z</time>
      </trkpt>
      <trkpt lat="43.51941" lon="2.49438">
        <ele>614.9</ele>
        <time>2020-10-18T10:15:52Z</time>
      </trkpt>
      <trkpt lat="43.51947" lon="2.49433">
        <ele>615.86</ele>
        <time>2020-10-18T10:16:00Z</time>
      </trkpt>
      <trkpt lat="43.51948" lon="2.49432">
        <ele>615.38</ele>
        <time>2020-10-18T10:16:01Z</time>
      </trkpt>
      <trkpt lat="43.51957" lon="2.49431">
        <ele>615.38</ele>
        <time>2020-10-18T10:16:10Z</time>
      </trkpt>
      <trkpt lat="43.51963" lon="2.49429">
        <ele>618.75</ele>
        <time>2020-10-18T10:16:19Z</time>
      </trkpt>
      <trkpt lat="43.51964" lon="2.49428">
        <ele>621.63</ele>
        <time>2020-10-18T10:16:27Z</time>
      </trkpt>
      <trkpt lat="43.51968" lon="2.49424">
        <ele>623.07</ele>
        <time>2020-10-18T10:16:39Z</time>
      </trkpt>
      <trkpt lat="43.51976" lon="2.49419">
        <ele>624.03</ele>
        <time>2020-10-18T10:16:47Z</time>
      </trkpt>
      <trkpt lat="43.51984" lon="2.49414">
        <ele>625.96</ele>
        <time>2020-10-18T10:16:54Z</time>
      </trkpt>
      <trkpt lat="43.51995" lon="2.49414">
        <ele>624.51</ele>
        <time>2020-10-18T10:17:02Z</time>
      </trkpt>
      <trkpt lat="43.52003" lon="2.49417">
        <ele>621.15</ele>
        <time>2020-10-18T10:17:09Z</time>
      </trkpt>
      <trkpt lat="43.52015" lon="2.49418">
        <ele>618.26</ele>
        <time>2020-10-18T10:17:16Z</time>
      </trkpt>
      <trkpt lat="43.52025" lon="2.49417">
        <ele>617.3</ele>
        <time>2020-10-18T10:17:25Z</time>
      </trkpt>
      <trkpt lat="43.52026" lon="2.49417">
        <ele>617.78</ele>
        <time>2020-10-18T10:17:26Z</time>
      </trkpt>
      <trkpt lat="43.52031" lon="2.49419">
        <ele>620.19</ele>
        <time>2020-10-18T10:17:33Z</time>
      </trkpt>
      <trkpt lat="43.52036" lon="2.49418">
        <ele>621.63</ele>
        <time>2020-10-18T10:17:39Z</time>
      </trkpt>
      <trkpt lat="43.5204" lon="2.49417">
        <ele>624.51</ele>
        <time>2020-10-18T10:17:46Z</time>
      </trkpt>
      <trkpt lat="43.52044" lon="2.49413">
        <ele>628.36</ele>
        <time>2020-10-18T10:17:54Z</time>
      </trkpt>
      <trkpt lat="43.52048" lon="2.49413">
        <ele>631.24</ele>
        <time>2020-10-18T10:18:01Z</time>
      </trkpt>
      <trkpt lat="43.52057" lon="2.49409">
        <ele>633.65</ele>
        <time>2020-10-18T10:18:08Z</time>
      </trkpt>
      <trkpt lat="43.52064" lon="2.49409">
        <ele>632.68</ele>
        <time>2020-10-18T10:18:15Z</time>
      </trkpt>
      <trkpt lat="43.5207" lon="2.49408">
        <ele>635.09</ele>
        <time>2020-10-18T10:18:21Z</time>
      </trkpt>
      <trkpt lat="43.52078" lon="2.49406">
        <ele>636.05</ele>
        <time>2020-10-18T10:18:29Z</time>
      </trkpt>
      <trkpt lat="43.52082" lon="2.49405">
        <ele>636.53</ele>
        <time>2020-10-18T10:18:32Z</time>
      </trkpt>
      <trkpt lat="43.5209" lon="2.49408">
        <ele>638.45</ele>
        <time>2020-10-18T10:18:41Z</time>
      </trkpt>
      <trkpt lat="43.52095" lon="2.49408">
        <ele>640.38</ele>
        <time>2020-10-18T10:18:47Z</time>
      </trkpt>
      <trkpt lat="43.52103" lon="2.49408">
        <ele>639.41</ele>
        <time>2020-10-18T10:18:54Z</time>
      </trkpt>
      <trkpt lat="43.52113" lon="2.49403">
        <ele>637.49</ele>
        <time>2020-10-18T10:19:02Z</time>
      </trkpt>
      <trkpt lat="43.52126" lon="2.49399">
        <ele>635.57</ele>
        <time>2020-10-18T10:19:13Z</time>
      </trkpt>
      <trkpt lat="43.52138" lon="2.49395">
        <ele>632.68</ele>
        <time>2020-10-18T10:19:21Z</time>
      </trkpt>
      <trkpt lat="43.52144" lon="2.49394">
        <ele>637.01</ele>
        <time>2020-10-18T10:19:30Z</time>
      </trkpt>
      <trkpt lat="43.52152" lon="2.49391">
        <ele>640.86</ele>
        <time>2020-10-18T10:19:38Z</time>
      </trkpt>
      <trkpt lat="43.52156" lon="2.49385">
        <ele>644.22</ele>
        <time>2020-10-18T10:19:48Z</time>
      </trkpt>
      <trkpt lat="43.52164" lon="2.49381">
        <ele>645.18</ele>
        <time>2020-10-18T10:19:57Z</time>
      </trkpt>
      <trkpt lat="43.5217" lon="2.49381">
        <ele>645.18</ele>
        <time>2020-10-18T10:20:03Z</time>
      </trkpt>
      <trkpt lat="43.52178" lon="2.49379">
        <ele>645.66</ele>
        <time>2020-10-18T10:20:10Z</time>
      </trkpt>
      <trkpt lat="43.52189" lon="2.49381">
        <ele>642.78</ele>
        <time>2020-10-18T10:20:17Z</time>
      </trkpt>
      <trkpt lat="43.52197" lon="2.49388">
        <ele>639.89</ele>
        <time>2020-10-18T10:20:26Z</time>
      </trkpt>
      <trkpt lat="43.52205" lon="2.49391">
        <ele>639.89</ele>
        <time>2020-10-18T10:20:34Z</time>
      </trkpt>
      <trkpt lat="43.52217" lon="2.49387">
        <ele>640.38</ele>
        <time>2020-10-18T10:20:41Z</time>
      </trkpt>
      <trkpt lat="43.52225" lon="2.49387">
        <ele>637.01</ele>
        <time>2020-10-18T10:20:48Z</time>
      </trkpt>
      <trkpt lat="43.5223" lon="2.49388">
        <ele>639.41</ele>
        <time>2020-10-18T10:20:56Z</time>
      </trkpt>
      <trkpt lat="43.52241" lon="2.49387">
        <ele>642.3</ele>
        <time>2020-10-18T10:21:05Z</time>
      </trkpt>
      <trkpt lat="43.52247" lon="2.49382">
        <ele>646.14</ele>
        <time>2020-10-18T10:21:13Z</time>
      </trkpt>
      <trkpt lat="43.52253" lon="2.49381">
        <ele>648.55</ele>
        <time>2020-10-18T10:21:20Z</time>
      </trkpt>
      <trkpt lat="43.5226" lon="2.49374">
        <ele>646.62</ele>
        <time>2020-10-18T10:21:27Z</time>
      </trkpt>
      <trkpt lat="43.52271" lon="2.49367">
        <ele>641.34</ele>
        <time>2020-10-18T10:21:39Z</time>
      </trkpt>
      <trkpt lat="43.52274" lon="2.49368">
        <ele>638.45</ele>
        <time>2020-10-18T10:21:49Z</time>
      </trkpt>
      <trkpt lat="43.52278" lon="2.4937">
        <ele>636.05</ele>
        <time>2020-10-18T10:21:57Z</time>
      </trkpt>
      <trkpt lat="43.5228" lon="2.49368">
        <ele>635.57</ele>
        <time>2020-10-18T10:22:04Z</time>
      </trkpt>
      <trkpt lat="43.52282" lon="2.49367">
        <ele>630.76</ele>
        <time>2020-10-18T10:22:16Z</time>
      </trkpt>
      <trkpt lat="43.52283" lon="2.49367">
        <ele>626.92</ele>
        <time>2020-10-18T10:22:25Z</time>
      </trkpt>
      <trkpt lat="43.52283" lon="2.49367">
        <ele>624.99</ele>
        <time>2020-10-18T10:22:32Z</time>
      </trkpt>
      <trkpt lat="43.52282" lon="2.49371">
        <ele>622.11</ele>
        <time>2020-10-18T10:22:40Z</time>
      </trkpt>
      <trkpt lat="43.52285" lon="2.4937">
        <ele>617.78</ele>
        <time>2020-10-18T10:22:47Z</time>
      </trkpt>
      <trkpt lat="43.52285" lon="2.4937">
        <ele>614.9</ele>
        <time>2020-10-18T10:22:54Z</time>
      </trkpt>
      <trkpt lat="43.52287" lon="2.49369">
        <ele>612.98</ele>
        <time>2020-10-18T10:23:05Z</time>
      </trkpt>
      <trkpt lat="43.52293" lon="2.49365">
        <ele>610.09</ele>
        <time>2020-10-18T10:23:19Z</time>
      </trkpt>
      <trkpt lat="43.52296" lon="2.49364">
        <ele>601.92</ele>
        <time>2020-10-18T10:23:34Z</time>
      </trkpt>
      <trkpt lat="43.52295" lon="2.4937">
        <ele>600.96</ele>
        <time>2020-10-18T10:23:42Z</time>
      </trkpt>
      <trkpt lat="43.52295" lon="2.49377">
        <ele>600.96</ele>
        <time>2020-10-18T10:23:49Z</time>
      </trkpt>
      <trkpt lat="43.52297" lon="2.49383">
        <ele>600.48</ele>
        <time>2020-10-18T10:23:55Z</time>
      </trkpt>
      <trkpt lat="43.52303" lon="2.49394">
        <ele>600.96</ele>
        <time>2020-10-18T10:24:03Z</time>
      </trkpt>
      <trkpt lat="43.52307" lon="2.49404">
        <ele>602.4</ele>
        <time>2020-10-18T10:24:10Z</time>
      </trkpt>
      <trkpt lat="43.52309" lon="2.49407">
        <ele>604.81</ele>
        <time>2020-10-18T10:24:17Z</time>
      </trkpt>
      <trkpt lat="43.52312" lon="2.49409">
        <ele>605.77</ele>
        <time>2020-10-18T10:24:25Z</time>
      </trkpt>
      <trkpt lat="43.52314" lon="2.49419">
        <ele>608.17</ele>
        <time>2020-10-18T10:24:34Z</time>
      </trkpt>
      <trkpt lat="43.52316" lon="2.49427">
        <ele>612.5</ele>
        <time>2020-10-18T10:24:43Z</time>
      </trkpt>
      <trkpt lat="43.52316" lon="2.49434">
        <ele>615.86</ele>
        <time>2020-10-18T10:24:51Z</time>
      </trkpt>
      <trkpt lat="43.52317" lon="2.49447">
        <ele>617.78</ele>
        <time>2020-10-18T10:25:00Z</time>
      </trkpt>
      <trkpt lat="43.52318" lon="2.49454">
        <ele>619.71</ele>
        <time>2020-10-18T10:25:07Z</time>
      </trkpt>
      <trkpt lat="43.52318" lon="2.49464">
        <ele>622.11</ele>
        <time>2020-10-18T10:25:14Z</time>
      </trkpt>
      <trkpt lat="43.5232" lon="2.49476">
        <ele>626.44</ele>
        <time>2020-10-18T10:25:23Z</time>
      </trkpt>
      <trkpt lat="43.52323" lon="2.49489">
        <ele>628.84</ele>
        <time>2020-10-18T10:25:31Z</time>
      </trkpt>
      <trkpt lat="43.52326" lon="2.49497">
        <ele>630.28</ele>
        <time>2020-10-18T10:25:37Z</time>
      </trkpt>
      <trkpt lat="43.52328" lon="2.49502">
        <ele>635.09</ele>
        <time>2020-10-18T10:25:45Z</time>
      </trkpt>
      <trkpt lat="43.52328" lon="2.49508">
        <ele>640.38</ele>
        <time>2020-10-18T10:25:53Z</time>
      </trkpt>
      <trkpt lat="43.52327" lon="2.49513">
        <ele>645.18</ele>
        <time>2020-10-18T10:26:00Z</time>
      </trkpt>
      <trkpt lat="43.52332" lon="2.49522">
        <ele>650.95</ele>
        <time>2020-10-18T10:26:09Z</time>
      </trkpt>
      <trkpt lat="43.52333" lon="2.49528">
        <ele>653.35</ele>
        <time>2020-10-18T10:26:19Z</time>
      </trkpt>
      <trkpt lat="43.52339" lon="2.49538">
        <ele>655.76</ele>
        <time>2020-10-18T10:26:26Z</time>
      </trkpt>
      <trkpt lat="43.52347" lon="2.49546">
        <ele>657.68</ele>
        <time>2020-10-18T10:26:33Z</time>
      </trkpt>
      <trkpt lat="43.52349" lon="2.49551">
        <ele>656.72</ele>
        <time>2020-10-18T10:26:38Z</time>
      </trkpt>
      <trkpt lat="43.52352" lon="2.49555">
        <ele>653.35</ele>
        <time>2020-10-18T10:26:44Z</time>
      </trkpt>
      <trkpt lat="43.52355" lon="2.49562">
        <ele>651.43</ele>
        <time>2020-10-18T10:26:52Z</time>
      </trkpt>
      <trkpt lat="43.52358" lon="2.49561">
        <ele>650.47</ele>
        <time>2020-10-18T10:27:03Z</time>
      </trkpt>
      <trkpt lat="43.52359" lon="2.4956">
        <ele>647.1</ele>
        <time>2020-10-18T10:27:16Z</time>
      </trkpt>
      <trkpt lat="43.52358" lon="2.49562">
        <ele>646.14</ele>
        <time>2020-10-18T10:27:25Z</time>
      </trkpt>
      <trkpt lat="43.52358" lon="2.49563">
        <ele>644.7</ele>
        <time>2020-10-18T10:27:30Z</time>
      </trkpt>
      <trkpt lat="43.52354" lon="2.4957">
        <ele>647.59</ele>
        <time>2020-10-18T10:27:39Z</time>
      </trkpt>
      <trkpt lat="43.52353" lon="2.49575">
        <ele>651.43</ele>
        <time>2020-10-18T10:27:47Z</time>
      </trkpt>
      <trkpt lat="43.52352" lon="2.49578">
        <ele>654.8</ele>
        <time>2020-10-18T10:27:55Z</time>
      </trkpt>
      <trkpt lat="43.52352" lon="2.49585">
        <ele>654.31</ele>
        <time>2020-10-18T10:28:03Z</time>
      </trkpt>
      <trkpt lat="43.52349" lon="2.49592">
        <ele>652.87</ele>
        <time>2020-10-18T10:28:11Z</time>
      </trkpt>
      <trkpt lat="43.52347" lon="2.49596">
        <ele>652.39</ele>
        <time>2020-10-18T10:28:17Z</time>
      </trkpt>
      <trkpt lat="43.5235" lon="2.49602">
        <ele>652.39</ele>
        <time>2020-10-18T10:28:25Z</time>
      </trkpt>
      <trkpt lat="43.52353" lon="2.49608">
        <ele>651.91</ele>
        <time>2020-10-18T10:28:33Z</time>
      </trkpt>
      <trkpt lat="43.52358" lon="2.49615">
        <ele>647.59</ele>
        <time>2020-10-18T10:28:41Z</time>
      </trkpt>
      <trkpt lat="43.5236" lon="2.4962">
        <ele>645.18</ele>
        <time>2020-10-18T10:28:55Z</time>
      </trkpt>
      <trkpt lat="43.52354" lon="2.49624">
        <ele>641.34</ele>
        <time>2020-10-18T10:29:08Z</time>
      </trkpt>
      <trkpt lat="43.52355" lon="2.49629">
        <ele>637.97</ele>
        <time>2020-10-18T10:29:17Z</time>
      </trkpt>
      <trkpt lat="43.52357" lon="2.49635">
        <ele>638.93</ele>
        <time>2020-10-18T10:29:25Z</time>
      </trkpt>
      <trkpt lat="43.52356" lon="2.4964">
        <ele>640.86</ele>
        <time>2020-10-18T10:29:32Z</time>
      </trkpt>
      <trkpt lat="43.52354" lon="2.49642">
        <ele>642.3</ele>
        <time>2020-10-18T10:29:40Z</time>
      </trkpt>
      <trkpt lat="43.52351" lon="2.49643">
        <ele>642.78</ele>
        <time>2020-10-18T10:29:46Z</time>
      </trkpt>
      <trkpt lat="43.52348" lon="2.4965">
        <ele>643.26</ele>
        <time>2020-10-18T10:29:54Z</time>
      </trkpt>
      <trkpt lat="43.52346" lon="2.49655">
        <ele>643.26</ele>
        <time>2020-10-18T10:30:02Z</time>
      </trkpt>
      <trkpt lat="43.52346" lon="2.49659">
        <ele>642.3</ele>
        <time>2020-10-18T10:30:10Z</time>
      </trkpt>
      <trkpt lat="43.52345" lon="2.49661">
        <ele>640.86</ele>
        <time>2020-10-18T10:30:18Z</time>
      </trkpt>
      <trkpt lat="43.52345" lon="2.49663">
        <ele>641.34</ele>
        <time>2020-10-18T10:30:26Z</time>
      </trkpt>
      <trkpt lat="43.52346" lon="2.49667">
        <ele>641.82</ele>
        <time>2020-10-18T10:30:33Z</time>
      </trkpt>
      <trkpt lat="43.52349" lon="2.49668">
        <ele>641.34</ele>
        <time>2020-10-18T10:30:42Z</time>
      </trkpt>
      <trkpt lat="43.52347" lon="2.49666">
        <ele>639.89</ele>
        <time>2020-10-18T10:30:49Z</time>
      </trkpt>
      <trkpt lat="43.5234" lon="2.49667">
        <ele>639.89</ele>
        <time>2020-10-18T10:30:57Z</time>
      </trkpt>
      <trkpt lat="43.52339" lon="2.49669">
        <ele>641.82</ele>
        <time>2020-10-18T10:31:05Z</time>
      </trkpt>
      <trkpt lat="43.52339" lon="2.49671">
        <ele>643.74</ele>
        <time>2020-10-18T10:31:15Z</time>
      </trkpt>
      <trkpt lat="43.52336" lon="2.49676">
        <ele>645.66</ele>
        <time>2020-10-18T10:31:23Z</time>
      </trkpt>
      <trkpt lat="43.52337" lon="2.49679">
        <ele>647.1</ele>
        <time>2020-10-18T10:31:32Z</time>
      </trkpt>
      <trkpt lat="43.5234" lon="2.4968">
        <ele>647.59</ele>
        <time>2020-10-18T10:31:41Z</time>
      </trkpt>
      <trkpt lat="43.52338" lon="2.49683">
        <ele>646.14</ele>
        <time>2020-10-18T10:31:50Z</time>
      </trkpt>
      <trkpt lat="43.5233" lon="2.49689">
        <ele>647.1</ele>
        <time>2020-10-18T10:31:57Z</time>
      </trkpt>
      <trkpt lat="43.52325" lon="2.49692">
        <ele>647.59</ele>
        <time>2020-10-18T10:32:06Z</time>
      </trkpt>
      <trkpt lat="43.52322" lon="2.49691">
        <ele>649.03</ele>
        <time>2020-10-18T10:32:13Z</time>
      </trkpt>
      <trkpt lat="43.52316" lon="2.49693">
        <ele>649.51</ele>
        <time>2020-10-18T10:32:20Z</time>
      </trkpt>
      <trkpt lat="43.52308" lon="2.49697">
        <ele>652.39</ele>
        <time>2020-10-18T10:32:27Z</time>
      </trkpt>
      <trkpt lat="43.52301" lon="2.49704">
        <ele>657.68</ele>
        <time>2020-10-18T10:32:36Z</time>
      </trkpt>
      <trkpt lat="43.52296" lon="2.49709">
        <ele>660.56</ele>
        <time>2020-10-18T10:32:44Z</time>
      </trkpt>
      <trkpt lat="43.52291" lon="2.49716">
        <ele>662.97</ele>
        <time>2020-10-18T10:32:52Z</time>
      </trkpt>
      <trkpt lat="43.52293" lon="2.49725">
        <ele>666.81</ele>
        <time>2020-10-18T10:33:01Z</time>
      </trkpt>
      <trkpt lat="43.52298" lon="2.4973">
        <ele>670.18</ele>
        <time>2020-10-18T10:33:10Z</time>
      </trkpt>
      <trkpt lat="43.52305" lon="2.49739">
        <ele>670.18</ele>
        <time>2020-10-18T10:33:19Z</time>
      </trkpt>
      <trkpt lat="43.52311" lon="2.49743">
        <ele>671.62</ele>
        <time>2020-10-18T10:33:27Z</time>
      </trkpt>
      <trkpt lat="43.52318" lon="2.49752">
        <ele>672.1</ele>
        <time>2020-10-18T10:33:36Z</time>
      </trkpt>
      <trkpt lat="43.52325" lon="2.49761">
        <ele>673.06</ele>
        <time>2020-10-18T10:33:45Z</time>
      </trkpt>
      <trkpt lat="43.52331" lon="2.49775">
        <ele>672.1</ele>
        <time>2020-10-18T10:33:54Z</time>
      </trkpt>
      <trkpt lat="43.52333" lon="2.49788">
        <ele>671.14</ele>
        <time>2020-10-18T10:34:03Z</time>
      </trkpt>
      <trkpt lat="43.52332" lon="2.49797">
        <ele>670.66</ele>
        <time>2020-10-18T10:34:11Z</time>
      </trkpt>
      <trkpt lat="43.52329" lon="2.49806">
        <ele>674.98</ele>
        <time>2020-10-18T10:34:21Z</time>
      </trkpt>
      <trkpt lat="43.52327" lon="2.49812">
        <ele>679.79</ele>
        <time>2020-10-18T10:34:30Z</time>
      </trkpt>
      <trkpt lat="43.52332" lon="2.49832">
        <ele>683.63</ele>
        <time>2020-10-18T10:34:45Z</time>
      </trkpt>
      <trkpt lat="43.52333" lon="2.49835">
        <ele>682.67</ele>
        <time>2020-10-18T10:34:55Z</time>
      </trkpt>
      <trkpt lat="43.52337" lon="2.49832">
        <ele>679.79</ele>
        <time>2020-10-18T10:35:08Z</time>
      </trkpt>
      <trkpt lat="43.52339" lon="2.49835">
        <ele>676.91</ele>
        <time>2020-10-18T10:35:22Z</time>
      </trkpt>
      <trkpt lat="43.52338" lon="2.49837">
        <ele>675.94</ele>
        <time>2020-10-18T10:35:30Z</time>
      </trkpt>
      <trkpt lat="43.52337" lon="2.49843">
        <ele>676.42</ele>
        <time>2020-10-18T10:35:38Z</time>
      </trkpt>
      <trkpt lat="43.5234" lon="2.49853">
        <ele>676.91</ele>
        <time>2020-10-18T10:35:45Z</time>
      </trkpt>
      <trkpt lat="43.52344" lon="2.49864">
        <ele>679.79</ele>
        <time>2020-10-18T10:35:53Z</time>
      </trkpt>
      <trkpt lat="43.52345" lon="2.49867">
        <ele>681.23</ele>
        <time>2020-10-18T10:35:56Z</time>
      </trkpt>
      <trkpt lat="43.52348" lon="2.49882">
        <ele>687</ele>
        <time>2020-10-18T10:36:06Z</time>
      </trkpt>
      <trkpt lat="43.52351" lon="2.49896">
        <ele>691.81</ele>
        <time>2020-10-18T10:36:14Z</time>
      </trkpt>
      <trkpt lat="43.52352" lon="2.49901">
        <ele>692.77</ele>
        <time>2020-10-18T10:36:17Z</time>
      </trkpt>
      <trkpt lat="43.52355" lon="2.4991">
        <ele>694.21</ele>
        <time>2020-10-18T10:36:22Z</time>
      </trkpt>
      <trkpt lat="43.52361" lon="2.49923">
        <ele>697.57</ele>
        <time>2020-10-18T10:36:31Z</time>
      </trkpt>
      <trkpt lat="43.52362" lon="2.49929">
        <ele>699.98</ele>
        <time>2020-10-18T10:36:36Z</time>
      </trkpt>
      <trkpt lat="43.52362" lon="2.49941">
        <ele>704.3</ele>
        <time>2020-10-18T10:36:45Z</time>
      </trkpt>
      <trkpt lat="43.52362" lon="2.49944">
        <ele>705.26</ele>
        <time>2020-10-18T10:36:47Z</time>
      </trkpt>
      <trkpt lat="43.52365" lon="2.49955">
        <ele>708.63</ele>
        <time>2020-10-18T10:36:55Z</time>
      </trkpt>
      <trkpt lat="43.52367" lon="2.49964">
        <ele>711.51</ele>
        <time>2020-10-18T10:37:02Z</time>
      </trkpt>
      <trkpt lat="43.52371" lon="2.49973">
        <ele>713.44</ele>
        <time>2020-10-18T10:37:11Z</time>
      </trkpt>
      <trkpt lat="43.52372" lon="2.49979">
        <ele>712.47</ele>
        <time>2020-10-18T10:37:14Z</time>
      </trkpt>
      <trkpt lat="43.52379" lon="2.49991">
        <ele>712.95</ele>
        <time>2020-10-18T10:37:22Z</time>
      </trkpt>
      <trkpt lat="43.52389" lon="2.49999">
        <ele>713.92</ele>
        <time>2020-10-18T10:37:31Z</time>
      </trkpt>
      <trkpt lat="43.52399" lon="2.50007">
        <ele>710.55</ele>
        <time>2020-10-18T10:37:39Z</time>
      </trkpt>
      <trkpt lat="43.52408" lon="2.50018">
        <ele>703.34</ele>
        <time>2020-10-18T10:37:46Z</time>
      </trkpt>
      <trkpt lat="43.52415" lon="2.50026">
        <ele>693.25</ele>
        <time>2020-10-18T10:37:55Z</time>
      </trkpt>
      <trkpt lat="43.5242" lon="2.50035">
        <ele>688.92</ele>
        <time>2020-10-18T10:38:03Z</time>
      </trkpt>
      <trkpt lat="43.52429" lon="2.50047">
        <ele>688.44</ele>
        <time>2020-10-18T10:38:13Z</time>
      </trkpt>
      <trkpt lat="43.52435" lon="2.50059">
        <ele>687.96</ele>
        <time>2020-10-18T10:38:21Z</time>
      </trkpt>
      <trkpt lat="43.52443" lon="2.50072">
        <ele>686.52</ele>
        <time>2020-10-18T10:38:31Z</time>
      </trkpt>
      <trkpt lat="43.52445" lon="2.50078">
        <ele>686.52</ele>
        <time>2020-10-18T10:38:36Z</time>
      </trkpt>
      <trkpt lat="43.5245" lon="2.50089">
        <ele>687.48</ele>
        <time>2020-10-18T10:38:44Z</time>
      </trkpt>
      <trkpt lat="43.52452" lon="2.50102">
        <ele>690.36</ele>
        <time>2020-10-18T10:38:54Z</time>
      </trkpt>
      <trkpt lat="43.52457" lon="2.5011">
        <ele>692.77</ele>
        <time>2020-10-18T10:39:02Z</time>
      </trkpt>
      <trkpt lat="43.52458" lon="2.50123">
        <ele>689.4</ele>
        <time>2020-10-18T10:39:10Z</time>
      </trkpt>
      <trkpt lat="43.52455" lon="2.50127">
        <ele>686.52</ele>
        <time>2020-10-18T10:39:17Z</time>
      </trkpt>
      <trkpt lat="43.52453" lon="2.50129">
        <ele>687</ele>
        <time>2020-10-18T10:39:21Z</time>
      </trkpt>
      <trkpt lat="43.52453" lon="2.5014">
        <ele>688.92</ele>
        <time>2020-10-18T10:39:29Z</time>
      </trkpt>
      <trkpt lat="43.52457" lon="2.50148">
        <ele>693.25</ele>
        <time>2020-10-18T10:39:37Z</time>
      </trkpt>
      <trkpt lat="43.52461" lon="2.50151">
        <ele>697.09</ele>
        <time>2020-10-18T10:39:44Z</time>
      </trkpt>
      <trkpt lat="43.52465" lon="2.50158">
        <ele>699.02</ele>
        <time>2020-10-18T10:39:57Z</time>
      </trkpt>
      <trkpt lat="43.52469" lon="2.5016">
        <ele>697.09</ele>
        <time>2020-10-18T10:40:07Z</time>
      </trkpt>
      <trkpt lat="43.5247" lon="2.5016">
        <ele>697.09</ele>
        <time>2020-10-18T10:40:09Z</time>
      </trkpt>
      <trkpt lat="43.52477" lon="2.50161">
        <ele>698.53</ele>
        <time>2020-10-18T10:40:16Z</time>
      </trkpt>
      <trkpt lat="43.52479" lon="2.50162">
        <ele>698.53</ele>
        <time>2020-10-18T10:40:18Z</time>
      </trkpt>
      <trkpt lat="43.52487" lon="2.50167">
        <ele>694.21</ele>
        <time>2020-10-18T10:40:27Z</time>
      </trkpt>
      <trkpt lat="43.52495" lon="2.50165">
        <ele>693.25</ele>
        <time>2020-10-18T10:40:35Z</time>
      </trkpt>
      <trkpt lat="43.52501" lon="2.5016">
        <ele>693.25</ele>
        <time>2020-10-18T10:40:44Z</time>
      </trkpt>
      <trkpt lat="43.52507" lon="2.50155">
        <ele>690.36</ele>
        <time>2020-10-18T10:40:54Z</time>
      </trkpt>
      <trkpt lat="43.5251" lon="2.50152">
        <ele>689.88</ele>
        <time>2020-10-18T10:41:01Z</time>
      </trkpt>
      <trkpt lat="43.52513" lon="2.50148">
        <ele>689.4</ele>
        <time>2020-10-18T10:41:08Z</time>
      </trkpt>
      <trkpt lat="43.52516" lon="2.50144">
        <ele>688.44</ele>
        <time>2020-10-18T10:41:13Z</time>
      </trkpt>
      <trkpt lat="43.52517" lon="2.50142">
        <ele>688.44</ele>
        <time>2020-10-18T10:41:16Z</time>
      </trkpt>
      <trkpt lat="43.52523" lon="2.50133">
        <ele>689.4</ele>
        <time>2020-10-18T10:41:25Z</time>
      </trkpt>
      <trkpt lat="43.5253" lon="2.50117">
        <ele>687.96</ele>
        <time>2020-10-18T10:41:33Z</time>
      </trkpt>
      <trkpt lat="43.52532" lon="2.50113">
        <ele>687.48</ele>
        <time>2020-10-18T10:41:37Z</time>
      </trkpt>
      <trkpt lat="43.52533" lon="2.50104">
        <ele>689.88</ele>
        <time>2020-10-18T10:41:46Z</time>
      </trkpt>
      <trkpt lat="43.52536" lon="2.50094">
        <ele>691.81</ele>
        <time>2020-10-18T10:41:55Z</time>
      </trkpt>
      <trkpt lat="43.52538" lon="2.50087">
        <ele>692.29</ele>
        <time>2020-10-18T10:42:03Z</time>
      </trkpt>
      <trkpt lat="43.52544" lon="2.50076">
        <ele>693.25</ele>
        <time>2020-10-18T10:42:10Z</time>
      </trkpt>
      <trkpt lat="43.52549" lon="2.50067">
        <ele>697.09</ele>
        <time>2020-10-18T10:42:17Z</time>
      </trkpt>
      <trkpt lat="43.52551" lon="2.50056">
        <ele>701.9</ele>
        <time>2020-10-18T10:42:25Z</time>
      </trkpt>
      <trkpt lat="43.52549" lon="2.50042">
        <ele>709.11</ele>
        <time>2020-10-18T10:42:36Z</time>
      </trkpt>
      <trkpt lat="43.52543" lon="2.50035">
        <ele>713.92</ele>
        <time>2020-10-18T10:42:44Z</time>
      </trkpt>
      <trkpt lat="43.52539" lon="2.50029">
        <ele>715.84</ele>
        <time>2020-10-18T10:42:50Z</time>
      </trkpt>
      <trkpt lat="43.52535" lon="2.50008">
        <ele>707.19</ele>
        <time>2020-10-18T10:42:58Z</time>
      </trkpt>
      <trkpt lat="43.52535" lon="2.50003">
        <ele>705.26</ele>
        <time>2020-10-18T10:43:00Z</time>
      </trkpt>
      <trkpt lat="43.52535" lon="2.49987">
        <ele>705.26</ele>
        <time>2020-10-18T10:43:09Z</time>
      </trkpt>
      <trkpt lat="43.52535" lon="2.49986">
        <ele>705.26</ele>
        <time>2020-10-18T10:43:10Z</time>
      </trkpt>
      <trkpt lat="43.52537" lon="2.49974">
        <ele>706.23</ele>
        <time>2020-10-18T10:43:19Z</time>
      </trkpt>
      <trkpt lat="43.52536" lon="2.49969">
        <ele>705.26</ele>
        <time>2020-10-18T10:43:25Z</time>
      </trkpt>
      <trkpt lat="43.52538" lon="2.49963">
        <ele>704.3</ele>
        <time>2020-10-18T10:43:29Z</time>
      </trkpt>
      <trkpt lat="43.52541" lon="2.49953">
        <ele>702.86</ele>
        <time>2020-10-18T10:43:38Z</time>
      </trkpt>
      <trkpt lat="43.52544" lon="2.49943">
        <ele>701.42</ele>
        <time>2020-10-18T10:43:48Z</time>
      </trkpt>
      <trkpt lat="43.52546" lon="2.49935">
        <ele>706.23</ele>
        <time>2020-10-18T10:43:56Z</time>
      </trkpt>
      <trkpt lat="43.52547" lon="2.49927">
        <ele>709.59</ele>
        <time>2020-10-18T10:44:04Z</time>
      </trkpt>
      <trkpt lat="43.52554" lon="2.49917">
        <ele>711.99</ele>
        <time>2020-10-18T10:44:13Z</time>
      </trkpt>
      <trkpt lat="43.5256" lon="2.49905">
        <ele>715.84</ele>
        <time>2020-10-18T10:44:21Z</time>
      </trkpt>
      <trkpt lat="43.52567" lon="2.49895">
        <ele>718.72</ele>
        <time>2020-10-18T10:44:29Z</time>
      </trkpt>
      <trkpt lat="43.5257" lon="2.49885">
        <ele>717.76</ele>
        <time>2020-10-18T10:44:35Z</time>
      </trkpt>
      <trkpt lat="43.52576" lon="2.49873">
        <ele>716.8</ele>
        <time>2020-10-18T10:44:44Z</time>
      </trkpt>
      <trkpt lat="43.52583" lon="2.49862">
        <ele>716.8</ele>
        <time>2020-10-18T10:44:52Z</time>
      </trkpt>
      <trkpt lat="43.52587" lon="2.49851">
        <ele>716.32</ele>
        <time>2020-10-18T10:44:59Z</time>
      </trkpt>
      <trkpt lat="43.52593" lon="2.49842">
        <ele>716.8</ele>
        <time>2020-10-18T10:45:07Z</time>
      </trkpt>
      <trkpt lat="43.52596" lon="2.49836">
        <ele>718.24</ele>
        <time>2020-10-18T10:45:14Z</time>
      </trkpt>
      <trkpt lat="43.52596" lon="2.49836">
        <ele>719.2</ele>
        <time>2020-10-18T10:45:22Z</time>
      </trkpt>
      <trkpt lat="43.52595" lon="2.49826">
        <ele>716.8</ele>
        <time>2020-10-18T10:45:33Z</time>
      </trkpt>
      <trkpt lat="43.52601" lon="2.49815">
        <ele>716.8</ele>
        <time>2020-10-18T10:45:41Z</time>
      </trkpt>
      <trkpt lat="43.5261" lon="2.49805">
        <ele>717.76</ele>
        <time>2020-10-18T10:45:49Z</time>
      </trkpt>
      <trkpt lat="43.52616" lon="2.49798">
        <ele>717.76</ele>
        <time>2020-10-18T10:45:56Z</time>
      </trkpt>
      <trkpt lat="43.52622" lon="2.49785">
        <ele>716.32</ele>
        <time>2020-10-18T10:46:05Z</time>
      </trkpt>
      <trkpt lat="43.52631" lon="2.49773">
        <ele>715.36</ele>
        <time>2020-10-18T10:46:14Z</time>
      </trkpt>
      <trkpt lat="43.52636" lon="2.49767">
        <ele>711.99</ele>
        <time>2020-10-18T10:46:21Z</time>
      </trkpt>
      <trkpt lat="43.52641" lon="2.49761">
        <ele>710.55</ele>
        <time>2020-10-18T10:46:28Z</time>
      </trkpt>
      <trkpt lat="43.52646" lon="2.49755">
        <ele>710.55</ele>
        <time>2020-10-18T10:46:36Z</time>
      </trkpt>
      <trkpt lat="43.52647" lon="2.49742">
        <ele>709.11</ele>
        <time>2020-10-18T10:46:48Z</time>
      </trkpt>
      <trkpt lat="43.52648" lon="2.49737">
        <ele>708.15</ele>
        <time>2020-10-18T10:46:59Z</time>
      </trkpt>
      <trkpt lat="43.52653" lon="2.49736">
        <ele>709.11</ele>
        <time>2020-10-18T10:47:18Z</time>
      </trkpt>
      <trkpt lat="43.52654" lon="2.49733">
        <ele>706.71</ele>
        <time>2020-10-18T10:47:24Z</time>
      </trkpt>
      <trkpt lat="43.52657" lon="2.49735">
        <ele>701.42</ele>
        <time>2020-10-18T10:47:34Z</time>
      </trkpt>
      <trkpt lat="43.52661" lon="2.49737">
        <ele>692.77</ele>
        <time>2020-10-18T10:47:41Z</time>
      </trkpt>
      <trkpt lat="43.52665" lon="2.49737">
        <ele>690.84</ele>
        <time>2020-10-18T10:47:49Z</time>
      </trkpt>
      <trkpt lat="43.5267" lon="2.49735">
        <ele>689.88</ele>
        <time>2020-10-18T10:47:58Z</time>
      </trkpt>
      <trkpt lat="43.52676" lon="2.49733">
        <ele>688.92</ele>
        <time>2020-10-18T10:48:04Z</time>
      </trkpt>
      <trkpt lat="43.52683" lon="2.49729">
        <ele>687.48</ele>
        <time>2020-10-18T10:48:13Z</time>
      </trkpt>
      <trkpt lat="43.52691" lon="2.49725">
        <ele>686.52</ele>
        <time>2020-10-18T10:48:22Z</time>
      </trkpt>
      <trkpt lat="43.52697" lon="2.49717">
        <ele>687.96</ele>
        <time>2020-10-18T10:48:31Z</time>
      </trkpt>
      <trkpt lat="43.52702" lon="2.49711">
        <ele>688.44</ele>
        <time>2020-10-18T10:48:38Z</time>
      </trkpt>
      <trkpt lat="43.52707" lon="2.49704">
        <ele>689.4</ele>
        <time>2020-10-18T10:48:47Z</time>
      </trkpt>
      <trkpt lat="43.52712" lon="2.49701">
        <ele>690.84</ele>
        <time>2020-10-18T10:48:55Z</time>
      </trkpt>
      <trkpt lat="43.52719" lon="2.49696">
        <ele>692.29</ele>
        <time>2020-10-18T10:49:04Z</time>
      </trkpt>
      <trkpt lat="43.52728" lon="2.49689">
        <ele>695.65</ele>
        <time>2020-10-18T10:49:12Z</time>
      </trkpt>
      <trkpt lat="43.52737" lon="2.49684">
        <ele>699.5</ele>
        <time>2020-10-18T10:49:20Z</time>
      </trkpt>
      <trkpt lat="43.52745" lon="2.49678">
        <ele>703.34</ele>
        <time>2020-10-18T10:49:28Z</time>
      </trkpt>
      <trkpt lat="43.52759" lon="2.49674">
        <ele>707.67</ele>
        <time>2020-10-18T10:49:39Z</time>
      </trkpt>
      <trkpt lat="43.52769" lon="2.4967">
        <ele>709.59</ele>
        <time>2020-10-18T10:49:47Z</time>
      </trkpt>
      <trkpt lat="43.52779" lon="2.49662">
        <ele>710.07</ele>
        <time>2020-10-18T10:49:54Z</time>
      </trkpt>
      <trkpt lat="43.5279" lon="2.49656">
        <ele>711.51</ele>
        <time>2020-10-18T10:50:03Z</time>
      </trkpt>
      <trkpt lat="43.52792" lon="2.49656">
        <ele>711.51</ele>
        <time>2020-10-18T10:50:04Z</time>
      </trkpt>
      <trkpt lat="43.52796" lon="2.49655">
        <ele>711.51</ele>
        <time>2020-10-18T10:50:07Z</time>
      </trkpt>
      <trkpt lat="43.52807" lon="2.49651">
        <ele>711.99</ele>
        <time>2020-10-18T10:50:16Z</time>
      </trkpt>
      <trkpt lat="43.52813" lon="2.49648">
        <ele>712.47</ele>
        <time>2020-10-18T10:50:21Z</time>
      </trkpt>
      <trkpt lat="43.52824" lon="2.49646">
        <ele>711.51</ele>
        <time>2020-10-18T10:50:31Z</time>
      </trkpt>
      <trkpt lat="43.52836" lon="2.49638">
        <ele>707.67</ele>
        <time>2020-10-18T10:50:40Z</time>
      </trkpt>
      <trkpt lat="43.5284" lon="2.49636">
        <ele>707.67</ele>
        <time>2020-10-18T10:50:44Z</time>
      </trkpt>
      <trkpt lat="43.52851" lon="2.4963">
        <ele>711.03</ele>
        <time>2020-10-18T10:50:54Z</time>
      </trkpt>
      <trkpt lat="43.52862" lon="2.49624">
        <ele>713.44</ele>
        <time>2020-10-18T10:51:04Z</time>
      </trkpt>
      <trkpt lat="43.5287" lon="2.49618">
        <ele>714.88</ele>
        <time>2020-10-18T10:51:11Z</time>
      </trkpt>
      <trkpt lat="43.52878" lon="2.49612">
        <ele>716.32</ele>
        <time>2020-10-18T10:51:18Z</time>
      </trkpt>
      <trkpt lat="43.52889" lon="2.49606">
        <ele>720.16</ele>
        <time>2020-10-18T10:51:26Z</time>
      </trkpt>
      <trkpt lat="43.52893" lon="2.49602">
        <ele>721.61</ele>
        <time>2020-10-18T10:51:31Z</time>
      </trkpt>
      <trkpt lat="43.52899" lon="2.49597">
        <ele>722.57</ele>
        <time>2020-10-18T10:51:38Z</time>
      </trkpt>
      <trkpt lat="43.52906" lon="2.49593">
        <ele>722.09</ele>
        <time>2020-10-18T10:51:45Z</time>
      </trkpt>
      <trkpt lat="43.52912" lon="2.49589">
        <ele>721.61</ele>
        <time>2020-10-18T10:51:53Z</time>
      </trkpt>
      <trkpt lat="43.52916" lon="2.49586">
        <ele>721.61</ele>
        <time>2020-10-18T10:51:59Z</time>
      </trkpt>
      <trkpt lat="43.52921" lon="2.49583">
        <ele>723.05</ele>
        <time>2020-10-18T10:52:05Z</time>
      </trkpt>
      <trkpt lat="43.52925" lon="2.49585">
        <ele>716.8</ele>
        <time>2020-10-18T10:52:14Z</time>
      </trkpt>
      <trkpt lat="43.5293" lon="2.49585">
        <ele>716.32</ele>
        <time>2020-10-18T10:52:22Z</time>
      </trkpt>
      <trkpt lat="43.52939" lon="2.49583">
        <ele>717.28</ele>
        <time>2020-10-18T10:52:30Z</time>
      </trkpt>
      <trkpt lat="43.52943" lon="2.49581">
        <ele>717.28</ele>
        <time>2020-10-18T10:52:33Z</time>
      </trkpt>
      <trkpt lat="43.52953" lon="2.49579">
        <ele>719.2</ele>
        <time>2020-10-18T10:52:43Z</time>
      </trkpt>
      <trkpt lat="43.52959" lon="2.49579">
        <ele>719.68</ele>
        <time>2020-10-18T10:52:49Z</time>
      </trkpt>
      <trkpt lat="43.5297" lon="2.4958">
        <ele>719.68</ele>
        <time>2020-10-18T10:52:58Z</time>
      </trkpt>
      <trkpt lat="43.5298" lon="2.49582">
        <ele>721.13</ele>
        <time>2020-10-18T10:53:07Z</time>
      </trkpt>
      <trkpt lat="43.52991" lon="2.49583">
        <ele>721.61</ele>
        <time>2020-10-18T10:53:15Z</time>
      </trkpt>
      <trkpt lat="43.53001" lon="2.4958">
        <ele>721.13</ele>
        <time>2020-10-18T10:53:24Z</time>
      </trkpt>
      <trkpt lat="43.53008" lon="2.4958">
        <ele>720.16</ele>
        <time>2020-10-18T10:53:31Z</time>
      </trkpt>
      <trkpt lat="43.53019" lon="2.49575">
        <ele>719.2</ele>
        <time>2020-10-18T10:53:39Z</time>
      </trkpt>
      <trkpt lat="43.53029" lon="2.49572">
        <ele>719.2</ele>
        <time>2020-10-18T10:53:47Z</time>
      </trkpt>
      <trkpt lat="43.53038" lon="2.49571">
        <ele>716.8</ele>
        <time>2020-10-18T10:53:56Z</time>
      </trkpt>
      <trkpt lat="43.53052" lon="2.49564">
        <ele>714.88</ele>
        <time>2020-10-18T10:54:06Z</time>
      </trkpt>
      <trkpt lat="43.53058" lon="2.49554">
        <ele>716.32</ele>
        <time>2020-10-18T10:54:15Z</time>
      </trkpt>
      <trkpt lat="43.53058" lon="2.49553">
        <ele>716.32</ele>
        <time>2020-10-18T10:54:16Z</time>
      </trkpt>
      <trkpt lat="43.53057" lon="2.49543">
        <ele>718.24</ele>
        <time>2020-10-18T10:54:22Z</time>
      </trkpt>
      <trkpt lat="43.53052" lon="2.49528">
        <ele>719.2</ele>
        <time>2020-10-18T10:54:30Z</time>
      </trkpt>
      <trkpt lat="43.53051" lon="2.49527">
        <ele>719.2</ele>
        <time>2020-10-18T10:54:31Z</time>
      </trkpt>
      <trkpt lat="43.53047" lon="2.49515">
        <ele>718.24</ele>
        <time>2020-10-18T10:54:39Z</time>
      </trkpt>
      <trkpt lat="43.53049" lon="2.495">
        <ele>717.28</ele>
        <time>2020-10-18T10:54:47Z</time>
      </trkpt>
      <trkpt lat="43.53049" lon="2.49499">
        <ele>717.28</ele>
        <time>2020-10-18T10:54:48Z</time>
      </trkpt>
      <trkpt lat="43.53053" lon="2.49483">
        <ele>715.84</ele>
        <time>2020-10-18T10:55:00Z</time>
      </trkpt>
      <trkpt lat="43.53053" lon="2.49473">
        <ele>716.32</ele>
        <time>2020-10-18T10:55:08Z</time>
      </trkpt>
      <trkpt lat="43.53051" lon="2.49457">
        <ele>714.4</ele>
        <time>2020-10-18T10:55:17Z</time>
      </trkpt>
      <trkpt lat="43.53051" lon="2.49453">
        <ele>714.88</ele>
        <time>2020-10-18T10:55:19Z</time>
      </trkpt>
      <trkpt lat="43.53048" lon="2.49435">
        <ele>712.95</ele>
        <time>2020-10-18T10:55:29Z</time>
      </trkpt>
      <trkpt lat="43.53048" lon="2.4942">
        <ele>712.95</ele>
        <time>2020-10-18T10:55:37Z</time>
      </trkpt>
      <trkpt lat="43.53048" lon="2.49401">
        <ele>712.47</ele>
        <time>2020-10-18T10:55:45Z</time>
      </trkpt>
      <trkpt lat="43.53046" lon="2.49388">
        <ele>711.51</ele>
        <time>2020-10-18T10:55:50Z</time>
      </trkpt>
      <trkpt lat="43.53049" lon="2.4937">
        <ele>711.03</ele>
        <time>2020-10-18T10:56:00Z</time>
      </trkpt>
      <trkpt lat="43.5305" lon="2.49362">
        <ele>710.55</ele>
        <time>2020-10-18T10:56:06Z</time>
      </trkpt>
      <trkpt lat="43.53051" lon="2.49358">
        <ele>708.63</ele>
        <time>2020-10-18T10:56:12Z</time>
      </trkpt>
      <trkpt lat="43.53054" lon="2.49352">
        <ele>707.19</ele>
        <time>2020-10-18T10:56:20Z</time>
      </trkpt>
      <trkpt lat="43.53055" lon="2.49345">
        <ele>707.67</ele>
        <time>2020-10-18T10:56:26Z</time>
      </trkpt>
      <trkpt lat="43.53055" lon="2.49341">
        <ele>708.15</ele>
        <time>2020-10-18T10:56:29Z</time>
      </trkpt>
      <trkpt lat="43.53059" lon="2.49331">
        <ele>709.59</ele>
        <time>2020-10-18T10:56:37Z</time>
      </trkpt>
      <trkpt lat="43.53062" lon="2.49321">
        <ele>712.47</ele>
        <time>2020-10-18T10:56:46Z</time>
      </trkpt>
      <trkpt lat="43.53067" lon="2.49306">
        <ele>714.88</ele>
        <time>2020-10-18T10:56:53Z</time>
      </trkpt>
      <trkpt lat="43.5307" lon="2.493">
        <ele>714.88</ele>
        <time>2020-10-18T10:57:01Z</time>
      </trkpt>
      <trkpt lat="43.53069" lon="2.49297">
        <ele>712.95</ele>
        <time>2020-10-18T10:57:08Z</time>
      </trkpt>
      <trkpt lat="43.53069" lon="2.49296">
        <ele>711.51</ele>
        <time>2020-10-18T10:57:12Z</time>
      </trkpt>
      <trkpt lat="43.53071" lon="2.49289">
        <ele>711.03</ele>
        <time>2020-10-18T10:57:19Z</time>
      </trkpt>
      <trkpt lat="43.53073" lon="2.49284">
        <ele>711.03</ele>
        <time>2020-10-18T10:57:25Z</time>
      </trkpt>
      <trkpt lat="43.53077" lon="2.49269">
        <ele>711.03</ele>
        <time>2020-10-18T10:57:34Z</time>
      </trkpt>
      <trkpt lat="43.53085" lon="2.49256">
        <ele>712.47</ele>
        <time>2020-10-18T10:57:43Z</time>
      </trkpt>
      <trkpt lat="43.53087" lon="2.49248">
        <ele>713.44</ele>
        <time>2020-10-18T10:57:47Z</time>
      </trkpt>
      <trkpt lat="43.53094" lon="2.49226">
        <ele>715.36</ele>
        <time>2020-10-18T10:57:57Z</time>
      </trkpt>
      <trkpt lat="43.53098" lon="2.49212">
        <ele>718.72</ele>
        <time>2020-10-18T10:58:05Z</time>
      </trkpt>
      <trkpt lat="43.53104" lon="2.49197">
        <ele>721.61</ele>
        <time>2020-10-18T10:58:13Z</time>
      </trkpt>
      <trkpt lat="43.53104" lon="2.49195">
        <ele>722.09</ele>
        <time>2020-10-18T10:58:14Z</time>
      </trkpt>
      <trkpt lat="43.53111" lon="2.49185">
        <ele>724.49</ele>
        <time>2020-10-18T10:58:21Z</time>
      </trkpt>
      <trkpt lat="43.53114" lon="2.49179">
        <ele>725.93</ele>
        <time>2020-10-18T10:58:24Z</time>
      </trkpt>
      <trkpt lat="43.53122" lon="2.49168">
        <ele>729.78</ele>
        <time>2020-10-18T10:58:32Z</time>
      </trkpt>
      <trkpt lat="43.53129" lon="2.4916">
        <ele>731.7</ele>
        <time>2020-10-18T10:58:40Z</time>
      </trkpt>
      <trkpt lat="43.53135" lon="2.49154">
        <ele>731.7</ele>
        <time>2020-10-18T10:58:47Z</time>
      </trkpt>
      <trkpt lat="43.53143" lon="2.49152">
        <ele>732.18</ele>
        <time>2020-10-18T10:58:55Z</time>
      </trkpt>
      <trkpt lat="43.53155" lon="2.49151">
        <ele>731.7</ele>
        <time>2020-10-18T10:59:05Z</time>
      </trkpt>
      <trkpt lat="43.53162" lon="2.49152">
        <ele>731.7</ele>
        <time>2020-10-18T10:59:11Z</time>
      </trkpt>
      <trkpt lat="43.53174" lon="2.49151">
        <ele>731.22</ele>
        <time>2020-10-18T10:59:20Z</time>
      </trkpt>
      <trkpt lat="43.53185" lon="2.49155">
        <ele>732.18</ele>
        <time>2020-10-18T10:59:30Z</time>
      </trkpt>
      <trkpt lat="43.53198" lon="2.49158">
        <ele>732.66</ele>
        <time>2020-10-18T10:59:40Z</time>
      </trkpt>
      <trkpt lat="43.53199" lon="2.49158">
        <ele>732.66</ele>
        <time>2020-10-18T10:59:43Z</time>
      </trkpt>
      <trkpt lat="43.53208" lon="2.49158">
        <ele>732.18</ele>
        <time>2020-10-18T10:59:50Z</time>
      </trkpt>
      <trkpt lat="43.53217" lon="2.49155">
        <ele>734.1</ele>
        <time>2020-10-18T10:59:57Z</time>
      </trkpt>
      <trkpt lat="43.5322" lon="2.49153">
        <ele>734.58</ele>
        <time>2020-10-18T10:59:59Z</time>
      </trkpt>
      <trkpt lat="43.53228" lon="2.49137">
        <ele>736.51</ele>
        <time>2020-10-18T11:00:08Z</time>
      </trkpt>
      <trkpt lat="43.5323" lon="2.49121">
        <ele>737.47</ele>
        <time>2020-10-18T11:00:18Z</time>
      </trkpt>
      <trkpt lat="43.53231" lon="2.49106">
        <ele>742.28</ele>
        <time>2020-10-18T11:00:28Z</time>
      </trkpt>
      <trkpt lat="43.53232" lon="2.49103">
        <ele>743.24</ele>
        <time>2020-10-18T11:00:31Z</time>
      </trkpt>
      <trkpt lat="43.53239" lon="2.4909">
        <ele>747.56</ele>
        <time>2020-10-18T11:00:41Z</time>
      </trkpt>
      <trkpt lat="43.53242" lon="2.4908">
        <ele>749.97</ele>
        <time>2020-10-18T11:00:49Z</time>
      </trkpt>
      <trkpt lat="43.53243" lon="2.49072">
        <ele>747.08</ele>
        <time>2020-10-18T11:00:54Z</time>
      </trkpt>
      <trkpt lat="43.53252" lon="2.49054">
        <ele>736.51</ele>
        <time>2020-10-18T11:01:01Z</time>
      </trkpt>
      <trkpt lat="43.53256" lon="2.49046">
        <ele>737.95</ele>
        <time>2020-10-18T11:01:09Z</time>
      </trkpt>
      <trkpt lat="43.5326" lon="2.49036">
        <ele>740.35</ele>
        <time>2020-10-18T11:01:16Z</time>
      </trkpt>
      <trkpt lat="43.53262" lon="2.49032">
        <ele>740.83</ele>
        <time>2020-10-18T11:01:18Z</time>
      </trkpt>
      <trkpt lat="43.53271" lon="2.49021">
        <ele>742.76</ele>
        <time>2020-10-18T11:01:27Z</time>
      </trkpt>
      <trkpt lat="43.53279" lon="2.49006">
        <ele>744.68</ele>
        <time>2020-10-18T11:01:37Z</time>
      </trkpt>
      <trkpt lat="43.53283" lon="2.48993">
        <ele>745.64</ele>
        <time>2020-10-18T11:01:44Z</time>
      </trkpt>
      <trkpt lat="43.53285" lon="2.4899">
        <ele>745.64</ele>
        <time>2020-10-18T11:01:46Z</time>
      </trkpt>
      <trkpt lat="43.53291" lon="2.48981">
        <ele>746.6</ele>
        <time>2020-10-18T11:01:54Z</time>
      </trkpt>
      <trkpt lat="43.53299" lon="2.48967">
        <ele>748.52</ele>
        <time>2020-10-18T11:02:03Z</time>
      </trkpt>
      <trkpt lat="43.53307" lon="2.48956">
        <ele>751.89</ele>
        <time>2020-10-18T11:02:12Z</time>
      </trkpt>
      <trkpt lat="43.53315" lon="2.48938">
        <ele>753.33</ele>
        <time>2020-10-18T11:02:20Z</time>
      </trkpt>
      <trkpt lat="43.53324" lon="2.48923">
        <ele>751.89</ele>
        <time>2020-10-18T11:02:29Z</time>
      </trkpt>
      <trkpt lat="43.53328" lon="2.48911">
        <ele>749.97</ele>
        <time>2020-10-18T11:02:34Z</time>
      </trkpt>
      <trkpt lat="43.53337" lon="2.48891">
        <ele>746.6</ele>
        <time>2020-10-18T11:02:43Z</time>
      </trkpt>
      <trkpt lat="43.53344" lon="2.48874">
        <ele>745.64</ele>
        <time>2020-10-18T11:02:52Z</time>
      </trkpt>
      <trkpt lat="43.53349" lon="2.48863">
        <ele>745.16</ele>
        <time>2020-10-18T11:02:58Z</time>
      </trkpt>
      <trkpt lat="43.53354" lon="2.48857">
        <ele>743.24</ele>
        <time>2020-10-18T11:03:02Z</time>
      </trkpt>
      <trkpt lat="43.53361" lon="2.48841">
        <ele>740.83</ele>
        <time>2020-10-18T11:03:10Z</time>
      </trkpt>
      <trkpt lat="43.53363" lon="2.48834">
        <ele>739.87</ele>
        <time>2020-10-18T11:03:13Z</time>
      </trkpt>
      <trkpt lat="43.53368" lon="2.48825">
        <ele>738.91</ele>
        <time>2020-10-18T11:03:19Z</time>
      </trkpt>
      <trkpt lat="43.53376" lon="2.48807">
        <ele>736.99</ele>
        <time>2020-10-18T11:03:27Z</time>
      </trkpt>
      <trkpt lat="43.53385" lon="2.48793">
        <ele>736.99</ele>
        <time>2020-10-18T11:03:36Z</time>
      </trkpt>
      <trkpt lat="43.5339" lon="2.48787">
        <ele>737.95</ele>
        <time>2020-10-18T11:03:41Z</time>
      </trkpt>
      <trkpt lat="43.53397" lon="2.48777">
        <ele>738.43</ele>
        <time>2020-10-18T11:03:48Z</time>
      </trkpt>
      <trkpt lat="43.53404" lon="2.48767">
        <ele>738.91</ele>
        <time>2020-10-18T11:03:54Z</time>
      </trkpt>
      <trkpt lat="43.53415" lon="2.48751">
        <ele>740.35</ele>
        <time>2020-10-18T11:04:04Z</time>
      </trkpt>
      <trkpt lat="43.53423" lon="2.4874">
        <ele>740.35</ele>
        <time>2020-10-18T11:04:11Z</time>
      </trkpt>
      <trkpt lat="43.53435" lon="2.48725">
        <ele>738.91</ele>
        <time>2020-10-18T11:04:20Z</time>
      </trkpt>
      <trkpt lat="43.53447" lon="2.48715">
        <ele>736.51</ele>
        <time>2020-10-18T11:04:28Z</time>
      </trkpt>
      <trkpt lat="43.53458" lon="2.48708">
        <ele>734.58</ele>
        <time>2020-10-18T11:04:36Z</time>
      </trkpt>
      <trkpt lat="43.53474" lon="2.48701">
        <ele>731.22</ele>
        <time>2020-10-18T11:04:45Z</time>
      </trkpt>
      <trkpt lat="43.53484" lon="2.48696">
        <ele>732.18</ele>
        <time>2020-10-18T11:04:52Z</time>
      </trkpt>
      <trkpt lat="43.53497" lon="2.48692">
        <ele>729.3</ele>
        <time>2020-10-18T11:05:01Z</time>
      </trkpt>
      <trkpt lat="43.5351" lon="2.4869">
        <ele>726.89</ele>
        <time>2020-10-18T11:05:09Z</time>
      </trkpt>
      <trkpt lat="43.53521" lon="2.48689">
        <ele>725.93</ele>
        <time>2020-10-18T11:05:17Z</time>
      </trkpt>
      <trkpt lat="43.53524" lon="2.4869">
        <ele>725.93</ele>
        <time>2020-10-18T11:05:23Z</time>
      </trkpt>
      <trkpt lat="43.53528" lon="2.48683">
        <ele>727.86</ele>
        <time>2020-10-18T11:05:37Z</time>
      </trkpt>
      <trkpt lat="43.53532" lon="2.48681">
        <ele>727.86</ele>
        <time>2020-10-18T11:05:44Z</time>
      </trkpt>
      <trkpt lat="43.53534" lon="2.4868">
        <ele>726.89</ele>
        <time>2020-10-18T11:05:51Z</time>
      </trkpt>
      <trkpt lat="43.53535" lon="2.4868">
        <ele>725.93</ele>
        <time>2020-10-18T11:06:05Z</time>
      </trkpt>
      <trkpt lat="43.53536" lon="2.48681">
        <ele>724.97</ele>
        <time>2020-10-18T11:06:16Z</time>
      </trkpt>
      <trkpt lat="43.53536" lon="2.48684">
        <ele>722.09</ele>
        <time>2020-10-18T11:06:30Z</time>
      </trkpt>
      <trkpt lat="43.5354" lon="2.48684">
        <ele>721.61</ele>
        <time>2020-10-18T11:06:36Z</time>
      </trkpt>
      <trkpt lat="43.53542" lon="2.48687">
        <ele>721.61</ele>
        <time>2020-10-18T11:06:41Z</time>
      </trkpt>
      <trkpt lat="43.5355" lon="2.48691">
        <ele>723.53</ele>
        <time>2020-10-18T11:06:50Z</time>
      </trkpt>
      <trkpt lat="43.53557" lon="2.48691">
        <ele>724.49</ele>
        <time>2020-10-18T11:06:57Z</time>
      </trkpt>
      <trkpt lat="43.53565" lon="2.48694">
        <ele>722.57</ele>
        <time>2020-10-18T11:07:05Z</time>
      </trkpt>
      <trkpt lat="43.53574" lon="2.48696">
        <ele>721.13</ele>
        <time>2020-10-18T11:07:13Z</time>
      </trkpt>
      <trkpt lat="43.53582" lon="2.48701">
        <ele>720.65</ele>
        <time>2020-10-18T11:07:21Z</time>
      </trkpt>
      <trkpt lat="43.53585" lon="2.48703">
        <ele>720.16</ele>
        <time>2020-10-18T11:07:24Z</time>
      </trkpt>
      <trkpt lat="43.53594" lon="2.48709">
        <ele>720.16</ele>
        <time>2020-10-18T11:07:32Z</time>
      </trkpt>
      <trkpt lat="43.536" lon="2.48714">
        <ele>722.09</ele>
        <time>2020-10-18T11:07:38Z</time>
      </trkpt>
      <trkpt lat="43.53604" lon="2.48719">
        <ele>722.57</ele>
        <time>2020-10-18T11:07:43Z</time>
      </trkpt>
      <trkpt lat="43.53603" lon="2.48722">
        <ele>722.57</ele>
        <time>2020-10-18T11:07:50Z</time>
      </trkpt>
      <trkpt lat="43.53603" lon="2.48727">
        <ele>722.09</ele>
        <time>2020-10-18T11:07:57Z</time>
      </trkpt>
      <trkpt lat="43.53601" lon="2.48734">
        <ele>721.13</ele>
        <time>2020-10-18T11:08:05Z</time>
      </trkpt>
      <trkpt lat="43.53596" lon="2.4874">
        <ele>722.09</ele>
        <time>2020-10-18T11:08:13Z</time>
      </trkpt>
      <trkpt lat="43.53592" lon="2.48749">
        <ele>724.49</ele>
        <time>2020-10-18T11:08:22Z</time>
      </trkpt>
      <trkpt lat="43.53584" lon="2.48757">
        <ele>725.93</ele>
        <time>2020-10-18T11:08:31Z</time>
      </trkpt>
      <trkpt lat="43.5358" lon="2.48762">
        <ele>726.41</ele>
        <time>2020-10-18T11:08:36Z</time>
      </trkpt>
      <trkpt lat="43.5357" lon="2.48774">
        <ele>729.3</ele>
        <time>2020-10-18T11:08:46Z</time>
      </trkpt>
      <trkpt lat="43.53564" lon="2.48783">
        <ele>732.18</ele>
        <time>2020-10-18T11:08:54Z</time>
      </trkpt>
      <trkpt lat="43.53555" lon="2.48795">
        <ele>735.07</ele>
        <time>2020-10-18T11:09:03Z</time>
      </trkpt>
      <trkpt lat="43.53552" lon="2.48803">
        <ele>737.47</ele>
        <time>2020-10-18T11:09:09Z</time>
      </trkpt>
      <trkpt lat="43.53547" lon="2.48818">
        <ele>742.76</ele>
        <time>2020-10-18T11:09:18Z</time>
      </trkpt>
      <trkpt lat="43.53546" lon="2.48822">
        <ele>743.24</ele>
        <time>2020-10-18T11:09:20Z</time>
      </trkpt>
      <trkpt lat="43.53545" lon="2.48834">
        <ele>744.68</ele>
        <time>2020-10-18T11:09:26Z</time>
      </trkpt>
      <trkpt lat="43.53546" lon="2.48846">
        <ele>746.12</ele>
        <time>2020-10-18T11:09:31Z</time>
      </trkpt>
      <trkpt lat="43.53551" lon="2.48863">
        <ele>748.52</ele>
        <time>2020-10-18T11:09:40Z</time>
      </trkpt>
      <trkpt lat="43.53557" lon="2.48872">
        <ele>751.89</ele>
        <time>2020-10-18T11:09:48Z</time>
      </trkpt>
      <trkpt lat="43.53562" lon="2.48885">
        <ele>752.85</ele>
        <time>2020-10-18T11:09:56Z</time>
      </trkpt>
      <trkpt lat="43.53566" lon="2.48891">
        <ele>753.81</ele>
        <time>2020-10-18T11:10:03Z</time>
      </trkpt>
      <trkpt lat="43.53567" lon="2.48898">
        <ele>753.33</ele>
        <time>2020-10-18T11:10:07Z</time>
      </trkpt>
      <trkpt lat="43.53566" lon="2.48914">
        <ele>754.77</ele>
        <time>2020-10-18T11:10:15Z</time>
      </trkpt>
      <trkpt lat="43.53565" lon="2.48929">
        <ele>754.77</ele>
        <time>2020-10-18T11:10:22Z</time>
      </trkpt>
      <trkpt lat="43.53565" lon="2.48934">
        <ele>754.77</ele>
        <time>2020-10-18T11:10:24Z</time>
      </trkpt>
      <trkpt lat="43.53572" lon="2.48951">
        <ele>754.29</ele>
        <time>2020-10-18T11:10:34Z</time>
      </trkpt>
      <trkpt lat="43.53577" lon="2.4896">
        <ele>751.89</ele>
        <time>2020-10-18T11:10:43Z</time>
      </trkpt>
      <trkpt lat="43.53584" lon="2.4897">
        <ele>751.89</ele>
        <time>2020-10-18T11:10:52Z</time>
      </trkpt>
      <trkpt lat="43.53585" lon="2.48973">
        <ele>751.89</ele>
        <time>2020-10-18T11:10:54Z</time>
      </trkpt>
      <trkpt lat="43.53588" lon="2.48984">
        <ele>749.97</ele>
        <time>2020-10-18T11:11:02Z</time>
      </trkpt>
      <trkpt lat="43.53589" lon="2.48998">
        <ele>745.16</ele>
        <time>2020-10-18T11:11:11Z</time>
      </trkpt>
      <trkpt lat="43.5359" lon="2.49006">
        <ele>734.58</ele>
        <time>2020-10-18T11:11:18Z</time>
      </trkpt>
      <trkpt lat="43.53594" lon="2.49009">
        <ele>726.41</ele>
        <time>2020-10-18T11:11:25Z</time>
      </trkpt>
      <trkpt lat="43.53592" lon="2.49008">
        <ele>724.97</ele>
        <time>2020-10-18T11:11:31Z</time>
      </trkpt>
      <trkpt lat="43.53591" lon="2.49008">
        <ele>723.05</ele>
        <time>2020-10-18T11:11:37Z</time>
      </trkpt>
      <trkpt lat="43.53591" lon="2.49008">
        <ele>722.09</ele>
        <time>2020-10-18T11:11:40Z</time>
      </trkpt>
      <trkpt lat="43.53584" lon="2.49016">
        <ele>719.68</ele>
        <time>2020-10-18T11:11:48Z</time>
      </trkpt>
      <trkpt lat="43.53582" lon="2.49025">
        <ele>720.16</ele>
        <time>2020-10-18T11:11:56Z</time>
      </trkpt>
      <trkpt lat="43.5358" lon="2.49039">
        <ele>721.61</ele>
        <time>2020-10-18T11:12:04Z</time>
      </trkpt>
      <trkpt lat="43.53581" lon="2.49042">
        <ele>722.09</ele>
        <time>2020-10-18T11:12:06Z</time>
      </trkpt>
      <trkpt lat="43.53585" lon="2.49045">
        <ele>723.05</ele>
        <time>2020-10-18T11:12:13Z</time>
      </trkpt>
      <trkpt lat="43.53586" lon="2.49046">
        <ele>723.53</ele>
        <time>2020-10-18T11:12:17Z</time>
      </trkpt>
      <trkpt lat="43.53584" lon="2.49054">
        <ele>722.09</ele>
        <time>2020-10-18T11:12:24Z</time>
      </trkpt>
      <trkpt lat="43.53584" lon="2.49056">
        <ele>721.61</ele>
        <time>2020-10-18T11:12:27Z</time>
      </trkpt>
      <trkpt lat="43.53583" lon="2.49061">
        <ele>721.13</ele>
        <time>2020-10-18T11:12:30Z</time>
      </trkpt>
      <trkpt lat="43.53584" lon="2.49065">
        <ele>720.65</ele>
        <time>2020-10-18T11:12:36Z</time>
      </trkpt>
      <trkpt lat="43.53582" lon="2.49067">
        <ele>720.16</ele>
        <time>2020-10-18T11:12:42Z</time>
      </trkpt>
      <trkpt lat="43.53582" lon="2.49068">
        <ele>718.24</ele>
        <time>2020-10-18T11:12:52Z</time>
      </trkpt>
      <trkpt lat="43.53582" lon="2.49067">
        <ele>714.4</ele>
        <time>2020-10-18T11:13:07Z</time>
      </trkpt>
      <trkpt lat="43.5358" lon="2.4907">
        <ele>711.99</ele>
        <time>2020-10-18T11:13:22Z</time>
      </trkpt>
      <trkpt lat="43.53581" lon="2.49076">
        <ele>711.51</ele>
        <time>2020-10-18T11:13:30Z</time>
      </trkpt>
      <trkpt lat="43.53583" lon="2.49087">
        <ele>712.95</ele>
        <time>2020-10-18T11:13:38Z</time>
      </trkpt>
      <trkpt lat="43.53585" lon="2.49095">
        <ele>715.36</ele>
        <time>2020-10-18T11:13:47Z</time>
      </trkpt>
      <trkpt lat="43.53586" lon="2.49103">
        <ele>717.28</ele>
        <time>2020-10-18T11:13:55Z</time>
      </trkpt>
      <trkpt lat="43.53586" lon="2.49119">
        <ele>718.72</ele>
        <time>2020-10-18T11:14:04Z</time>
      </trkpt>
      <trkpt lat="43.53587" lon="2.49132">
        <ele>720.65</ele>
        <time>2020-10-18T11:14:12Z</time>
      </trkpt>
      <trkpt lat="43.53591" lon="2.49147">
        <ele>723.05</ele>
        <time>2020-10-18T11:14:21Z</time>
      </trkpt>
      <trkpt lat="43.536" lon="2.49165">
        <ele>726.41</ele>
        <time>2020-10-18T11:14:32Z</time>
      </trkpt>
      <trkpt lat="43.53607" lon="2.49171">
        <ele>722.57</ele>
        <time>2020-10-18T11:14:40Z</time>
      </trkpt>
      <trkpt lat="43.5361" lon="2.49171">
        <ele>718.24</ele>
        <time>2020-10-18T11:14:52Z</time>
      </trkpt>
      <trkpt lat="43.53612" lon="2.49178">
        <ele>718.24</ele>
        <time>2020-10-18T11:14:57Z</time>
      </trkpt>
      <trkpt lat="43.53623" lon="2.4919">
        <ele>721.13</ele>
        <time>2020-10-18T11:15:08Z</time>
      </trkpt>
      <trkpt lat="43.53635" lon="2.492">
        <ele>723.53</ele>
        <time>2020-10-18T11:15:17Z</time>
      </trkpt>
      <trkpt lat="43.53646" lon="2.49209">
        <ele>724.49</ele>
        <time>2020-10-18T11:15:26Z</time>
      </trkpt>
      <trkpt lat="43.5365" lon="2.49211">
        <ele>724.97</ele>
        <time>2020-10-18T11:15:29Z</time>
      </trkpt>
      <trkpt lat="43.53654" lon="2.49214">
        <ele>725.45</ele>
        <time>2020-10-18T11:15:33Z</time>
      </trkpt>
      <trkpt lat="43.53663" lon="2.49221">
        <ele>725.45</ele>
        <time>2020-10-18T11:15:40Z</time>
      </trkpt>
      <trkpt lat="43.53673" lon="2.49233">
        <ele>728.34</ele>
        <time>2020-10-18T11:15:50Z</time>
      </trkpt>
      <trkpt lat="43.53679" lon="2.49243">
        <ele>731.22</ele>
        <time>2020-10-18T11:15:58Z</time>
      </trkpt>
      <trkpt lat="43.53684" lon="2.4925">
        <ele>732.66</ele>
        <time>2020-10-18T11:16:05Z</time>
      </trkpt>
      <trkpt lat="43.53691" lon="2.49261">
        <ele>732.66</ele>
        <time>2020-10-18T11:16:14Z</time>
      </trkpt>
      <trkpt lat="43.53695" lon="2.4927">
        <ele>733.62</ele>
        <time>2020-10-18T11:16:22Z</time>
      </trkpt>
      <trkpt lat="43.53699" lon="2.49278">
        <ele>733.62</ele>
        <time>2020-10-18T11:16:30Z</time>
      </trkpt>
      <trkpt lat="43.53702" lon="2.4929">
        <ele>733.14</ele>
        <time>2020-10-18T11:16:37Z</time>
      </trkpt>
      <trkpt lat="43.53704" lon="2.49295">
        <ele>733.62</ele>
        <time>2020-10-18T11:16:44Z</time>
      </trkpt>
      <trkpt lat="43.53706" lon="2.493">
        <ele>731.7</ele>
        <time>2020-10-18T11:16:52Z</time>
      </trkpt>
      <trkpt lat="43.53706" lon="2.49302">
        <ele>728.82</ele>
        <time>2020-10-18T11:17:04Z</time>
      </trkpt>
      <trkpt lat="43.53705" lon="2.49307">
        <ele>726.41</ele>
        <time>2020-10-18T11:17:14Z</time>
      </trkpt>
      <trkpt lat="43.53705" lon="2.49309">
        <ele>726.89</ele>
        <time>2020-10-18T11:17:16Z</time>
      </trkpt>
      <trkpt lat="43.53708" lon="2.49327">
        <ele>728.34</ele>
        <time>2020-10-18T11:17:27Z</time>
      </trkpt>
      <trkpt lat="43.53709" lon="2.49338">
        <ele>731.7</ele>
        <time>2020-10-18T11:17:35Z</time>
      </trkpt>
      <trkpt lat="43.53708" lon="2.4935">
        <ele>732.18</ele>
        <time>2020-10-18T11:17:45Z</time>
      </trkpt>
      <trkpt lat="43.53707" lon="2.49363">
        <ele>734.58</ele>
        <time>2020-10-18T11:17:53Z</time>
      </trkpt>
      <trkpt lat="43.53707" lon="2.49381">
        <ele>736.99</ele>
        <time>2020-10-18T11:18:04Z</time>
      </trkpt>
      <trkpt lat="43.53708" lon="2.49393">
        <ele>741.31</ele>
        <time>2020-10-18T11:18:12Z</time>
      </trkpt>
      <trkpt lat="43.53712" lon="2.49405">
        <ele>745.16</ele>
        <time>2020-10-18T11:18:21Z</time>
      </trkpt>
      <trkpt lat="43.53716" lon="2.4941">
        <ele>746.12</ele>
        <time>2020-10-18T11:18:32Z</time>
      </trkpt>
      <trkpt lat="43.53719" lon="2.49411">
        <ele>744.2</ele>
        <time>2020-10-18T11:18:39Z</time>
      </trkpt>
      <trkpt lat="43.53723" lon="2.49409">
        <ele>742.76</ele>
        <time>2020-10-18T11:18:45Z</time>
      </trkpt>
      <trkpt lat="43.53728" lon="2.49404">
        <ele>740.83</ele>
        <time>2020-10-18T11:18:54Z</time>
      </trkpt>
      <trkpt lat="43.5373" lon="2.49397">
        <ele>740.35</ele>
        <time>2020-10-18T11:19:02Z</time>
      </trkpt>
      <trkpt lat="43.53732" lon="2.49392">
        <ele>738.91</ele>
        <time>2020-10-18T11:19:10Z</time>
      </trkpt>
      <trkpt lat="43.53734" lon="2.49385">
        <ele>737.47</ele>
        <time>2020-10-18T11:19:16Z</time>
      </trkpt>
      <trkpt lat="43.53739" lon="2.49375">
        <ele>732.18</ele>
        <time>2020-10-18T11:19:25Z</time>
      </trkpt>
      <trkpt lat="43.53745" lon="2.49366">
        <ele>730.26</ele>
        <time>2020-10-18T11:19:34Z</time>
      </trkpt>
      <trkpt lat="43.53747" lon="2.49364">
        <ele>730.26</ele>
        <time>2020-10-18T11:19:37Z</time>
      </trkpt>
      <trkpt lat="43.53748" lon="2.49358">
        <ele>731.22</ele>
        <time>2020-10-18T11:19:44Z</time>
      </trkpt>
      <trkpt lat="43.53751" lon="2.49344">
        <ele>729.78</ele>
        <time>2020-10-18T11:19:52Z</time>
      </trkpt>
      <trkpt lat="43.53757" lon="2.4933">
        <ele>724.49</ele>
        <time>2020-10-18T11:19:59Z</time>
      </trkpt>
      <trkpt lat="43.53759" lon="2.49324">
        <ele>723.05</ele>
        <time>2020-10-18T11:20:06Z</time>
      </trkpt>
      <trkpt lat="43.53762" lon="2.49322">
        <ele>723.53</ele>
        <time>2020-10-18T11:20:15Z</time>
      </trkpt>
      <trkpt lat="43.53767" lon="2.4932">
        <ele>723.05</ele>
        <time>2020-10-18T11:20:22Z</time>
      </trkpt>
      <trkpt lat="43.53773" lon="2.4932">
        <ele>720.16</ele>
        <time>2020-10-18T11:20:30Z</time>
      </trkpt>
      <trkpt lat="43.53777" lon="2.49319">
        <ele>719.2</ele>
        <time>2020-10-18T11:20:36Z</time>
      </trkpt>
      <trkpt lat="43.53787" lon="2.49317">
        <ele>717.76</ele>
        <time>2020-10-18T11:20:44Z</time>
      </trkpt>
      <trkpt lat="43.53789" lon="2.49313">
        <ele>715.84</ele>
        <time>2020-10-18T11:20:52Z</time>
      </trkpt>
      <trkpt lat="43.53797" lon="2.49305">
        <ele>714.4</ele>
        <time>2020-10-18T11:21:01Z</time>
      </trkpt>
      <trkpt lat="43.53801" lon="2.49297">
        <ele>712.95</ele>
        <time>2020-10-18T11:21:08Z</time>
      </trkpt>
      <trkpt lat="43.53802" lon="2.49292">
        <ele>710.07</ele>
        <time>2020-10-18T11:21:14Z</time>
      </trkpt>
      <trkpt lat="43.53802" lon="2.49289">
        <ele>709.59</ele>
        <time>2020-10-18T11:21:21Z</time>
      </trkpt>
      <trkpt lat="43.538" lon="2.4929">
        <ele>708.15</ele>
        <time>2020-10-18T11:21:32Z</time>
      </trkpt>
      <trkpt lat="43.53803" lon="2.49284">
        <ele>707.67</ele>
        <time>2020-10-18T11:21:39Z</time>
      </trkpt>
      <trkpt lat="43.53798" lon="2.49278">
        <ele>704.78</ele>
        <time>2020-10-18T11:21:49Z</time>
      </trkpt>
      <trkpt lat="43.53798" lon="2.49276">
        <ele>705.26</ele>
        <time>2020-10-18T11:22:00Z</time>
      </trkpt>
      <trkpt lat="43.53799" lon="2.49271">
        <ele>702.86</ele>
        <time>2020-10-18T11:22:09Z</time>
      </trkpt>
      <trkpt lat="43.53798" lon="2.49265">
        <ele>702.38</ele>
        <time>2020-10-18T11:22:16Z</time>
      </trkpt>
      <trkpt lat="43.53796" lon="2.49263">
        <ele>700.94</ele>
        <time>2020-10-18T11:22:22Z</time>
      </trkpt>
      <trkpt lat="43.53793" lon="2.49263">
        <ele>697.57</ele>
        <time>2020-10-18T11:22:30Z</time>
      </trkpt>
      <trkpt lat="43.53795" lon="2.4926">
        <ele>695.17</ele>
        <time>2020-10-18T11:22:39Z</time>
      </trkpt>
      <trkpt lat="43.53797" lon="2.49258">
        <ele>693.73</ele>
        <time>2020-10-18T11:22:50Z</time>
      </trkpt>
      <trkpt lat="43.538" lon="2.49258">
        <ele>692.29</ele>
        <time>2020-10-18T11:22:57Z</time>
      </trkpt>
      <trkpt lat="43.53802" lon="2.49257">
        <ele>690.36</ele>
        <time>2020-10-18T11:23:03Z</time>
      </trkpt>
      <trkpt lat="43.53804" lon="2.49248">
        <ele>689.4</ele>
        <time>2020-10-18T11:23:11Z</time>
      </trkpt>
      <trkpt lat="43.53805" lon="2.49245">
        <ele>689.4</ele>
        <time>2020-10-18T11:23:13Z</time>
      </trkpt>
      <trkpt lat="43.53809" lon="2.49235">
        <ele>684.12</ele>
        <time>2020-10-18T11:23:22Z</time>
      </trkpt>
      <trkpt lat="43.53808" lon="2.49232">
        <ele>679.79</ele>
        <time>2020-10-18T11:23:30Z</time>
      </trkpt>
      <trkpt lat="43.53809" lon="2.49225">
        <ele>679.31</ele>
        <time>2020-10-18T11:23:36Z</time>
      </trkpt>
      <trkpt lat="43.5381" lon="2.49223">
        <ele>677.87</ele>
        <time>2020-10-18T11:23:46Z</time>
      </trkpt>
      <trkpt lat="43.53809" lon="2.49223">
        <ele>676.42</ele>
        <time>2020-10-18T11:23:53Z</time>
      </trkpt>
      <trkpt lat="43.5381" lon="2.49219">
        <ele>675.94</ele>
        <time>2020-10-18T11:24:02Z</time>
      </trkpt>
      <trkpt lat="43.53811" lon="2.49207">
        <ele>674.02</ele>
        <time>2020-10-18T11:24:12Z</time>
      </trkpt>
      <trkpt lat="43.5381" lon="2.49206">
        <ele>674.02</ele>
        <time>2020-10-18T11:24:25Z</time>
      </trkpt>
      <trkpt lat="43.53811" lon="2.49206">
        <ele>673.54</ele>
        <time>2020-10-18T11:24:40Z</time>
      </trkpt>
      <trkpt lat="43.5381" lon="2.49206">
        <ele>673.54</ele>
        <time>2020-10-18T11:24:54Z</time>
      </trkpt>
      <trkpt lat="43.53809" lon="2.49207">
        <ele>672.1</ele>
        <time>2020-10-18T11:25:05Z</time>
      </trkpt>
      <trkpt lat="43.5381" lon="2.49205">
        <ele>672.1</ele>
        <time>2020-10-18T11:25:13Z</time>
      </trkpt>
      <trkpt lat="43.5381" lon="2.49206">
        <ele>671.62</ele>
        <time>2020-10-18T11:25:26Z</time>
      </trkpt>
      <trkpt lat="43.53811" lon="2.49207">
        <ele>672.1</ele>
        <time>2020-10-18T11:25:36Z</time>
      </trkpt>
      <trkpt lat="43.53811" lon="2.49207">
        <ele>671.62</ele>
        <time>2020-10-18T11:25:42Z</time>
      </trkpt>
      <trkpt lat="43.53811" lon="2.49208">
        <ele>671.62</ele>
        <time>2020-10-18T11:25:51Z</time>
      </trkpt>
      <trkpt lat="43.5381" lon="2.49209">
        <ele>672.58</ele>
        <time>2020-10-18T11:26:03Z</time>
      </trkpt>
      <trkpt lat="43.5381" lon="2.49206">
        <ele>672.58</ele>
        <time>2020-10-18T11:26:14Z</time>
      </trkpt>
      <trkpt lat="43.53812" lon="2.49199">
        <ele>673.06</ele>
        <time>2020-10-18T11:26:21Z</time>
      </trkpt>
      <trkpt lat="43.53814" lon="2.49196">
        <ele>673.54</ele>
        <time>2020-10-18T11:26:29Z</time>
      </trkpt>
      <trkpt lat="43.53814" lon="2.49194">
        <ele>673.06</ele>
        <time>2020-10-18T11:26:37Z</time>
      </trkpt>
      <trkpt lat="43.53815" lon="2.49189">
        <ele>674.02</ele>
        <time>2020-10-18T11:26:50Z</time>
      </trkpt>
      <trkpt lat="43.53815" lon="2.49187">
        <ele>672.58</ele>
        <time>2020-10-18T11:27:02Z</time>
      </trkpt>
      <trkpt lat="43.53816" lon="2.49182">
        <ele>672.58</ele>
        <time>2020-10-18T11:27:06Z</time>
      </trkpt>
      <trkpt lat="43.53817" lon="2.49172">
        <ele>673.54</ele>
        <time>2020-10-18T11:27:14Z</time>
      </trkpt>
      <trkpt lat="43.53816" lon="2.49172">
        <ele>673.54</ele>
        <time>2020-10-18T11:27:33Z</time>
      </trkpt>
      <trkpt lat="43.53817" lon="2.49169">
        <ele>674.02</ele>
        <time>2020-10-18T11:27:44Z</time>
      </trkpt>
      <trkpt lat="43.5382" lon="2.49157">
        <ele>674.02</ele>
        <time>2020-10-18T11:27:52Z</time>
      </trkpt>
      <trkpt lat="43.53821" lon="2.49152">
        <ele>674.02</ele>
        <time>2020-10-18T11:27:56Z</time>
      </trkpt>
      <trkpt lat="43.53824" lon="2.49135">
        <ele>674.98</ele>
        <time>2020-10-18T11:28:06Z</time>
      </trkpt>
      <trkpt lat="43.53824" lon="2.49132">
        <ele>674.98</ele>
        <time>2020-10-18T11:28:08Z</time>
      </trkpt>
      <trkpt lat="43.53826" lon="2.49121">
        <ele>675.94</ele>
        <time>2020-10-18T11:28:16Z</time>
      </trkpt>
      <trkpt lat="43.53829" lon="2.49105">
        <ele>675.46</ele>
        <time>2020-10-18T11:28:26Z</time>
      </trkpt>
      <trkpt lat="43.5383" lon="2.49095">
        <ele>674.98</ele>
        <time>2020-10-18T11:28:34Z</time>
      </trkpt>
      <trkpt lat="43.53832" lon="2.49081">
        <ele>674.98</ele>
        <time>2020-10-18T11:28:42Z</time>
      </trkpt>
      <trkpt lat="43.53835" lon="2.49068">
        <ele>674.5</ele>
        <time>2020-10-18T11:28:51Z</time>
      </trkpt>
      <trkpt lat="43.53836" lon="2.49055">
        <ele>674.5</ele>
        <time>2020-10-18T11:29:00Z</time>
      </trkpt>
      <trkpt lat="43.53837" lon="2.49048">
        <ele>673.54</ele>
        <time>2020-10-18T11:29:09Z</time>
      </trkpt>
      <trkpt lat="43.53841" lon="2.49045">
        <ele>674.02</ele>
        <time>2020-10-18T11:29:15Z</time>
      </trkpt>
      <trkpt lat="43.53841" lon="2.49043">
        <ele>674.02</ele>
        <time>2020-10-18T11:29:19Z</time>
      </trkpt>
      <trkpt lat="43.53847" lon="2.49035">
        <ele>673.06</ele>
        <time>2020-10-18T11:29:28Z</time>
      </trkpt>
      <trkpt lat="43.53847" lon="2.49025">
        <ele>672.58</ele>
        <time>2020-10-18T11:29:35Z</time>
      </trkpt>
      <trkpt lat="43.53846" lon="2.49012">
        <ele>673.06</ele>
        <time>2020-10-18T11:29:43Z</time>
      </trkpt>
      <trkpt lat="43.53846" lon="2.49006">
        <ele>673.54</ele>
        <time>2020-10-18T11:29:47Z</time>
      </trkpt>
      <trkpt lat="43.53847" lon="2.48994">
        <ele>674.5</ele>
        <time>2020-10-18T11:29:56Z</time>
      </trkpt>
      <trkpt lat="43.53847" lon="2.48993">
        <ele>674.5</ele>
        <time>2020-10-18T11:29:58Z</time>
      </trkpt>
      <trkpt lat="43.53851" lon="2.4899">
        <ele>675.46</ele>
        <time>2020-10-18T11:30:03Z</time>
      </trkpt>
      <trkpt lat="43.53854" lon="2.48982">
        <ele>675.94</ele>
        <time>2020-10-18T11:30:12Z</time>
      </trkpt>
      <trkpt lat="43.53856" lon="2.4898">
        <ele>676.91</ele>
        <time>2020-10-18T11:30:19Z</time>
      </trkpt>
      <trkpt lat="43.53854" lon="2.4898">
        <ele>677.39</ele>
        <time>2020-10-18T11:30:28Z</time>
      </trkpt>
      <trkpt lat="43.53855" lon="2.48982">
        <ele>677.39</ele>
        <time>2020-10-18T11:30:36Z</time>
      </trkpt>
      <trkpt lat="43.53856" lon="2.48979">
        <ele>676.91</ele>
        <time>2020-10-18T11:30:43Z</time>
      </trkpt>
      <trkpt lat="43.53857" lon="2.48978">
        <ele>675.46</ele>
        <time>2020-10-18T11:31:02Z</time>
      </trkpt>
      <trkpt lat="43.53856" lon="2.48976">
        <ele>672.58</ele>
        <time>2020-10-18T11:31:18Z</time>
      </trkpt>
      <trkpt lat="43.53855" lon="2.48975">
        <ele>669.22</ele>
        <time>2020-10-18T11:31:37Z</time>
      </trkpt>
      <trkpt lat="43.53858" lon="2.48975">
        <ele>671.14</ele>
        <time>2020-10-18T11:31:56Z</time>
      </trkpt>
      <trkpt lat="43.53858" lon="2.48975">
        <ele>671.14</ele>
        <time>2020-10-18T11:32:15Z</time>
      </trkpt>
      <trkpt lat="43.53858" lon="2.48975">
        <ele>673.06</ele>
        <time>2020-10-18T11:32:32Z</time>
      </trkpt>
      <trkpt lat="43.53856" lon="2.48975">
        <ele>673.54</ele>
        <time>2020-10-18T11:32:49Z</time>
      </trkpt>
      <trkpt lat="43.5386" lon="2.48978">
        <ele>674.98</ele>
        <time>2020-10-18T11:33:10Z</time>
      </trkpt>
      <trkpt lat="43.5386" lon="2.48977">
        <ele>673.06</ele>
        <time>2020-10-18T11:33:33Z</time>
      </trkpt>
      <trkpt lat="43.53859" lon="2.48977">
        <ele>670.18</ele>
        <time>2020-10-18T11:33:54Z</time>
      </trkpt>
      <trkpt lat="43.53858" lon="2.48976">
        <ele>670.66</ele>
        <time>2020-10-18T11:34:15Z</time>
      </trkpt>
      <trkpt lat="43.53857" lon="2.48977">
        <ele>668.73</ele>
        <time>2020-10-18T11:34:41Z</time>
      </trkpt>
      <trkpt lat="43.53855" lon="2.48974">
        <ele>667.77</ele>
        <time>2020-10-18T11:35:02Z</time>
      </trkpt>
      <trkpt lat="43.53856" lon="2.48974">
        <ele>667.29</ele>
        <time>2020-10-18T11:35:16Z</time>
      </trkpt>
      <trkpt lat="43.53858" lon="2.48974">
        <ele>668.73</ele>
        <time>2020-10-18T11:35:38Z</time>
      </trkpt>
      <trkpt lat="43.53857" lon="2.48975">
        <ele>669.7</ele>
        <time>2020-10-18T11:35:53Z</time>
      </trkpt>
      <trkpt lat="43.53857" lon="2.48976">
        <ele>669.7</ele>
        <time>2020-10-18T11:36:10Z</time>
      </trkpt>
      <trkpt lat="43.53857" lon="2.48975">
        <ele>668.73</ele>
        <time>2020-10-18T11:36:31Z</time>
      </trkpt>
      <trkpt lat="43.53859" lon="2.48976">
        <ele>669.22</ele>
        <time>2020-10-18T11:36:52Z</time>
      </trkpt>
      <trkpt lat="43.53859" lon="2.48975">
        <ele>670.18</ele>
        <time>2020-10-18T11:37:08Z</time>
      </trkpt>
      <trkpt lat="43.53858" lon="2.48974">
        <ele>670.18</ele>
        <time>2020-10-18T11:37:27Z</time>
      </trkpt>
      <trkpt lat="43.53857" lon="2.48973">
        <ele>672.58</ele>
        <time>2020-10-18T11:37:45Z</time>
      </trkpt>
      <trkpt lat="43.53856" lon="2.48976">
        <ele>674.02</ele>
        <time>2020-10-18T11:38:00Z</time>
      </trkpt>
      <trkpt lat="43.53857" lon="2.48977">
        <ele>676.42</ele>
        <time>2020-10-18T11:38:17Z</time>
      </trkpt>
      <trkpt lat="43.5386" lon="2.48978">
        <ele>672.58</ele>
        <time>2020-10-18T11:38:41Z</time>
      </trkpt>
      <trkpt lat="43.53862" lon="2.48975">
        <ele>672.58</ele>
        <time>2020-10-18T11:39:00Z</time>
      </trkpt>
      <trkpt lat="43.53859" lon="2.48975">
        <ele>670.66</ele>
        <time>2020-10-18T11:39:29Z</time>
      </trkpt>
      <trkpt lat="43.53859" lon="2.48974">
        <ele>670.18</ele>
        <time>2020-10-18T11:39:42Z</time>
      </trkpt>
      <trkpt lat="43.53858" lon="2.48973">
        <ele>670.18</ele>
        <time>2020-10-18T11:39:55Z</time>
      </trkpt>
      <trkpt lat="43.53858" lon="2.48978">
        <ele>669.22</ele>
        <time>2020-10-18T11:40:12Z</time>
      </trkpt>
      <trkpt lat="43.5386" lon="2.48979">
        <ele>672.1</ele>
        <time>2020-10-18T11:40:28Z</time>
      </trkpt>
      <trkpt lat="43.5386" lon="2.48978">
        <ele>672.1</ele>
        <time>2020-10-18T11:40:45Z</time>
      </trkpt>
      <trkpt lat="43.53858" lon="2.48978">
        <ele>674.02</ele>
        <time>2020-10-18T11:41:07Z</time>
      </trkpt>
      <trkpt lat="43.5386" lon="2.48977">
        <ele>673.54</ele>
        <time>2020-10-18T11:41:25Z</time>
      </trkpt>
      <trkpt lat="43.53859" lon="2.48977">
        <ele>673.06</ele>
        <time>2020-10-18T11:41:43Z</time>
      </trkpt>
      <trkpt lat="43.53857" lon="2.48978">
        <ele>673.54</ele>
        <time>2020-10-18T11:42:06Z</time>
      </trkpt>
      <trkpt lat="43.53856" lon="2.48979">
        <ele>673.06</ele>
        <time>2020-10-18T11:42:21Z</time>
      </trkpt>
      <trkpt lat="43.53853" lon="2.48979">
        <ele>669.7</ele>
        <time>2020-10-18T11:42:40Z</time>
      </trkpt>
      <trkpt lat="43.53857" lon="2.48978">
        <ele>672.58</ele>
        <time>2020-10-18T11:43:01Z</time>
      </trkpt>
      <trkpt lat="43.53857" lon="2.48981">
        <ele>667.29</ele>
        <time>2020-10-18T11:43:20Z</time>
      </trkpt>
      <trkpt lat="43.53856" lon="2.48974">
        <ele>667.29</ele>
        <time>2020-10-18T11:43:36Z</time>
      </trkpt>
      <trkpt lat="43.53854" lon="2.48976">
        <ele>667.77</ele>
        <time>2020-10-18T11:44:03Z</time>
      </trkpt>
      <trkpt lat="43.53851" lon="2.48977">
        <ele>666.81</ele>
        <time>2020-10-18T11:44:25Z</time>
      </trkpt>
      <trkpt lat="43.53855" lon="2.48973">
        <ele>667.29</ele>
        <time>2020-10-18T11:44:42Z</time>
      </trkpt>
      <trkpt lat="43.53858" lon="2.48975">
        <ele>669.7</ele>
        <time>2020-10-18T11:44:59Z</time>
      </trkpt>
      <trkpt lat="43.53857" lon="2.48975">
        <ele>672.1</ele>
        <time>2020-10-18T11:45:09Z</time>
      </trkpt>
      <trkpt lat="43.53856" lon="2.48975">
        <ele>674.98</ele>
        <time>2020-10-18T11:45:25Z</time>
      </trkpt>
      <trkpt lat="43.53852" lon="2.48975">
        <ele>676.42</ele>
        <time>2020-10-18T11:45:32Z</time>
      </trkpt>
      <trkpt lat="43.5385" lon="2.48976">
        <ele>679.79</ele>
        <time>2020-10-18T11:45:45Z</time>
      </trkpt>
      <trkpt lat="43.5385" lon="2.48978">
        <ele>679.31</ele>
        <time>2020-10-18T11:45:54Z</time>
      </trkpt>
      <trkpt lat="43.53851" lon="2.48979">
        <ele>676.91</ele>
        <time>2020-10-18T11:46:09Z</time>
      </trkpt>
      <trkpt lat="43.53853" lon="2.4898">
        <ele>674.5</ele>
        <time>2020-10-18T11:46:20Z</time>
      </trkpt>
      <trkpt lat="43.53851" lon="2.48985">
        <ele>674.02</ele>
        <time>2020-10-18T11:46:37Z</time>
      </trkpt>
      <trkpt lat="43.53851" lon="2.48986">
        <ele>675.94</ele>
        <time>2020-10-18T11:46:56Z</time>
      </trkpt>
      <trkpt lat="43.53851" lon="2.48983">
        <ele>674.02</ele>
        <time>2020-10-18T11:47:03Z</time>
      </trkpt>
      <trkpt lat="43.53855" lon="2.48979">
        <ele>673.54</ele>
        <time>2020-10-18T11:47:20Z</time>
      </trkpt>
      <trkpt lat="43.53858" lon="2.48974">
        <ele>674.5</ele>
        <time>2020-10-18T11:47:29Z</time>
      </trkpt>
      <trkpt lat="43.53856" lon="2.48971">
        <ele>674.5</ele>
        <time>2020-10-18T11:47:37Z</time>
      </trkpt>
      <trkpt lat="43.5386" lon="2.48967">
        <ele>675.46</ele>
        <time>2020-10-18T11:47:44Z</time>
      </trkpt>
      <trkpt lat="43.53865" lon="2.48962">
        <ele>675.46</ele>
        <time>2020-10-18T11:47:52Z</time>
      </trkpt>
      <trkpt lat="43.53863" lon="2.4896">
        <ele>675.94</ele>
        <time>2020-10-18T11:47:57Z</time>
      </trkpt>
      <trkpt lat="43.53859" lon="2.4896">
        <ele>677.39</ele>
        <time>2020-10-18T11:48:05Z</time>
      </trkpt>
      <trkpt lat="43.5386" lon="2.48956">
        <ele>677.39</ele>
        <time>2020-10-18T11:48:13Z</time>
      </trkpt>
      <trkpt lat="43.53861" lon="2.48951">
        <ele>677.87</ele>
        <time>2020-10-18T11:48:20Z</time>
      </trkpt>
      <trkpt lat="43.53863" lon="2.48948">
        <ele>678.35</ele>
        <time>2020-10-18T11:48:26Z</time>
      </trkpt>
      <trkpt lat="43.53867" lon="2.48939">
        <ele>678.83</ele>
        <time>2020-10-18T11:48:35Z</time>
      </trkpt>
      <trkpt lat="43.53869" lon="2.48929">
        <ele>679.79</ele>
        <time>2020-10-18T11:48:43Z</time>
      </trkpt>
      <trkpt lat="43.53874" lon="2.48917">
        <ele>681.71</ele>
        <time>2020-10-18T11:48:54Z</time>
      </trkpt>
      <trkpt lat="43.53875" lon="2.4891">
        <ele>682.19</ele>
        <time>2020-10-18T11:49:01Z</time>
      </trkpt>
      <trkpt lat="43.53877" lon="2.48904">
        <ele>680.75</ele>
        <time>2020-10-18T11:49:08Z</time>
      </trkpt>
      <trkpt lat="43.53877" lon="2.48898">
        <ele>679.79</ele>
        <time>2020-10-18T11:49:16Z</time>
      </trkpt>
      <trkpt lat="43.53877" lon="2.48886">
        <ele>680.75</ele>
        <time>2020-10-18T11:49:24Z</time>
      </trkpt>
      <trkpt lat="43.53879" lon="2.4888">
        <ele>681.71</ele>
        <time>2020-10-18T11:49:31Z</time>
      </trkpt>
      <trkpt lat="43.53881" lon="2.48873">
        <ele>684.12</ele>
        <time>2020-10-18T11:49:40Z</time>
      </trkpt>
      <trkpt lat="43.53884" lon="2.48863">
        <ele>685.56</ele>
        <time>2020-10-18T11:49:48Z</time>
      </trkpt>
      <trkpt lat="43.53886" lon="2.48849">
        <ele>687.96</ele>
        <time>2020-10-18T11:49:55Z</time>
      </trkpt>
      <trkpt lat="43.53889" lon="2.48837">
        <ele>688.92</ele>
        <time>2020-10-18T11:50:05Z</time>
      </trkpt>
      <trkpt lat="43.53891" lon="2.4882">
        <ele>687.48</ele>
        <time>2020-10-18T11:50:16Z</time>
      </trkpt>
      <trkpt lat="43.53893" lon="2.48809">
        <ele>687</ele>
        <time>2020-10-18T11:50:24Z</time>
      </trkpt>
      <trkpt lat="43.53896" lon="2.48797">
        <ele>685.08</ele>
        <time>2020-10-18T11:50:31Z</time>
      </trkpt>
      <trkpt lat="43.539" lon="2.48785">
        <ele>680.75</ele>
        <time>2020-10-18T11:50:38Z</time>
      </trkpt>
      <trkpt lat="43.53903" lon="2.4877">
        <ele>675.94</ele>
        <time>2020-10-18T11:50:45Z</time>
      </trkpt>
      <trkpt lat="43.53906" lon="2.48762">
        <ele>674.98</ele>
        <time>2020-10-18T11:50:52Z</time>
      </trkpt>
      <trkpt lat="43.53907" lon="2.48755">
        <ele>675.94</ele>
        <time>2020-10-18T11:50:59Z</time>
      </trkpt>
      <trkpt lat="43.53909" lon="2.48741">
        <ele>679.31</ele>
        <time>2020-10-18T11:51:08Z</time>
      </trkpt>
      <trkpt lat="43.53913" lon="2.4873">
        <ele>679.31</ele>
        <time>2020-10-18T11:51:15Z</time>
      </trkpt>
      <trkpt lat="43.53916" lon="2.4872">
        <ele>680.75</ele>
        <time>2020-10-18T11:51:22Z</time>
      </trkpt>
      <trkpt lat="43.53918" lon="2.48708">
        <ele>679.79</ele>
        <time>2020-10-18T11:51:31Z</time>
      </trkpt>
      <trkpt lat="43.53921" lon="2.48693">
        <ele>679.79</ele>
        <time>2020-10-18T11:51:40Z</time>
      </trkpt>
      <trkpt lat="43.53923" lon="2.4868">
        <ele>678.83</ele>
        <time>2020-10-18T11:51:47Z</time>
      </trkpt>
      <trkpt lat="43.53925" lon="2.4867">
        <ele>678.83</ele>
        <time>2020-10-18T11:51:55Z</time>
      </trkpt>
      <trkpt lat="43.53925" lon="2.48661">
        <ele>678.35</ele>
        <time>2020-10-18T11:52:02Z</time>
      </trkpt>
      <trkpt lat="43.53928" lon="2.48654">
        <ele>675.94</ele>
        <time>2020-10-18T11:52:10Z</time>
      </trkpt>
      <trkpt lat="43.53929" lon="2.48638">
        <ele>675.94</ele>
        <time>2020-10-18T11:52:20Z</time>
      </trkpt>
      <trkpt lat="43.53932" lon="2.48625">
        <ele>674.02</ele>
        <time>2020-10-18T11:52:28Z</time>
      </trkpt>
      <trkpt lat="43.53934" lon="2.48609">
        <ele>676.91</ele>
        <time>2020-10-18T11:52:40Z</time>
      </trkpt>
      <trkpt lat="43.53938" lon="2.4859">
        <ele>674.5</ele>
        <time>2020-10-18T11:52:48Z</time>
      </trkpt>
      <trkpt lat="43.53937" lon="2.48575">
        <ele>673.54</ele>
        <time>2020-10-18T11:52:57Z</time>
      </trkpt>
      <trkpt lat="43.53939" lon="2.4856">
        <ele>673.54</ele>
        <time>2020-10-18T11:53:04Z</time>
      </trkpt>
      <trkpt lat="43.53941" lon="2.48555">
        <ele>675.46</ele>
        <time>2020-10-18T11:53:13Z</time>
      </trkpt>
      <trkpt lat="43.5394" lon="2.48553">
        <ele>677.39</ele>
        <time>2020-10-18T11:53:21Z</time>
      </trkpt>
      <trkpt lat="43.53939" lon="2.48542">
        <ele>680.75</ele>
        <time>2020-10-18T11:53:35Z</time>
      </trkpt>
      <trkpt lat="43.53939" lon="2.48535">
        <ele>680.75</ele>
        <time>2020-10-18T11:53:42Z</time>
      </trkpt>
      <trkpt lat="43.5394" lon="2.4851">
        <ele>665.85</ele>
        <time>2020-10-18T11:53:53Z</time>
      </trkpt>
      <trkpt lat="43.53942" lon="2.48502">
        <ele>658.64</ele>
        <time>2020-10-18T11:54:04Z</time>
      </trkpt>
      <trkpt lat="43.53943" lon="2.48509">
        <ele>658.64</ele>
        <time>2020-10-18T11:54:13Z</time>
      </trkpt>
      <trkpt lat="43.53946" lon="2.48506">
        <ele>657.2</ele>
        <time>2020-10-18T11:54:21Z</time>
      </trkpt>
      <trkpt lat="43.53946" lon="2.48508">
        <ele>657.68</ele>
        <time>2020-10-18T11:54:27Z</time>
      </trkpt>
      <trkpt lat="43.53946" lon="2.48507">
        <ele>657.68</ele>
        <time>2020-10-18T11:54:34Z</time>
      </trkpt>
      <trkpt lat="43.53948" lon="2.48502">
        <ele>657.68</ele>
        <time>2020-10-18T11:54:41Z</time>
      </trkpt>
      <trkpt lat="43.53953" lon="2.48497">
        <ele>655.28</ele>
        <time>2020-10-18T11:54:49Z</time>
      </trkpt>
      <trkpt lat="43.53957" lon="2.48494">
        <ele>653.83</ele>
        <time>2020-10-18T11:54:56Z</time>
      </trkpt>
      <trkpt lat="43.53957" lon="2.48489">
        <ele>654.8</ele>
        <time>2020-10-18T11:55:06Z</time>
      </trkpt>
      <trkpt lat="43.53957" lon="2.48486">
        <ele>654.8</ele>
        <time>2020-10-18T11:55:12Z</time>
      </trkpt>
      <trkpt lat="43.53954" lon="2.48487">
        <ele>657.2</ele>
        <time>2020-10-18T11:55:26Z</time>
      </trkpt>
      <trkpt lat="43.53954" lon="2.48486">
        <ele>659.12</ele>
        <time>2020-10-18T11:55:36Z</time>
      </trkpt>
      <trkpt lat="43.53953" lon="2.48484">
        <ele>659.6</ele>
        <time>2020-10-18T11:55:46Z</time>
      </trkpt>
      <trkpt lat="43.53956" lon="2.4848">
        <ele>660.08</ele>
        <time>2020-10-18T11:55:56Z</time>
      </trkpt>
      <trkpt lat="43.53957" lon="2.48475">
        <ele>662.49</ele>
        <time>2020-10-18T11:56:04Z</time>
      </trkpt>
      <trkpt lat="43.53956" lon="2.48475">
        <ele>662.97</ele>
        <time>2020-10-18T11:56:12Z</time>
      </trkpt>
      <trkpt lat="43.53953" lon="2.48476">
        <ele>662.49</ele>
        <time>2020-10-18T11:56:17Z</time>
      </trkpt>
      <trkpt lat="43.53951" lon="2.48473">
        <ele>662.49</ele>
        <time>2020-10-18T11:56:25Z</time>
      </trkpt>
      <trkpt lat="43.53946" lon="2.48462">
        <ele>664.41</ele>
        <time>2020-10-18T11:56:34Z</time>
      </trkpt>
      <trkpt lat="43.53946" lon="2.48455">
        <ele>664.41</ele>
        <time>2020-10-18T11:56:42Z</time>
      </trkpt>
      <trkpt lat="43.53943" lon="2.48448">
        <ele>663.93</ele>
        <time>2020-10-18T11:56:51Z</time>
      </trkpt>
      <trkpt lat="43.53936" lon="2.48443">
        <ele>661.52</ele>
        <time>2020-10-18T11:57:00Z</time>
      </trkpt>
      <trkpt lat="43.5393" lon="2.4844">
        <ele>658.64</ele>
        <time>2020-10-18T11:57:12Z</time>
      </trkpt>
      <trkpt lat="43.53922" lon="2.48439">
        <ele>657.68</ele>
        <time>2020-10-18T11:57:23Z</time>
      </trkpt>
      <trkpt lat="43.53914" lon="2.4844">
        <ele>656.72</ele>
        <time>2020-10-18T11:57:33Z</time>
      </trkpt>
      <trkpt lat="43.53913" lon="2.4844">
        <ele>657.68</ele>
        <time>2020-10-18T11:57:43Z</time>
      </trkpt>
      <trkpt lat="43.53909" lon="2.48442">
        <ele>654.31</ele>
        <time>2020-10-18T11:57:55Z</time>
      </trkpt>
      <trkpt lat="43.53908" lon="2.48439">
        <ele>651.91</ele>
        <time>2020-10-18T11:58:02Z</time>
      </trkpt>
      <trkpt lat="43.53904" lon="2.48437">
        <ele>649.51</ele>
        <time>2020-10-18T11:58:14Z</time>
      </trkpt>
      <trkpt lat="43.53899" lon="2.48432">
        <ele>648.07</ele>
        <time>2020-10-18T11:58:25Z</time>
      </trkpt>
      <trkpt lat="43.53896" lon="2.4843">
        <ele>645.18</ele>
        <time>2020-10-18T11:58:36Z</time>
      </trkpt>
      <trkpt lat="43.53893" lon="2.48425">
        <ele>644.7</ele>
        <time>2020-10-18T11:58:43Z</time>
      </trkpt>
      <trkpt lat="43.53885" lon="2.48419">
        <ele>645.66</ele>
        <time>2020-10-18T11:58:50Z</time>
      </trkpt>
      <trkpt lat="43.53881" lon="2.48414">
        <ele>645.18</ele>
        <time>2020-10-18T11:58:59Z</time>
      </trkpt>
      <trkpt lat="43.53877" lon="2.48413">
        <ele>644.7</ele>
        <time>2020-10-18T11:59:07Z</time>
      </trkpt>
      <trkpt lat="43.53876" lon="2.48413">
        <ele>644.22</ele>
        <time>2020-10-18T11:59:08Z</time>
      </trkpt>
      <trkpt lat="43.53871" lon="2.48412">
        <ele>643.74</ele>
        <time>2020-10-18T11:59:17Z</time>
      </trkpt>
      <trkpt lat="43.53869" lon="2.48408">
        <ele>642.3</ele>
        <time>2020-10-18T11:59:24Z</time>
      </trkpt>
      <trkpt lat="43.53864" lon="2.48403">
        <ele>640.86</ele>
        <time>2020-10-18T11:59:31Z</time>
      </trkpt>
      <trkpt lat="43.53858" lon="2.484">
        <ele>641.34</ele>
        <time>2020-10-18T11:59:37Z</time>
      </trkpt>
      <trkpt lat="43.53852" lon="2.484">
        <ele>643.26</ele>
        <time>2020-10-18T11:59:44Z</time>
      </trkpt>
      <trkpt lat="43.53843" lon="2.48399">
        <ele>645.66</ele>
        <time>2020-10-18T11:59:52Z</time>
      </trkpt>
      <trkpt lat="43.53835" lon="2.484">
        <ele>647.1</ele>
        <time>2020-10-18T12:00:01Z</time>
      </trkpt>
      <trkpt lat="43.53831" lon="2.484">
        <ele>647.59</ele>
        <time>2020-10-18T12:00:06Z</time>
      </trkpt>
      <trkpt lat="43.53824" lon="2.48399">
        <ele>648.55</ele>
        <time>2020-10-18T12:00:15Z</time>
      </trkpt>
      <trkpt lat="43.53819" lon="2.48393">
        <ele>648.07</ele>
        <time>2020-10-18T12:00:23Z</time>
      </trkpt>
      <trkpt lat="43.53817" lon="2.48391">
        <ele>646.14</ele>
        <time>2020-10-18T12:00:31Z</time>
      </trkpt>
      <trkpt lat="43.53816" lon="2.48394">
        <ele>646.14</ele>
        <time>2020-10-18T12:00:42Z</time>
      </trkpt>
      <trkpt lat="43.53812" lon="2.48388">
        <ele>646.62</ele>
        <time>2020-10-18T12:00:50Z</time>
      </trkpt>
      <trkpt lat="43.53804" lon="2.48387">
        <ele>644.22</ele>
        <time>2020-10-18T12:00:58Z</time>
      </trkpt>
      <trkpt lat="43.53799" lon="2.48385">
        <ele>641.34</ele>
        <time>2020-10-18T12:01:05Z</time>
      </trkpt>
      <trkpt lat="43.5379" lon="2.48381">
        <ele>639.41</ele>
        <time>2020-10-18T12:01:15Z</time>
      </trkpt>
      <trkpt lat="43.53783" lon="2.48382">
        <ele>638.93</ele>
        <time>2020-10-18T12:01:22Z</time>
      </trkpt>
      <trkpt lat="43.53775" lon="2.48382">
        <ele>637.49</ele>
        <time>2020-10-18T12:01:31Z</time>
      </trkpt>
      <trkpt lat="43.53768" lon="2.48383">
        <ele>636.53</ele>
        <time>2020-10-18T12:01:39Z</time>
      </trkpt>
      <trkpt lat="43.53764" lon="2.48383">
        <ele>635.57</ele>
        <time>2020-10-18T12:01:44Z</time>
      </trkpt>
      <trkpt lat="43.53756" lon="2.48382">
        <ele>634.13</ele>
        <time>2020-10-18T12:01:52Z</time>
      </trkpt>
      <trkpt lat="43.53747" lon="2.48381">
        <ele>634.13</ele>
        <time>2020-10-18T12:02:01Z</time>
      </trkpt>
      <trkpt lat="43.53742" lon="2.48383">
        <ele>634.13</ele>
        <time>2020-10-18T12:02:08Z</time>
      </trkpt>
      <trkpt lat="43.53736" lon="2.48384">
        <ele>635.57</ele>
        <time>2020-10-18T12:02:16Z</time>
      </trkpt>
      <trkpt lat="43.5373" lon="2.48388">
        <ele>637.01</ele>
        <time>2020-10-18T12:02:25Z</time>
      </trkpt>
      <trkpt lat="43.53723" lon="2.48391">
        <ele>637.49</ele>
        <time>2020-10-18T12:02:34Z</time>
      </trkpt>
      <trkpt lat="43.53718" lon="2.48392">
        <ele>637.97</ele>
        <time>2020-10-18T12:02:41Z</time>
      </trkpt>
      <trkpt lat="43.53712" lon="2.48397">
        <ele>637.97</ele>
        <time>2020-10-18T12:02:49Z</time>
      </trkpt>
      <trkpt lat="43.53704" lon="2.48398">
        <ele>639.41</ele>
        <time>2020-10-18T12:02:56Z</time>
      </trkpt>
      <trkpt lat="43.53696" lon="2.48396">
        <ele>640.38</ele>
        <time>2020-10-18T12:03:02Z</time>
      </trkpt>
      <trkpt lat="43.53692" lon="2.48396">
        <ele>641.34</ele>
        <time>2020-10-18T12:03:09Z</time>
      </trkpt>
      <trkpt lat="43.53687" lon="2.48397">
        <ele>641.82</ele>
        <time>2020-10-18T12:03:15Z</time>
      </trkpt>
      <trkpt lat="43.53681" lon="2.48396">
        <ele>642.3</ele>
        <time>2020-10-18T12:03:23Z</time>
      </trkpt>
      <trkpt lat="43.53674" lon="2.48398">
        <ele>642.3</ele>
        <time>2020-10-18T12:03:30Z</time>
      </trkpt>
      <trkpt lat="43.53668" lon="2.48399">
        <ele>642.3</ele>
        <time>2020-10-18T12:03:37Z</time>
      </trkpt>
      <trkpt lat="43.53664" lon="2.48402">
        <ele>642.3</ele>
        <time>2020-10-18T12:03:45Z</time>
      </trkpt>
      <trkpt lat="43.53657" lon="2.48401">
        <ele>641.82</ele>
        <time>2020-10-18T12:03:55Z</time>
      </trkpt>
      <trkpt lat="43.53652" lon="2.48398">
        <ele>641.34</ele>
        <time>2020-10-18T12:04:02Z</time>
      </trkpt>
      <trkpt lat="43.53645" lon="2.48395">
        <ele>642.3</ele>
        <time>2020-10-18T12:04:10Z</time>
      </trkpt>
      <trkpt lat="43.53637" lon="2.48389">
        <ele>642.78</ele>
        <time>2020-10-18T12:04:18Z</time>
      </trkpt>
      <trkpt lat="43.53632" lon="2.48384">
        <ele>642.78</ele>
        <time>2020-10-18T12:04:26Z</time>
      </trkpt>
      <trkpt lat="43.53627" lon="2.48379">
        <ele>643.26</ele>
        <time>2020-10-18T12:04:32Z</time>
      </trkpt>
      <trkpt lat="43.53623" lon="2.48368">
        <ele>645.66</ele>
        <time>2020-10-18T12:04:42Z</time>
      </trkpt>
      <trkpt lat="43.53617" lon="2.48358">
        <ele>647.59</ele>
        <time>2020-10-18T12:04:51Z</time>
      </trkpt>
      <trkpt lat="43.53612" lon="2.48347">
        <ele>649.03</ele>
        <time>2020-10-18T12:04:59Z</time>
      </trkpt>
      <trkpt lat="43.53608" lon="2.48339">
        <ele>649.51</ele>
        <time>2020-10-18T12:05:05Z</time>
      </trkpt>
      <trkpt lat="43.53604" lon="2.48333">
        <ele>650.95</ele>
        <time>2020-10-18T12:05:11Z</time>
      </trkpt>
      <trkpt lat="43.53597" lon="2.48323">
        <ele>652.87</ele>
        <time>2020-10-18T12:05:20Z</time>
      </trkpt>
      <trkpt lat="43.53591" lon="2.48315">
        <ele>657.68</ele>
        <time>2020-10-18T12:05:28Z</time>
      </trkpt>
      <trkpt lat="43.53588" lon="2.4831">
        <ele>661.04</ele>
        <time>2020-10-18T12:05:34Z</time>
      </trkpt>
      <trkpt lat="43.53584" lon="2.48307">
        <ele>664.89</ele>
        <time>2020-10-18T12:05:40Z</time>
      </trkpt>
      <trkpt lat="43.53581" lon="2.48302">
        <ele>667.77</ele>
        <time>2020-10-18T12:05:46Z</time>
      </trkpt>
      <trkpt lat="43.53574" lon="2.48298">
        <ele>672.1</ele>
        <time>2020-10-18T12:05:53Z</time>
      </trkpt>
      <trkpt lat="43.53564" lon="2.48291">
        <ele>674.98</ele>
        <time>2020-10-18T12:06:02Z</time>
      </trkpt>
      <trkpt lat="43.5356" lon="2.48285">
        <ele>675.46</ele>
        <time>2020-10-18T12:06:08Z</time>
      </trkpt>
      <trkpt lat="43.53551" lon="2.48282">
        <ele>677.87</ele>
        <time>2020-10-18T12:06:16Z</time>
      </trkpt>
      <trkpt lat="43.53543" lon="2.48277">
        <ele>680.27</ele>
        <time>2020-10-18T12:06:24Z</time>
      </trkpt>
      <trkpt lat="43.5354" lon="2.48272">
        <ele>681.23</ele>
        <time>2020-10-18T12:06:31Z</time>
      </trkpt>
      <trkpt lat="43.53537" lon="2.4827">
        <ele>680.75</ele>
        <time>2020-10-18T12:06:38Z</time>
      </trkpt>
      <trkpt lat="43.53531" lon="2.48266">
        <ele>681.23</ele>
        <time>2020-10-18T12:06:47Z</time>
      </trkpt>
      <trkpt lat="43.53527" lon="2.48265">
        <ele>680.27</ele>
        <time>2020-10-18T12:06:54Z</time>
      </trkpt>
      <trkpt lat="43.53524" lon="2.48259">
        <ele>677.87</ele>
        <time>2020-10-18T12:07:03Z</time>
      </trkpt>
      <trkpt lat="43.5352" lon="2.48255">
        <ele>676.42</ele>
        <time>2020-10-18T12:07:09Z</time>
      </trkpt>
      <trkpt lat="43.53514" lon="2.4825">
        <ele>674.98</ele>
        <time>2020-10-18T12:07:17Z</time>
      </trkpt>
      <trkpt lat="43.53508" lon="2.48248">
        <ele>675.94</ele>
        <time>2020-10-18T12:07:24Z</time>
      </trkpt>
      <trkpt lat="43.53504" lon="2.48245">
        <ele>675.46</ele>
        <time>2020-10-18T12:07:32Z</time>
      </trkpt>
      <trkpt lat="43.53496" lon="2.48243">
        <ele>674.02</ele>
        <time>2020-10-18T12:07:39Z</time>
      </trkpt>
      <trkpt lat="43.53489" lon="2.48242">
        <ele>674.5</ele>
        <time>2020-10-18T12:07:49Z</time>
      </trkpt>
      <trkpt lat="43.53485" lon="2.48241">
        <ele>675.46</ele>
        <time>2020-10-18T12:07:58Z</time>
      </trkpt>
      <trkpt lat="43.53479" lon="2.48241">
        <ele>676.42</ele>
        <time>2020-10-18T12:08:05Z</time>
      </trkpt>
      <trkpt lat="43.53474" lon="2.48239">
        <ele>674.98</ele>
        <time>2020-10-18T12:08:12Z</time>
      </trkpt>
      <trkpt lat="43.53471" lon="2.48239">
        <ele>674.02</ele>
        <time>2020-10-18T12:08:23Z</time>
      </trkpt>
      <trkpt lat="43.53468" lon="2.48238">
        <ele>672.1</ele>
        <time>2020-10-18T12:08:29Z</time>
      </trkpt>
      <trkpt lat="43.53462" lon="2.48237">
        <ele>669.22</ele>
        <time>2020-10-18T12:08:38Z</time>
      </trkpt>
      <trkpt lat="43.5346" lon="2.48237">
        <ele>662.97</ele>
        <time>2020-10-18T12:08:45Z</time>
      </trkpt>
      <trkpt lat="43.53456" lon="2.48236">
        <ele>660.56</ele>
        <time>2020-10-18T12:08:51Z</time>
      </trkpt>
      <trkpt lat="43.5345" lon="2.48235">
        <ele>660.56</ele>
        <time>2020-10-18T12:08:58Z</time>
      </trkpt>
      <trkpt lat="43.53443" lon="2.48235">
        <ele>660.08</ele>
        <time>2020-10-18T12:09:05Z</time>
      </trkpt>
      <trkpt lat="43.53436" lon="2.48235">
        <ele>660.08</ele>
        <time>2020-10-18T12:09:12Z</time>
      </trkpt>
      <trkpt lat="43.53432" lon="2.48236">
        <ele>660.56</ele>
        <time>2020-10-18T12:09:19Z</time>
      </trkpt>
      <trkpt lat="43.53427" lon="2.48238">
        <ele>661.52</ele>
        <time>2020-10-18T12:09:26Z</time>
      </trkpt>
      <trkpt lat="43.53424" lon="2.4824">
        <ele>660.56</ele>
        <time>2020-10-18T12:09:33Z</time>
      </trkpt>
      <trkpt lat="43.53419" lon="2.48242">
        <ele>659.12</ele>
        <time>2020-10-18T12:09:43Z</time>
      </trkpt>
      <trkpt lat="43.53419" lon="2.48243">
        <ele>657.68</ele>
        <time>2020-10-18T12:09:50Z</time>
      </trkpt>
      <trkpt lat="43.53417" lon="2.48243">
        <ele>658.64</ele>
        <time>2020-10-18T12:09:57Z</time>
      </trkpt>
      <trkpt lat="43.53415" lon="2.48251">
        <ele>656.72</ele>
        <time>2020-10-18T12:10:06Z</time>
      </trkpt>
      <trkpt lat="43.5341" lon="2.4825">
        <ele>657.68</ele>
        <time>2020-10-18T12:10:13Z</time>
      </trkpt>
      <trkpt lat="43.534" lon="2.48251">
        <ele>660.08</ele>
        <time>2020-10-18T12:10:23Z</time>
      </trkpt>
      <trkpt lat="43.53394" lon="2.48253">
        <ele>662.49</ele>
        <time>2020-10-18T12:10:32Z</time>
      </trkpt>
      <trkpt lat="43.53393" lon="2.48254">
        <ele>662.49</ele>
        <time>2020-10-18T12:10:33Z</time>
      </trkpt>
      <trkpt lat="43.53382" lon="2.48254">
        <ele>666.81</ele>
        <time>2020-10-18T12:10:41Z</time>
      </trkpt>
      <trkpt lat="43.53377" lon="2.48252">
        <ele>669.7</ele>
        <time>2020-10-18T12:10:48Z</time>
      </trkpt>
      <trkpt lat="43.53377" lon="2.4825">
        <ele>670.18</ele>
        <time>2020-10-18T12:10:54Z</time>
      </trkpt>
      <trkpt lat="43.5338" lon="2.48238">
        <ele>668.73</ele>
        <time>2020-10-18T12:11:02Z</time>
      </trkpt>
      <trkpt lat="43.53383" lon="2.48229">
        <ele>667.77</ele>
        <time>2020-10-18T12:11:10Z</time>
      </trkpt>
      <trkpt lat="43.53384" lon="2.4822">
        <ele>668.25</ele>
        <time>2020-10-18T12:11:18Z</time>
      </trkpt>
      <trkpt lat="43.53382" lon="2.48209">
        <ele>669.22</ele>
        <time>2020-10-18T12:11:26Z</time>
      </trkpt>
      <trkpt lat="43.5338" lon="2.48198">
        <ele>670.18</ele>
        <time>2020-10-18T12:11:36Z</time>
      </trkpt>
      <trkpt lat="43.5338" lon="2.4819">
        <ele>673.54</ele>
        <time>2020-10-18T12:11:45Z</time>
      </trkpt>
      <trkpt lat="43.5338" lon="2.48184">
        <ele>676.42</ele>
        <time>2020-10-18T12:11:53Z</time>
      </trkpt>
      <trkpt lat="43.53381" lon="2.48177">
        <ele>678.83</ele>
        <time>2020-10-18T12:12:00Z</time>
      </trkpt>
      <trkpt lat="43.53383" lon="2.48169">
        <ele>681.23</ele>
        <time>2020-10-18T12:12:08Z</time>
      </trkpt>
      <trkpt lat="43.53384" lon="2.48158">
        <ele>684.12</ele>
        <time>2020-10-18T12:12:17Z</time>
      </trkpt>
      <trkpt lat="43.53384" lon="2.4815">
        <ele>687</ele>
        <time>2020-10-18T12:12:26Z</time>
      </trkpt>
      <trkpt lat="43.53386" lon="2.48138">
        <ele>689.88</ele>
        <time>2020-10-18T12:12:34Z</time>
      </trkpt>
      <trkpt lat="43.53385" lon="2.48128">
        <ele>691.81</ele>
        <time>2020-10-18T12:12:41Z</time>
      </trkpt>
      <trkpt lat="43.53385" lon="2.48118">
        <ele>694.21</ele>
        <time>2020-10-18T12:12:48Z</time>
      </trkpt>
      <trkpt lat="43.53379" lon="2.48103">
        <ele>701.42</ele>
        <time>2020-10-18T12:12:56Z</time>
      </trkpt>
      <trkpt lat="43.53378" lon="2.4809">
        <ele>702.38</ele>
        <time>2020-10-18T12:13:04Z</time>
      </trkpt>
      <trkpt lat="43.5338" lon="2.48078">
        <ele>704.3</ele>
        <time>2020-10-18T12:13:13Z</time>
      </trkpt>
      <trkpt lat="43.53383" lon="2.48069">
        <ele>703.82</ele>
        <time>2020-10-18T12:13:19Z</time>
      </trkpt>
      <trkpt lat="43.53388" lon="2.48059">
        <ele>704.3</ele>
        <time>2020-10-18T12:13:27Z</time>
      </trkpt>
      <trkpt lat="43.53394" lon="2.48048">
        <ele>704.78</ele>
        <time>2020-10-18T12:13:36Z</time>
      </trkpt>
      <trkpt lat="43.53397" lon="2.48039">
        <ele>706.23</ele>
        <time>2020-10-18T12:13:43Z</time>
      </trkpt>
      <trkpt lat="43.53401" lon="2.48028">
        <ele>708.15</ele>
        <time>2020-10-18T12:13:51Z</time>
      </trkpt>
      <trkpt lat="43.53407" lon="2.4802">
        <ele>708.63</ele>
        <time>2020-10-18T12:13:57Z</time>
      </trkpt>
      <trkpt lat="43.5341" lon="2.48008">
        <ele>710.55</ele>
        <time>2020-10-18T12:14:05Z</time>
      </trkpt>
      <trkpt lat="43.53408" lon="2.47996">
        <ele>711.99</ele>
        <time>2020-10-18T12:14:12Z</time>
      </trkpt>
      <trkpt lat="43.53411" lon="2.47984">
        <ele>713.44</ele>
        <time>2020-10-18T12:14:20Z</time>
      </trkpt>
      <trkpt lat="43.53409" lon="2.47972">
        <ele>713.92</ele>
        <time>2020-10-18T12:14:28Z</time>
      </trkpt>
      <trkpt lat="43.53407" lon="2.47959">
        <ele>716.8</ele>
        <time>2020-10-18T12:14:35Z</time>
      </trkpt>
      <trkpt lat="43.53402" lon="2.47942">
        <ele>720.16</ele>
        <time>2020-10-18T12:14:44Z</time>
      </trkpt>
      <trkpt lat="43.53404" lon="2.47926">
        <ele>719.68</ele>
        <time>2020-10-18T12:14:51Z</time>
      </trkpt>
      <trkpt lat="43.53401" lon="2.47915">
        <ele>718.24</ele>
        <time>2020-10-18T12:14:58Z</time>
      </trkpt>
      <trkpt lat="43.53399" lon="2.47904">
        <ele>716.8</ele>
        <time>2020-10-18T12:15:06Z</time>
      </trkpt>
      <trkpt lat="43.53399" lon="2.47888">
        <ele>714.4</ele>
        <time>2020-10-18T12:15:14Z</time>
      </trkpt>
      <trkpt lat="43.53398" lon="2.47882">
        <ele>712.95</ele>
        <time>2020-10-18T12:15:19Z</time>
      </trkpt>
      <trkpt lat="43.53401" lon="2.47867">
        <ele>709.59</ele>
        <time>2020-10-18T12:15:29Z</time>
      </trkpt>
      <trkpt lat="43.534" lon="2.47859">
        <ele>709.59</ele>
        <time>2020-10-18T12:15:36Z</time>
      </trkpt>
      <trkpt lat="43.53401" lon="2.47852">
        <ele>711.03</ele>
        <time>2020-10-18T12:15:43Z</time>
      </trkpt>
      <trkpt lat="43.53399" lon="2.47845">
        <ele>707.67</ele>
        <time>2020-10-18T12:15:51Z</time>
      </trkpt>
      <trkpt lat="43.53401" lon="2.47838">
        <ele>704.3</ele>
        <time>2020-10-18T12:16:03Z</time>
      </trkpt>
      <trkpt lat="43.53401" lon="2.47838">
        <ele>705.75</ele>
        <time>2020-10-18T12:16:13Z</time>
      </trkpt>
      <trkpt lat="43.53402" lon="2.47833">
        <ele>705.75</ele>
        <time>2020-10-18T12:16:20Z</time>
      </trkpt>
      <trkpt lat="43.53399" lon="2.47824">
        <ele>707.19</ele>
        <time>2020-10-18T12:16:37Z</time>
      </trkpt>
      <trkpt lat="43.53396" lon="2.47819">
        <ele>708.63</ele>
        <time>2020-10-18T12:16:51Z</time>
      </trkpt>
      <trkpt lat="43.53395" lon="2.47821">
        <ele>709.11</ele>
        <time>2020-10-18T12:17:01Z</time>
      </trkpt>
      <trkpt lat="43.53393" lon="2.47827">
        <ele>706.23</ele>
        <time>2020-10-18T12:17:10Z</time>
      </trkpt>
      <trkpt lat="43.53396" lon="2.47827">
        <ele>704.78</ele>
        <time>2020-10-18T12:17:19Z</time>
      </trkpt>
      <trkpt lat="43.53401" lon="2.47818">
        <ele>708.15</ele>
        <time>2020-10-18T12:17:28Z</time>
      </trkpt>
      <trkpt lat="43.53401" lon="2.47811">
        <ele>709.59</ele>
        <time>2020-10-18T12:17:35Z</time>
      </trkpt>
      <trkpt lat="43.53402" lon="2.47797">
        <ele>710.55</ele>
        <time>2020-10-18T12:17:45Z</time>
      </trkpt>
      <trkpt lat="43.534" lon="2.47792">
        <ele>711.03</ele>
        <time>2020-10-18T12:17:52Z</time>
      </trkpt>
      <trkpt lat="43.53399" lon="2.47783">
        <ele>712.95</ele>
        <time>2020-10-18T12:18:00Z</time>
      </trkpt>
      <trkpt lat="43.53401" lon="2.47775">
        <ele>713.92</ele>
        <time>2020-10-18T12:18:07Z</time>
      </trkpt>
      <trkpt lat="43.53402" lon="2.47767">
        <ele>715.36</ele>
        <time>2020-10-18T12:18:15Z</time>
      </trkpt>
      <trkpt lat="43.53403" lon="2.47759">
        <ele>718.24</ele>
        <time>2020-10-18T12:18:23Z</time>
      </trkpt>
      <trkpt lat="43.53408" lon="2.47748">
        <ele>714.88</ele>
        <time>2020-10-18T12:18:31Z</time>
      </trkpt>
      <trkpt lat="43.53405" lon="2.47741">
        <ele>712.95</ele>
        <time>2020-10-18T12:18:39Z</time>
      </trkpt>
      <trkpt lat="43.53401" lon="2.47737">
        <ele>712.47</ele>
        <time>2020-10-18T12:18:53Z</time>
      </trkpt>
      <trkpt lat="43.53399" lon="2.47736">
        <ele>711.99</ele>
        <time>2020-10-18T12:18:56Z</time>
      </trkpt>
      <trkpt lat="43.53388" lon="2.47737">
        <ele>712.47</ele>
        <time>2020-10-18T12:19:06Z</time>
      </trkpt>
      <trkpt lat="43.5338" lon="2.4774">
        <ele>711.99</ele>
        <time>2020-10-18T12:19:14Z</time>
      </trkpt>
      <trkpt lat="43.53369" lon="2.47745">
        <ele>713.92</ele>
        <time>2020-10-18T12:19:24Z</time>
      </trkpt>
      <trkpt lat="43.53361" lon="2.47754">
        <ele>716.32</ele>
        <time>2020-10-18T12:19:33Z</time>
      </trkpt>
      <trkpt lat="43.53349" lon="2.47767">
        <ele>717.28</ele>
        <time>2020-10-18T12:19:45Z</time>
      </trkpt>
      <trkpt lat="43.5334" lon="2.47782">
        <ele>717.28</ele>
        <time>2020-10-18T12:19:56Z</time>
      </trkpt>
      <trkpt lat="43.5333" lon="2.47799">
        <ele>715.36</ele>
        <time>2020-10-18T12:20:07Z</time>
      </trkpt>
      <trkpt lat="43.53321" lon="2.4781">
        <ele>714.88</ele>
        <time>2020-10-18T12:20:16Z</time>
      </trkpt>
      <trkpt lat="43.53313" lon="2.47822">
        <ele>716.32</ele>
        <time>2020-10-18T12:20:26Z</time>
      </trkpt>
      <trkpt lat="43.53306" lon="2.4783">
        <ele>716.8</ele>
        <time>2020-10-18T12:20:34Z</time>
      </trkpt>
      <trkpt lat="43.53298" lon="2.4784">
        <ele>718.24</ele>
        <time>2020-10-18T12:20:44Z</time>
      </trkpt>
      <trkpt lat="43.5329" lon="2.47847">
        <ele>719.2</ele>
        <time>2020-10-18T12:20:52Z</time>
      </trkpt>
      <trkpt lat="43.53289" lon="2.47848">
        <ele>719.2</ele>
        <time>2020-10-18T12:20:53Z</time>
      </trkpt>
      <trkpt lat="43.53278" lon="2.47853">
        <ele>718.72</ele>
        <time>2020-10-18T12:21:02Z</time>
      </trkpt>
      <trkpt lat="43.53276" lon="2.47854">
        <ele>718.72</ele>
        <time>2020-10-18T12:21:04Z</time>
      </trkpt>
      <trkpt lat="43.53265" lon="2.47858">
        <ele>718.24</ele>
        <time>2020-10-18T12:21:12Z</time>
      </trkpt>
      <trkpt lat="43.53253" lon="2.47863">
        <ele>717.76</ele>
        <time>2020-10-18T12:21:21Z</time>
      </trkpt>
      <trkpt lat="43.53243" lon="2.47865">
        <ele>717.76</ele>
        <time>2020-10-18T12:21:29Z</time>
      </trkpt>
      <trkpt lat="43.5324" lon="2.47866">
        <ele>717.76</ele>
        <time>2020-10-18T12:21:32Z</time>
      </trkpt>
      <trkpt lat="43.5323" lon="2.47867">
        <ele>718.72</ele>
        <time>2020-10-18T12:21:40Z</time>
      </trkpt>
      <trkpt lat="43.53218" lon="2.47872">
        <ele>720.65</ele>
        <time>2020-10-18T12:21:49Z</time>
      </trkpt>
      <trkpt lat="43.53209" lon="2.47875">
        <ele>722.09</ele>
        <time>2020-10-18T12:21:56Z</time>
      </trkpt>
      <trkpt lat="43.53208" lon="2.47875">
        <ele>722.09</ele>
        <time>2020-10-18T12:21:57Z</time>
      </trkpt>
      <trkpt lat="43.53199" lon="2.47885">
        <ele>724.49</ele>
        <time>2020-10-18T12:22:08Z</time>
      </trkpt>
      <trkpt lat="43.53198" lon="2.47898">
        <ele>726.89</ele>
        <time>2020-10-18T12:22:18Z</time>
      </trkpt>
      <trkpt lat="43.53201" lon="2.47917">
        <ele>723.53</ele>
        <time>2020-10-18T12:22:28Z</time>
      </trkpt>
      <trkpt lat="43.53208" lon="2.47936">
        <ele>718.72</ele>
        <time>2020-10-18T12:22:37Z</time>
      </trkpt>
      <trkpt lat="43.5321" lon="2.47947">
        <ele>716.8</ele>
        <time>2020-10-18T12:22:45Z</time>
      </trkpt>
      <trkpt lat="43.5321" lon="2.47953">
        <ele>713.92</ele>
        <time>2020-10-18T12:22:51Z</time>
      </trkpt>
      <trkpt lat="43.53212" lon="2.47959">
        <ele>712.95</ele>
        <time>2020-10-18T12:22:57Z</time>
      </trkpt>
      <trkpt lat="43.53214" lon="2.47963">
        <ele>711.99</ele>
        <time>2020-10-18T12:23:04Z</time>
      </trkpt>
      <trkpt lat="43.53217" lon="2.47973">
        <ele>712.47</ele>
        <time>2020-10-18T12:23:13Z</time>
      </trkpt>
      <trkpt lat="43.53219" lon="2.47983">
        <ele>714.4</ele>
        <time>2020-10-18T12:23:23Z</time>
      </trkpt>
      <trkpt lat="43.53219" lon="2.47995">
        <ele>715.36</ele>
        <time>2020-10-18T12:23:33Z</time>
      </trkpt>
      <trkpt lat="43.53218" lon="2.48007">
        <ele>716.8</ele>
        <time>2020-10-18T12:23:41Z</time>
      </trkpt>
      <trkpt lat="43.53215" lon="2.4802">
        <ele>717.28</ele>
        <time>2020-10-18T12:23:49Z</time>
      </trkpt>
      <trkpt lat="43.5321" lon="2.48032">
        <ele>717.28</ele>
        <time>2020-10-18T12:23:58Z</time>
      </trkpt>
      <trkpt lat="43.53207" lon="2.48043">
        <ele>717.76</ele>
        <time>2020-10-18T12:24:06Z</time>
      </trkpt>
      <trkpt lat="43.53206" lon="2.48048">
        <ele>717.76</ele>
        <time>2020-10-18T12:24:09Z</time>
      </trkpt>
      <trkpt lat="43.53203" lon="2.48057">
        <ele>719.2</ele>
        <time>2020-10-18T12:24:17Z</time>
      </trkpt>
      <trkpt lat="43.532" lon="2.4807">
        <ele>720.65</ele>
        <time>2020-10-18T12:24:24Z</time>
      </trkpt>
      <trkpt lat="43.53197" lon="2.48081">
        <ele>722.09</ele>
        <time>2020-10-18T12:24:31Z</time>
      </trkpt>
      <trkpt lat="43.53192" lon="2.48094">
        <ele>723.05</ele>
        <time>2020-10-18T12:24:39Z</time>
      </trkpt>
      <trkpt lat="43.53189" lon="2.48104">
        <ele>723.53</ele>
        <time>2020-10-18T12:24:46Z</time>
      </trkpt>
      <trkpt lat="43.53185" lon="2.48119">
        <ele>723.05</ele>
        <time>2020-10-18T12:24:56Z</time>
      </trkpt>
      <trkpt lat="43.53177" lon="2.48133">
        <ele>723.53</ele>
        <time>2020-10-18T12:25:06Z</time>
      </trkpt>
      <trkpt lat="43.53172" lon="2.48143">
        <ele>725.45</ele>
        <time>2020-10-18T12:25:15Z</time>
      </trkpt>
      <trkpt lat="43.53166" lon="2.48152">
        <ele>725.45</ele>
        <time>2020-10-18T12:25:22Z</time>
      </trkpt>
      <trkpt lat="43.53159" lon="2.48161">
        <ele>726.41</ele>
        <time>2020-10-18T12:25:32Z</time>
      </trkpt>
      <trkpt lat="43.53151" lon="2.48173">
        <ele>725.93</ele>
        <time>2020-10-18T12:25:43Z</time>
      </trkpt>
      <trkpt lat="43.53141" lon="2.48188">
        <ele>724.01</ele>
        <time>2020-10-18T12:25:54Z</time>
      </trkpt>
      <trkpt lat="43.53138" lon="2.48194">
        <ele>723.05</ele>
        <time>2020-10-18T12:25:58Z</time>
      </trkpt>
      <trkpt lat="43.5313" lon="2.48205">
        <ele>722.09</ele>
        <time>2020-10-18T12:26:07Z</time>
      </trkpt>
      <trkpt lat="43.53123" lon="2.48217">
        <ele>720.65</ele>
        <time>2020-10-18T12:26:15Z</time>
      </trkpt>
      <trkpt lat="43.53119" lon="2.48224">
        <ele>719.68</ele>
        <time>2020-10-18T12:26:19Z</time>
      </trkpt>
      <trkpt lat="43.53112" lon="2.48237">
        <ele>718.72</ele>
        <time>2020-10-18T12:26:27Z</time>
      </trkpt>
      <trkpt lat="43.53102" lon="2.48247">
        <ele>720.65</ele>
        <time>2020-10-18T12:26:37Z</time>
      </trkpt>
      <trkpt lat="43.53091" lon="2.48255">
        <ele>723.53</ele>
        <time>2020-10-18T12:26:47Z</time>
      </trkpt>
      <trkpt lat="43.5308" lon="2.48261">
        <ele>724.49</ele>
        <time>2020-10-18T12:26:56Z</time>
      </trkpt>
      <trkpt lat="43.53072" lon="2.48265">
        <ele>724.01</ele>
        <time>2020-10-18T12:27:01Z</time>
      </trkpt>
      <trkpt lat="43.53058" lon="2.48267">
        <ele>724.01</ele>
        <time>2020-10-18T12:27:11Z</time>
      </trkpt>
      <trkpt lat="43.53046" lon="2.48264">
        <ele>722.57</ele>
        <time>2020-10-18T12:27:21Z</time>
      </trkpt>
      <trkpt lat="43.53037" lon="2.4826">
        <ele>718.72</ele>
        <time>2020-10-18T12:27:29Z</time>
      </trkpt>
      <trkpt lat="43.53026" lon="2.48254">
        <ele>708.63</ele>
        <time>2020-10-18T12:27:40Z</time>
      </trkpt>
      <trkpt lat="43.53015" lon="2.48241">
        <ele>704.78</ele>
        <time>2020-10-18T12:27:50Z</time>
      </trkpt>
      <trkpt lat="43.53" lon="2.48237">
        <ele>701.9</ele>
        <time>2020-10-18T12:27:59Z</time>
      </trkpt>
      <trkpt lat="43.52988" lon="2.48238">
        <ele>701.42</ele>
        <time>2020-10-18T12:28:07Z</time>
      </trkpt>
      <trkpt lat="43.52973" lon="2.48246">
        <ele>699.98</ele>
        <time>2020-10-18T12:28:19Z</time>
      </trkpt>
      <trkpt lat="43.52968" lon="2.4825">
        <ele>700.46</ele>
        <time>2020-10-18T12:28:24Z</time>
      </trkpt>
      <trkpt lat="43.52958" lon="2.48262">
        <ele>699.98</ele>
        <time>2020-10-18T12:28:35Z</time>
      </trkpt>
      <trkpt lat="43.5295" lon="2.48276">
        <ele>699.5</ele>
        <time>2020-10-18T12:28:46Z</time>
      </trkpt>
      <trkpt lat="43.52943" lon="2.48291">
        <ele>698.53</ele>
        <time>2020-10-18T12:28:56Z</time>
      </trkpt>
      <trkpt lat="43.52934" lon="2.48307">
        <ele>697.09</ele>
        <time>2020-10-18T12:29:08Z</time>
      </trkpt>
      <trkpt lat="43.52926" lon="2.48316">
        <ele>697.57</ele>
        <time>2020-10-18T12:29:17Z</time>
      </trkpt>
      <trkpt lat="43.52915" lon="2.48329">
        <ele>696.13</ele>
        <time>2020-10-18T12:29:28Z</time>
      </trkpt>
      <trkpt lat="43.52904" lon="2.48338">
        <ele>694.21</ele>
        <time>2020-10-18T12:29:39Z</time>
      </trkpt>
      <trkpt lat="43.52894" lon="2.48338">
        <ele>695.17</ele>
        <time>2020-10-18T12:29:49Z</time>
      </trkpt>
      <trkpt lat="43.52886" lon="2.4833">
        <ele>695.17</ele>
        <time>2020-10-18T12:29:58Z</time>
      </trkpt>
      <trkpt lat="43.5288" lon="2.48324">
        <ele>694.21</ele>
        <time>2020-10-18T12:30:06Z</time>
      </trkpt>
      <trkpt lat="43.52875" lon="2.48316">
        <ele>694.21</ele>
        <time>2020-10-18T12:30:15Z</time>
      </trkpt>
      <trkpt lat="43.52868" lon="2.48309">
        <ele>694.21</ele>
        <time>2020-10-18T12:30:23Z</time>
      </trkpt>
      <trkpt lat="43.52857" lon="2.48299">
        <ele>692.77</ele>
        <time>2020-10-18T12:30:33Z</time>
      </trkpt>
      <trkpt lat="43.52843" lon="2.48296">
        <ele>691.33</ele>
        <time>2020-10-18T12:30:43Z</time>
      </trkpt>
      <trkpt lat="43.52833" lon="2.483">
        <ele>693.25</ele>
        <time>2020-10-18T12:30:52Z</time>
      </trkpt>
      <trkpt lat="43.52824" lon="2.4831">
        <ele>695.17</ele>
        <time>2020-10-18T12:31:03Z</time>
      </trkpt>
      <trkpt lat="43.52815" lon="2.48319">
        <ele>696.61</ele>
        <time>2020-10-18T12:31:12Z</time>
      </trkpt>
      <trkpt lat="43.52806" lon="2.48329">
        <ele>696.61</ele>
        <time>2020-10-18T12:31:22Z</time>
      </trkpt>
      <trkpt lat="43.52799" lon="2.4834">
        <ele>695.65</ele>
        <time>2020-10-18T12:31:32Z</time>
      </trkpt>
      <trkpt lat="43.52787" lon="2.48354">
        <ele>694.21</ele>
        <time>2020-10-18T12:31:43Z</time>
      </trkpt>
      <trkpt lat="43.52782" lon="2.48361">
        <ele>694.69</ele>
        <time>2020-10-18T12:31:53Z</time>
      </trkpt>
      <trkpt lat="43.52781" lon="2.48363">
        <ele>692.29</ele>
        <time>2020-10-18T12:32:11Z</time>
      </trkpt>
      <trkpt lat="43.52777" lon="2.48368">
        <ele>690.84</ele>
        <time>2020-10-18T12:32:21Z</time>
      </trkpt>
      <trkpt lat="43.52773" lon="2.48373">
        <ele>690.84</ele>
        <time>2020-10-18T12:32:29Z</time>
      </trkpt>
      <trkpt lat="43.52771" lon="2.48378">
        <ele>690.84</ele>
        <time>2020-10-18T12:32:39Z</time>
      </trkpt>
      <trkpt lat="43.52766" lon="2.48388">
        <ele>690.84</ele>
        <time>2020-10-18T12:32:49Z</time>
      </trkpt>
      <trkpt lat="43.52763" lon="2.48396">
        <ele>690.36</ele>
        <time>2020-10-18T12:32:55Z</time>
      </trkpt>
      <trkpt lat="43.52759" lon="2.4841">
        <ele>690.36</ele>
        <time>2020-10-18T12:33:05Z</time>
      </trkpt>
      <trkpt lat="43.52755" lon="2.48425">
        <ele>690.36</ele>
        <time>2020-10-18T12:33:13Z</time>
      </trkpt>
      <trkpt lat="43.5275" lon="2.48439">
        <ele>690.36</ele>
        <time>2020-10-18T12:33:22Z</time>
      </trkpt>
      <trkpt lat="43.52746" lon="2.48452">
        <ele>689.88</ele>
        <time>2020-10-18T12:33:30Z</time>
      </trkpt>
      <trkpt lat="43.52738" lon="2.4847">
        <ele>688.92</ele>
        <time>2020-10-18T12:33:41Z</time>
      </trkpt>
      <trkpt lat="43.5273" lon="2.48482">
        <ele>687.48</ele>
        <time>2020-10-18T12:33:52Z</time>
      </trkpt>
      <trkpt lat="43.52722" lon="2.4849">
        <ele>687.48</ele>
        <time>2020-10-18T12:34:00Z</time>
      </trkpt>
      <trkpt lat="43.52712" lon="2.48498">
        <ele>688.44</ele>
        <time>2020-10-18T12:34:10Z</time>
      </trkpt>
      <trkpt lat="43.52703" lon="2.48505">
        <ele>687.48</ele>
        <time>2020-10-18T12:34:18Z</time>
      </trkpt>
      <trkpt lat="43.52691" lon="2.48512">
        <ele>689.88</ele>
        <time>2020-10-18T12:34:29Z</time>
      </trkpt>
      <trkpt lat="43.52679" lon="2.48521">
        <ele>691.81</ele>
        <time>2020-10-18T12:34:39Z</time>
      </trkpt>
      <trkpt lat="43.5267" lon="2.48528">
        <ele>692.77</ele>
        <time>2020-10-18T12:34:47Z</time>
      </trkpt>
      <trkpt lat="43.52662" lon="2.48542">
        <ele>694.21</ele>
        <time>2020-10-18T12:34:58Z</time>
      </trkpt>
      <trkpt lat="43.52651" lon="2.48563">
        <ele>692.77</ele>
        <time>2020-10-18T12:35:10Z</time>
      </trkpt>
      <trkpt lat="43.52643" lon="2.48583">
        <ele>689.88</ele>
        <time>2020-10-18T12:35:20Z</time>
      </trkpt>
      <trkpt lat="43.52636" lon="2.48594">
        <ele>691.33</ele>
        <time>2020-10-18T12:35:29Z</time>
      </trkpt>
      <trkpt lat="43.52628" lon="2.48605">
        <ele>691.81</ele>
        <time>2020-10-18T12:35:37Z</time>
      </trkpt>
      <trkpt lat="43.52621" lon="2.48613">
        <ele>693.25</ele>
        <time>2020-10-18T12:35:44Z</time>
      </trkpt>
      <trkpt lat="43.52618" lon="2.48616">
        <ele>694.21</ele>
        <time>2020-10-18T12:35:47Z</time>
      </trkpt>
      <trkpt lat="43.52609" lon="2.48626">
        <ele>696.13</ele>
        <time>2020-10-18T12:35:56Z</time>
      </trkpt>
      <trkpt lat="43.52599" lon="2.48634">
        <ele>699.02</ele>
        <time>2020-10-18T12:36:05Z</time>
      </trkpt>
      <trkpt lat="43.52591" lon="2.48641">
        <ele>699.98</ele>
        <time>2020-10-18T12:36:14Z</time>
      </trkpt>
      <trkpt lat="43.52578" lon="2.4865">
        <ele>702.38</ele>
        <time>2020-10-18T12:36:24Z</time>
      </trkpt>
      <trkpt lat="43.52568" lon="2.48658">
        <ele>704.3</ele>
        <time>2020-10-18T12:36:32Z</time>
      </trkpt>
      <trkpt lat="43.52563" lon="2.48667">
        <ele>705.75</ele>
        <time>2020-10-18T12:36:39Z</time>
      </trkpt>
      <trkpt lat="43.52562" lon="2.48671">
        <ele>706.23</ele>
        <time>2020-10-18T12:36:42Z</time>
      </trkpt>
      <trkpt lat="43.52561" lon="2.48687">
        <ele>707.67</ele>
        <time>2020-10-18T12:36:49Z</time>
      </trkpt>
      <trkpt lat="43.52564" lon="2.48699">
        <ele>708.63</ele>
        <time>2020-10-18T12:36:56Z</time>
      </trkpt>
      <trkpt lat="43.52572" lon="2.48716">
        <ele>707.67</ele>
        <time>2020-10-18T12:37:05Z</time>
      </trkpt>
      <trkpt lat="43.5258" lon="2.48723">
        <ele>706.23</ele>
        <time>2020-10-18T12:37:10Z</time>
      </trkpt>
      <trkpt lat="43.52588" lon="2.48735">
        <ele>705.26</ele>
        <time>2020-10-18T12:37:17Z</time>
      </trkpt>
      <trkpt lat="43.52596" lon="2.48744">
        <ele>704.3</ele>
        <time>2020-10-18T12:37:23Z</time>
      </trkpt>
      <trkpt lat="43.52601" lon="2.4876">
        <ele>702.86</ele>
        <time>2020-10-18T12:37:30Z</time>
      </trkpt>
      <trkpt lat="43.52603" lon="2.48786">
        <ele>699.02</ele>
        <time>2020-10-18T12:37:40Z</time>
      </trkpt>
      <trkpt lat="43.52604" lon="2.48803">
        <ele>698.53</ele>
        <time>2020-10-18T12:37:47Z</time>
      </trkpt>
      <trkpt lat="43.52603" lon="2.48813">
        <ele>698.05</ele>
        <time>2020-10-18T12:37:52Z</time>
      </trkpt>
      <trkpt lat="43.52602" lon="2.48824">
        <ele>697.57</ele>
        <time>2020-10-18T12:37:57Z</time>
      </trkpt>
      <trkpt lat="43.52599" lon="2.48838">
        <ele>697.57</ele>
        <time>2020-10-18T12:38:04Z</time>
      </trkpt>
      <trkpt lat="43.52594" lon="2.48855">
        <ele>698.53</ele>
        <time>2020-10-18T12:38:12Z</time>
      </trkpt>
      <trkpt lat="43.52592" lon="2.48865">
        <ele>694.21</ele>
        <time>2020-10-18T12:38:20Z</time>
      </trkpt>
      <trkpt lat="43.52589" lon="2.48871">
        <ele>692.77</ele>
        <time>2020-10-18T12:38:26Z</time>
      </trkpt>
      <trkpt lat="43.52581" lon="2.48882">
        <ele>691.33</ele>
        <time>2020-10-18T12:38:36Z</time>
      </trkpt>
      <trkpt lat="43.52575" lon="2.48893">
        <ele>690.36</ele>
        <time>2020-10-18T12:38:42Z</time>
      </trkpt>
      <trkpt lat="43.52567" lon="2.48906">
        <ele>689.88</ele>
        <time>2020-10-18T12:38:50Z</time>
      </trkpt>
      <trkpt lat="43.52559" lon="2.48911">
        <ele>689.4</ele>
        <time>2020-10-18T12:38:57Z</time>
      </trkpt>
      <trkpt lat="43.52548" lon="2.48915">
        <ele>690.36</ele>
        <time>2020-10-18T12:39:05Z</time>
      </trkpt>
      <trkpt lat="43.52531" lon="2.48921">
        <ele>690.84</ele>
        <time>2020-10-18T12:39:15Z</time>
      </trkpt>
      <trkpt lat="43.52519" lon="2.48922">
        <ele>692.29</ele>
        <time>2020-10-18T12:39:23Z</time>
      </trkpt>
      <trkpt lat="43.52507" lon="2.48923">
        <ele>694.21</ele>
        <time>2020-10-18T12:39:31Z</time>
      </trkpt>
      <trkpt lat="43.52492" lon="2.48922">
        <ele>696.13</ele>
        <time>2020-10-18T12:39:41Z</time>
      </trkpt>
      <trkpt lat="43.52482" lon="2.48923">
        <ele>699.02</ele>
        <time>2020-10-18T12:39:48Z</time>
      </trkpt>
      <trkpt lat="43.52474" lon="2.4892">
        <ele>701.42</ele>
        <time>2020-10-18T12:39:55Z</time>
      </trkpt>
      <trkpt lat="43.52462" lon="2.48915">
        <ele>700.46</ele>
        <time>2020-10-18T12:40:04Z</time>
      </trkpt>
      <trkpt lat="43.52454" lon="2.48909">
        <ele>696.61</ele>
        <time>2020-10-18T12:40:11Z</time>
      </trkpt>
      <trkpt lat="43.52443" lon="2.48904">
        <ele>694.21</ele>
        <time>2020-10-18T12:40:18Z</time>
      </trkpt>
      <trkpt lat="43.52432" lon="2.48895">
        <ele>694.21</ele>
        <time>2020-10-18T12:40:25Z</time>
      </trkpt>
      <trkpt lat="43.52431" lon="2.48893">
        <ele>693.73</ele>
        <time>2020-10-18T12:40:26Z</time>
      </trkpt>
      <trkpt lat="43.52425" lon="2.48884">
        <ele>693.73</ele>
        <time>2020-10-18T12:40:31Z</time>
      </trkpt>
      <trkpt lat="43.52418" lon="2.48869">
        <ele>690.36</ele>
        <time>2020-10-18T12:40:39Z</time>
      </trkpt>
      <trkpt lat="43.52404" lon="2.48852">
        <ele>684.6</ele>
        <time>2020-10-18T12:40:50Z</time>
      </trkpt>
      <trkpt lat="43.52392" lon="2.4884">
        <ele>680.75</ele>
        <time>2020-10-18T12:40:59Z</time>
      </trkpt>
      <trkpt lat="43.5238" lon="2.48828">
        <ele>679.79</ele>
        <time>2020-10-18T12:41:08Z</time>
      </trkpt>
      <trkpt lat="43.52366" lon="2.48816">
        <ele>677.87</ele>
        <time>2020-10-18T12:41:18Z</time>
      </trkpt>
      <trkpt lat="43.52353" lon="2.48805">
        <ele>675.46</ele>
        <time>2020-10-18T12:41:27Z</time>
      </trkpt>
      <trkpt lat="43.52337" lon="2.48795">
        <ele>674.5</ele>
        <time>2020-10-18T12:41:38Z</time>
      </trkpt>
      <trkpt lat="43.52326" lon="2.48791">
        <ele>674.5</ele>
        <time>2020-10-18T12:41:46Z</time>
      </trkpt>
      <trkpt lat="43.52318" lon="2.48792">
        <ele>671.62</ele>
        <time>2020-10-18T12:41:50Z</time>
      </trkpt>
      <trkpt lat="43.52305" lon="2.48792">
        <ele>669.22</ele>
        <time>2020-10-18T12:41:59Z</time>
      </trkpt>
      <trkpt lat="43.52292" lon="2.48795">
        <ele>666.81</ele>
        <time>2020-10-18T12:42:08Z</time>
      </trkpt>
      <trkpt lat="43.52279" lon="2.48797">
        <ele>667.77</ele>
        <time>2020-10-18T12:42:16Z</time>
      </trkpt>
      <trkpt lat="43.5227" lon="2.48801">
        <ele>670.66</ele>
        <time>2020-10-18T12:42:24Z</time>
      </trkpt>
      <trkpt lat="43.52259" lon="2.48808">
        <ele>671.62</ele>
        <time>2020-10-18T12:42:33Z</time>
      </trkpt>
      <trkpt lat="43.52254" lon="2.48813">
        <ele>668.25</ele>
        <time>2020-10-18T12:42:41Z</time>
      </trkpt>
      <trkpt lat="43.52249" lon="2.48819">
        <ele>664.41</ele>
        <time>2020-10-18T12:42:53Z</time>
      </trkpt>
      <trkpt lat="43.5225" lon="2.4882">
        <ele>661.52</ele>
        <time>2020-10-18T12:43:12Z</time>
      </trkpt>
      <trkpt lat="43.52251" lon="2.48821">
        <ele>659.12</ele>
        <time>2020-10-18T12:43:35Z</time>
      </trkpt>
      <trkpt lat="43.52247" lon="2.48824">
        <ele>658.64</ele>
        <time>2020-10-18T12:43:58Z</time>
      </trkpt>
      <trkpt lat="43.52248" lon="2.48823">
        <ele>656.24</ele>
        <time>2020-10-18T12:44:12Z</time>
      </trkpt>
      <trkpt lat="43.52249" lon="2.48824">
        <ele>652.39</ele>
        <time>2020-10-18T12:44:30Z</time>
      </trkpt>
      <trkpt lat="43.52248" lon="2.48824">
        <ele>652.87</ele>
        <time>2020-10-18T12:44:40Z</time>
      </trkpt>
      <trkpt lat="43.52244" lon="2.48824">
        <ele>654.31</ele>
        <time>2020-10-18T12:44:45Z</time>
      </trkpt>
      <trkpt lat="43.52242" lon="2.48826">
        <ele>654.8</ele>
        <time>2020-10-18T12:44:48Z</time>
      </trkpt>
      <trkpt lat="43.52237" lon="2.48829">
        <ele>655.76</ele>
        <time>2020-10-18T12:44:52Z</time>
      </trkpt>
      <trkpt lat="43.52224" lon="2.48844">
        <ele>658.64</ele>
        <time>2020-10-18T12:45:05Z</time>
      </trkpt>
      <trkpt lat="43.52216" lon="2.48859">
        <ele>658.64</ele>
        <time>2020-10-18T12:45:16Z</time>
      </trkpt>
      <trkpt lat="43.52209" lon="2.48872">
        <ele>659.12</ele>
        <time>2020-10-18T12:45:25Z</time>
      </trkpt>
      <trkpt lat="43.52204" lon="2.48886">
        <ele>659.6</ele>
        <time>2020-10-18T12:45:35Z</time>
      </trkpt>
      <trkpt lat="43.52196" lon="2.48903">
        <ele>662.01</ele>
        <time>2020-10-18T12:45:46Z</time>
      </trkpt>
      <trkpt lat="43.52188" lon="2.48922">
        <ele>664.89</ele>
        <time>2020-10-18T12:45:58Z</time>
      </trkpt>
      <trkpt lat="43.52179" lon="2.48942">
        <ele>665.85</ele>
        <time>2020-10-18T12:46:09Z</time>
      </trkpt>
      <trkpt lat="43.5217" lon="2.48959">
        <ele>667.77</ele>
        <time>2020-10-18T12:46:19Z</time>
      </trkpt>
      <trkpt lat="43.52158" lon="2.48976">
        <ele>668.25</ele>
        <time>2020-10-18T12:46:29Z</time>
      </trkpt>
      <trkpt lat="43.52147" lon="2.4899">
        <ele>668.25</ele>
        <time>2020-10-18T12:46:39Z</time>
      </trkpt>
      <trkpt lat="43.52146" lon="2.48991">
        <ele>668.73</ele>
        <time>2020-10-18T12:46:40Z</time>
      </trkpt>
      <trkpt lat="43.52137" lon="2.49003">
        <ele>672.58</ele>
        <time>2020-10-18T12:46:50Z</time>
      </trkpt>
      <trkpt lat="43.52129" lon="2.49011">
        <ele>675.94</ele>
        <time>2020-10-18T12:46:58Z</time>
      </trkpt>
      <trkpt lat="43.52118" lon="2.49022">
        <ele>681.23</ele>
        <time>2020-10-18T12:47:08Z</time>
      </trkpt>
      <trkpt lat="43.52111" lon="2.49031">
        <ele>685.08</ele>
        <time>2020-10-18T12:47:17Z</time>
      </trkpt>
      <trkpt lat="43.52103" lon="2.49032">
        <ele>687</ele>
        <time>2020-10-18T12:47:23Z</time>
      </trkpt>
      <trkpt lat="43.52095" lon="2.49032">
        <ele>688.92</ele>
        <time>2020-10-18T12:47:28Z</time>
      </trkpt>
      <trkpt lat="43.52083" lon="2.49029">
        <ele>689.4</ele>
        <time>2020-10-18T12:47:35Z</time>
      </trkpt>
      <trkpt lat="43.52069" lon="2.49025">
        <ele>687.96</ele>
        <time>2020-10-18T12:47:44Z</time>
      </trkpt>
      <trkpt lat="43.52052" lon="2.4902">
        <ele>687</ele>
        <time>2020-10-18T12:47:54Z</time>
      </trkpt>
      <trkpt lat="43.52039" lon="2.4902">
        <ele>686.52</ele>
        <time>2020-10-18T12:48:02Z</time>
      </trkpt>
      <trkpt lat="43.52027" lon="2.4902">
        <ele>687</ele>
        <time>2020-10-18T12:48:12Z</time>
      </trkpt>
      <trkpt lat="43.52019" lon="2.49024">
        <ele>689.4</ele>
        <time>2020-10-18T12:48:20Z</time>
      </trkpt>
      <trkpt lat="43.52004" lon="2.49032">
        <ele>691.33</ele>
        <time>2020-10-18T12:48:32Z</time>
      </trkpt>
      <trkpt lat="43.51997" lon="2.49038">
        <ele>692.77</ele>
        <time>2020-10-18T12:48:39Z</time>
      </trkpt>
      <trkpt lat="43.51988" lon="2.49043">
        <ele>695.65</ele>
        <time>2020-10-18T12:48:47Z</time>
      </trkpt>
      <trkpt lat="43.5198" lon="2.49047">
        <ele>697.09</ele>
        <time>2020-10-18T12:48:54Z</time>
      </trkpt>
      <trkpt lat="43.51973" lon="2.49049">
        <ele>699.98</ele>
        <time>2020-10-18T12:49:02Z</time>
      </trkpt>
      <trkpt lat="43.51962" lon="2.4905">
        <ele>700.94</ele>
        <time>2020-10-18T12:49:10Z</time>
      </trkpt>
      <trkpt lat="43.51956" lon="2.49051">
        <ele>701.9</ele>
        <time>2020-10-18T12:49:15Z</time>
      </trkpt>
      <trkpt lat="43.51942" lon="2.49057">
        <ele>703.34</ele>
        <time>2020-10-18T12:49:25Z</time>
      </trkpt>
      <trkpt lat="43.51932" lon="2.49063">
        <ele>705.26</ele>
        <time>2020-10-18T12:49:33Z</time>
      </trkpt>
      <trkpt lat="43.5192" lon="2.49075">
        <ele>706.71</ele>
        <time>2020-10-18T12:49:44Z</time>
      </trkpt>
      <trkpt lat="43.51908" lon="2.49084">
        <ele>707.67</ele>
        <time>2020-10-18T12:49:54Z</time>
      </trkpt>
      <trkpt lat="43.51896" lon="2.49093">
        <ele>710.07</ele>
        <time>2020-10-18T12:50:05Z</time>
      </trkpt>
      <trkpt lat="43.51887" lon="2.49099">
        <ele>710.07</ele>
        <time>2020-10-18T12:50:12Z</time>
      </trkpt>
      <trkpt lat="43.51868" lon="2.4911">
        <ele>707.67</ele>
        <time>2020-10-18T12:50:23Z</time>
      </trkpt>
      <trkpt lat="43.51858" lon="2.4912">
        <ele>707.67</ele>
        <time>2020-10-18T12:50:31Z</time>
      </trkpt>
      <trkpt lat="43.51849" lon="2.4913">
        <ele>705.26</ele>
        <time>2020-10-18T12:50:37Z</time>
      </trkpt>
      <trkpt lat="43.51836" lon="2.49139">
        <ele>700.94</ele>
        <time>2020-10-18T12:50:46Z</time>
      </trkpt>
      <trkpt lat="43.51823" lon="2.49145">
        <ele>696.13</ele>
        <time>2020-10-18T12:50:53Z</time>
      </trkpt>
      <trkpt lat="43.51816" lon="2.49146">
        <ele>694.69</ele>
        <time>2020-10-18T12:50:57Z</time>
      </trkpt>
      <trkpt lat="43.51804" lon="2.49146">
        <ele>692.77</ele>
        <time>2020-10-18T12:51:05Z</time>
      </trkpt>
      <trkpt lat="43.51801" lon="2.49144">
        <ele>692.29</ele>
        <time>2020-10-18T12:51:07Z</time>
      </trkpt>
      <trkpt lat="43.51792" lon="2.49141">
        <ele>688.92</ele>
        <time>2020-10-18T12:51:13Z</time>
      </trkpt>
      <trkpt lat="43.51782" lon="2.49138">
        <ele>685.56</ele>
        <time>2020-10-18T12:51:21Z</time>
      </trkpt>
      <trkpt lat="43.51771" lon="2.49126">
        <ele>684.6</ele>
        <time>2020-10-18T12:51:30Z</time>
      </trkpt>
      <trkpt lat="43.51765" lon="2.49116">
        <ele>685.08</ele>
        <time>2020-10-18T12:51:38Z</time>
      </trkpt>
      <trkpt lat="43.51762" lon="2.49099">
        <ele>686.52</ele>
        <time>2020-10-18T12:51:48Z</time>
      </trkpt>
      <trkpt lat="43.51761" lon="2.49086">
        <ele>686.52</ele>
        <time>2020-10-18T12:51:56Z</time>
      </trkpt>
      <trkpt lat="43.5176" lon="2.49077">
        <ele>687.48</ele>
        <time>2020-10-18T12:52:03Z</time>
      </trkpt>
      <trkpt lat="43.5176" lon="2.49067">
        <ele>687.48</ele>
        <time>2020-10-18T12:52:11Z</time>
      </trkpt>
      <trkpt lat="43.51762" lon="2.49054">
        <ele>688.44</ele>
        <time>2020-10-18T12:52:20Z</time>
      </trkpt>
      <trkpt lat="43.51766" lon="2.49046">
        <ele>692.77</ele>
        <time>2020-10-18T12:52:27Z</time>
      </trkpt>
      <trkpt lat="43.51772" lon="2.49037">
        <ele>699.5</ele>
        <time>2020-10-18T12:52:36Z</time>
      </trkpt>
      <trkpt lat="43.51776" lon="2.49033">
        <ele>703.82</ele>
        <time>2020-10-18T12:52:41Z</time>
      </trkpt>
      <trkpt lat="43.51783" lon="2.49018">
        <ele>704.78</ele>
        <time>2020-10-18T12:52:50Z</time>
      </trkpt>
      <trkpt lat="43.51788" lon="2.49003">
        <ele>705.26</ele>
        <time>2020-10-18T12:52:58Z</time>
      </trkpt>
      <trkpt lat="43.51787" lon="2.48996">
        <ele>705.75</ele>
        <time>2020-10-18T12:53:02Z</time>
      </trkpt>
      <trkpt lat="43.51784" lon="2.48981">
        <ele>707.67</ele>
        <time>2020-10-18T12:53:10Z</time>
      </trkpt>
      <trkpt lat="43.51781" lon="2.48974">
        <ele>709.59</ele>
        <time>2020-10-18T12:53:14Z</time>
      </trkpt>
      <trkpt lat="43.51776" lon="2.48953">
        <ele>709.11</ele>
        <time>2020-10-18T12:53:22Z</time>
      </trkpt>
      <trkpt lat="43.51775" lon="2.4895">
        <ele>709.11</ele>
        <time>2020-10-18T12:53:24Z</time>
      </trkpt>
      <trkpt lat="43.5177" lon="2.48946">
        <ele>710.07</ele>
        <time>2020-10-18T12:53:31Z</time>
      </trkpt>
      <trkpt lat="43.51766" lon="2.48942">
        <ele>711.99</ele>
        <time>2020-10-18T12:53:36Z</time>
      </trkpt>
      <trkpt lat="43.51755" lon="2.48939">
        <ele>717.28</ele>
        <time>2020-10-18T12:53:45Z</time>
      </trkpt>
      <trkpt lat="43.51751" lon="2.48934">
        <ele>717.76</ele>
        <time>2020-10-18T12:53:49Z</time>
      </trkpt>
      <trkpt lat="43.5174" lon="2.48921">
        <ele>714.4</ele>
        <time>2020-10-18T12:54:00Z</time>
      </trkpt>
      <trkpt lat="43.51739" lon="2.4892">
        <ele>714.4</ele>
        <time>2020-10-18T12:54:01Z</time>
      </trkpt>
      <trkpt lat="43.51733" lon="2.48911">
        <ele>712.95</ele>
        <time>2020-10-18T12:54:08Z</time>
      </trkpt>
      <trkpt lat="43.51731" lon="2.48904">
        <ele>711.03</ele>
        <time>2020-10-18T12:54:12Z</time>
      </trkpt>
      <trkpt lat="43.5172" lon="2.4888">
        <ele>708.15</ele>
        <time>2020-10-18T12:54:24Z</time>
      </trkpt>
      <trkpt lat="43.51713" lon="2.4887">
        <ele>707.67</ele>
        <time>2020-10-18T12:54:31Z</time>
      </trkpt>
      <trkpt lat="43.51706" lon="2.48856">
        <ele>708.15</ele>
        <time>2020-10-18T12:54:40Z</time>
      </trkpt>
      <trkpt lat="43.517" lon="2.48838">
        <ele>710.07</ele>
        <time>2020-10-18T12:54:51Z</time>
      </trkpt>
      <trkpt lat="43.51697" lon="2.48822">
        <ele>711.03</ele>
        <time>2020-10-18T12:55:00Z</time>
      </trkpt>
      <trkpt lat="43.51691" lon="2.48809">
        <ele>710.07</ele>
        <time>2020-10-18T12:55:09Z</time>
      </trkpt>
      <trkpt lat="43.51683" lon="2.48802">
        <ele>706.71</ele>
        <time>2020-10-18T12:55:15Z</time>
      </trkpt>
      <trkpt lat="43.51678" lon="2.48791">
        <ele>702.38</ele>
        <time>2020-10-18T12:55:25Z</time>
      </trkpt>
      <trkpt lat="43.51675" lon="2.48781">
        <ele>697.57</ele>
        <time>2020-10-18T12:55:41Z</time>
      </trkpt>
      <trkpt lat="43.5168" lon="2.48775">
        <ele>686.04</ele>
        <time>2020-10-18T12:55:58Z</time>
      </trkpt>
      <trkpt lat="43.51679" lon="2.4877">
        <ele>680.27</ele>
        <time>2020-10-18T12:56:13Z</time>
      </trkpt>
      <trkpt lat="43.51679" lon="2.48767">
        <ele>679.31</ele>
        <time>2020-10-18T12:56:29Z</time>
      </trkpt>
      <trkpt lat="43.51681" lon="2.4877">
        <ele>678.83</ele>
        <time>2020-10-18T12:56:40Z</time>
      </trkpt>
      <trkpt lat="43.51682" lon="2.48769">
        <ele>680.27</ele>
        <time>2020-10-18T12:56:48Z</time>
      </trkpt>
      <trkpt lat="43.51682" lon="2.48765">
        <ele>678.83</ele>
        <time>2020-10-18T12:56:57Z</time>
      </trkpt>
      <trkpt lat="43.51684" lon="2.48764">
        <ele>677.87</ele>
        <time>2020-10-18T12:57:04Z</time>
      </trkpt>
      <trkpt lat="43.51687" lon="2.48762">
        <ele>679.31</ele>
        <time>2020-10-18T12:57:11Z</time>
      </trkpt>
      <trkpt lat="43.51687" lon="2.48753">
        <ele>681.23</ele>
        <time>2020-10-18T12:57:20Z</time>
      </trkpt>
      <trkpt lat="43.51685" lon="2.4875">
        <ele>682.67</ele>
        <time>2020-10-18T12:57:27Z</time>
      </trkpt>
      <trkpt lat="43.51685" lon="2.48746">
        <ele>682.67</ele>
        <time>2020-10-18T12:57:35Z</time>
      </trkpt>
      <trkpt lat="43.51684" lon="2.48744">
        <ele>682.19</ele>
        <time>2020-10-18T12:57:41Z</time>
      </trkpt>
      <trkpt lat="43.51682" lon="2.48741">
        <ele>678.83</ele>
        <time>2020-10-18T12:57:51Z</time>
      </trkpt>
      <trkpt lat="43.51682" lon="2.48736">
        <ele>679.79</ele>
        <time>2020-10-18T12:57:58Z</time>
      </trkpt>
      <trkpt lat="43.51681" lon="2.48728">
        <ele>679.79</ele>
        <time>2020-10-18T12:58:06Z</time>
      </trkpt>
      <trkpt lat="43.5168" lon="2.4872">
        <ele>682.67</ele>
        <time>2020-10-18T12:58:13Z</time>
      </trkpt>
      <trkpt lat="43.5168" lon="2.48704">
        <ele>685.56</ele>
        <time>2020-10-18T12:58:23Z</time>
      </trkpt>
      <trkpt lat="43.5168" lon="2.48691">
        <ele>686.52</ele>
        <time>2020-10-18T12:58:32Z</time>
      </trkpt>
      <trkpt lat="43.51679" lon="2.4868">
        <ele>686.04</ele>
        <time>2020-10-18T12:58:40Z</time>
      </trkpt>
      <trkpt lat="43.51678" lon="2.48667">
        <ele>685.08</ele>
        <time>2020-10-18T12:58:50Z</time>
      </trkpt>
      <trkpt lat="43.5168" lon="2.48659">
        <ele>680.75</ele>
        <time>2020-10-18T12:59:00Z</time>
      </trkpt>
      <trkpt lat="43.51688" lon="2.48648">
        <ele>679.79</ele>
        <time>2020-10-18T12:59:10Z</time>
      </trkpt>
      <trkpt lat="43.51692" lon="2.48637">
        <ele>678.35</ele>
        <time>2020-10-18T12:59:19Z</time>
      </trkpt>
      <trkpt lat="43.51695" lon="2.48625">
        <ele>674.5</ele>
        <time>2020-10-18T12:59:25Z</time>
      </trkpt>
      <trkpt lat="43.51698" lon="2.48616">
        <ele>673.06</ele>
        <time>2020-10-18T12:59:32Z</time>
      </trkpt>
      <trkpt lat="43.517" lon="2.48601">
        <ele>673.06</ele>
        <time>2020-10-18T12:59:39Z</time>
      </trkpt>
      <trkpt lat="43.51692" lon="2.48582">
        <ele>669.22</ele>
        <time>2020-10-18T12:59:51Z</time>
      </trkpt>
      <trkpt lat="43.5169" lon="2.48576">
        <ele>665.85</ele>
        <time>2020-10-18T12:59:54Z</time>
      </trkpt>
      <trkpt lat="43.51685" lon="2.48557">
        <ele>654.8</ele>
        <time>2020-10-18T13:00:04Z</time>
      </trkpt>
      <trkpt lat="43.51679" lon="2.48534">
        <ele>647.1</ele>
        <time>2020-10-18T13:00:15Z</time>
      </trkpt>
      <trkpt lat="43.51673" lon="2.48519">
        <ele>642.3</ele>
        <time>2020-10-18T13:00:23Z</time>
      </trkpt>
      <trkpt lat="43.51672" lon="2.48516">
        <ele>641.82</ele>
        <time>2020-10-18T13:00:25Z</time>
      </trkpt>
      <trkpt lat="43.51669" lon="2.485">
        <ele>641.82</ele>
        <time>2020-10-18T13:00:34Z</time>
      </trkpt>
      <trkpt lat="43.51668" lon="2.4848">
        <ele>638.45</ele>
        <time>2020-10-18T13:00:44Z</time>
      </trkpt>
      <trkpt lat="43.51668" lon="2.48464">
        <ele>638.93</ele>
        <time>2020-10-18T13:00:53Z</time>
      </trkpt>
      <trkpt lat="43.51669" lon="2.48449">
        <ele>637.01</ele>
        <time>2020-10-18T13:01:00Z</time>
      </trkpt>
      <trkpt lat="43.51668" lon="2.48432">
        <ele>635.57</ele>
        <time>2020-10-18T13:01:08Z</time>
      </trkpt>
      <trkpt lat="43.51667" lon="2.4842">
        <ele>636.53</ele>
        <time>2020-10-18T13:01:15Z</time>
      </trkpt>
      <trkpt lat="43.51666" lon="2.48409">
        <ele>636.05</ele>
        <time>2020-10-18T13:01:21Z</time>
      </trkpt>
      <trkpt lat="43.51665" lon="2.48392">
        <ele>635.57</ele>
        <time>2020-10-18T13:01:31Z</time>
      </trkpt>
      <trkpt lat="43.51664" lon="2.48386">
        <ele>635.57</ele>
        <time>2020-10-18T13:01:37Z</time>
      </trkpt>
      <trkpt lat="43.51664" lon="2.48367">
        <ele>637.97</ele>
        <time>2020-10-18T13:01:48Z</time>
      </trkpt>
      <trkpt lat="43.51664" lon="2.48366">
        <ele>638.45</ele>
        <time>2020-10-18T13:01:49Z</time>
      </trkpt>
      <trkpt lat="43.51666" lon="2.48357">
        <ele>639.41</ele>
        <time>2020-10-18T13:01:53Z</time>
      </trkpt>
      <trkpt lat="43.51674" lon="2.48336">
        <ele>638.93</ele>
        <time>2020-10-18T13:02:04Z</time>
      </trkpt>
      <trkpt lat="43.51683" lon="2.48324">
        <ele>639.41</ele>
        <time>2020-10-18T13:02:13Z</time>
      </trkpt>
      <trkpt lat="43.51685" lon="2.48322">
        <ele>639.41</ele>
        <time>2020-10-18T13:02:15Z</time>
      </trkpt>
      <trkpt lat="43.51686" lon="2.4832">
        <ele>639.89</ele>
        <time>2020-10-18T13:02:17Z</time>
      </trkpt>
      <trkpt lat="43.51693" lon="2.48313">
        <ele>642.3</ele>
        <time>2020-10-18T13:02:24Z</time>
      </trkpt>
      <trkpt lat="43.51703" lon="2.48301">
        <ele>645.66</ele>
        <time>2020-10-18T13:02:32Z</time>
      </trkpt>
      <trkpt lat="43.51708" lon="2.48291">
        <ele>649.99</ele>
        <time>2020-10-18T13:02:39Z</time>
      </trkpt>
      <trkpt lat="43.51715" lon="2.48279">
        <ele>654.31</ele>
        <time>2020-10-18T13:02:47Z</time>
      </trkpt>
      <trkpt lat="43.5172" lon="2.48267">
        <ele>657.2</ele>
        <time>2020-10-18T13:02:54Z</time>
      </trkpt>
      <trkpt lat="43.51728" lon="2.48255">
        <ele>659.6</ele>
        <time>2020-10-18T13:03:02Z</time>
      </trkpt>
      <trkpt lat="43.51732" lon="2.48251">
        <ele>659.6</ele>
        <time>2020-10-18T13:03:05Z</time>
      </trkpt>
      <trkpt lat="43.5174" lon="2.48242">
        <ele>659.12</ele>
        <time>2020-10-18T13:03:11Z</time>
      </trkpt>
      <trkpt lat="43.51756" lon="2.48228">
        <ele>659.6</ele>
        <time>2020-10-18T13:03:23Z</time>
      </trkpt>
      <trkpt lat="43.51763" lon="2.48224">
        <ele>660.08</ele>
        <time>2020-10-18T13:03:28Z</time>
      </trkpt>
      <trkpt lat="43.51775" lon="2.48214">
        <ele>658.16</ele>
        <time>2020-10-18T13:03:37Z</time>
      </trkpt>
      <trkpt lat="43.5179" lon="2.48205">
        <ele>653.83</ele>
        <time>2020-10-18T13:03:47Z</time>
      </trkpt>
      <trkpt lat="43.51799" lon="2.48198">
        <ele>649.51</ele>
        <time>2020-10-18T13:03:56Z</time>
      </trkpt>
      <trkpt lat="43.51802" lon="2.48192">
        <ele>645.18</ele>
        <time>2020-10-18T13:04:00Z</time>
      </trkpt>
      <trkpt lat="43.51811" lon="2.48183">
        <ele>641.34</ele>
        <time>2020-10-18T13:04:08Z</time>
      </trkpt>
      <trkpt lat="43.51817" lon="2.48175">
        <ele>640.86</ele>
        <time>2020-10-18T13:04:15Z</time>
      </trkpt>
      <trkpt lat="43.51824" lon="2.48162">
        <ele>643.74</ele>
        <time>2020-10-18T13:04:24Z</time>
      </trkpt>
      <trkpt lat="43.51828" lon="2.48152">
        <ele>644.7</ele>
        <time>2020-10-18T13:04:32Z</time>
      </trkpt>
      <trkpt lat="43.51831" lon="2.48141">
        <ele>645.66</ele>
        <time>2020-10-18T13:04:40Z</time>
      </trkpt>
      <trkpt lat="43.51833" lon="2.48134">
        <ele>646.14</ele>
        <time>2020-10-18T13:04:45Z</time>
      </trkpt>
      <trkpt lat="43.51838" lon="2.48121">
        <ele>648.07</ele>
        <time>2020-10-18T13:04:55Z</time>
      </trkpt>
      <trkpt lat="43.51839" lon="2.48117">
        <ele>649.03</ele>
        <time>2020-10-18T13:04:58Z</time>
      </trkpt>
      <trkpt lat="43.51842" lon="2.48106">
        <ele>650.47</ele>
        <time>2020-10-18T13:05:06Z</time>
      </trkpt>
      <trkpt lat="43.51844" lon="2.48095">
        <ele>651.91</ele>
        <time>2020-10-18T13:05:14Z</time>
      </trkpt>
      <trkpt lat="43.51845" lon="2.48085">
        <ele>654.31</ele>
        <time>2020-10-18T13:05:23Z</time>
      </trkpt>
      <trkpt lat="43.51845" lon="2.48074">
        <ele>655.76</ele>
        <time>2020-10-18T13:05:32Z</time>
      </trkpt>
      <trkpt lat="43.51843" lon="2.48062">
        <ele>656.24</ele>
        <time>2020-10-18T13:05:40Z</time>
      </trkpt>
      <trkpt lat="43.5184" lon="2.48047">
        <ele>656.24</ele>
        <time>2020-10-18T13:05:49Z</time>
      </trkpt>
      <trkpt lat="43.5184" lon="2.48045">
        <ele>656.24</ele>
        <time>2020-10-18T13:05:50Z</time>
      </trkpt>
      <trkpt lat="43.51838" lon="2.48024">
        <ele>652.39</ele>
        <time>2020-10-18T13:05:59Z</time>
      </trkpt>
      <trkpt lat="43.51835" lon="2.47997">
        <ele>645.66</ele>
        <time>2020-10-18T13:06:06Z</time>
      </trkpt>
      <trkpt lat="43.51826" lon="2.47977">
        <ele>639.89</ele>
        <time>2020-10-18T13:06:15Z</time>
      </trkpt>
      <trkpt lat="43.51818" lon="2.4797">
        <ele>638.93</ele>
        <time>2020-10-18T13:06:23Z</time>
      </trkpt>
      <trkpt lat="43.51815" lon="2.4797">
        <ele>638.93</ele>
        <time>2020-10-18T13:06:25Z</time>
      </trkpt>
      <trkpt lat="43.51801" lon="2.47966">
        <ele>640.86</ele>
        <time>2020-10-18T13:06:35Z</time>
      </trkpt>
      <trkpt lat="43.51797" lon="2.47967">
        <ele>641.82</ele>
        <time>2020-10-18T13:06:37Z</time>
      </trkpt>
      <trkpt lat="43.51786" lon="2.47969">
        <ele>643.26</ele>
        <time>2020-10-18T13:06:46Z</time>
      </trkpt>
      <trkpt lat="43.51772" lon="2.47967">
        <ele>640.86</ele>
        <time>2020-10-18T13:06:57Z</time>
      </trkpt>
      <trkpt lat="43.51762" lon="2.47965">
        <ele>638.45</ele>
        <time>2020-10-18T13:07:04Z</time>
      </trkpt>
      <trkpt lat="43.51759" lon="2.47963">
        <ele>637.49</ele>
        <time>2020-10-18T13:07:06Z</time>
      </trkpt>
      <trkpt lat="43.51752" lon="2.47958">
        <ele>634.61</ele>
        <time>2020-10-18T13:07:11Z</time>
      </trkpt>
      <trkpt lat="43.5174" lon="2.47947">
        <ele>629.8</ele>
        <time>2020-10-18T13:07:21Z</time>
      </trkpt>
      <trkpt lat="43.51733" lon="2.47938">
        <ele>627.88</ele>
        <time>2020-10-18T13:07:28Z</time>
      </trkpt>
      <trkpt lat="43.51725" lon="2.47927">
        <ele>626.92</ele>
        <time>2020-10-18T13:07:36Z</time>
      </trkpt>
      <trkpt lat="43.51718" lon="2.47917">
        <ele>626.92</ele>
        <time>2020-10-18T13:07:45Z</time>
      </trkpt>
      <trkpt lat="43.51713" lon="2.47907">
        <ele>628.84</ele>
        <time>2020-10-18T13:07:54Z</time>
      </trkpt>
      <trkpt lat="43.51711" lon="2.47899">
        <ele>631.24</ele>
        <time>2020-10-18T13:08:02Z</time>
      </trkpt>
      <trkpt lat="43.51711" lon="2.4789">
        <ele>631.24</ele>
        <time>2020-10-18T13:08:09Z</time>
      </trkpt>
      <trkpt lat="43.51711" lon="2.47888">
        <ele>631.72</ele>
        <time>2020-10-18T13:08:11Z</time>
      </trkpt>
      <trkpt lat="43.5171" lon="2.47872">
        <ele>633.65</ele>
        <time>2020-10-18T13:08:21Z</time>
      </trkpt>
      <trkpt lat="43.51708" lon="2.47866">
        <ele>634.13</ele>
        <time>2020-10-18T13:08:27Z</time>
      </trkpt>
      <trkpt lat="43.51702" lon="2.47842">
        <ele>631.72</ele>
        <time>2020-10-18T13:08:36Z</time>
      </trkpt>
      <trkpt lat="43.51704" lon="2.47824">
        <ele>619.23</ele>
        <time>2020-10-18T13:08:49Z</time>
      </trkpt>
      <trkpt lat="43.51702" lon="2.47821">
        <ele>618.26</ele>
        <time>2020-10-18T13:08:56Z</time>
      </trkpt>
      <trkpt lat="43.51705" lon="2.47819">
        <ele>616.82</ele>
        <time>2020-10-18T13:09:15Z</time>
      </trkpt>
      <trkpt lat="43.51708" lon="2.47815">
        <ele>614.9</ele>
        <time>2020-10-18T13:09:23Z</time>
      </trkpt>
      <trkpt lat="43.51706" lon="2.47811">
        <ele>614.9</ele>
        <time>2020-10-18T13:09:30Z</time>
      </trkpt>
      <trkpt lat="43.517" lon="2.47801">
        <ele>616.82</ele>
        <time>2020-10-18T13:09:39Z</time>
      </trkpt>
      <trkpt lat="43.51695" lon="2.47797">
        <ele>618.75</ele>
        <time>2020-10-18T13:09:46Z</time>
      </trkpt>
      <trkpt lat="43.51689" lon="2.47789">
        <ele>619.23</ele>
        <time>2020-10-18T13:09:54Z</time>
      </trkpt>
      <trkpt lat="43.51682" lon="2.47779">
        <ele>622.59</ele>
        <time>2020-10-18T13:10:04Z</time>
      </trkpt>
      <trkpt lat="43.51677" lon="2.47769">
        <ele>624.51</ele>
        <time>2020-10-18T13:10:13Z</time>
      </trkpt>
      <trkpt lat="43.51676" lon="2.47767">
        <ele>624.99</ele>
        <time>2020-10-18T13:10:14Z</time>
      </trkpt>
      <trkpt lat="43.51673" lon="2.47747">
        <ele>622.11</ele>
        <time>2020-10-18T13:10:23Z</time>
      </trkpt>
      <trkpt lat="43.51669" lon="2.47727">
        <ele>617.3</ele>
        <time>2020-10-18T13:10:32Z</time>
      </trkpt>
      <trkpt lat="43.51666" lon="2.47714">
        <ele>613.94</ele>
        <time>2020-10-18T13:10:38Z</time>
      </trkpt>
      <trkpt lat="43.51665" lon="2.47704">
        <ele>613.94</ele>
        <time>2020-10-18T13:10:43Z</time>
      </trkpt>
      <trkpt lat="43.51663" lon="2.47696">
        <ele>614.42</ele>
        <time>2020-10-18T13:10:47Z</time>
      </trkpt>
      <trkpt lat="43.51655" lon="2.47682">
        <ele>614.9</ele>
        <time>2020-10-18T13:10:57Z</time>
      </trkpt>
      <trkpt lat="43.5165" lon="2.4767">
        <ele>614.9</ele>
        <time>2020-10-18T13:11:05Z</time>
      </trkpt>
      <trkpt lat="43.51648" lon="2.47654">
        <ele>613.46</ele>
        <time>2020-10-18T13:11:13Z</time>
      </trkpt>
      <trkpt lat="43.51644" lon="2.47641">
        <ele>611.06</ele>
        <time>2020-10-18T13:11:22Z</time>
      </trkpt>
      <trkpt lat="43.51643" lon="2.47637">
        <ele>610.57</ele>
        <time>2020-10-18T13:11:29Z</time>
      </trkpt>
      <trkpt lat="43.51642" lon="2.47633">
        <ele>609.13</ele>
        <time>2020-10-18T13:11:37Z</time>
      </trkpt>
      <trkpt lat="43.51641" lon="2.47634">
        <ele>609.61</ele>
        <time>2020-10-18T13:11:43Z</time>
      </trkpt>
      <trkpt lat="43.5164" lon="2.4763">
        <ele>609.13</ele>
        <time>2020-10-18T13:11:51Z</time>
      </trkpt>
      <trkpt lat="43.51635" lon="2.47616">
        <ele>609.61</ele>
        <time>2020-10-18T13:12:01Z</time>
      </trkpt>
      <trkpt lat="43.51628" lon="2.47597">
        <ele>609.61</ele>
        <time>2020-10-18T13:12:13Z</time>
      </trkpt>
      <trkpt lat="43.51624" lon="2.47586">
        <ele>608.17</ele>
        <time>2020-10-18T13:12:20Z</time>
      </trkpt>
      <trkpt lat="43.51623" lon="2.47583">
        <ele>606.25</ele>
        <time>2020-10-18T13:12:24Z</time>
      </trkpt>
      <trkpt lat="43.5162" lon="2.47569">
        <ele>604.33</ele>
        <time>2020-10-18T13:12:34Z</time>
      </trkpt>
      <trkpt lat="43.51618" lon="2.47566">
        <ele>604.81</ele>
        <time>2020-10-18T13:12:40Z</time>
      </trkpt>
      <trkpt lat="43.51615" lon="2.47564">
        <ele>603.85</ele>
        <time>2020-10-18T13:12:48Z</time>
      </trkpt>
      <trkpt lat="43.51611" lon="2.47562">
        <ele>602.88</ele>
        <time>2020-10-18T13:12:55Z</time>
      </trkpt>
      <trkpt lat="43.51606" lon="2.47553">
        <ele>601.92</ele>
        <time>2020-10-18T13:13:03Z</time>
      </trkpt>
      <trkpt lat="43.51601" lon="2.47541">
        <ele>600.96</ele>
        <time>2020-10-18T13:13:12Z</time>
      </trkpt>
      <trkpt lat="43.51599" lon="2.47538">
        <ele>601.44</ele>
        <time>2020-10-18T13:13:15Z</time>
      </trkpt>
      <trkpt lat="43.5159" lon="2.47531">
        <ele>604.81</ele>
        <time>2020-10-18T13:13:23Z</time>
      </trkpt>
      <trkpt lat="43.51588" lon="2.47527">
        <ele>606.25</ele>
        <time>2020-10-18T13:13:26Z</time>
      </trkpt>
      <trkpt lat="43.51577" lon="2.4751">
        <ele>606.25</ele>
        <time>2020-10-18T13:13:36Z</time>
      </trkpt>
      <trkpt lat="43.51571" lon="2.47498">
        <ele>602.4</ele>
        <time>2020-10-18T13:13:44Z</time>
      </trkpt>
      <trkpt lat="43.5157" lon="2.47493">
        <ele>600.96</ele>
        <time>2020-10-18T13:13:50Z</time>
      </trkpt>
      <trkpt lat="43.5157" lon="2.47493">
        <ele>600.96</ele>
        <time>2020-10-18T13:13:51Z</time>
      </trkpt>
      <trkpt lat="43.51564" lon="2.47494">
        <ele>598.56</ele>
        <time>2020-10-18T13:13:59Z</time>
      </trkpt>
      <trkpt lat="43.51563" lon="2.47495">
        <ele>596.15</ele>
        <time>2020-10-18T13:14:07Z</time>
      </trkpt>
      <trkpt lat="43.51563" lon="2.47494">
        <ele>594.71</ele>
        <time>2020-10-18T13:14:13Z</time>
      </trkpt>
      <trkpt lat="43.51562" lon="2.47497">
        <ele>593.75</ele>
        <time>2020-10-18T13:14:18Z</time>
      </trkpt>
      <trkpt lat="43.5156" lon="2.47497">
        <ele>592.79</ele>
        <time>2020-10-18T13:14:20Z</time>
      </trkpt>
      <trkpt lat="43.51552" lon="2.47505">
        <ele>591.83</ele>
        <time>2020-10-18T13:14:29Z</time>
      </trkpt>
      <trkpt lat="43.51546" lon="2.47512">
        <ele>591.83</ele>
        <time>2020-10-18T13:14:37Z</time>
      </trkpt>
      <trkpt lat="43.51546" lon="2.47513">
        <ele>591.83</ele>
        <time>2020-10-18T13:14:43Z</time>
      </trkpt>
      <trkpt lat="43.51547" lon="2.4752">
        <ele>591.83</ele>
        <time>2020-10-18T13:14:47Z</time>
      </trkpt>
      <trkpt lat="43.51547" lon="2.47545">
        <ele>590.39</ele>
        <time>2020-10-18T13:14:59Z</time>
      </trkpt>
      <trkpt lat="43.51548" lon="2.47558">
        <ele>589.91</ele>
        <time>2020-10-18T13:15:06Z</time>
      </trkpt>
      <trkpt lat="43.51545" lon="2.47555">
        <ele>590.39</ele>
        <time>2020-10-18T13:15:09Z</time>
      </trkpt>
      <trkpt lat="43.51542" lon="2.47555">
        <ele>590.87</ele>
        <time>2020-10-18T13:15:12Z</time>
      </trkpt>
      <trkpt lat="43.51536" lon="2.47557">
        <ele>592.79</ele>
        <time>2020-10-18T13:15:19Z</time>
      </trkpt>
      <trkpt lat="43.51526" lon="2.47557">
        <ele>590.87</ele>
        <time>2020-10-18T13:15:28Z</time>
      </trkpt>
      <trkpt lat="43.5152" lon="2.47557">
        <ele>588.95</ele>
        <time>2020-10-18T13:15:32Z</time>
      </trkpt>
      <trkpt lat="43.51512" lon="2.47563">
        <ele>587.02</ele>
        <time>2020-10-18T13:15:39Z</time>
      </trkpt>
      <trkpt lat="43.51506" lon="2.47576">
        <ele>584.62</ele>
        <time>2020-10-18T13:15:48Z</time>
      </trkpt>
      <trkpt lat="43.51503" lon="2.47581">
        <ele>583.66</ele>
        <time>2020-10-18T13:15:55Z</time>
      </trkpt>
      <trkpt lat="43.51502" lon="2.47586">
        <ele>584.14</ele>
        <time>2020-10-18T13:16:02Z</time>
      </trkpt>
      <trkpt lat="43.51495" lon="2.47595">
        <ele>583.66</ele>
        <time>2020-10-18T13:16:11Z</time>
      </trkpt>
      <trkpt lat="43.51491" lon="2.47606">
        <ele>584.14</ele>
        <time>2020-10-18T13:16:20Z</time>
      </trkpt>
      <trkpt lat="43.5149" lon="2.47611">
        <ele>584.62</ele>
        <time>2020-10-18T13:16:37Z</time>
      </trkpt>
      <trkpt lat="43.51488" lon="2.47613">
        <ele>583.66</ele>
        <time>2020-10-18T13:16:47Z</time>
      </trkpt>
      <trkpt lat="43.51485" lon="2.47613">
        <ele>584.14</ele>
        <time>2020-10-18T13:16:55Z</time>
      </trkpt>
      <trkpt lat="43.5148" lon="2.47612">
        <ele>585.1</ele>
        <time>2020-10-18T13:17:03Z</time>
      </trkpt>
      <trkpt lat="43.51476" lon="2.47613">
        <ele>584.62</ele>
        <time>2020-10-18T13:17:09Z</time>
      </trkpt>
      <trkpt lat="43.5147" lon="2.47613">
        <ele>581.25</ele>
        <time>2020-10-18T13:17:21Z</time>
      </trkpt>
      <trkpt lat="43.51469" lon="2.47615">
        <ele>579.33</ele>
        <time>2020-10-18T13:17:33Z</time>
      </trkpt>
      <trkpt lat="43.51467" lon="2.4762">
        <ele>577.89</ele>
        <time>2020-10-18T13:17:45Z</time>
      </trkpt>
      <trkpt lat="43.51463" lon="2.47624">
        <ele>577.41</ele>
        <time>2020-10-18T13:18:01Z</time>
      </trkpt>
      <trkpt lat="43.51458" lon="2.47623">
        <ele>576.45</ele>
        <time>2020-10-18T13:18:09Z</time>
      </trkpt>
      <trkpt lat="43.51453" lon="2.47624">
        <ele>574.53</ele>
        <time>2020-10-18T13:18:18Z</time>
      </trkpt>
      <trkpt lat="43.51445" lon="2.47628">
        <ele>571.64</ele>
        <time>2020-10-18T13:18:26Z</time>
      </trkpt>
      <trkpt lat="43.5144" lon="2.47629">
        <ele>571.16</ele>
        <time>2020-10-18T13:18:34Z</time>
      </trkpt>
      <trkpt lat="43.51436" lon="2.47632">
        <ele>571.16</ele>
        <time>2020-10-18T13:18:43Z</time>
      </trkpt>
      <trkpt lat="43.51432" lon="2.47634">
        <ele>570.2</ele>
        <time>2020-10-18T13:18:52Z</time>
      </trkpt>
      <trkpt lat="43.51425" lon="2.47634">
        <ele>569.24</ele>
        <time>2020-10-18T13:19:01Z</time>
      </trkpt>
      <trkpt lat="43.51418" lon="2.47635">
        <ele>570.2</ele>
        <time>2020-10-18T13:19:08Z</time>
      </trkpt>
      <trkpt lat="43.51412" lon="2.47636">
        <ele>569.24</ele>
        <time>2020-10-18T13:19:18Z</time>
      </trkpt>
      <trkpt lat="43.51404" lon="2.47635">
        <ele>570.68</ele>
        <time>2020-10-18T13:19:37Z</time>
      </trkpt>
      <trkpt lat="43.51396" lon="2.47636">
        <ele>574.04</ele>
        <time>2020-10-18T13:19:45Z</time>
      </trkpt>
      <trkpt lat="43.51386" lon="2.47639">
        <ele>576.45</ele>
        <time>2020-10-18T13:19:54Z</time>
      </trkpt>
      <trkpt lat="43.51378" lon="2.4764">
        <ele>578.85</ele>
        <time>2020-10-18T13:20:02Z</time>
      </trkpt>
      <trkpt lat="43.51373" lon="2.47641">
        <ele>577.89</ele>
        <time>2020-10-18T13:20:09Z</time>
      </trkpt>
      <trkpt lat="43.51364" lon="2.47642">
        <ele>575.97</ele>
        <time>2020-10-18T13:20:16Z</time>
      </trkpt>
      <trkpt lat="43.51351" lon="2.47645">
        <ele>573.56</ele>
        <time>2020-10-18T13:20:24Z</time>
      </trkpt>
      <trkpt lat="43.51338" lon="2.47645">
        <ele>570.2</ele>
        <time>2020-10-18T13:20:33Z</time>
      </trkpt>
      <trkpt lat="43.5133" lon="2.47646">
        <ele>563.95</ele>
        <time>2020-10-18T13:20:41Z</time>
      </trkpt>
      <trkpt lat="43.51328" lon="2.47648">
        <ele>562.99</ele>
        <time>2020-10-18T13:20:43Z</time>
      </trkpt>
      <trkpt lat="43.51319" lon="2.47655">
        <ele>561.07</ele>
        <time>2020-10-18T13:20:51Z</time>
      </trkpt>
      <trkpt lat="43.51311" lon="2.47661">
        <ele>559.62</ele>
        <time>2020-10-18T13:20:58Z</time>
      </trkpt>
      <trkpt lat="43.51312" lon="2.47663">
        <ele>557.7</ele>
        <time>2020-10-18T13:21:03Z</time>
      </trkpt>
      <trkpt lat="43.51313" lon="2.47665">
        <ele>556.26</ele>
        <time>2020-10-18T13:21:05Z</time>
      </trkpt>
      <trkpt lat="43.5132" lon="2.47663">
        <ele>554.34</ele>
        <time>2020-10-18T13:21:14Z</time>
      </trkpt>
      <trkpt lat="43.51322" lon="2.47663">
        <ele>553.86</ele>
        <time>2020-10-18T13:21:20Z</time>
      </trkpt>
      <trkpt lat="43.5133" lon="2.4766">
        <ele>553.86</ele>
        <time>2020-10-18T13:21:29Z</time>
      </trkpt>
      <trkpt lat="43.51337" lon="2.47653">
        <ele>555.78</ele>
        <time>2020-10-18T13:21:38Z</time>
      </trkpt>
      <trkpt lat="43.51342" lon="2.47648">
        <ele>554.82</ele>
        <time>2020-10-18T13:21:43Z</time>
      </trkpt>
      <trkpt lat="43.5135" lon="2.47642">
        <ele>554.82</ele>
        <time>2020-10-18T13:21:51Z</time>
      </trkpt>
      <trkpt lat="43.51358" lon="2.47636">
        <ele>556.74</ele>
        <time>2020-10-18T13:22:00Z</time>
      </trkpt>
      <trkpt lat="43.51365" lon="2.4763">
        <ele>560.11</ele>
        <time>2020-10-18T13:22:09Z</time>
      </trkpt>
      <trkpt lat="43.51372" lon="2.47625">
        <ele>563.47</ele>
        <time>2020-10-18T13:22:18Z</time>
      </trkpt>
      <trkpt lat="43.51377" lon="2.47619">
        <ele>566.35</ele>
        <time>2020-10-18T13:22:26Z</time>
      </trkpt>
      <trkpt lat="43.51383" lon="2.47615">
        <ele>568.76</ele>
        <time>2020-10-18T13:22:34Z</time>
      </trkpt>
      <trkpt lat="43.51387" lon="2.47608">
        <ele>569.24</ele>
        <time>2020-10-18T13:22:41Z</time>
      </trkpt>
      <trkpt lat="43.51389" lon="2.47603">
        <ele>567.8</ele>
        <time>2020-10-18T13:22:53Z</time>
      </trkpt>
      <trkpt lat="43.51387" lon="2.47597">
        <ele>566.83</ele>
        <time>2020-10-18T13:23:03Z</time>
      </trkpt>
      <trkpt lat="43.51388" lon="2.47593">
        <ele>563.95</ele>
        <time>2020-10-18T13:23:11Z</time>
      </trkpt>
      <trkpt lat="43.51387" lon="2.4759">
        <ele>563.47</ele>
        <time>2020-10-18T13:23:25Z</time>
      </trkpt>
      <trkpt lat="43.51388" lon="2.47592">
        <ele>562.99</ele>
        <time>2020-10-18T13:23:33Z</time>
      </trkpt>
      <trkpt lat="43.51389" lon="2.47592">
        <ele>562.99</ele>
        <time>2020-10-18T13:23:42Z</time>
      </trkpt>
      <trkpt lat="43.5139" lon="2.47591">
        <ele>563.47</ele>
        <time>2020-10-18T13:23:50Z</time>
      </trkpt>
      <trkpt lat="43.51392" lon="2.4759">
        <ele>562.99</ele>
        <time>2020-10-18T13:23:59Z</time>
      </trkpt>
      <trkpt lat="43.51392" lon="2.47589">
        <ele>562.51</ele>
        <time>2020-10-18T13:24:07Z</time>
      </trkpt>
      <trkpt lat="43.51394" lon="2.47592">
        <ele>562.03</ele>
        <time>2020-10-18T13:24:11Z</time>
      </trkpt>
      <trkpt lat="43.51395" lon="2.47591">
        <ele>562.03</ele>
        <time>2020-10-18T13:24:13Z</time>
      </trkpt>
      <trkpt lat="43.514" lon="2.47591">
        <ele>561.55</ele>
        <time>2020-10-18T13:24:18Z</time>
      </trkpt>
      <trkpt lat="43.51411" lon="2.47587">
        <ele>560.11</ele>
        <time>2020-10-18T13:24:26Z</time>
      </trkpt>
      <trkpt lat="43.51418" lon="2.47583">
        <ele>560.11</ele>
        <time>2020-10-18T13:24:34Z</time>
      </trkpt>
      <trkpt lat="43.51426" lon="2.47574">
        <ele>559.62</ele>
        <time>2020-10-18T13:24:42Z</time>
      </trkpt>
      <trkpt lat="43.51433" lon="2.47564">
        <ele>560.59</ele>
        <time>2020-10-18T13:24:52Z</time>
      </trkpt>
      <trkpt lat="43.51439" lon="2.47548">
        <ele>561.07</ele>
        <time>2020-10-18T13:25:02Z</time>
      </trkpt>
      <trkpt lat="43.51442" lon="2.47533">
        <ele>562.99</ele>
        <time>2020-10-18T13:25:08Z</time>
      </trkpt>
      <trkpt lat="43.51443" lon="2.47511">
        <ele>567.32</ele>
        <time>2020-10-18T13:25:15Z</time>
      </trkpt>
      <trkpt lat="43.51444" lon="2.47498">
        <ele>570.68</ele>
        <time>2020-10-18T13:25:22Z</time>
      </trkpt>
      <trkpt lat="43.51443" lon="2.47486">
        <ele>574.04</ele>
        <time>2020-10-18T13:25:30Z</time>
      </trkpt>
      <trkpt lat="43.51445" lon="2.4747">
        <ele>575.97</ele>
        <time>2020-10-18T13:25:39Z</time>
      </trkpt>
      <trkpt lat="43.51444" lon="2.47455">
        <ele>577.89</ele>
        <time>2020-10-18T13:25:48Z</time>
      </trkpt>
      <trkpt lat="43.51443" lon="2.47445">
        <ele>575.49</ele>
        <time>2020-10-18T13:26:01Z</time>
      </trkpt>
      <trkpt lat="43.51445" lon="2.47438">
        <ele>572.12</ele>
        <time>2020-10-18T13:26:07Z</time>
      </trkpt>
      <trkpt lat="43.51443" lon="2.47432">
        <ele>570.2</ele>
        <time>2020-10-18T13:26:16Z</time>
      </trkpt>
      <trkpt lat="43.51441" lon="2.47425">
        <ele>565.39</ele>
        <time>2020-10-18T13:26:24Z</time>
      </trkpt>
      <trkpt lat="43.51441" lon="2.4742">
        <ele>564.91</ele>
        <time>2020-10-18T13:26:36Z</time>
      </trkpt>
      <trkpt lat="43.51443" lon="2.47418">
        <ele>564.43</ele>
        <time>2020-10-18T13:26:44Z</time>
      </trkpt>
      <trkpt lat="43.51446" lon="2.47415">
        <ele>563.47</ele>
        <time>2020-10-18T13:26:55Z</time>
      </trkpt>
      <trkpt lat="43.51445" lon="2.47413">
        <ele>561.55</ele>
        <time>2020-10-18T13:27:03Z</time>
      </trkpt>
      <trkpt lat="43.51446" lon="2.47413">
        <ele>561.55</ele>
        <time>2020-10-18T13:27:12Z</time>
      </trkpt>
      <trkpt lat="43.51449" lon="2.47409">
        <ele>562.03</ele>
        <time>2020-10-18T13:27:20Z</time>
      </trkpt>
      <trkpt lat="43.5145" lon="2.47404">
        <ele>561.55</ele>
        <time>2020-10-18T13:27:25Z</time>
      </trkpt>
      <trkpt lat="43.51452" lon="2.47397">
        <ele>562.03</ele>
        <time>2020-10-18T13:27:33Z</time>
      </trkpt>
      <trkpt lat="43.51454" lon="2.47389">
        <ele>561.55</ele>
        <time>2020-10-18T13:27:39Z</time>
      </trkpt>
      <trkpt lat="43.51456" lon="2.47378">
        <ele>561.55</ele>
        <time>2020-10-18T13:27:47Z</time>
      </trkpt>
      <trkpt lat="43.51458" lon="2.47371">
        <ele>563.95</ele>
        <time>2020-10-18T13:27:56Z</time>
      </trkpt>
      <trkpt lat="43.5146" lon="2.47361">
        <ele>566.83</ele>
        <time>2020-10-18T13:28:05Z</time>
      </trkpt>
      <trkpt lat="43.5146" lon="2.47348">
        <ele>570.68</ele>
        <time>2020-10-18T13:28:15Z</time>
      </trkpt>
      <trkpt lat="43.51461" lon="2.47336">
        <ele>574.53</ele>
        <time>2020-10-18T13:28:24Z</time>
      </trkpt>
      <trkpt lat="43.51461" lon="2.47321">
        <ele>577.89</ele>
        <time>2020-10-18T13:28:31Z</time>
      </trkpt>
      <trkpt lat="43.5146" lon="2.47305">
        <ele>582.22</ele>
        <time>2020-10-18T13:28:42Z</time>
      </trkpt>
      <trkpt lat="43.51457" lon="2.4729">
        <ele>587.98</ele>
        <time>2020-10-18T13:28:52Z</time>
      </trkpt>
      <trkpt lat="43.51457" lon="2.47273">
        <ele>591.35</ele>
        <time>2020-10-18T13:29:01Z</time>
      </trkpt>
      <trkpt lat="43.51457" lon="2.47257">
        <ele>595.19</ele>
        <time>2020-10-18T13:29:10Z</time>
      </trkpt>
      <trkpt lat="43.51457" lon="2.47238">
        <ele>597.6</ele>
        <time>2020-10-18T13:29:20Z</time>
      </trkpt>
      <trkpt lat="43.51458" lon="2.47217">
        <ele>594.71</ele>
        <time>2020-10-18T13:29:29Z</time>
      </trkpt>
      <trkpt lat="43.51459" lon="2.47198">
        <ele>593.27</ele>
        <time>2020-10-18T13:29:38Z</time>
      </trkpt>
      <trkpt lat="43.51459" lon="2.47188">
        <ele>593.75</ele>
        <time>2020-10-18T13:29:44Z</time>
      </trkpt>
      <trkpt lat="43.5146" lon="2.4718">
        <ele>593.75</ele>
        <time>2020-10-18T13:29:48Z</time>
      </trkpt>
      <trkpt lat="43.5146" lon="2.47178">
        <ele>593.75</ele>
        <time>2020-10-18T13:29:49Z</time>
      </trkpt>
      <trkpt lat="43.5146" lon="2.47166">
        <ele>591.35</ele>
        <time>2020-10-18T13:29:53Z</time>
      </trkpt>
      <trkpt lat="43.51457" lon="2.47158">
        <ele>589.91</ele>
        <time>2020-10-18T13:30:00Z</time>
      </trkpt>
      <trkpt lat="43.51452" lon="2.47149">
        <ele>588.46</ele>
        <time>2020-10-18T13:30:08Z</time>
      </trkpt>
      <trkpt lat="43.51449" lon="2.47146">
        <ele>588.95</ele>
        <time>2020-10-18T13:30:12Z</time>
      </trkpt>
      <trkpt lat="43.51444" lon="2.47144">
        <ele>587.02</ele>
        <time>2020-10-18T13:30:17Z</time>
      </trkpt>
      <trkpt lat="43.5144" lon="2.47144">
        <ele>584.62</ele>
        <time>2020-10-18T13:30:22Z</time>
      </trkpt>
      <trkpt lat="43.51437" lon="2.47139">
        <ele>583.18</ele>
        <time>2020-10-18T13:30:27Z</time>
      </trkpt>
      <trkpt lat="43.51434" lon="2.47137">
        <ele>582.7</ele>
        <time>2020-10-18T13:30:33Z</time>
      </trkpt>
      <trkpt lat="43.5143" lon="2.47136">
        <ele>581.25</ele>
        <time>2020-10-18T13:30:41Z</time>
      </trkpt>
      <trkpt lat="43.51425" lon="2.47136">
        <ele>580.29</ele>
        <time>2020-10-18T13:30:46Z</time>
      </trkpt>
      <trkpt lat="43.51419" lon="2.47135">
        <ele>579.81</ele>
        <time>2020-10-18T13:30:52Z</time>
      </trkpt>
      <trkpt lat="43.51418" lon="2.47134">
        <ele>579.81</ele>
        <time>2020-10-18T13:30:59Z</time>
      </trkpt>
      <trkpt lat="43.51418" lon="2.4713">
        <ele>578.85</ele>
        <time>2020-10-18T13:31:06Z</time>
      </trkpt>
      <trkpt lat="43.51416" lon="2.47126">
        <ele>575.97</ele>
        <time>2020-10-18T13:31:15Z</time>
      </trkpt>
      <trkpt lat="43.51412" lon="2.47124">
        <ele>571.16</ele>
        <time>2020-10-18T13:31:21Z</time>
      </trkpt>
      <trkpt lat="43.51412" lon="2.47117">
        <ele>567.8</ele>
        <time>2020-10-18T13:31:28Z</time>
      </trkpt>
      <trkpt lat="43.51411" lon="2.47114">
        <ele>563.47</ele>
        <time>2020-10-18T13:31:36Z</time>
      </trkpt>
      <trkpt lat="43.51409" lon="2.47115">
        <ele>562.03</ele>
        <time>2020-10-18T13:31:43Z</time>
      </trkpt>
      <trkpt lat="43.51409" lon="2.47116">
        <ele>562.03</ele>
        <time>2020-10-18T13:31:45Z</time>
      </trkpt>
      <trkpt lat="43.51408" lon="2.47122">
        <ele>561.55</ele>
        <time>2020-10-18T13:31:53Z</time>
      </trkpt>
      <trkpt lat="43.51407" lon="2.47127">
        <ele>560.59</ele>
        <time>2020-10-18T13:32:00Z</time>
      </trkpt>
      <trkpt lat="43.51405" lon="2.47132">
        <ele>560.59</ele>
        <time>2020-10-18T13:32:06Z</time>
      </trkpt>
      <trkpt lat="43.51404" lon="2.47134">
        <ele>559.62</ele>
        <time>2020-10-18T13:32:12Z</time>
      </trkpt>
      <trkpt lat="43.51405" lon="2.47136">
        <ele>559.14</ele>
        <time>2020-10-18T13:32:25Z</time>
      </trkpt>
      <trkpt lat="43.51407" lon="2.47135">
        <ele>557.22</ele>
        <time>2020-10-18T13:32:38Z</time>
      </trkpt>
      <trkpt lat="43.51406" lon="2.47134">
        <ele>555.3</ele>
        <time>2020-10-18T13:32:48Z</time>
      </trkpt>
      <trkpt lat="43.51407" lon="2.47136">
        <ele>555.3</ele>
        <time>2020-10-18T13:32:57Z</time>
      </trkpt>
      <trkpt lat="43.51405" lon="2.47135">
        <ele>556.26</ele>
        <time>2020-10-18T13:33:06Z</time>
      </trkpt>
      <trkpt lat="43.51405" lon="2.47136">
        <ele>555.78</ele>
        <time>2020-10-18T13:33:13Z</time>
      </trkpt>
      <trkpt lat="43.51404" lon="2.47135">
        <ele>556.74</ele>
        <time>2020-10-18T13:33:23Z</time>
      </trkpt>
      <trkpt lat="43.51406" lon="2.47134">
        <ele>557.22</ele>
        <time>2020-10-18T13:33:40Z</time>
      </trkpt>
      <trkpt lat="43.51404" lon="2.47134">
        <ele>557.22</ele>
        <time>2020-10-18T13:33:50Z</time>
      </trkpt>
      <trkpt lat="43.51406" lon="2.47135">
        <ele>556.26</ele>
        <time>2020-10-18T13:33:58Z</time>
      </trkpt>
      <trkpt lat="43.51407" lon="2.47136">
        <ele>555.78</ele>
        <time>2020-10-18T13:34:07Z</time>
      </trkpt>
      <trkpt lat="43.51407" lon="2.47138">
        <ele>554.82</ele>
        <time>2020-10-18T13:34:17Z</time>
      </trkpt>
      <trkpt lat="43.51407" lon="2.4714">
        <ele>555.78</ele>
        <time>2020-10-18T13:34:24Z</time>
      </trkpt>
      <trkpt lat="43.5141" lon="2.47137">
        <ele>556.26</ele>
        <time>2020-10-18T13:34:30Z</time>
      </trkpt>
      <trkpt lat="43.51413" lon="2.47136">
        <ele>556.74</ele>
        <time>2020-10-18T13:34:36Z</time>
      </trkpt>
      <trkpt lat="43.51414" lon="2.47133">
        <ele>557.22</ele>
        <time>2020-10-18T13:34:40Z</time>
      </trkpt>
      <trkpt lat="43.51414" lon="2.4713">
        <ele>556.74</ele>
        <time>2020-10-18T13:34:43Z</time>
      </trkpt>
      <trkpt lat="43.51413" lon="2.47128">
        <ele>556.74</ele>
        <time>2020-10-18T13:34:44Z</time>
      </trkpt>
      <trkpt lat="43.51412" lon="2.47127">
        <ele>556.74</ele>
        <time>2020-10-18T13:34:45Z</time>
      </trkpt>
      <trkpt lat="43.51411" lon="2.47121">
        <ele>556.26</ele>
        <time>2020-10-18T13:34:49Z</time>
      </trkpt>
      <trkpt lat="43.5141" lon="2.47117">
        <ele>555.3</ele>
        <time>2020-10-18T13:34:56Z</time>
      </trkpt>
      <trkpt lat="43.5141" lon="2.47114">
        <ele>554.34</ele>
        <time>2020-10-18T13:35:05Z</time>
      </trkpt>
      <trkpt lat="43.51409" lon="2.47118">
        <ele>554.82</ele>
        <time>2020-10-18T13:35:14Z</time>
      </trkpt>
      <trkpt lat="43.51409" lon="2.47123">
        <ele>554.82</ele>
        <time>2020-10-18T13:35:19Z</time>
      </trkpt>
      <trkpt lat="43.51412" lon="2.47125">
        <ele>555.3</ele>
        <time>2020-10-18T13:35:26Z</time>
      </trkpt>
      <trkpt lat="43.51413" lon="2.47125">
        <ele>555.3</ele>
        <time>2020-10-18T13:35:27Z</time>
      </trkpt>
      <trkpt lat="43.51417" lon="2.47125">
        <ele>556.74</ele>
        <time>2020-10-18T13:35:32Z</time>
      </trkpt>
      <trkpt lat="43.51418" lon="2.47125">
        <ele>556.74</ele>
        <time>2020-10-18T13:35:33Z</time>
      </trkpt>
      <trkpt lat="43.51423" lon="2.47126">
        <ele>557.22</ele>
        <time>2020-10-18T13:35:39Z</time>
      </trkpt>
      <trkpt lat="43.51423" lon="2.47131">
        <ele>557.7</ele>
        <time>2020-10-18T13:35:43Z</time>
      </trkpt>
      <trkpt lat="43.51425" lon="2.47134">
        <ele>559.62</ele>
        <time>2020-10-18T13:35:49Z</time>
      </trkpt>
      <trkpt lat="43.51425" lon="2.47133">
        <ele>561.07</ele>
        <time>2020-10-18T13:35:57Z</time>
      </trkpt>
      <trkpt lat="43.51424" lon="2.47134">
        <ele>562.03</ele>
        <time>2020-10-18T13:36:04Z</time>
      </trkpt>
      <trkpt lat="43.51424" lon="2.47135">
        <ele>562.03</ele>
        <time>2020-10-18T13:36:05Z</time>
      </trkpt>
      <trkpt lat="43.51421" lon="2.47137">
        <ele>561.55</ele>
        <time>2020-10-18T13:36:11Z</time>
      </trkpt>
      <trkpt lat="43.5142" lon="2.47137">
        <ele>561.07</ele>
        <time>2020-10-18T13:36:17Z</time>
      </trkpt>
      <trkpt lat="43.51417" lon="2.47137">
        <ele>560.11</ele>
        <time>2020-10-18T13:36:24Z</time>
      </trkpt>
      <trkpt lat="43.51412" lon="2.47138">
        <ele>559.62</ele>
        <time>2020-10-18T13:36:31Z</time>
      </trkpt>
      <trkpt lat="43.51409" lon="2.47139">
        <ele>558.66</ele>
        <time>2020-10-18T13:36:38Z</time>
      </trkpt>
      <trkpt lat="43.51407" lon="2.4714">
        <ele>558.18</ele>
        <time>2020-10-18T13:36:44Z</time>
      </trkpt>
      <trkpt lat="43.51405" lon="2.47141">
        <ele>556.26</ele>
        <time>2020-10-18T13:36:49Z</time>
      </trkpt>
      <trkpt lat="43.51402" lon="2.47141">
        <ele>552.9</ele>
        <time>2020-10-18T13:36:55Z</time>
      </trkpt>
      <trkpt lat="43.514" lon="2.47143">
        <ele>551.93</ele>
        <time>2020-10-18T13:37:01Z</time>
      </trkpt>
      <trkpt lat="43.51397" lon="2.47145">
        <ele>551.93</ele>
        <time>2020-10-18T13:37:08Z</time>
      </trkpt>
      <trkpt lat="43.51396" lon="2.47143">
        <ele>550.97</ele>
        <time>2020-10-18T13:37:15Z</time>
      </trkpt>
      <trkpt lat="43.51394" lon="2.47144">
        <ele>550.97</ele>
        <time>2020-10-18T13:37:17Z</time>
      </trkpt>
      <trkpt lat="43.51388" lon="2.47143">
        <ele>549.05</ele>
        <time>2020-10-18T13:37:25Z</time>
      </trkpt>
      <trkpt lat="43.51383" lon="2.47141">
        <ele>548.09</ele>
        <time>2020-10-18T13:37:32Z</time>
      </trkpt>
      <trkpt lat="43.51379" lon="2.47139">
        <ele>547.13</ele>
        <time>2020-10-18T13:37:39Z</time>
      </trkpt>
      <trkpt lat="43.5138" lon="2.47135">
        <ele>547.61</ele>
        <time>2020-10-18T13:37:46Z</time>
      </trkpt>
      <trkpt lat="43.51378" lon="2.47131">
        <ele>548.09</ele>
        <time>2020-10-18T13:37:54Z</time>
      </trkpt>
      <trkpt lat="43.51377" lon="2.47126">
        <ele>548.09</ele>
        <time>2020-10-18T13:38:02Z</time>
      </trkpt>
      <trkpt lat="43.51378" lon="2.47123">
        <ele>547.13</ele>
        <time>2020-10-18T13:38:10Z</time>
      </trkpt>
      <trkpt lat="43.51379" lon="2.4712">
        <ele>545.69</ele>
        <time>2020-10-18T13:38:18Z</time>
      </trkpt>
      <trkpt lat="43.51376" lon="2.47112">
        <ele>545.69</ele>
        <time>2020-10-18T13:38:25Z</time>
      </trkpt>
      <trkpt lat="43.51371" lon="2.4711">
        <ele>547.13</ele>
        <time>2020-10-18T13:38:32Z</time>
      </trkpt>
      <trkpt lat="43.51367" lon="2.47108">
        <ele>546.65</ele>
        <time>2020-10-18T13:38:39Z</time>
      </trkpt>
      <trkpt lat="43.51366" lon="2.47109">
        <ele>544.72</ele>
        <time>2020-10-18T13:38:44Z</time>
      </trkpt>
      <trkpt lat="43.51363" lon="2.47108">
        <ele>543.76</ele>
        <time>2020-10-18T13:38:53Z</time>
      </trkpt>
      <trkpt lat="43.51361" lon="2.47104">
        <ele>543.28</ele>
        <time>2020-10-18T13:38:59Z</time>
      </trkpt>
      <trkpt lat="43.51357" lon="2.47102">
        <ele>543.28</ele>
        <time>2020-10-18T13:39:06Z</time>
      </trkpt>
      <trkpt lat="43.51356" lon="2.47104">
        <ele>542.8</ele>
        <time>2020-10-18T13:39:18Z</time>
      </trkpt>
      <trkpt lat="43.51357" lon="2.47103">
        <ele>542.32</ele>
        <time>2020-10-18T13:39:27Z</time>
      </trkpt>
      <trkpt lat="43.51357" lon="2.47102">
        <ele>541.84</ele>
        <time>2020-10-18T13:39:30Z</time>
      </trkpt>
      <trkpt lat="43.51357" lon="2.471">
        <ele>541.84</ele>
        <time>2020-10-18T13:39:32Z</time>
      </trkpt>
      <trkpt lat="43.51357" lon="2.47097">
        <ele>541.36</ele>
        <time>2020-10-18T13:39:35Z</time>
      </trkpt>
      <trkpt lat="43.51357" lon="2.47095">
        <ele>541.36</ele>
        <time>2020-10-18T13:39:36Z</time>
      </trkpt>
      <trkpt lat="43.51355" lon="2.47091">
        <ele>540.88</ele>
        <time>2020-10-18T13:39:43Z</time>
      </trkpt>
      <trkpt lat="43.51353" lon="2.47089">
        <ele>540.4</ele>
        <time>2020-10-18T13:39:51Z</time>
      </trkpt>
      <trkpt lat="43.5135" lon="2.47085">
        <ele>538.96</ele>
        <time>2020-10-18T13:39:57Z</time>
      </trkpt>
      <trkpt lat="43.51349" lon="2.47085">
        <ele>538.96</ele>
        <time>2020-10-18T13:40:08Z</time>
      </trkpt>
      <trkpt lat="43.51348" lon="2.47084">
        <ele>538.96</ele>
        <time>2020-10-18T13:40:14Z</time>
      </trkpt>
      <trkpt lat="43.51347" lon="2.47081">
        <ele>537.99</ele>
        <time>2020-10-18T13:40:26Z</time>
      </trkpt>
      <trkpt lat="43.51347" lon="2.47079">
        <ele>537.99</ele>
        <time>2020-10-18T13:40:27Z</time>
      </trkpt>
      <trkpt lat="43.51346" lon="2.47077">
        <ele>537.51</ele>
        <time>2020-10-18T13:40:28Z</time>
      </trkpt>
      <trkpt lat="43.51343" lon="2.47074">
        <ele>537.51</ele>
        <time>2020-10-18T13:40:31Z</time>
      </trkpt>
      <trkpt lat="43.51342" lon="2.47074">
        <ele>537.51</ele>
        <time>2020-10-18T13:40:32Z</time>
      </trkpt>
      <trkpt lat="43.51339" lon="2.4707">
        <ele>536.55</ele>
        <time>2020-10-18T13:40:38Z</time>
      </trkpt>
      <trkpt lat="43.51335" lon="2.4707">
        <ele>537.03</ele>
        <time>2020-10-18T13:40:44Z</time>
      </trkpt>
      <trkpt lat="43.51333" lon="2.47072">
        <ele>538.48</ele>
        <time>2020-10-18T13:40:56Z</time>
      </trkpt>
      <trkpt lat="43.51334" lon="2.47074">
        <ele>538.48</ele>
        <time>2020-10-18T13:41:10Z</time>
      </trkpt>
      <trkpt lat="43.51335" lon="2.47075">
        <ele>539.44</ele>
        <time>2020-10-18T13:41:18Z</time>
      </trkpt>
      <trkpt lat="43.51337" lon="2.47073">
        <ele>539.44</ele>
        <time>2020-10-18T13:41:29Z</time>
      </trkpt>
      <trkpt lat="43.51338" lon="2.47071">
        <ele>539.92</ele>
        <time>2020-10-18T13:41:39Z</time>
      </trkpt>
      <trkpt lat="43.51339" lon="2.4707">
        <ele>539.44</ele>
        <time>2020-10-18T13:41:41Z</time>
      </trkpt>
      <trkpt lat="43.51338" lon="2.47068">
        <ele>537.51</ele>
        <time>2020-10-18T13:41:46Z</time>
      </trkpt>
      <trkpt lat="43.51337" lon="2.47068">
        <ele>536.55</ele>
        <time>2020-10-18T13:41:55Z</time>
      </trkpt>
      <trkpt lat="43.51336" lon="2.47069">
        <ele>536.07</ele>
        <time>2020-10-18T13:42:03Z</time>
      </trkpt>
      <trkpt lat="43.51334" lon="2.47071">
        <ele>537.51</ele>
        <time>2020-10-18T13:42:10Z</time>
      </trkpt>
      <trkpt lat="43.51336" lon="2.47073">
        <ele>539.44</ele>
        <time>2020-10-18T13:42:25Z</time>
      </trkpt>
      <trkpt lat="43.51336" lon="2.47074">
        <ele>539.44</ele>
        <time>2020-10-18T13:42:34Z</time>
      </trkpt>
      <trkpt lat="43.51336" lon="2.47073">
        <ele>539.44</ele>
        <time>2020-10-18T13:42:55Z</time>
      </trkpt>
      <trkpt lat="43.51336" lon="2.47075">
        <ele>538.48</ele>
        <time>2020-10-18T13:43:02Z</time>
      </trkpt>
      <trkpt lat="43.51337" lon="2.47074">
        <ele>537.51</ele>
        <time>2020-10-18T13:43:11Z</time>
      </trkpt>
      <trkpt lat="43.51336" lon="2.47075">
        <ele>537.03</ele>
        <time>2020-10-18T13:43:31Z</time>
      </trkpt>
      <trkpt lat="43.51338" lon="2.47074">
        <ele>536.07</ele>
        <time>2020-10-18T13:43:38Z</time>
      </trkpt>
      <trkpt lat="43.51338" lon="2.4707">
        <ele>536.55</ele>
        <time>2020-10-18T13:43:45Z</time>
      </trkpt>
      <trkpt lat="43.51337" lon="2.4707">
        <ele>537.51</ele>
        <time>2020-10-18T13:43:54Z</time>
      </trkpt>
      <trkpt lat="43.51338" lon="2.4707">
        <ele>536.55</ele>
        <time>2020-10-18T13:44:04Z</time>
      </trkpt>
      <trkpt lat="43.5134" lon="2.47069">
        <ele>535.59</ele>
        <time>2020-10-18T13:44:22Z</time>
      </trkpt>
      <trkpt lat="43.5134" lon="2.47071">
        <ele>537.03</ele>
        <time>2020-10-18T13:44:40Z</time>
      </trkpt>
      <trkpt lat="43.51339" lon="2.4707">
        <ele>536.07</ele>
        <time>2020-10-18T13:44:58Z</time>
      </trkpt>
      <trkpt lat="43.51339" lon="2.4707">
        <ele>537.51</ele>
        <time>2020-10-18T13:45:24Z</time>
      </trkpt>
      <trkpt lat="43.51339" lon="2.47069">
        <ele>538.96</ele>
        <time>2020-10-18T13:45:47Z</time>
      </trkpt>
      <trkpt lat="43.51341" lon="2.4707">
        <ele>539.92</ele>
        <time>2020-10-18T13:46:12Z</time>
      </trkpt>
      <trkpt lat="43.51341" lon="2.4707">
        <ele>539.44</ele>
        <time>2020-10-18T13:46:39Z</time>
      </trkpt>
      <trkpt lat="43.5134" lon="2.47069">
        <ele>538.96</ele>
        <time>2020-10-18T13:47:00Z</time>
      </trkpt>
      <trkpt lat="43.51339" lon="2.47069">
        <ele>539.44</ele>
        <time>2020-10-18T13:47:23Z</time>
      </trkpt>
      <trkpt lat="43.51339" lon="2.47069">
        <ele>539.44</ele>
        <time>2020-10-18T13:47:40Z</time>
      </trkpt>
      <trkpt lat="43.51339" lon="2.4707">
        <ele>539.92</ele>
        <time>2020-10-18T13:48:00Z</time>
      </trkpt>
      <trkpt lat="43.51339" lon="2.47071">
        <ele>539.92</ele>
        <time>2020-10-18T13:48:18Z</time>
      </trkpt>
      <trkpt lat="43.5134" lon="2.47071">
        <ele>538.96</ele>
        <time>2020-10-18T13:48:37Z</time>
      </trkpt>
      <trkpt lat="43.5134" lon="2.4707">
        <ele>538.96</ele>
        <time>2020-10-18T13:48:52Z</time>
      </trkpt>
      <trkpt lat="43.5134" lon="2.4707">
        <ele>537.99</ele>
        <time>2020-10-18T13:49:10Z</time>
      </trkpt>
      <trkpt lat="43.51341" lon="2.4707">
        <ele>537.51</ele>
        <time>2020-10-18T13:49:28Z</time>
      </trkpt>
      <trkpt lat="43.5134" lon="2.47069">
        <ele>536.55</ele>
        <time>2020-10-18T13:49:48Z</time>
      </trkpt>
      <trkpt lat="43.5134" lon="2.47067">
        <ele>535.11</ele>
        <time>2020-10-18T13:50:02Z</time>
      </trkpt>
      <trkpt lat="43.51337" lon="2.47069">
        <ele>534.15</ele>
        <time>2020-10-18T13:50:17Z</time>
      </trkpt>
      <trkpt lat="43.51336" lon="2.47068">
        <ele>535.11</ele>
        <time>2020-10-18T13:50:40Z</time>
      </trkpt>
      <trkpt lat="43.51336" lon="2.47067">
        <ele>536.55</ele>
        <time>2020-10-18T13:50:58Z</time>
      </trkpt>
      <trkpt lat="43.51336" lon="2.47066">
        <ele>535.59</ele>
        <time>2020-10-18T13:51:21Z</time>
      </trkpt>
      <trkpt lat="43.51336" lon="2.47067">
        <ele>535.11</ele>
        <time>2020-10-18T13:51:25Z</time>
      </trkpt>
      <trkpt lat="43.51337" lon="2.47071">
        <ele>534.63</ele>
        <time>2020-10-18T13:51:31Z</time>
      </trkpt>
      <trkpt lat="43.51337" lon="2.47073">
        <ele>536.07</ele>
        <time>2020-10-18T13:51:52Z</time>
      </trkpt>
      <trkpt lat="43.51337" lon="2.47072">
        <ele>537.99</ele>
        <time>2020-10-18T13:52:18Z</time>
      </trkpt>
      <trkpt lat="43.51337" lon="2.47073">
        <ele>537.03</ele>
        <time>2020-10-18T13:52:35Z</time>
      </trkpt>
      <trkpt lat="43.51339" lon="2.47072">
        <ele>536.07</ele>
        <time>2020-10-18T13:52:59Z</time>
      </trkpt>
      <trkpt lat="43.51338" lon="2.47071">
        <ele>536.55</ele>
        <time>2020-10-18T13:53:18Z</time>
      </trkpt>
      <trkpt lat="43.51341" lon="2.47072">
        <ele>536.07</ele>
        <time>2020-10-18T13:53:42Z</time>
      </trkpt>
      <trkpt lat="43.51341" lon="2.47072">
        <ele>536.07</ele>
        <time>2020-10-18T13:54:06Z</time>
      </trkpt>
      <trkpt lat="43.5134" lon="2.47073">
        <ele>537.03</ele>
        <time>2020-10-18T13:54:28Z</time>
      </trkpt>
      <trkpt lat="43.5134" lon="2.47072">
        <ele>537.99</ele>
        <time>2020-10-18T13:54:46Z</time>
      </trkpt>
      <trkpt lat="43.5134" lon="2.47072">
        <ele>538.96</ele>
        <time>2020-10-18T13:55:09Z</time>
      </trkpt>
      <trkpt lat="43.51339" lon="2.47072">
        <ele>539.44</ele>
        <time>2020-10-18T13:55:23Z</time>
      </trkpt>
      <trkpt lat="43.51338" lon="2.47072">
        <ele>538.48</ele>
        <time>2020-10-18T13:55:38Z</time>
      </trkpt>
      <trkpt lat="43.51337" lon="2.47071">
        <ele>537.99</ele>
        <time>2020-10-18T13:55:45Z</time>
      </trkpt>
      <trkpt lat="43.51336" lon="2.47069">
        <ele>537.51</ele>
        <time>2020-10-18T13:56:00Z</time>
      </trkpt>
      <trkpt lat="43.51334" lon="2.4707">
        <ele>537.03</ele>
        <time>2020-10-18T13:56:08Z</time>
      </trkpt>
      <trkpt lat="43.51336" lon="2.47069">
        <ele>537.03</ele>
        <time>2020-10-18T13:56:18Z</time>
      </trkpt>
      <trkpt lat="43.51337" lon="2.47069">
        <ele>537.51</ele>
        <time>2020-10-18T13:56:24Z</time>
      </trkpt>
      <trkpt lat="43.51337" lon="2.4707">
        <ele>537.51</ele>
        <time>2020-10-18T13:56:36Z</time>
      </trkpt>
      <trkpt lat="43.51337" lon="2.47071">
        <ele>537.03</ele>
        <time>2020-10-18T13:56:55Z</time>
      </trkpt>
      <trkpt lat="43.51338" lon="2.47073">
        <ele>535.59</ele>
        <time>2020-10-18T13:57:09Z</time>
      </trkpt>
      <trkpt lat="43.51338" lon="2.47073">
        <ele>533.67</ele>
        <time>2020-10-18T13:57:26Z</time>
      </trkpt>
      <trkpt lat="43.51337" lon="2.47072">
        <ele>533.19</ele>
        <time>2020-10-18T13:57:36Z</time>
      </trkpt>
      <trkpt lat="43.51336" lon="2.47073">
        <ele>533.19</ele>
        <time>2020-10-18T13:57:49Z</time>
      </trkpt>
      <trkpt lat="43.51337" lon="2.47073">
        <ele>534.63</ele>
        <time>2020-10-18T13:58:02Z</time>
      </trkpt>
      <trkpt lat="43.51337" lon="2.47073">
        <ele>536.07</ele>
        <time>2020-10-18T13:58:09Z</time>
      </trkpt>
      <trkpt lat="43.51337" lon="2.47072">
        <ele>536.07</ele>
        <time>2020-10-18T13:58:21Z</time>
      </trkpt>
      <trkpt lat="43.51337" lon="2.47074">
        <ele>536.07</ele>
        <time>2020-10-18T13:58:31Z</time>
      </trkpt>
      <trkpt lat="43.51338" lon="2.47074">
        <ele>535.59</ele>
        <time>2020-10-18T13:58:40Z</time>
      </trkpt>
      <trkpt lat="43.51337" lon="2.47071">
        <ele>534.15</ele>
        <time>2020-10-18T13:58:49Z</time>
      </trkpt>
      <trkpt lat="43.51336" lon="2.47072">
        <ele>532.71</ele>
        <time>2020-10-18T13:59:08Z</time>
      </trkpt>
      <trkpt lat="43.51337" lon="2.4707">
        <ele>534.15</ele>
        <time>2020-10-18T13:59:19Z</time>
      </trkpt>
      <trkpt lat="43.51337" lon="2.47069">
        <ele>534.63</ele>
        <time>2020-10-18T13:59:32Z</time>
      </trkpt>
      <trkpt lat="43.51336" lon="2.4707">
        <ele>533.67</ele>
        <time>2020-10-18T13:59:44Z</time>
      </trkpt>
      <trkpt lat="43.51338" lon="2.4707">
        <ele>534.15</ele>
        <time>2020-10-18T13:59:58Z</time>
      </trkpt>
      <trkpt lat="43.5134" lon="2.47071">
        <ele>535.11</ele>
        <time>2020-10-18T14:00:04Z</time>
      </trkpt>
      <trkpt lat="43.5134" lon="2.47071">
        <ele>534.63</ele>
        <time>2020-10-18T14:00:12Z</time>
      </trkpt>
      <trkpt lat="43.5134" lon="2.47072">
        <ele>535.11</ele>
        <time>2020-10-18T14:00:22Z</time>
      </trkpt>
      <trkpt lat="43.51343" lon="2.47073">
        <ele>536.55</ele>
        <time>2020-10-18T14:00:28Z</time>
      </trkpt>
      <trkpt lat="43.51343" lon="2.47076">
        <ele>537.51</ele>
        <time>2020-10-18T14:00:34Z</time>
      </trkpt>
      <trkpt lat="43.51344" lon="2.47079">
        <ele>538.48</ele>
        <time>2020-10-18T14:00:39Z</time>
      </trkpt>
      <trkpt lat="43.51347" lon="2.47081">
        <ele>539.44</ele>
        <time>2020-10-18T14:00:45Z</time>
      </trkpt>
      <trkpt lat="43.51347" lon="2.47083">
        <ele>539.44</ele>
        <time>2020-10-18T14:00:49Z</time>
      </trkpt>
      <trkpt lat="43.51348" lon="2.47085">
        <ele>540.4</ele>
        <time>2020-10-18T14:00:55Z</time>
      </trkpt>
      <trkpt lat="43.51351" lon="2.47087">
        <ele>540.4</ele>
        <time>2020-10-18T14:01:03Z</time>
      </trkpt>
      <trkpt lat="43.51353" lon="2.47093">
        <ele>542.32</ele>
        <time>2020-10-18T14:01:10Z</time>
      </trkpt>
      <trkpt lat="43.51353" lon="2.47096">
        <ele>543.28</ele>
        <time>2020-10-18T14:01:16Z</time>
      </trkpt>
      <trkpt lat="43.51356" lon="2.47099">
        <ele>543.28</ele>
        <time>2020-10-18T14:01:23Z</time>
      </trkpt>
      <trkpt lat="43.51357" lon="2.47102">
        <ele>544.24</ele>
        <time>2020-10-18T14:01:30Z</time>
      </trkpt>
      <trkpt lat="43.51357" lon="2.47104">
        <ele>545.2</ele>
        <time>2020-10-18T14:01:36Z</time>
      </trkpt>
      <trkpt lat="43.51361" lon="2.47107">
        <ele>543.76</ele>
        <time>2020-10-18T14:01:44Z</time>
      </trkpt>
      <trkpt lat="43.51363" lon="2.4711">
        <ele>543.76</ele>
        <time>2020-10-18T14:01:50Z</time>
      </trkpt>
      <trkpt lat="43.51366" lon="2.47112">
        <ele>544.24</ele>
        <time>2020-10-18T14:01:56Z</time>
      </trkpt>
      <trkpt lat="43.51368" lon="2.47115">
        <ele>544.24</ele>
        <time>2020-10-18T14:02:02Z</time>
      </trkpt>
      <trkpt lat="43.51372" lon="2.47115">
        <ele>545.2</ele>
        <time>2020-10-18T14:02:09Z</time>
      </trkpt>
      <trkpt lat="43.51372" lon="2.47114">
        <ele>545.2</ele>
        <time>2020-10-18T14:02:10Z</time>
      </trkpt>
      <trkpt lat="43.51371" lon="2.47111">
        <ele>544.24</ele>
        <time>2020-10-18T14:02:12Z</time>
      </trkpt>
      <trkpt lat="43.51373" lon="2.4711">
        <ele>543.28</ele>
        <time>2020-10-18T14:02:17Z</time>
      </trkpt>
      <trkpt lat="43.51377" lon="2.47112">
        <ele>544.72</ele>
        <time>2020-10-18T14:02:23Z</time>
      </trkpt>
      <trkpt lat="43.5138" lon="2.47115">
        <ele>546.17</ele>
        <time>2020-10-18T14:02:30Z</time>
      </trkpt>
      <trkpt lat="43.51381" lon="2.47116">
        <ele>546.65</ele>
        <time>2020-10-18T14:02:36Z</time>
      </trkpt>
      <trkpt lat="43.5138" lon="2.47118">
        <ele>549.05</ele>
        <time>2020-10-18T14:02:45Z</time>
      </trkpt>
      <trkpt lat="43.5138" lon="2.47118">
        <ele>549.53</ele>
        <time>2020-10-18T14:02:48Z</time>
      </trkpt>
      <trkpt lat="43.51378" lon="2.47123">
        <ele>553.38</ele>
        <time>2020-10-18T14:02:54Z</time>
      </trkpt>
      <trkpt lat="43.51378" lon="2.47131">
        <ele>557.7</ele>
        <time>2020-10-18T14:03:02Z</time>
      </trkpt>
      <trkpt lat="43.51378" lon="2.47134">
        <ele>557.7</ele>
        <time>2020-10-18T14:03:12Z</time>
      </trkpt>
      <trkpt lat="43.51379" lon="2.47137">
        <ele>555.3</ele>
        <time>2020-10-18T14:03:19Z</time>
      </trkpt>
      <trkpt lat="43.51386" lon="2.47143">
        <ele>554.34</ele>
        <time>2020-10-18T14:03:26Z</time>
      </trkpt>
      <trkpt lat="43.5139" lon="2.47145">
        <ele>555.78</ele>
        <time>2020-10-18T14:03:30Z</time>
      </trkpt>
      <trkpt lat="43.51396" lon="2.47145">
        <ele>556.26</ele>
        <time>2020-10-18T14:03:37Z</time>
      </trkpt>
      <trkpt lat="43.51395" lon="2.47145">
        <ele>554.82</ele>
        <time>2020-10-18T14:03:49Z</time>
      </trkpt>
      <trkpt lat="43.51402" lon="2.47148">
        <ele>559.62</ele>
        <time>2020-10-18T14:03:56Z</time>
      </trkpt>
      <trkpt lat="43.51405" lon="2.47148">
        <ele>559.62</ele>
        <time>2020-10-18T14:04:06Z</time>
      </trkpt>
      <trkpt lat="43.51408" lon="2.47147">
        <ele>560.11</ele>
        <time>2020-10-18T14:04:11Z</time>
      </trkpt>
      <trkpt lat="43.5141" lon="2.47147">
        <ele>561.55</ele>
        <time>2020-10-18T14:04:13Z</time>
      </trkpt>
      <trkpt lat="43.51412" lon="2.4715">
        <ele>563.47</ele>
        <time>2020-10-18T14:04:19Z</time>
      </trkpt>
      <trkpt lat="43.51418" lon="2.47155">
        <ele>564.43</ele>
        <time>2020-10-18T14:04:25Z</time>
      </trkpt>
      <trkpt lat="43.5142" lon="2.47156">
        <ele>564.91</ele>
        <time>2020-10-18T14:04:26Z</time>
      </trkpt>
      <trkpt lat="43.51426" lon="2.47156">
        <ele>566.83</ele>
        <time>2020-10-18T14:04:34Z</time>
      </trkpt>
      <trkpt lat="43.5143" lon="2.47158">
        <ele>567.8</ele>
        <time>2020-10-18T14:04:41Z</time>
      </trkpt>
      <trkpt lat="43.51431" lon="2.47159">
        <ele>566.83</ele>
        <time>2020-10-18T14:04:46Z</time>
      </trkpt>
      <trkpt lat="43.51436" lon="2.47159">
        <ele>565.39</ele>
        <time>2020-10-18T14:04:54Z</time>
      </trkpt>
      <trkpt lat="43.51438" lon="2.47155">
        <ele>565.87</ele>
        <time>2020-10-18T14:05:01Z</time>
      </trkpt>
      <trkpt lat="43.51441" lon="2.47149">
        <ele>566.83</ele>
        <time>2020-10-18T14:05:08Z</time>
      </trkpt>
      <trkpt lat="43.51444" lon="2.47146">
        <ele>568.28</ele>
        <time>2020-10-18T14:05:14Z</time>
      </trkpt>
      <trkpt lat="43.51446" lon="2.47148">
        <ele>569.72</ele>
        <time>2020-10-18T14:05:20Z</time>
      </trkpt>
      <trkpt lat="43.51449" lon="2.47149">
        <ele>571.16</ele>
        <time>2020-10-18T14:05:28Z</time>
      </trkpt>
      <trkpt lat="43.5145" lon="2.47146">
        <ele>569.72</ele>
        <time>2020-10-18T14:05:42Z</time>
      </trkpt>
      <trkpt lat="43.5145" lon="2.47145">
        <ele>569.72</ele>
        <time>2020-10-18T14:05:54Z</time>
      </trkpt>
      <trkpt lat="43.5145" lon="2.47145">
        <ele>571.16</ele>
        <time>2020-10-18T14:06:09Z</time>
      </trkpt>
      <trkpt lat="43.51451" lon="2.47148">
        <ele>570.2</ele>
        <time>2020-10-18T14:06:21Z</time>
      </trkpt>
      <trkpt lat="43.5145" lon="2.47148">
        <ele>570.68</ele>
        <time>2020-10-18T14:06:37Z</time>
      </trkpt>
      <trkpt lat="43.51449" lon="2.47146">
        <ele>570.2</ele>
        <time>2020-10-18T14:06:50Z</time>
      </trkpt>
      <trkpt lat="43.51456" lon="2.4715">
        <ele>570.68</ele>
        <time>2020-10-18T14:07:00Z</time>
      </trkpt>
      <trkpt lat="43.51462" lon="2.47147">
        <ele>571.64</ele>
        <time>2020-10-18T14:07:07Z</time>
      </trkpt>
      <trkpt lat="43.51471" lon="2.47143">
        <ele>574.04</ele>
        <time>2020-10-18T14:07:15Z</time>
      </trkpt>
      <trkpt lat="43.51482" lon="2.47138">
        <ele>576.45</ele>
        <time>2020-10-18T14:07:25Z</time>
      </trkpt>
      <trkpt lat="43.51486" lon="2.47136">
        <ele>577.41</ele>
        <time>2020-10-18T14:07:29Z</time>
      </trkpt>
      <trkpt lat="43.51498" lon="2.47131">
        <ele>580.29</ele>
        <time>2020-10-18T14:07:39Z</time>
      </trkpt>
      <trkpt lat="43.5151" lon="2.47125">
        <ele>581.73</ele>
        <time>2020-10-18T14:07:48Z</time>
      </trkpt>
      <trkpt lat="43.51521" lon="2.47118">
        <ele>581.73</ele>
        <time>2020-10-18T14:07:56Z</time>
      </trkpt>
      <trkpt lat="43.51529" lon="2.47116">
        <ele>583.66</ele>
        <time>2020-10-18T14:08:03Z</time>
      </trkpt>
      <trkpt lat="43.5154" lon="2.4711">
        <ele>584.14</ele>
        <time>2020-10-18T14:08:12Z</time>
      </trkpt>
      <trkpt lat="43.51553" lon="2.47103">
        <ele>586.54</ele>
        <time>2020-10-18T14:08:22Z</time>
      </trkpt>
      <trkpt lat="43.51564" lon="2.47086">
        <ele>588.95</ele>
        <time>2020-10-18T14:08:32Z</time>
      </trkpt>
      <trkpt lat="43.51572" lon="2.4707">
        <ele>592.79</ele>
        <time>2020-10-18T14:08:42Z</time>
      </trkpt>
      <trkpt lat="43.51578" lon="2.47054">
        <ele>595.67</ele>
        <time>2020-10-18T14:08:52Z</time>
      </trkpt>
      <trkpt lat="43.51583" lon="2.47045">
        <ele>597.12</ele>
        <time>2020-10-18T14:09:00Z</time>
      </trkpt>
      <trkpt lat="43.51593" lon="2.47033">
        <ele>599.04</ele>
        <time>2020-10-18T14:09:11Z</time>
      </trkpt>
      <trkpt lat="43.516" lon="2.47028">
        <ele>598.56</ele>
        <time>2020-10-18T14:09:17Z</time>
      </trkpt>
      <trkpt lat="43.51612" lon="2.47026">
        <ele>594.71</ele>
        <time>2020-10-18T14:09:26Z</time>
      </trkpt>
      <trkpt lat="43.51624" lon="2.47027">
        <ele>592.79</ele>
        <time>2020-10-18T14:09:36Z</time>
      </trkpt>
      <trkpt lat="43.51632" lon="2.47036">
        <ele>587.5</ele>
        <time>2020-10-18T14:09:48Z</time>
      </trkpt>
      <trkpt lat="43.5164" lon="2.47051">
        <ele>587.98</ele>
        <time>2020-10-18T14:09:59Z</time>
      </trkpt>
      <trkpt lat="43.51646" lon="2.47063">
        <ele>587.02</ele>
        <time>2020-10-18T14:10:08Z</time>
      </trkpt>
      <trkpt lat="43.51651" lon="2.47073">
        <ele>586.54</ele>
        <time>2020-10-18T14:10:15Z</time>
      </trkpt>
      <trkpt lat="43.51656" lon="2.47086">
        <ele>587.5</ele>
        <time>2020-10-18T14:10:24Z</time>
      </trkpt>
      <trkpt lat="43.5166" lon="2.47096">
        <ele>587.5</ele>
        <time>2020-10-18T14:10:31Z</time>
      </trkpt>
      <trkpt lat="43.51668" lon="2.47113">
        <ele>587.02</ele>
        <time>2020-10-18T14:10:42Z</time>
      </trkpt>
      <trkpt lat="43.51674" lon="2.47126">
        <ele>587.02</ele>
        <time>2020-10-18T14:10:51Z</time>
      </trkpt>
      <trkpt lat="43.51678" lon="2.47136">
        <ele>588.46</ele>
        <time>2020-10-18T14:10:59Z</time>
      </trkpt>
      <trkpt lat="43.51679" lon="2.47141">
        <ele>591.83</ele>
        <time>2020-10-18T14:11:05Z</time>
      </trkpt>
      <trkpt lat="43.51679" lon="2.47144">
        <ele>593.27</ele>
        <time>2020-10-18T14:11:09Z</time>
      </trkpt>
      <trkpt lat="43.51675" lon="2.47148">
        <ele>594.71</ele>
        <time>2020-10-18T14:11:13Z</time>
      </trkpt>
      <trkpt lat="43.51667" lon="2.47153">
        <ele>595.19</ele>
        <time>2020-10-18T14:11:22Z</time>
      </trkpt>
      <trkpt lat="43.51661" lon="2.47158">
        <ele>595.19</ele>
        <time>2020-10-18T14:11:29Z</time>
      </trkpt>
      <trkpt lat="43.51655" lon="2.47166">
        <ele>595.19</ele>
        <time>2020-10-18T14:11:37Z</time>
      </trkpt>
      <trkpt lat="43.51647" lon="2.47176">
        <ele>594.71</ele>
        <time>2020-10-18T14:11:45Z</time>
      </trkpt>
      <trkpt lat="43.51635" lon="2.47187">
        <ele>596.64</ele>
        <time>2020-10-18T14:11:55Z</time>
      </trkpt>
      <trkpt lat="43.51633" lon="2.47189">
        <ele>597.12</ele>
        <time>2020-10-18T14:11:57Z</time>
      </trkpt>
      <trkpt lat="43.51627" lon="2.47198">
        <ele>598.08</ele>
        <time>2020-10-18T14:12:04Z</time>
      </trkpt>
      <trkpt lat="43.51621" lon="2.47213">
        <ele>599.04</ele>
        <time>2020-10-18T14:12:13Z</time>
      </trkpt>
      <trkpt lat="43.51615" lon="2.47231">
        <ele>600.96</ele>
        <time>2020-10-18T14:12:24Z</time>
      </trkpt>
      <trkpt lat="43.51608" lon="2.47249">
        <ele>601.92</ele>
        <time>2020-10-18T14:12:35Z</time>
      </trkpt>
      <trkpt lat="43.51602" lon="2.47265">
        <ele>601.44</ele>
        <time>2020-10-18T14:12:45Z</time>
      </trkpt>
      <trkpt lat="43.51598" lon="2.47281">
        <ele>601.92</ele>
        <time>2020-10-18T14:12:54Z</time>
      </trkpt>
      <trkpt lat="43.51597" lon="2.47292">
        <ele>601.92</ele>
        <time>2020-10-18T14:13:00Z</time>
      </trkpt>
      <trkpt lat="43.51593" lon="2.47309">
        <ele>602.4</ele>
        <time>2020-10-18T14:13:10Z</time>
      </trkpt>
      <trkpt lat="43.51591" lon="2.47327">
        <ele>602.4</ele>
        <time>2020-10-18T14:13:20Z</time>
      </trkpt>
      <trkpt lat="43.51588" lon="2.47344">
        <ele>603.36</ele>
        <time>2020-10-18T14:13:30Z</time>
      </trkpt>
      <trkpt lat="43.51585" lon="2.4735">
        <ele>602.88</ele>
        <time>2020-10-18T14:13:35Z</time>
      </trkpt>
      <trkpt lat="43.51584" lon="2.47358">
        <ele>603.36</ele>
        <time>2020-10-18T14:13:39Z</time>
      </trkpt>
      <trkpt lat="43.51582" lon="2.47378">
        <ele>602.88</ele>
        <time>2020-10-18T14:13:49Z</time>
      </trkpt>
      <trkpt lat="43.51582" lon="2.47395">
        <ele>599.52</ele>
        <time>2020-10-18T14:13:58Z</time>
      </trkpt>
      <trkpt lat="43.5158" lon="2.47416">
        <ele>597.6</ele>
        <time>2020-10-18T14:14:09Z</time>
      </trkpt>
      <trkpt lat="43.51579" lon="2.47429">
        <ele>596.64</ele>
        <time>2020-10-18T14:14:18Z</time>
      </trkpt>
      <trkpt lat="43.5158" lon="2.47435">
        <ele>596.15</ele>
        <time>2020-10-18T14:14:23Z</time>
      </trkpt>
      <trkpt lat="43.5158" lon="2.47445">
        <ele>594.71</ele>
        <time>2020-10-18T14:14:30Z</time>
      </trkpt>
      <trkpt lat="43.5158" lon="2.47461">
        <ele>594.71</ele>
        <time>2020-10-18T14:14:40Z</time>
      </trkpt>
      <trkpt lat="43.51579" lon="2.47482">
        <ele>596.64</ele>
        <time>2020-10-18T14:14:51Z</time>
      </trkpt>
      <trkpt lat="43.51582" lon="2.47505">
        <ele>597.12</ele>
        <time>2020-10-18T14:15:03Z</time>
      </trkpt>
      <trkpt lat="43.51588" lon="2.47522">
        <ele>598.08</ele>
        <time>2020-10-18T14:15:14Z</time>
      </trkpt>
      <trkpt lat="43.51592" lon="2.47527">
        <ele>598.56</ele>
        <time>2020-10-18T14:15:19Z</time>
      </trkpt>
      <trkpt lat="43.51597" lon="2.47534">
        <ele>600.48</ele>
        <time>2020-10-18T14:15:27Z</time>
      </trkpt>
      <trkpt lat="43.51602" lon="2.47542">
        <ele>601.92</ele>
        <time>2020-10-18T14:15:32Z</time>
      </trkpt>
      <trkpt lat="43.51603" lon="2.47545">
        <ele>602.4</ele>
        <time>2020-10-18T14:15:34Z</time>
      </trkpt>
      <trkpt lat="43.51605" lon="2.47548">
        <ele>603.36</ele>
        <time>2020-10-18T14:15:36Z</time>
      </trkpt>
      <trkpt lat="43.51612" lon="2.47553">
        <ele>603.85</ele>
        <time>2020-10-18T14:15:40Z</time>
      </trkpt>
      <trkpt lat="43.51615" lon="2.47555">
        <ele>604.33</ele>
        <time>2020-10-18T14:15:42Z</time>
      </trkpt>
      <trkpt lat="43.51619" lon="2.47556">
        <ele>606.73</ele>
        <time>2020-10-18T14:15:50Z</time>
      </trkpt>
      <trkpt lat="43.51622" lon="2.47551">
        <ele>607.69</ele>
        <time>2020-10-18T14:16:10Z</time>
      </trkpt>
      <trkpt lat="43.51625" lon="2.4755">
        <ele>605.77</ele>
        <time>2020-10-18T14:16:27Z</time>
      </trkpt>
      <trkpt lat="43.51628" lon="2.47553">
        <ele>606.73</ele>
        <time>2020-10-18T14:16:34Z</time>
      </trkpt>
      <trkpt lat="43.51631" lon="2.47556">
        <ele>608.17</ele>
        <time>2020-10-18T14:16:44Z</time>
      </trkpt>
      <trkpt lat="43.51634" lon="2.47557">
        <ele>607.21</ele>
        <time>2020-10-18T14:17:01Z</time>
      </trkpt>
      <trkpt lat="43.51634" lon="2.47559">
        <ele>607.21</ele>
        <time>2020-10-18T14:17:17Z</time>
      </trkpt>
      <trkpt lat="43.51634" lon="2.47558">
        <ele>607.69</ele>
        <time>2020-10-18T14:17:28Z</time>
      </trkpt>
      <trkpt lat="43.51636" lon="2.47555">
        <ele>607.21</ele>
        <time>2020-10-18T14:17:35Z</time>
      </trkpt>
      <trkpt lat="43.51633" lon="2.47553">
        <ele>605.77</ele>
        <time>2020-10-18T14:17:44Z</time>
      </trkpt>
      <trkpt lat="43.51636" lon="2.47555">
        <ele>606.73</ele>
        <time>2020-10-18T14:17:49Z</time>
      </trkpt>
      <trkpt lat="43.51643" lon="2.47554">
        <ele>608.65</ele>
        <time>2020-10-18T14:18:00Z</time>
      </trkpt>
      <trkpt lat="43.51647" lon="2.47553">
        <ele>607.69</ele>
        <time>2020-10-18T14:18:08Z</time>
      </trkpt>
      <trkpt lat="43.51654" lon="2.47551">
        <ele>608.65</ele>
        <time>2020-10-18T14:18:17Z</time>
      </trkpt>
      <trkpt lat="43.51661" lon="2.47548">
        <ele>609.61</ele>
        <time>2020-10-18T14:18:26Z</time>
      </trkpt>
      <trkpt lat="43.5167" lon="2.47546">
        <ele>612.02</ele>
        <time>2020-10-18T14:18:35Z</time>
      </trkpt>
      <trkpt lat="43.51679" lon="2.47545">
        <ele>612.98</ele>
        <time>2020-10-18T14:18:43Z</time>
      </trkpt>
      <trkpt lat="43.51688" lon="2.47545">
        <ele>614.9</ele>
        <time>2020-10-18T14:18:51Z</time>
      </trkpt>
      <trkpt lat="43.51693" lon="2.47545">
        <ele>616.34</ele>
        <time>2020-10-18T14:18:58Z</time>
      </trkpt>
      <trkpt lat="43.51696" lon="2.47545">
        <ele>617.78</ele>
        <time>2020-10-18T14:19:07Z</time>
      </trkpt>
      <trkpt lat="43.51702" lon="2.47544">
        <ele>619.23</ele>
        <time>2020-10-18T14:19:12Z</time>
      </trkpt>
      <trkpt lat="43.51706" lon="2.47542">
        <ele>620.67</ele>
        <time>2020-10-18T14:19:18Z</time>
      </trkpt>
      <trkpt lat="43.51714" lon="2.47543">
        <ele>621.15</ele>
        <time>2020-10-18T14:19:25Z</time>
      </trkpt>
      <trkpt lat="43.51721" lon="2.47544">
        <ele>620.67</ele>
        <time>2020-10-18T14:19:31Z</time>
      </trkpt>
      <trkpt lat="43.51729" lon="2.47544">
        <ele>623.07</ele>
        <time>2020-10-18T14:19:39Z</time>
      </trkpt>
      <trkpt lat="43.51739" lon="2.47545">
        <ele>624.03</ele>
        <time>2020-10-18T14:19:47Z</time>
      </trkpt>
      <trkpt lat="43.51748" lon="2.47544">
        <ele>625.47</ele>
        <time>2020-10-18T14:19:54Z</time>
      </trkpt>
      <trkpt lat="43.51757" lon="2.47543">
        <ele>626.92</ele>
        <time>2020-10-18T14:20:01Z</time>
      </trkpt>
      <trkpt lat="43.51766" lon="2.47544">
        <ele>629.8</ele>
        <time>2020-10-18T14:20:10Z</time>
      </trkpt>
      <trkpt lat="43.51777" lon="2.47544">
        <ele>631.72</ele>
        <time>2020-10-18T14:20:21Z</time>
      </trkpt>
      <trkpt lat="43.51785" lon="2.47547">
        <ele>632.2</ele>
        <time>2020-10-18T14:20:29Z</time>
      </trkpt>
      <trkpt lat="43.51785" lon="2.47546">
        <ele>632.2</ele>
        <time>2020-10-18T14:20:38Z</time>
      </trkpt>
      <trkpt lat="43.51786" lon="2.47547">
        <ele>631.72</ele>
        <time>2020-10-18T14:20:44Z</time>
      </trkpt>
      <trkpt lat="43.51788" lon="2.47548">
        <ele>629.8</ele>
        <time>2020-10-18T14:20:55Z</time>
      </trkpt>
      <trkpt lat="43.51792" lon="2.4755">
        <ele>627.88</ele>
        <time>2020-10-18T14:21:04Z</time>
      </trkpt>
      <trkpt lat="43.51795" lon="2.4755">
        <ele>627.4</ele>
        <time>2020-10-18T14:21:11Z</time>
      </trkpt>
      <trkpt lat="43.51801" lon="2.47548">
        <ele>626.44</ele>
        <time>2020-10-18T14:21:18Z</time>
      </trkpt>
      <trkpt lat="43.51806" lon="2.47545">
        <ele>625.96</ele>
        <time>2020-10-18T14:21:25Z</time>
      </trkpt>
      <trkpt lat="43.51813" lon="2.47541">
        <ele>625.96</ele>
        <time>2020-10-18T14:21:31Z</time>
      </trkpt>
      <trkpt lat="43.51825" lon="2.47536">
        <ele>625.96</ele>
        <time>2020-10-18T14:21:39Z</time>
      </trkpt>
      <trkpt lat="43.51835" lon="2.47526">
        <ele>625.96</ele>
        <time>2020-10-18T14:21:47Z</time>
      </trkpt>
      <trkpt lat="43.51846" lon="2.47517">
        <ele>619.23</ele>
        <time>2020-10-18T14:21:55Z</time>
      </trkpt>
      <trkpt lat="43.51847" lon="2.47517">
        <ele>618.26</ele>
        <time>2020-10-18T14:21:56Z</time>
      </trkpt>
      <trkpt lat="43.51862" lon="2.47504">
        <ele>613.94</ele>
        <time>2020-10-18T14:22:05Z</time>
      </trkpt>
      <trkpt lat="43.51872" lon="2.47493">
        <ele>612.02</ele>
        <time>2020-10-18T14:22:13Z</time>
      </trkpt>
      <trkpt lat="43.51879" lon="2.47485">
        <ele>609.13</ele>
        <time>2020-10-18T14:22:19Z</time>
      </trkpt>
      <trkpt lat="43.51884" lon="2.47479">
        <ele>605.77</ele>
        <time>2020-10-18T14:22:27Z</time>
      </trkpt>
      <trkpt lat="43.51887" lon="2.47473">
        <ele>605.29</ele>
        <time>2020-10-18T14:22:35Z</time>
      </trkpt>
      <trkpt lat="43.5189" lon="2.47469">
        <ele>604.81</ele>
        <time>2020-10-18T14:22:41Z</time>
      </trkpt>
      <trkpt lat="43.5189" lon="2.47468">
        <ele>604.81</ele>
        <time>2020-10-18T14:22:43Z</time>
      </trkpt>
      <trkpt lat="43.51891" lon="2.47467">
        <ele>603.85</ele>
        <time>2020-10-18T14:22:49Z</time>
      </trkpt>
      <trkpt lat="43.51895" lon="2.47463">
        <ele>603.36</ele>
        <time>2020-10-18T14:22:55Z</time>
      </trkpt>
      <trkpt lat="43.51906" lon="2.47454">
        <ele>602.4</ele>
        <time>2020-10-18T14:23:05Z</time>
      </trkpt>
      <trkpt lat="43.51913" lon="2.47442">
        <ele>603.85</ele>
        <time>2020-10-18T14:23:14Z</time>
      </trkpt>
      <trkpt lat="43.51922" lon="2.47429">
        <ele>604.81</ele>
        <time>2020-10-18T14:23:23Z</time>
      </trkpt>
      <trkpt lat="43.5193" lon="2.47416">
        <ele>603.85</ele>
        <time>2020-10-18T14:23:32Z</time>
      </trkpt>
      <trkpt lat="43.5194" lon="2.47402">
        <ele>602.88</ele>
        <time>2020-10-18T14:23:42Z</time>
      </trkpt>
      <trkpt lat="43.51944" lon="2.47397">
        <ele>602.4</ele>
        <time>2020-10-18T14:23:46Z</time>
      </trkpt>
      <trkpt lat="43.51945" lon="2.47391">
        <ele>601.92</ele>
        <time>2020-10-18T14:23:49Z</time>
      </trkpt>
      <trkpt lat="43.5195" lon="2.47381">
        <ele>600.48</ele>
        <time>2020-10-18T14:23:57Z</time>
      </trkpt>
      <trkpt lat="43.51955" lon="2.47372">
        <ele>600.48</ele>
        <time>2020-10-18T14:24:06Z</time>
      </trkpt>
      <trkpt lat="43.51956" lon="2.47366">
        <ele>599.52</ele>
        <time>2020-10-18T14:24:15Z</time>
      </trkpt>
      <trkpt lat="43.5196" lon="2.47357">
        <ele>599.04</ele>
        <time>2020-10-18T14:24:22Z</time>
      </trkpt>
      <trkpt lat="43.51962" lon="2.47353">
        <ele>598.56</ele>
        <time>2020-10-18T14:24:29Z</time>
      </trkpt>
      <trkpt lat="43.51962" lon="2.47353">
        <ele>598.56</ele>
        <time>2020-10-18T14:24:35Z</time>
      </trkpt>
      <trkpt lat="43.51963" lon="2.47347">
        <ele>599.04</ele>
        <time>2020-10-18T14:24:42Z</time>
      </trkpt>
      <trkpt lat="43.51967" lon="2.4734">
        <ele>599.04</ele>
        <time>2020-10-18T14:24:50Z</time>
      </trkpt>
      <trkpt lat="43.51972" lon="2.47332">
        <ele>599.04</ele>
        <time>2020-10-18T14:24:59Z</time>
      </trkpt>
      <trkpt lat="43.51974" lon="2.47329">
        <ele>599.04</ele>
        <time>2020-10-18T14:25:11Z</time>
      </trkpt>
      <trkpt lat="43.51975" lon="2.47326">
        <ele>599.52</ele>
        <time>2020-10-18T14:25:22Z</time>
      </trkpt>
      <trkpt lat="43.51978" lon="2.47321">
        <ele>598.08</ele>
        <time>2020-10-18T14:25:39Z</time>
      </trkpt>
      <trkpt lat="43.51978" lon="2.4732">
        <ele>597.12</ele>
        <time>2020-10-18T14:25:46Z</time>
      </trkpt>
      <trkpt lat="43.51979" lon="2.47319">
        <ele>595.19</ele>
        <time>2020-10-18T14:25:55Z</time>
      </trkpt>
      <trkpt lat="43.51985" lon="2.47315">
        <ele>595.19</ele>
        <time>2020-10-18T14:26:03Z</time>
      </trkpt>
      <trkpt lat="43.51986" lon="2.47313">
        <ele>595.19</ele>
        <time>2020-10-18T14:26:09Z</time>
      </trkpt>
      <trkpt lat="43.51989" lon="2.47312">
        <ele>595.19</ele>
        <time>2020-10-18T14:26:13Z</time>
      </trkpt>
      <trkpt lat="43.51997" lon="2.47307">
        <ele>598.08</ele>
        <time>2020-10-18T14:26:22Z</time>
      </trkpt>
      <trkpt lat="43.52002" lon="2.47301">
        <ele>600.96</ele>
        <time>2020-10-18T14:26:30Z</time>
      </trkpt>
      <trkpt lat="43.52006" lon="2.47292">
        <ele>602.4</ele>
        <time>2020-10-18T14:26:37Z</time>
      </trkpt>
      <trkpt lat="43.52006" lon="2.47291">
        <ele>602.88</ele>
        <time>2020-10-18T14:26:38Z</time>
      </trkpt>
      <trkpt lat="43.52008" lon="2.47282">
        <ele>604.33</ele>
        <time>2020-10-18T14:26:45Z</time>
      </trkpt>
      <trkpt lat="43.52011" lon="2.47273">
        <ele>605.77</ele>
        <time>2020-10-18T14:26:54Z</time>
      </trkpt>
      <trkpt lat="43.52016" lon="2.47257">
        <ele>606.25</ele>
        <time>2020-10-18T14:27:03Z</time>
      </trkpt>
      <trkpt lat="43.52019" lon="2.47247">
        <ele>605.29</ele>
        <time>2020-10-18T14:27:11Z</time>
      </trkpt>
      <trkpt lat="43.52023" lon="2.47239">
        <ele>606.25</ele>
        <time>2020-10-18T14:27:17Z</time>
      </trkpt>
      <trkpt lat="43.52032" lon="2.47228">
        <ele>606.25</ele>
        <time>2020-10-18T14:27:27Z</time>
      </trkpt>
      <trkpt lat="43.5204" lon="2.4722">
        <ele>607.21</ele>
        <time>2020-10-18T14:27:35Z</time>
      </trkpt>
      <trkpt lat="43.52048" lon="2.47211">
        <ele>608.65</ele>
        <time>2020-10-18T14:27:42Z</time>
      </trkpt>
      <trkpt lat="43.52055" lon="2.47204">
        <ele>609.61</ele>
        <time>2020-10-18T14:27:49Z</time>
      </trkpt>
      <trkpt lat="43.52056" lon="2.472">
        <ele>610.09</ele>
        <time>2020-10-18T14:27:52Z</time>
      </trkpt>
      <trkpt lat="43.52061" lon="2.47182">
        <ele>609.13</ele>
        <time>2020-10-18T14:28:03Z</time>
      </trkpt>
      <trkpt lat="43.52066" lon="2.47168">
        <ele>609.13</ele>
        <time>2020-10-18T14:28:11Z</time>
      </trkpt>
      <trkpt lat="43.52067" lon="2.47163">
        <ele>608.65</ele>
        <time>2020-10-18T14:28:18Z</time>
      </trkpt>
      <trkpt lat="43.52066" lon="2.47151">
        <ele>607.69</ele>
        <time>2020-10-18T14:28:28Z</time>
      </trkpt>
      <trkpt lat="43.52063" lon="2.47143">
        <ele>605.77</ele>
        <time>2020-10-18T14:28:37Z</time>
      </trkpt>
      <trkpt lat="43.52061" lon="2.47131">
        <ele>602.88</ele>
        <time>2020-10-18T14:28:46Z</time>
      </trkpt>
      <trkpt lat="43.52059" lon="2.47119">
        <ele>600.48</ele>
        <time>2020-10-18T14:28:54Z</time>
      </trkpt>
      <trkpt lat="43.52058" lon="2.47108">
        <ele>599.04</ele>
        <time>2020-10-18T14:29:02Z</time>
      </trkpt>
      <trkpt lat="43.52059" lon="2.47094">
        <ele>598.08</ele>
        <time>2020-10-18T14:29:11Z</time>
      </trkpt>
      <trkpt lat="43.52058" lon="2.47082">
        <ele>600.96</ele>
        <time>2020-10-18T14:29:18Z</time>
      </trkpt>
      <trkpt lat="43.52058" lon="2.47071">
        <ele>605.77</ele>
        <time>2020-10-18T14:29:26Z</time>
      </trkpt>
      <trkpt lat="43.52058" lon="2.47059">
        <ele>609.61</ele>
        <time>2020-10-18T14:29:33Z</time>
      </trkpt>
      <trkpt lat="43.52057" lon="2.47047">
        <ele>613.46</ele>
        <time>2020-10-18T14:29:40Z</time>
      </trkpt>
      <trkpt lat="43.52056" lon="2.47034">
        <ele>617.3</ele>
        <time>2020-10-18T14:29:49Z</time>
      </trkpt>
      <trkpt lat="43.52055" lon="2.47023">
        <ele>618.75</ele>
        <time>2020-10-18T14:29:56Z</time>
      </trkpt>
      <trkpt lat="43.52055" lon="2.47008">
        <ele>620.19</ele>
        <time>2020-10-18T14:30:03Z</time>
      </trkpt>
      <trkpt lat="43.52055" lon="2.46992">
        <ele>622.59</ele>
        <time>2020-10-18T14:30:11Z</time>
      </trkpt>
      <trkpt lat="43.52057" lon="2.46967">
        <ele>624.51</ele>
        <time>2020-10-18T14:30:19Z</time>
      </trkpt>
      <trkpt lat="43.52056" lon="2.46951">
        <ele>622.59</ele>
        <time>2020-10-18T14:30:26Z</time>
      </trkpt>
      <trkpt lat="43.52056" lon="2.46938">
        <ele>617.78</ele>
        <time>2020-10-18T14:30:33Z</time>
      </trkpt>
      <trkpt lat="43.52057" lon="2.46917">
        <ele>607.21</ele>
        <time>2020-10-18T14:30:43Z</time>
      </trkpt>
      <trkpt lat="43.52058" lon="2.46903">
        <ele>598.56</ele>
        <time>2020-10-18T14:30:51Z</time>
      </trkpt>
      <trkpt lat="43.5206" lon="2.46889">
        <ele>594.71</ele>
        <time>2020-10-18T14:30:59Z</time>
      </trkpt>
      <trkpt lat="43.52062" lon="2.46875">
        <ele>591.35</ele>
        <time>2020-10-18T14:31:08Z</time>
      </trkpt>
      <trkpt lat="43.52062" lon="2.46872">
        <ele>590.39</ele>
        <time>2020-10-18T14:31:16Z</time>
      </trkpt>
      <trkpt lat="43.52061" lon="2.46869">
        <ele>588.46</ele>
        <time>2020-10-18T14:31:23Z</time>
      </trkpt>
      <trkpt lat="43.52063" lon="2.46865">
        <ele>587.98</ele>
        <time>2020-10-18T14:31:28Z</time>
      </trkpt>
      <trkpt lat="43.52065" lon="2.46859">
        <ele>587.98</ele>
        <time>2020-10-18T14:31:34Z</time>
      </trkpt>
      <trkpt lat="43.52067" lon="2.46853">
        <ele>588.46</ele>
        <time>2020-10-18T14:31:43Z</time>
      </trkpt>
      <trkpt lat="43.52068" lon="2.46849">
        <ele>589.43</ele>
        <time>2020-10-18T14:31:49Z</time>
      </trkpt>
      <trkpt lat="43.52068" lon="2.46846">
        <ele>589.91</ele>
        <time>2020-10-18T14:31:51Z</time>
      </trkpt>
      <trkpt lat="43.52069" lon="2.46843">
        <ele>589.91</ele>
        <time>2020-10-18T14:31:53Z</time>
      </trkpt>
      <trkpt lat="43.52069" lon="2.46828">
        <ele>592.31</ele>
        <time>2020-10-18T14:32:03Z</time>
      </trkpt>
      <trkpt lat="43.52071" lon="2.46819">
        <ele>594.23</ele>
        <time>2020-10-18T14:32:10Z</time>
      </trkpt>
      <trkpt lat="43.52075" lon="2.46803">
        <ele>595.19</ele>
        <time>2020-10-18T14:32:19Z</time>
      </trkpt>
      <trkpt lat="43.52079" lon="2.46789">
        <ele>587.5</ele>
        <time>2020-10-18T14:32:29Z</time>
      </trkpt>
      <trkpt lat="43.52082" lon="2.46774">
        <ele>581.73</ele>
        <time>2020-10-18T14:32:38Z</time>
      </trkpt>
      <trkpt lat="43.52082" lon="2.46764">
        <ele>579.33</ele>
        <time>2020-10-18T14:32:46Z</time>
      </trkpt>
      <trkpt lat="43.52085" lon="2.46755">
        <ele>577.89</ele>
        <time>2020-10-18T14:32:53Z</time>
      </trkpt>
      <trkpt lat="43.52088" lon="2.46744">
        <ele>576.93</ele>
        <time>2020-10-18T14:33:02Z</time>
      </trkpt>
      <trkpt lat="43.52093" lon="2.46735">
        <ele>577.41</ele>
        <time>2020-10-18T14:33:09Z</time>
      </trkpt>
      <trkpt lat="43.52097" lon="2.46726">
        <ele>578.85</ele>
        <time>2020-10-18T14:33:16Z</time>
      </trkpt>
      <trkpt lat="43.52103" lon="2.4672">
        <ele>578.85</ele>
        <time>2020-10-18T14:33:24Z</time>
      </trkpt>
      <trkpt lat="43.5211" lon="2.46717">
        <ele>578.85</ele>
        <time>2020-10-18T14:33:31Z</time>
      </trkpt>
      <trkpt lat="43.52112" lon="2.46716">
        <ele>579.33</ele>
        <time>2020-10-18T14:33:34Z</time>
      </trkpt>
      <trkpt lat="43.52121" lon="2.46713">
        <ele>577.89</ele>
        <time>2020-10-18T14:33:42Z</time>
      </trkpt>
      <trkpt lat="43.5213" lon="2.46709">
        <ele>575.01</ele>
        <time>2020-10-18T14:33:51Z</time>
      </trkpt>
      <trkpt lat="43.52141" lon="2.46702">
        <ele>576.45</ele>
        <time>2020-10-18T14:34:00Z</time>
      </trkpt>
      <trkpt lat="43.52147" lon="2.46699">
        <ele>576.93</ele>
        <time>2020-10-18T14:34:08Z</time>
      </trkpt>
      <trkpt lat="43.52151" lon="2.46696">
        <ele>577.41</ele>
        <time>2020-10-18T14:34:16Z</time>
      </trkpt>
      <trkpt lat="43.52155" lon="2.46691">
        <ele>578.37</ele>
        <time>2020-10-18T14:34:24Z</time>
      </trkpt>
      <trkpt lat="43.52157" lon="2.46689">
        <ele>579.33</ele>
        <time>2020-10-18T14:34:32Z</time>
      </trkpt>
      <trkpt lat="43.5216" lon="2.46689">
        <ele>579.81</ele>
        <time>2020-10-18T14:34:41Z</time>
      </trkpt>
      <trkpt lat="43.52162" lon="2.46687">
        <ele>579.33</ele>
        <time>2020-10-18T14:34:51Z</time>
      </trkpt>
      <trkpt lat="43.52165" lon="2.46686">
        <ele>578.85</ele>
        <time>2020-10-18T14:34:58Z</time>
      </trkpt>
      <trkpt lat="43.52173" lon="2.46685">
        <ele>577.41</ele>
        <time>2020-10-18T14:35:06Z</time>
      </trkpt>
      <trkpt lat="43.52178" lon="2.4668">
        <ele>577.41</ele>
        <time>2020-10-18T14:35:13Z</time>
      </trkpt>
      <trkpt lat="43.52184" lon="2.46679">
        <ele>576.45</ele>
        <time>2020-10-18T14:35:19Z</time>
      </trkpt>
      <trkpt lat="43.52191" lon="2.46676">
        <ele>577.41</ele>
        <time>2020-10-18T14:35:26Z</time>
      </trkpt>
      <trkpt lat="43.52196" lon="2.46672">
        <ele>579.81</ele>
        <time>2020-10-18T14:35:32Z</time>
      </trkpt>
      <trkpt lat="43.52205" lon="2.46667">
        <ele>581.73</ele>
        <time>2020-10-18T14:35:39Z</time>
      </trkpt>
      <trkpt lat="43.52211" lon="2.46662">
        <ele>583.18</ele>
        <time>2020-10-18T14:35:46Z</time>
      </trkpt>
      <trkpt lat="43.52217" lon="2.46654">
        <ele>583.18</ele>
        <time>2020-10-18T14:35:53Z</time>
      </trkpt>
      <trkpt lat="43.52224" lon="2.4665">
        <ele>583.66</ele>
        <time>2020-10-18T14:36:00Z</time>
      </trkpt>
      <trkpt lat="43.52232" lon="2.46643">
        <ele>586.54</ele>
        <time>2020-10-18T14:36:07Z</time>
      </trkpt>
      <trkpt lat="43.5224" lon="2.46636">
        <ele>587.02</ele>
        <time>2020-10-18T14:36:15Z</time>
      </trkpt>
      <trkpt lat="43.52247" lon="2.46629">
        <ele>589.43</ele>
        <time>2020-10-18T14:36:23Z</time>
      </trkpt>
      <trkpt lat="43.52256" lon="2.46621">
        <ele>588.95</ele>
        <time>2020-10-18T14:36:31Z</time>
      </trkpt>
      <trkpt lat="43.52261" lon="2.46615">
        <ele>587.98</ele>
        <time>2020-10-18T14:36:37Z</time>
      </trkpt>
      <trkpt lat="43.52265" lon="2.46612">
        <ele>587.02</ele>
        <time>2020-10-18T14:36:43Z</time>
      </trkpt>
      <trkpt lat="43.52272" lon="2.46605">
        <ele>584.14</ele>
        <time>2020-10-18T14:36:51Z</time>
      </trkpt>
      <trkpt lat="43.52281" lon="2.46594">
        <ele>581.25</ele>
        <time>2020-10-18T14:36:59Z</time>
      </trkpt>
      <trkpt lat="43.52287" lon="2.46577">
        <ele>578.37</ele>
        <time>2020-10-18T14:37:07Z</time>
      </trkpt>
      <trkpt lat="43.52289" lon="2.4657">
        <ele>576.93</ele>
        <time>2020-10-18T14:37:11Z</time>
      </trkpt>
      <trkpt lat="43.52286" lon="2.46558">
        <ele>574.04</ele>
        <time>2020-10-18T14:37:19Z</time>
      </trkpt>
      <trkpt lat="43.52284" lon="2.46556">
        <ele>573.56</ele>
        <time>2020-10-18T14:37:21Z</time>
      </trkpt>
      <trkpt lat="43.52271" lon="2.46556">
        <ele>573.56</ele>
        <time>2020-10-18T14:37:31Z</time>
      </trkpt>
      <trkpt lat="43.52261" lon="2.46557">
        <ele>575.49</ele>
        <time>2020-10-18T14:37:39Z</time>
      </trkpt>
      <trkpt lat="43.52248" lon="2.46557">
        <ele>580.29</ele>
        <time>2020-10-18T14:37:49Z</time>
      </trkpt>
      <trkpt lat="43.52238" lon="2.46558">
        <ele>584.14</ele>
        <time>2020-10-18T14:37:57Z</time>
      </trkpt>
      <trkpt lat="43.52228" lon="2.46559">
        <ele>588.95</ele>
        <time>2020-10-18T14:38:05Z</time>
      </trkpt>
      <trkpt lat="43.52216" lon="2.46563">
        <ele>593.27</ele>
        <time>2020-10-18T14:38:14Z</time>
      </trkpt>
      <trkpt lat="43.52208" lon="2.46566">
        <ele>595.67</ele>
        <time>2020-10-18T14:38:22Z</time>
      </trkpt>
      <trkpt lat="43.522" lon="2.4657">
        <ele>598.08</ele>
        <time>2020-10-18T14:38:30Z</time>
      </trkpt>
      <trkpt lat="43.5219" lon="2.46576">
        <ele>599.04</ele>
        <time>2020-10-18T14:38:39Z</time>
      </trkpt>
      <trkpt lat="43.52182" lon="2.46584">
        <ele>597.6</ele>
        <time>2020-10-18T14:38:47Z</time>
      </trkpt>
      <trkpt lat="43.52171" lon="2.4659">
        <ele>596.64</ele>
        <time>2020-10-18T14:38:56Z</time>
      </trkpt>
      <trkpt lat="43.52165" lon="2.46593">
        <ele>597.6</ele>
        <time>2020-10-18T14:39:02Z</time>
      </trkpt>
      <trkpt lat="43.52159" lon="2.46596">
        <ele>600</ele>
        <time>2020-10-18T14:39:09Z</time>
      </trkpt>
      <trkpt lat="43.52152" lon="2.46599">
        <ele>600.48</ele>
        <time>2020-10-18T14:39:16Z</time>
      </trkpt>
      <trkpt lat="43.52151" lon="2.46599">
        <ele>600</ele>
        <time>2020-10-18T14:39:18Z</time>
      </trkpt>
      <trkpt lat="43.52147" lon="2.46596">
        <ele>600</ele>
        <time>2020-10-18T14:39:21Z</time>
      </trkpt>
      <trkpt lat="43.52134" lon="2.46594">
        <ele>599.52</ele>
        <time>2020-10-18T14:39:31Z</time>
      </trkpt>
      <trkpt lat="43.52125" lon="2.46593">
        <ele>594.71</ele>
        <time>2020-10-18T14:39:37Z</time>
      </trkpt>
      <trkpt lat="43.52123" lon="2.46591">
        <ele>595.67</ele>
        <time>2020-10-18T14:39:40Z</time>
      </trkpt>
      <trkpt lat="43.52123" lon="2.4659">
        <ele>593.75</ele>
        <time>2020-10-18T14:39:45Z</time>
      </trkpt>
      <trkpt lat="43.52119" lon="2.46591">
        <ele>587.98</ele>
        <time>2020-10-18T14:39:52Z</time>
      </trkpt>
      <trkpt lat="43.52118" lon="2.46594">
        <ele>583.18</ele>
        <time>2020-10-18T14:40:02Z</time>
      </trkpt>
      <trkpt lat="43.52123" lon="2.46595">
        <ele>581.25</ele>
        <time>2020-10-18T14:40:11Z</time>
      </trkpt>
      <trkpt lat="43.5213" lon="2.46594">
        <ele>580.77</ele>
        <time>2020-10-18T14:40:18Z</time>
      </trkpt>
      <trkpt lat="43.52137" lon="2.4659">
        <ele>581.73</ele>
        <time>2020-10-18T14:40:25Z</time>
      </trkpt>
      <trkpt lat="43.52144" lon="2.46588">
        <ele>582.22</ele>
        <time>2020-10-18T14:40:34Z</time>
      </trkpt>
      <trkpt lat="43.52149" lon="2.46584">
        <ele>583.18</ele>
        <time>2020-10-18T14:40:41Z</time>
      </trkpt>
      <trkpt lat="43.52155" lon="2.46583">
        <ele>584.14</ele>
        <time>2020-10-18T14:40:48Z</time>
      </trkpt>
      <trkpt lat="43.5216" lon="2.46577">
        <ele>585.58</ele>
        <time>2020-10-18T14:40:56Z</time>
      </trkpt>
      <trkpt lat="43.52165" lon="2.46574">
        <ele>586.06</ele>
        <time>2020-10-18T14:41:03Z</time>
      </trkpt>
      <trkpt lat="43.52176" lon="2.46568">
        <ele>584.62</ele>
        <time>2020-10-18T14:41:12Z</time>
      </trkpt>
      <trkpt lat="43.52186" lon="2.46561">
        <ele>580.77</ele>
        <time>2020-10-18T14:41:20Z</time>
      </trkpt>
      <trkpt lat="43.52195" lon="2.4656">
        <ele>575.49</ele>
        <time>2020-10-18T14:41:27Z</time>
      </trkpt>
      <trkpt lat="43.522" lon="2.46552">
        <ele>573.56</ele>
        <time>2020-10-18T14:41:34Z</time>
      </trkpt>
      <trkpt lat="43.52204" lon="2.46546">
        <ele>572.6</ele>
        <time>2020-10-18T14:41:41Z</time>
      </trkpt>
      <trkpt lat="43.52213" lon="2.4654">
        <ele>571.16</ele>
        <time>2020-10-18T14:41:50Z</time>
      </trkpt>
      <trkpt lat="43.52224" lon="2.46536">
        <ele>566.83</ele>
        <time>2020-10-18T14:41:58Z</time>
      </trkpt>
      <trkpt lat="43.52232" lon="2.46533">
        <ele>563.47</ele>
        <time>2020-10-18T14:42:06Z</time>
      </trkpt>
      <trkpt lat="43.52239" lon="2.4653">
        <ele>562.03</ele>
        <time>2020-10-18T14:42:14Z</time>
      </trkpt>
      <trkpt lat="43.52244" lon="2.46528">
        <ele>562.03</ele>
        <time>2020-10-18T14:42:20Z</time>
      </trkpt>
      <trkpt lat="43.52253" lon="2.46521">
        <ele>562.51</ele>
        <time>2020-10-18T14:42:28Z</time>
      </trkpt>
      <trkpt lat="43.52256" lon="2.46519">
        <ele>563.47</ele>
        <time>2020-10-18T14:42:33Z</time>
      </trkpt>
      <trkpt lat="43.52264" lon="2.46515">
        <ele>564.43</ele>
        <time>2020-10-18T14:42:42Z</time>
      </trkpt>
      <trkpt lat="43.52269" lon="2.46512">
        <ele>564.43</ele>
        <time>2020-10-18T14:42:50Z</time>
      </trkpt>
      <trkpt lat="43.52274" lon="2.46508">
        <ele>562.99</ele>
        <time>2020-10-18T14:42:57Z</time>
      </trkpt>
      <trkpt lat="43.52276" lon="2.46507">
        <ele>562.03</ele>
        <time>2020-10-18T14:43:04Z</time>
      </trkpt>
      <trkpt lat="43.52279" lon="2.46505">
        <ele>559.62</ele>
        <time>2020-10-18T14:43:14Z</time>
      </trkpt>
      <trkpt lat="43.52285" lon="2.46501">
        <ele>558.66</ele>
        <time>2020-10-18T14:43:21Z</time>
      </trkpt>
      <trkpt lat="43.52291" lon="2.46503">
        <ele>557.7</ele>
        <time>2020-10-18T14:43:27Z</time>
      </trkpt>
      <trkpt lat="43.52302" lon="2.46497">
        <ele>556.74</ele>
        <time>2020-10-18T14:43:37Z</time>
      </trkpt>
      <trkpt lat="43.52306" lon="2.4649">
        <ele>556.74</ele>
        <time>2020-10-18T14:43:43Z</time>
      </trkpt>
      <trkpt lat="43.52306" lon="2.46481">
        <ele>557.22</ele>
        <time>2020-10-18T14:43:50Z</time>
      </trkpt>
      <trkpt lat="43.52309" lon="2.46471">
        <ele>558.18</ele>
        <time>2020-10-18T14:43:56Z</time>
      </trkpt>
      <trkpt lat="43.52312" lon="2.46469">
        <ele>557.7</ele>
        <time>2020-10-18T14:44:01Z</time>
      </trkpt>
      <trkpt lat="43.52314" lon="2.46467">
        <ele>557.22</ele>
        <time>2020-10-18T14:44:08Z</time>
      </trkpt>
      <trkpt lat="43.52319" lon="2.46465">
        <ele>558.66</ele>
        <time>2020-10-18T14:44:16Z</time>
      </trkpt>
      <trkpt lat="43.52327" lon="2.46464">
        <ele>558.66</ele>
        <time>2020-10-18T14:44:23Z</time>
      </trkpt>
      <trkpt lat="43.52335" lon="2.46464">
        <ele>559.62</ele>
        <time>2020-10-18T14:44:30Z</time>
      </trkpt>
      <trkpt lat="43.52339" lon="2.46455">
        <ele>560.11</ele>
        <time>2020-10-18T14:44:37Z</time>
      </trkpt>
      <trkpt lat="43.52343" lon="2.46443">
        <ele>559.62</ele>
        <time>2020-10-18T14:44:45Z</time>
      </trkpt>
      <trkpt lat="43.52344" lon="2.46435">
        <ele>558.66</ele>
        <time>2020-10-18T14:44:53Z</time>
      </trkpt>
      <trkpt lat="43.52343" lon="2.46433">
        <ele>558.18</ele>
        <time>2020-10-18T14:44:59Z</time>
      </trkpt>
      <trkpt lat="43.52343" lon="2.46424">
        <ele>557.22</ele>
        <time>2020-10-18T14:45:05Z</time>
      </trkpt>
      <trkpt lat="43.52343" lon="2.46412">
        <ele>556.74</ele>
        <time>2020-10-18T14:45:12Z</time>
      </trkpt>
      <trkpt lat="43.52341" lon="2.46401">
        <ele>556.74</ele>
        <time>2020-10-18T14:45:19Z</time>
      </trkpt>
      <trkpt lat="43.52336" lon="2.46392">
        <ele>556.26</ele>
        <time>2020-10-18T14:45:26Z</time>
      </trkpt>
      <trkpt lat="43.52335" lon="2.46383">
        <ele>555.78</ele>
        <time>2020-10-18T14:45:33Z</time>
      </trkpt>
      <trkpt lat="43.52334" lon="2.46372">
        <ele>554.82</ele>
        <time>2020-10-18T14:45:43Z</time>
      </trkpt>
      <trkpt lat="43.52338" lon="2.46359">
        <ele>554.34</ele>
        <time>2020-10-18T14:45:52Z</time>
      </trkpt>
      <trkpt lat="43.52344" lon="2.46346">
        <ele>556.26</ele>
        <time>2020-10-18T14:46:02Z</time>
      </trkpt>
      <trkpt lat="43.52349" lon="2.4633">
        <ele>559.62</ele>
        <time>2020-10-18T14:46:11Z</time>
      </trkpt>
      <trkpt lat="43.52352" lon="2.4631">
        <ele>561.55</ele>
        <time>2020-10-18T14:46:21Z</time>
      </trkpt>
      <trkpt lat="43.52352" lon="2.4629">
        <ele>562.51</ele>
        <time>2020-10-18T14:46:30Z</time>
      </trkpt>
      <trkpt lat="43.52353" lon="2.46266">
        <ele>563.95</ele>
        <time>2020-10-18T14:46:41Z</time>
      </trkpt>
      <trkpt lat="43.52354" lon="2.46252">
        <ele>562.03</ele>
        <time>2020-10-18T14:46:48Z</time>
      </trkpt>
      <trkpt lat="43.52355" lon="2.46245">
        <ele>562.03</ele>
        <time>2020-10-18T14:46:52Z</time>
      </trkpt>
      <trkpt lat="43.5236" lon="2.46227">
        <ele>563.47</ele>
        <time>2020-10-18T14:47:03Z</time>
      </trkpt>
      <trkpt lat="43.5236" lon="2.46225">
        <ele>563.95</ele>
        <time>2020-10-18T14:47:05Z</time>
      </trkpt>
      <trkpt lat="43.52358" lon="2.46213">
        <ele>565.87</ele>
        <time>2020-10-18T14:47:14Z</time>
      </trkpt>
      <trkpt lat="43.52354" lon="2.4621">
        <ele>566.83</ele>
        <time>2020-10-18T14:47:31Z</time>
      </trkpt>
      <trkpt lat="43.52354" lon="2.4621">
        <ele>569.24</ele>
        <time>2020-10-18T14:47:37Z</time>
      </trkpt>
      <trkpt lat="43.52359" lon="2.46208">
        <ele>568.76</ele>
        <time>2020-10-18T14:47:44Z</time>
      </trkpt>
      <trkpt lat="43.52361" lon="2.46205">
        <ele>568.28</ele>
        <time>2020-10-18T14:47:50Z</time>
      </trkpt>
      <trkpt lat="43.52366" lon="2.46199">
        <ele>568.76</ele>
        <time>2020-10-18T14:47:57Z</time>
      </trkpt>
      <trkpt lat="43.52365" lon="2.46199">
        <ele>569.24</ele>
        <time>2020-10-18T14:48:04Z</time>
      </trkpt>
      <trkpt lat="43.52365" lon="2.462">
        <ele>569.72</ele>
        <time>2020-10-18T14:48:05Z</time>
      </trkpt>
      <trkpt lat="43.52356" lon="2.46206">
        <ele>570.68</ele>
        <time>2020-10-18T14:48:15Z</time>
      </trkpt>
      <trkpt lat="43.52344" lon="2.46213">
        <ele>574.53</ele>
        <time>2020-10-18T14:48:26Z</time>
      </trkpt>
      <trkpt lat="43.52335" lon="2.4622">
        <ele>578.37</ele>
        <time>2020-10-18T14:48:34Z</time>
      </trkpt>
      <trkpt lat="43.52319" lon="2.4623">
        <ele>580.77</ele>
        <time>2020-10-18T14:48:45Z</time>
      </trkpt>
      <trkpt lat="43.5231" lon="2.46237">
        <ele>579.33</ele>
        <time>2020-10-18T14:48:52Z</time>
      </trkpt>
      <trkpt lat="43.52304" lon="2.46244">
        <ele>579.33</ele>
        <time>2020-10-18T14:48:58Z</time>
      </trkpt>
      <trkpt lat="43.52294" lon="2.46256">
        <ele>577.41</ele>
        <time>2020-10-18T14:49:08Z</time>
      </trkpt>
      <trkpt lat="43.52286" lon="2.46265">
        <ele>578.37</ele>
        <time>2020-10-18T14:49:16Z</time>
      </trkpt>
      <trkpt lat="43.52281" lon="2.46273">
        <ele>582.7</ele>
        <time>2020-10-18T14:49:25Z</time>
      </trkpt>
      <trkpt lat="43.52274" lon="2.46281">
        <ele>585.58</ele>
        <time>2020-10-18T14:49:33Z</time>
      </trkpt>
      <trkpt lat="43.52266" lon="2.4629">
        <ele>584.62</ele>
        <time>2020-10-18T14:49:42Z</time>
      </trkpt>
      <trkpt lat="43.5226" lon="2.46293">
        <ele>586.06</ele>
        <time>2020-10-18T14:49:51Z</time>
      </trkpt>
      <trkpt lat="43.52254" lon="2.46297">
        <ele>585.1</ele>
        <time>2020-10-18T14:49:57Z</time>
      </trkpt>
      <trkpt lat="43.52247" lon="2.46299">
        <ele>585.58</ele>
        <time>2020-10-18T14:50:05Z</time>
      </trkpt>
      <trkpt lat="43.52242" lon="2.463">
        <ele>586.54</ele>
        <time>2020-10-18T14:50:11Z</time>
      </trkpt>
      <trkpt lat="43.52235" lon="2.46301">
        <ele>587.5</ele>
        <time>2020-10-18T14:50:19Z</time>
      </trkpt>
      <trkpt lat="43.52229" lon="2.46298">
        <ele>587.02</ele>
        <time>2020-10-18T14:50:26Z</time>
      </trkpt>
      <trkpt lat="43.52221" lon="2.46296">
        <ele>582.7</ele>
        <time>2020-10-18T14:50:33Z</time>
      </trkpt>
      <trkpt lat="43.52216" lon="2.46293">
        <ele>580.29</ele>
        <time>2020-10-18T14:50:39Z</time>
      </trkpt>
      <trkpt lat="43.52212" lon="2.46289">
        <ele>579.81</ele>
        <time>2020-10-18T14:50:47Z</time>
      </trkpt>
      <trkpt lat="43.52207" lon="2.46282">
        <ele>579.81</ele>
        <time>2020-10-18T14:50:54Z</time>
      </trkpt>
      <trkpt lat="43.52203" lon="2.46274">
        <ele>579.33</ele>
        <time>2020-10-18T14:51:00Z</time>
      </trkpt>
      <trkpt lat="43.52196" lon="2.46267">
        <ele>579.33</ele>
        <time>2020-10-18T14:51:04Z</time>
      </trkpt>
      <trkpt lat="43.52191" lon="2.46253">
        <ele>577.41</ele>
        <time>2020-10-18T14:51:12Z</time>
      </trkpt>
      <trkpt lat="43.52188" lon="2.46245">
        <ele>577.41</ele>
        <time>2020-10-18T14:51:18Z</time>
      </trkpt>
      <trkpt lat="43.52187" lon="2.46238">
        <ele>577.41</ele>
        <time>2020-10-18T14:51:21Z</time>
      </trkpt>
      <trkpt lat="43.52183" lon="2.46221">
        <ele>576.45</ele>
        <time>2020-10-18T14:51:29Z</time>
      </trkpt>
      <trkpt lat="43.52179" lon="2.46209">
        <ele>574.04</ele>
        <time>2020-10-18T14:51:36Z</time>
      </trkpt>
      <trkpt lat="43.52177" lon="2.46196">
        <ele>574.04</ele>
        <time>2020-10-18T14:51:43Z</time>
      </trkpt>
      <trkpt lat="43.52177" lon="2.46192">
        <ele>573.56</ele>
        <time>2020-10-18T14:51:46Z</time>
      </trkpt>
      <trkpt lat="43.52175" lon="2.46176">
        <ele>573.08</ele>
        <time>2020-10-18T14:51:53Z</time>
      </trkpt>
      <trkpt lat="43.52172" lon="2.46159">
        <ele>572.12</ele>
        <time>2020-10-18T14:52:00Z</time>
      </trkpt>
      <trkpt lat="43.52171" lon="2.46156">
        <ele>572.6</ele>
        <time>2020-10-18T14:52:02Z</time>
      </trkpt>
      <trkpt lat="43.52171" lon="2.46151">
        <ele>573.56</ele>
        <time>2020-10-18T14:52:05Z</time>
      </trkpt>
      <trkpt lat="43.52171" lon="2.46144">
        <ele>575.97</ele>
        <time>2020-10-18T14:52:09Z</time>
      </trkpt>
      <trkpt lat="43.52172" lon="2.46129">
        <ele>584.14</ele>
        <time>2020-10-18T14:52:17Z</time>
      </trkpt>
      <trkpt lat="43.52172" lon="2.46121">
        <ele>590.87</ele>
        <time>2020-10-18T14:52:23Z</time>
      </trkpt>
      <trkpt lat="43.52172" lon="2.46107">
        <ele>600</ele>
        <time>2020-10-18T14:52:31Z</time>
      </trkpt>
      <trkpt lat="43.5217" lon="2.46093">
        <ele>605.29</ele>
        <time>2020-10-18T14:52:39Z</time>
      </trkpt>
      <trkpt lat="43.5217" lon="2.4608">
        <ele>598.56</ele>
        <time>2020-10-18T14:52:45Z</time>
      </trkpt>
      <trkpt lat="43.52168" lon="2.46075">
        <ele>595.19</ele>
        <time>2020-10-18T14:52:47Z</time>
      </trkpt>
      <trkpt lat="43.52163" lon="2.46068">
        <ele>589.43</ele>
        <time>2020-10-18T14:52:52Z</time>
      </trkpt>
      <trkpt lat="43.52157" lon="2.46052">
        <ele>582.22</ele>
        <time>2020-10-18T14:52:59Z</time>
      </trkpt>
      <trkpt lat="43.52151" lon="2.4604">
        <ele>578.85</ele>
        <time>2020-10-18T14:53:05Z</time>
      </trkpt>
      <trkpt lat="43.52146" lon="2.46033">
        <ele>575.01</ele>
        <time>2020-10-18T14:53:11Z</time>
      </trkpt>
      <trkpt lat="43.5214" lon="2.46024">
        <ele>568.28</ele>
        <time>2020-10-18T14:53:19Z</time>
      </trkpt>
      <trkpt lat="43.52139" lon="2.46011">
        <ele>564.91</ele>
        <time>2020-10-18T14:53:28Z</time>
      </trkpt>
      <trkpt lat="43.52137" lon="2.46003">
        <ele>563.47</ele>
        <time>2020-10-18T14:53:34Z</time>
      </trkpt>
      <trkpt lat="43.52137" lon="2.45994">
        <ele>562.51</ele>
        <time>2020-10-18T14:53:41Z</time>
      </trkpt>
      <trkpt lat="43.52135" lon="2.45979">
        <ele>560.59</ele>
        <time>2020-10-18T14:53:49Z</time>
      </trkpt>
      <trkpt lat="43.5213" lon="2.45966">
        <ele>558.66</ele>
        <time>2020-10-18T14:53:57Z</time>
      </trkpt>
      <trkpt lat="43.52123" lon="2.45939">
        <ele>549.53</ele>
        <time>2020-10-18T14:54:04Z</time>
      </trkpt>
      <trkpt lat="43.52124" lon="2.45938">
        <ele>549.05</ele>
        <time>2020-10-18T14:54:05Z</time>
      </trkpt>
      <trkpt lat="43.52126" lon="2.45929">
        <ele>552.9</ele>
        <time>2020-10-18T14:54:12Z</time>
      </trkpt>
      <trkpt lat="43.52126" lon="2.45923">
        <ele>560.59</ele>
        <time>2020-10-18T14:54:19Z</time>
      </trkpt>
      <trkpt lat="43.52124" lon="2.45921">
        <ele>566.35</ele>
        <time>2020-10-18T14:54:27Z</time>
      </trkpt>
      <trkpt lat="43.52124" lon="2.45921">
        <ele>567.32</ele>
        <time>2020-10-18T14:54:28Z</time>
      </trkpt>
      <trkpt lat="43.52127" lon="2.45917">
        <ele>569.72</ele>
        <time>2020-10-18T14:54:34Z</time>
      </trkpt>
      <trkpt lat="43.52127" lon="2.45915">
        <ele>570.2</ele>
        <time>2020-10-18T14:54:35Z</time>
      </trkpt>
      <trkpt lat="43.52127" lon="2.45909">
        <ele>571.64</ele>
        <time>2020-10-18T14:54:38Z</time>
      </trkpt>
      <trkpt lat="43.5213" lon="2.459">
        <ele>571.64</ele>
        <time>2020-10-18T14:54:43Z</time>
      </trkpt>
      <trkpt lat="43.52127" lon="2.45887">
        <ele>571.64</ele>
        <time>2020-10-18T14:54:51Z</time>
      </trkpt>
      <trkpt lat="43.52125" lon="2.45875">
        <ele>574.04</ele>
        <time>2020-10-18T14:55:00Z</time>
      </trkpt>
      <trkpt lat="43.52122" lon="2.45866">
        <ele>573.56</ele>
        <time>2020-10-18T14:55:07Z</time>
      </trkpt>
      <trkpt lat="43.52121" lon="2.45865">
        <ele>573.56</ele>
        <time>2020-10-18T14:55:08Z</time>
      </trkpt>
      <trkpt lat="43.52117" lon="2.45853">
        <ele>574.53</ele>
        <time>2020-10-18T14:55:17Z</time>
      </trkpt>
      <trkpt lat="43.52115" lon="2.45847">
        <ele>573.08</ele>
        <time>2020-10-18T14:55:21Z</time>
      </trkpt>
      <trkpt lat="43.52115" lon="2.45827">
        <ele>572.6</ele>
        <time>2020-10-18T14:55:30Z</time>
      </trkpt>
      <trkpt lat="43.52113" lon="2.4582">
        <ele>571.64</ele>
        <time>2020-10-18T14:55:34Z</time>
      </trkpt>
      <trkpt lat="43.52111" lon="2.45808">
        <ele>569.72</ele>
        <time>2020-10-18T14:55:42Z</time>
      </trkpt>
      <trkpt lat="43.52107" lon="2.45801">
        <ele>565.39</ele>
        <time>2020-10-18T14:55:49Z</time>
      </trkpt>
      <trkpt lat="43.52104" lon="2.4579">
        <ele>560.11</ele>
        <time>2020-10-18T14:55:56Z</time>
      </trkpt>
      <trkpt lat="43.52099" lon="2.45779">
        <ele>556.74</ele>
        <time>2020-10-18T14:56:02Z</time>
      </trkpt>
      <trkpt lat="43.52094" lon="2.45769">
        <ele>551.45</ele>
        <time>2020-10-18T14:56:08Z</time>
      </trkpt>
      <trkpt lat="43.52088" lon="2.45754">
        <ele>548.09</ele>
        <time>2020-10-18T14:56:16Z</time>
      </trkpt>
      <trkpt lat="43.52085" lon="2.45742">
        <ele>543.28</ele>
        <time>2020-10-18T14:56:22Z</time>
      </trkpt>
      <trkpt lat="43.52081" lon="2.45728">
        <ele>539.44</ele>
        <time>2020-10-18T14:56:29Z</time>
      </trkpt>
      <trkpt lat="43.52077" lon="2.45718">
        <ele>536.07</ele>
        <time>2020-10-18T14:56:34Z</time>
      </trkpt>
      <trkpt lat="43.52074" lon="2.45709">
        <ele>535.11</ele>
        <time>2020-10-18T14:56:40Z</time>
      </trkpt>
      <trkpt lat="43.52074" lon="2.45706">
        <ele>537.03</ele>
        <time>2020-10-18T14:56:50Z</time>
      </trkpt>
      <trkpt lat="43.52074" lon="2.45697">
        <ele>534.63</ele>
        <time>2020-10-18T14:57:05Z</time>
      </trkpt>
      <trkpt lat="43.52073" lon="2.45699">
        <ele>529.34</ele>
        <time>2020-10-18T14:57:13Z</time>
      </trkpt>
      <trkpt lat="43.52071" lon="2.45699">
        <ele>529.82</ele>
        <time>2020-10-18T14:57:22Z</time>
      </trkpt>
      <trkpt lat="43.52068" lon="2.45699">
        <ele>528.86</ele>
        <time>2020-10-18T14:57:35Z</time>
      </trkpt>
      <trkpt lat="43.52067" lon="2.45698">
        <ele>527.42</ele>
        <time>2020-10-18T14:57:45Z</time>
      </trkpt>
      <trkpt lat="43.52067" lon="2.45691">
        <ele>525.5</ele>
        <time>2020-10-18T14:57:53Z</time>
      </trkpt>
      <trkpt lat="43.52067" lon="2.4569">
        <ele>523.09</ele>
        <time>2020-10-18T14:57:56Z</time>
      </trkpt>
      <trkpt lat="43.5206" lon="2.45684">
        <ele>516.85</ele>
        <time>2020-10-18T14:58:05Z</time>
      </trkpt>
      <trkpt lat="43.52054" lon="2.45679">
        <ele>516.37</ele>
        <time>2020-10-18T14:58:13Z</time>
      </trkpt>
      <trkpt lat="43.52049" lon="2.45668">
        <ele>516.85</ele>
        <time>2020-10-18T14:58:20Z</time>
      </trkpt>
      <trkpt lat="43.52046" lon="2.45659">
        <ele>517.81</ele>
        <time>2020-10-18T14:58:28Z</time>
      </trkpt>
      <trkpt lat="43.52044" lon="2.4565">
        <ele>520.21</ele>
        <time>2020-10-18T14:58:35Z</time>
      </trkpt>
      <trkpt lat="43.52041" lon="2.45637">
        <ele>522.61</ele>
        <time>2020-10-18T14:58:42Z</time>
      </trkpt>
      <trkpt lat="43.52036" lon="2.45628">
        <ele>525.98</ele>
        <time>2020-10-18T14:58:49Z</time>
      </trkpt>
      <trkpt lat="43.52034" lon="2.45622">
        <ele>528.38</ele>
        <time>2020-10-18T14:58:54Z</time>
      </trkpt>
      <trkpt lat="43.52032" lon="2.45616">
        <ele>531.75</ele>
        <time>2020-10-18T14:59:01Z</time>
      </trkpt>
      <trkpt lat="43.52028" lon="2.45607">
        <ele>535.59</ele>
        <time>2020-10-18T14:59:08Z</time>
      </trkpt>
      <trkpt lat="43.52026" lon="2.456">
        <ele>539.44</ele>
        <time>2020-10-18T14:59:13Z</time>
      </trkpt>
      <trkpt lat="43.52024" lon="2.4559">
        <ele>540.4</ele>
        <time>2020-10-18T14:59:20Z</time>
      </trkpt>
      <trkpt lat="43.52018" lon="2.45582">
        <ele>537.99</ele>
        <time>2020-10-18T14:59:28Z</time>
      </trkpt>
      <trkpt lat="43.52012" lon="2.45571">
        <ele>534.63</ele>
        <time>2020-10-18T14:59:36Z</time>
      </trkpt>
      <trkpt lat="43.52005" lon="2.45559">
        <ele>529.34</ele>
        <time>2020-10-18T14:59:43Z</time>
      </trkpt>
      <trkpt lat="43.52" lon="2.45549">
        <ele>525.98</ele>
        <time>2020-10-18T14:59:47Z</time>
      </trkpt>
      <trkpt lat="43.51993" lon="2.45538">
        <ele>518.29</ele>
        <time>2020-10-18T14:59:54Z</time>
      </trkpt>
      <trkpt lat="43.51986" lon="2.45523">
        <ele>509.16</ele>
        <time>2020-10-18T15:00:02Z</time>
      </trkpt>
      <trkpt lat="43.51982" lon="2.45517">
        <ele>505.79</ele>
        <time>2020-10-18T15:00:08Z</time>
      </trkpt>
      <trkpt lat="43.51977" lon="2.45513">
        <ele>504.35</ele>
        <time>2020-10-18T15:00:11Z</time>
      </trkpt>
      <trkpt lat="43.51973" lon="2.45502">
        <ele>504.35</ele>
        <time>2020-10-18T15:00:19Z</time>
      </trkpt>
      <trkpt lat="43.51969" lon="2.45489">
        <ele>506.75</ele>
        <time>2020-10-18T15:00:27Z</time>
      </trkpt>
      <trkpt lat="43.51967" lon="2.45479">
        <ele>507.71</ele>
        <time>2020-10-18T15:00:34Z</time>
      </trkpt>
      <trkpt lat="43.51966" lon="2.45474">
        <ele>508.67</ele>
        <time>2020-10-18T15:00:37Z</time>
      </trkpt>
      <trkpt lat="43.51963" lon="2.4546">
        <ele>509.16</ele>
        <time>2020-10-18T15:00:44Z</time>
      </trkpt>
      <trkpt lat="43.51955" lon="2.45445">
        <ele>498.58</ele>
        <time>2020-10-18T15:00:51Z</time>
      </trkpt>
      <trkpt lat="43.51954" lon="2.45439">
        <ele>494.74</ele>
        <time>2020-10-18T15:00:59Z</time>
      </trkpt>
      <trkpt lat="43.51952" lon="2.45428">
        <ele>495.7</ele>
        <time>2020-10-18T15:01:07Z</time>
      </trkpt>
      <trkpt lat="43.51951" lon="2.45416">
        <ele>498.1</ele>
        <time>2020-10-18T15:01:14Z</time>
      </trkpt>
      <trkpt lat="43.51952" lon="2.4541">
        <ele>500.98</ele>
        <time>2020-10-18T15:01:20Z</time>
      </trkpt>
      <trkpt lat="43.51952" lon="2.45401">
        <ele>504.35</ele>
        <time>2020-10-18T15:01:26Z</time>
      </trkpt>
      <trkpt lat="43.51953" lon="2.4539">
        <ele>503.39</ele>
        <time>2020-10-18T15:01:33Z</time>
      </trkpt>
      <trkpt lat="43.51951" lon="2.45385">
        <ele>502.43</ele>
        <time>2020-10-18T15:01:37Z</time>
      </trkpt>
      <trkpt lat="43.51952" lon="2.45378">
        <ele>501.95</ele>
        <time>2020-10-18T15:01:39Z</time>
      </trkpt>
      <trkpt lat="43.51945" lon="2.45368">
        <ele>500.98</ele>
        <time>2020-10-18T15:01:48Z</time>
      </trkpt>
      <trkpt lat="43.51937" lon="2.45368">
        <ele>500.02</ele>
        <time>2020-10-18T15:01:56Z</time>
      </trkpt>
      <trkpt lat="43.51931" lon="2.45374">
        <ele>500.5</ele>
        <time>2020-10-18T15:02:03Z</time>
      </trkpt>
      <trkpt lat="43.5193" lon="2.45377">
        <ele>503.39</ele>
        <time>2020-10-18T15:02:09Z</time>
      </trkpt>
      <trkpt lat="43.51927" lon="2.45383">
        <ele>506.75</ele>
        <time>2020-10-18T15:02:18Z</time>
      </trkpt>
      <trkpt lat="43.51924" lon="2.45388">
        <ele>506.27</ele>
        <time>2020-10-18T15:02:24Z</time>
      </trkpt>
      <trkpt lat="43.51922" lon="2.45392">
        <ele>504.35</ele>
        <time>2020-10-18T15:02:31Z</time>
      </trkpt>
      <trkpt lat="43.51921" lon="2.45398">
        <ele>504.35</ele>
        <time>2020-10-18T15:02:39Z</time>
      </trkpt>
      <trkpt lat="43.5192" lon="2.45405">
        <ele>503.87</ele>
        <time>2020-10-18T15:02:47Z</time>
      </trkpt>
      <trkpt lat="43.51919" lon="2.45409">
        <ele>504.35</ele>
        <time>2020-10-18T15:02:51Z</time>
      </trkpt>
      <trkpt lat="43.51919" lon="2.45413">
        <ele>502.91</ele>
        <time>2020-10-18T15:02:57Z</time>
      </trkpt>
      <trkpt lat="43.5192" lon="2.45423">
        <ele>500.5</ele>
        <time>2020-10-18T15:03:06Z</time>
      </trkpt>
      <trkpt lat="43.51919" lon="2.45427">
        <ele>500.02</ele>
        <time>2020-10-18T15:03:14Z</time>
      </trkpt>
      <trkpt lat="43.51917" lon="2.45432">
        <ele>498.58</ele>
        <time>2020-10-18T15:03:22Z</time>
      </trkpt>
      <trkpt lat="43.51914" lon="2.45439">
        <ele>497.62</ele>
        <time>2020-10-18T15:03:29Z</time>
      </trkpt>
      <trkpt lat="43.5191" lon="2.45445">
        <ele>493.29</ele>
        <time>2020-10-18T15:03:37Z</time>
      </trkpt>
      <trkpt lat="43.51908" lon="2.45453">
        <ele>488.49</ele>
        <time>2020-10-18T15:03:46Z</time>
      </trkpt>
      <trkpt lat="43.51908" lon="2.45453">
        <ele>488.97</ele>
        <time>2020-10-18T15:03:54Z</time>
      </trkpt>
      <trkpt lat="43.51907" lon="2.45449">
        <ele>489.45</ele>
        <time>2020-10-18T15:04:03Z</time>
      </trkpt>
      <trkpt lat="43.51904" lon="2.45449">
        <ele>487.53</ele>
        <time>2020-10-18T15:04:09Z</time>
      </trkpt>
      <trkpt lat="43.51905" lon="2.45447">
        <ele>486.56</ele>
        <time>2020-10-18T15:04:18Z</time>
      </trkpt>
      <trkpt lat="43.51903" lon="2.45442">
        <ele>485.6</ele>
        <time>2020-10-18T15:04:26Z</time>
      </trkpt>
      <trkpt lat="43.51901" lon="2.45436">
        <ele>483.68</ele>
        <time>2020-10-18T15:04:34Z</time>
      </trkpt>
      <trkpt lat="43.51901" lon="2.45434">
        <ele>479.84</ele>
        <time>2020-10-18T15:04:41Z</time>
      </trkpt>
      <trkpt lat="43.51899" lon="2.45432">
        <ele>478.39</ele>
        <time>2020-10-18T15:04:46Z</time>
      </trkpt>
      <trkpt lat="43.51897" lon="2.45425">
        <ele>475.99</ele>
        <time>2020-10-18T15:04:52Z</time>
      </trkpt>
      <trkpt lat="43.51896" lon="2.45416">
        <ele>476.95</ele>
        <time>2020-10-18T15:04:59Z</time>
      </trkpt>
      <trkpt lat="43.51894" lon="2.45408">
        <ele>478.87</ele>
        <time>2020-10-18T15:05:06Z</time>
      </trkpt>
      <trkpt lat="43.51892" lon="2.45402">
        <ele>477.91</ele>
        <time>2020-10-18T15:05:13Z</time>
      </trkpt>
      <trkpt lat="43.51891" lon="2.45392">
        <ele>477.43</ele>
        <time>2020-10-18T15:05:20Z</time>
      </trkpt>
      <trkpt lat="43.5189" lon="2.45389">
        <ele>477.43</ele>
        <time>2020-10-18T15:05:22Z</time>
      </trkpt>
      <trkpt lat="43.51889" lon="2.45384">
        <ele>473.11</ele>
        <time>2020-10-18T15:05:31Z</time>
      </trkpt>
      <trkpt lat="43.51887" lon="2.45384">
        <ele>472.63</ele>
        <time>2020-10-18T15:05:49Z</time>
      </trkpt>
      <trkpt lat="43.51883" lon="2.45377">
        <ele>470.7</ele>
        <time>2020-10-18T15:06:07Z</time>
      </trkpt>
      <trkpt lat="43.51881" lon="2.45368">
        <ele>466.38</ele>
        <time>2020-10-18T15:06:20Z</time>
      </trkpt>
      <trkpt lat="43.51877" lon="2.4536">
        <ele>463.49</ele>
        <time>2020-10-18T15:06:37Z</time>
      </trkpt>
      <trkpt lat="43.51874" lon="2.45357">
        <ele>462.53</ele>
        <time>2020-10-18T15:06:53Z</time>
      </trkpt>
      <trkpt lat="43.51876" lon="2.45359">
        <ele>458.69</ele>
        <time>2020-10-18T15:07:16Z</time>
      </trkpt>
      <trkpt lat="43.51875" lon="2.45363">
        <ele>455.32</ele>
        <time>2020-10-18T15:07:33Z</time>
      </trkpt>
      <trkpt lat="43.51875" lon="2.45363">
        <ele>454.84</ele>
        <time>2020-10-18T15:07:34Z</time>
      </trkpt>
      <trkpt lat="43.51874" lon="2.45367">
        <ele>453.4</ele>
        <time>2020-10-18T15:07:41Z</time>
      </trkpt>
      <trkpt lat="43.51871" lon="2.45364">
        <ele>452.92</ele>
        <time>2020-10-18T15:07:46Z</time>
      </trkpt>
      <trkpt lat="43.51871" lon="2.45361">
        <ele>453.88</ele>
        <time>2020-10-18T15:07:52Z</time>
      </trkpt>
      <trkpt lat="43.51871" lon="2.45349">
        <ele>455.8</ele>
        <time>2020-10-18T15:08:01Z</time>
      </trkpt>
      <trkpt lat="43.51869" lon="2.45338">
        <ele>455.8</ele>
        <time>2020-10-18T15:08:08Z</time>
      </trkpt>
      <trkpt lat="43.51867" lon="2.45326">
        <ele>456.28</ele>
        <time>2020-10-18T15:08:16Z</time>
      </trkpt>
      <trkpt lat="43.51863" lon="2.45315">
        <ele>458.21</ele>
        <time>2020-10-18T15:08:23Z</time>
      </trkpt>
      <trkpt lat="43.5186" lon="2.45305">
        <ele>459.17</ele>
        <time>2020-10-18T15:08:28Z</time>
      </trkpt>
      <trkpt lat="43.51859" lon="2.453">
        <ele>460.13</ele>
        <time>2020-10-18T15:08:32Z</time>
      </trkpt>
      <trkpt lat="43.51859" lon="2.45298">
        <ele>460.13</ele>
        <time>2020-10-18T15:08:33Z</time>
      </trkpt>
      <trkpt lat="43.51859" lon="2.45296">
        <ele>460.61</ele>
        <time>2020-10-18T15:08:34Z</time>
      </trkpt>
      <trkpt lat="43.51859" lon="2.45293">
        <ele>461.09</ele>
        <time>2020-10-18T15:08:35Z</time>
      </trkpt>
      <trkpt lat="43.51859" lon="2.4529">
        <ele>461.57</ele>
        <time>2020-10-18T15:08:36Z</time>
      </trkpt>
      <trkpt lat="43.51858" lon="2.45288">
        <ele>462.05</ele>
        <time>2020-10-18T15:08:37Z</time>
      </trkpt>
      <trkpt lat="43.51858" lon="2.45286">
        <ele>462.05</ele>
        <time>2020-10-18T15:08:38Z</time>
      </trkpt>
      <trkpt lat="43.51857" lon="2.45284">
        <ele>462.05</ele>
        <time>2020-10-18T15:08:39Z</time>
      </trkpt>
      <trkpt lat="43.51857" lon="2.45281">
        <ele>461.57</ele>
        <time>2020-10-18T15:08:40Z</time>
      </trkpt>
      <trkpt lat="43.51857" lon="2.45267">
        <ele>458.69</ele>
        <time>2020-10-18T15:08:47Z</time>
      </trkpt>
      <trkpt lat="43.51858" lon="2.45263">
        <ele>458.21</ele>
        <time>2020-10-18T15:08:49Z</time>
      </trkpt>
      <trkpt lat="43.51859" lon="2.45261">
        <ele>457.72</ele>
        <time>2020-10-18T15:08:50Z</time>
      </trkpt>
      <trkpt lat="43.5186" lon="2.45252">
        <ele>456.76</ele>
        <time>2020-10-18T15:08:56Z</time>
      </trkpt>
      <trkpt lat="43.51856" lon="2.45243">
        <ele>455.32</ele>
        <time>2020-10-18T15:09:02Z</time>
      </trkpt>
      <trkpt lat="43.5186" lon="2.45236">
        <ele>455.32</ele>
        <time>2020-10-18T15:09:06Z</time>
      </trkpt>
      <trkpt lat="43.51856" lon="2.4522">
        <ele>449.07</ele>
        <time>2020-10-18T15:09:13Z</time>
      </trkpt>
      <trkpt lat="43.51861" lon="2.45199">
        <ele>446.19</ele>
        <time>2020-10-18T15:09:22Z</time>
      </trkpt>
      <trkpt lat="43.5187" lon="2.45185">
        <ele>446.19</ele>
        <time>2020-10-18T15:09:30Z</time>
      </trkpt>
      <trkpt lat="43.51872" lon="2.45183">
        <ele>446.19</ele>
        <time>2020-10-18T15:09:31Z</time>
      </trkpt>
      <trkpt lat="43.51878" lon="2.45174">
        <ele>446.67</ele>
        <time>2020-10-18T15:09:38Z</time>
      </trkpt>
      <trkpt lat="43.51882" lon="2.45167">
        <ele>447.63</ele>
        <time>2020-10-18T15:09:46Z</time>
      </trkpt>
      <trkpt lat="43.51887" lon="2.45161">
        <ele>447.63</ele>
        <time>2020-10-18T15:09:52Z</time>
      </trkpt>
      <trkpt lat="43.5189" lon="2.45149">
        <ele>447.63</ele>
        <time>2020-10-18T15:09:59Z</time>
      </trkpt>
      <trkpt lat="43.51896" lon="2.45137">
        <ele>447.63</ele>
        <time>2020-10-18T15:10:05Z</time>
      </trkpt>
      <trkpt lat="43.51896" lon="2.45128">
        <ele>448.11</ele>
        <time>2020-10-18T15:10:11Z</time>
      </trkpt>
      <trkpt lat="43.51903" lon="2.45118">
        <ele>445.23</ele>
        <time>2020-10-18T15:10:18Z</time>
      </trkpt>
      <trkpt lat="43.51907" lon="2.45108">
        <ele>443.31</ele>
        <time>2020-10-18T15:10:25Z</time>
      </trkpt>
      <trkpt lat="43.51908" lon="2.45101">
        <ele>441.86</ele>
        <time>2020-10-18T15:10:34Z</time>
      </trkpt>
      <trkpt lat="43.51914" lon="2.45092">
        <ele>441.38</ele>
        <time>2020-10-18T15:10:41Z</time>
      </trkpt>
      <trkpt lat="43.51917" lon="2.45082">
        <ele>441.86</ele>
        <time>2020-10-18T15:10:49Z</time>
      </trkpt>
      <trkpt lat="43.5192" lon="2.45069">
        <ele>445.71</ele>
        <time>2020-10-18T15:10:56Z</time>
      </trkpt>
      <trkpt lat="43.51918" lon="2.45068">
        <ele>447.63</ele>
        <time>2020-10-18T15:10:59Z</time>
      </trkpt>
      <trkpt lat="43.51917" lon="2.45068">
        <ele>448.59</ele>
        <time>2020-10-18T15:11:00Z</time>
      </trkpt>
      <trkpt lat="43.51915" lon="2.45069">
        <ele>449.55</ele>
        <time>2020-10-18T15:11:02Z</time>
      </trkpt>
      <trkpt lat="43.51914" lon="2.4507">
        <ele>451</ele>
        <time>2020-10-18T15:11:04Z</time>
      </trkpt>
      <trkpt lat="43.5191" lon="2.45074">
        <ele>456.28</ele>
        <time>2020-10-18T15:11:12Z</time>
      </trkpt>
      <trkpt lat="43.51906" lon="2.45071">
        <ele>455.8</ele>
        <time>2020-10-18T15:11:18Z</time>
      </trkpt>
      <trkpt lat="43.51903" lon="2.4507">
        <ele>456.76</ele>
        <time>2020-10-18T15:11:26Z</time>
      </trkpt>
      <trkpt lat="43.51898" lon="2.45069">
        <ele>456.28</ele>
        <time>2020-10-18T15:11:34Z</time>
      </trkpt>
      <trkpt lat="43.51893" lon="2.45068">
        <ele>451</ele>
        <time>2020-10-18T15:11:42Z</time>
      </trkpt>
      <trkpt lat="43.51889" lon="2.45067">
        <ele>451.48</ele>
        <time>2020-10-18T15:11:55Z</time>
      </trkpt>
      <trkpt lat="43.51886" lon="2.45069">
        <ele>448.59</ele>
        <time>2020-10-18T15:12:02Z</time>
      </trkpt>
      <trkpt lat="43.51883" lon="2.45069">
        <ele>443.31</ele>
        <time>2020-10-18T15:12:13Z</time>
      </trkpt>
      <trkpt lat="43.51879" lon="2.45061">
        <ele>439.46</ele>
        <time>2020-10-18T15:12:21Z</time>
      </trkpt>
      <trkpt lat="43.51869" lon="2.45059">
        <ele>426</ele>
        <time>2020-10-18T15:12:26Z</time>
      </trkpt>
      <trkpt lat="43.51869" lon="2.4506">
        <ele>422.16</ele>
        <time>2020-10-18T15:12:31Z</time>
      </trkpt>
      <trkpt lat="43.51868" lon="2.45059">
        <ele>421.19</ele>
        <time>2020-10-18T15:12:32Z</time>
      </trkpt>
      <trkpt lat="43.51867" lon="2.45058">
        <ele>420.23</ele>
        <time>2020-10-18T15:12:34Z</time>
      </trkpt>
      <trkpt lat="43.51867" lon="2.45057">
        <ele>419.75</ele>
        <time>2020-10-18T15:12:35Z</time>
      </trkpt>
      <trkpt lat="43.51865" lon="2.45052">
        <ele>418.31</ele>
        <time>2020-10-18T15:12:42Z</time>
      </trkpt>
      <trkpt lat="43.51865" lon="2.4505">
        <ele>417.83</ele>
        <time>2020-10-18T15:12:47Z</time>
      </trkpt>
      <trkpt lat="43.51863" lon="2.45045">
        <ele>417.35</ele>
        <time>2020-10-18T15:12:51Z</time>
      </trkpt>
      <trkpt lat="43.51862" lon="2.45043">
        <ele>417.35</ele>
        <time>2020-10-18T15:12:53Z</time>
      </trkpt>
      <trkpt lat="43.51861" lon="2.45041">
        <ele>418.31</ele>
        <time>2020-10-18T15:12:55Z</time>
      </trkpt>
      <trkpt lat="43.51861" lon="2.45039">
        <ele>418.31</ele>
        <time>2020-10-18T15:12:56Z</time>
      </trkpt>
      <trkpt lat="43.51858" lon="2.45034">
        <ele>419.75</ele>
        <time>2020-10-18T15:13:01Z</time>
      </trkpt>
      <trkpt lat="43.51852" lon="2.45022">
        <ele>423.6</ele>
        <time>2020-10-18T15:13:11Z</time>
      </trkpt>
      <trkpt lat="43.51849" lon="2.45012">
        <ele>424.08</ele>
        <time>2020-10-18T15:13:17Z</time>
      </trkpt>
      <trkpt lat="43.51848" lon="2.45009">
        <ele>423.6</ele>
        <time>2020-10-18T15:13:20Z</time>
      </trkpt>
      <trkpt lat="43.51845" lon="2.45001">
        <ele>424.08</ele>
        <time>2020-10-18T15:13:27Z</time>
      </trkpt>
      <trkpt lat="43.51842" lon="2.44996">
        <ele>425.04</ele>
        <time>2020-10-18T15:13:31Z</time>
      </trkpt>
      <trkpt lat="43.51842" lon="2.44994">
        <ele>425.52</ele>
        <time>2020-10-18T15:13:32Z</time>
      </trkpt>
      <trkpt lat="43.51836" lon="2.44987">
        <ele>425.04</ele>
        <time>2020-10-18T15:13:39Z</time>
      </trkpt>
      <trkpt lat="43.51832" lon="2.44983">
        <ele>423.6</ele>
        <time>2020-10-18T15:13:47Z</time>
      </trkpt>
      <trkpt lat="43.51832" lon="2.44977">
        <ele>423.12</ele>
        <time>2020-10-18T15:13:53Z</time>
      </trkpt>
      <trkpt lat="43.51831" lon="2.4497">
        <ele>422.16</ele>
        <time>2020-10-18T15:13:59Z</time>
      </trkpt>
      <trkpt lat="43.5183" lon="2.44967">
        <ele>422.64</ele>
        <time>2020-10-18T15:14:02Z</time>
      </trkpt>
      <trkpt lat="43.51826" lon="2.4496">
        <ele>425.04</ele>
        <time>2020-10-18T15:14:10Z</time>
      </trkpt>
      <trkpt lat="43.51822" lon="2.44958">
        <ele>425.52</ele>
        <time>2020-10-18T15:14:18Z</time>
      </trkpt>
      <trkpt lat="43.51821" lon="2.44955">
        <ele>425.52</ele>
        <time>2020-10-18T15:14:21Z</time>
      </trkpt>
      <trkpt lat="43.5182" lon="2.44954">
        <ele>426</ele>
        <time>2020-10-18T15:14:22Z</time>
      </trkpt>
      <trkpt lat="43.51818" lon="2.44949">
        <ele>427.44</ele>
        <time>2020-10-18T15:14:28Z</time>
      </trkpt>
      <trkpt lat="43.51816" lon="2.44944">
        <ele>428.4</ele>
        <time>2020-10-18T15:14:35Z</time>
      </trkpt>
      <trkpt lat="43.5181" lon="2.44936">
        <ele>429.85</ele>
        <time>2020-10-18T15:14:42Z</time>
      </trkpt>
      <trkpt lat="43.51806" lon="2.44932">
        <ele>430.81</ele>
        <time>2020-10-18T15:14:48Z</time>
      </trkpt>
      <trkpt lat="43.51803" lon="2.4493">
        <ele>431.77</ele>
        <time>2020-10-18T15:14:52Z</time>
      </trkpt>
      <trkpt lat="43.51801" lon="2.4493">
        <ele>431.77</ele>
        <time>2020-10-18T15:14:53Z</time>
      </trkpt>
      <trkpt lat="43.51796" lon="2.44924">
        <ele>432.25</ele>
        <time>2020-10-18T15:14:59Z</time>
      </trkpt>
      <trkpt lat="43.51794" lon="2.44922">
        <ele>432.73</ele>
        <time>2020-10-18T15:15:02Z</time>
      </trkpt>
      <trkpt lat="43.51793" lon="2.44922">
        <ele>432.73</ele>
        <time>2020-10-18T15:15:03Z</time>
      </trkpt>
      <trkpt lat="43.51792" lon="2.44921">
        <ele>432.73</ele>
        <time>2020-10-18T15:15:04Z</time>
      </trkpt>
      <trkpt lat="43.5179" lon="2.44922">
        <ele>432.73</ele>
        <time>2020-10-18T15:15:05Z</time>
      </trkpt>
      <trkpt lat="43.51789" lon="2.44922">
        <ele>432.73</ele>
        <time>2020-10-18T15:15:06Z</time>
      </trkpt>
      <trkpt lat="43.51749" lon="2.44878">
        <ele>433.69</ele>
        <time>2020-10-18T15:15:47Z</time>
      </trkpt>
      <trkpt lat="43.5174" lon="2.44875">
        <ele>427.92</ele>
        <time>2020-10-18T15:15:54Z</time>
      </trkpt>
      <trkpt lat="43.51736" lon="2.44866">
        <ele>419.75</ele>
        <time>2020-10-18T15:16:02Z</time>
      </trkpt>
      <trkpt lat="43.51729" lon="2.44862">
        <ele>419.75</ele>
        <time>2020-10-18T15:16:09Z</time>
      </trkpt>
      <trkpt lat="43.51728" lon="2.44861">
        <ele>419.75</ele>
        <time>2020-10-18T15:16:10Z</time>
      </trkpt>
      <trkpt lat="43.51727" lon="2.44861">
        <ele>420.23</ele>
        <time>2020-10-18T15:16:14Z</time>
      </trkpt>
      <trkpt lat="43.51725" lon="2.44862">
        <ele>419.75</ele>
        <time>2020-10-18T15:16:15Z</time>
      </trkpt>
      <trkpt lat="43.51723" lon="2.44863">
        <ele>418.79</ele>
        <time>2020-10-18T15:16:16Z</time>
      </trkpt>
      <trkpt lat="43.51721" lon="2.44864">
        <ele>418.79</ele>
        <time>2020-10-18T15:16:17Z</time>
      </trkpt>
      <trkpt lat="43.5172" lon="2.44865">
        <ele>418.79</ele>
        <time>2020-10-18T15:16:18Z</time>
      </trkpt>
      <trkpt lat="43.51719" lon="2.44867">
        <ele>418.79</ele>
        <time>2020-10-18T15:16:19Z</time>
      </trkpt>
      <trkpt lat="43.51718" lon="2.44868">
        <ele>419.27</ele>
        <time>2020-10-18T15:16:20Z</time>
      </trkpt>
      <trkpt lat="43.51711" lon="2.44878">
        <ele>421.19</ele>
        <time>2020-10-18T15:16:29Z</time>
      </trkpt>
      <trkpt lat="43.51707" lon="2.44883">
        <ele>422.64</ele>
        <time>2020-10-18T15:16:33Z</time>
      </trkpt>
      <trkpt lat="43.51706" lon="2.44884">
        <ele>423.12</ele>
        <time>2020-10-18T15:16:34Z</time>
      </trkpt>
      <trkpt lat="43.51694" lon="2.44898">
        <ele>423.12</ele>
        <time>2020-10-18T15:16:45Z</time>
      </trkpt>
      <trkpt lat="43.51683" lon="2.44905">
        <ele>420.71</ele>
        <time>2020-10-18T15:16:53Z</time>
      </trkpt>
      <trkpt lat="43.51673" lon="2.44912">
        <ele>422.16</ele>
        <time>2020-10-18T15:17:01Z</time>
      </trkpt>
      <trkpt lat="43.51672" lon="2.44916">
        <ele>423.6</ele>
        <time>2020-10-18T15:17:07Z</time>
      </trkpt>
      <trkpt lat="43.51672" lon="2.44915">
        <ele>423.12</ele>
        <time>2020-10-18T15:17:10Z</time>
      </trkpt>
      <trkpt lat="43.51674" lon="2.44912">
        <ele>422.64</ele>
        <time>2020-10-18T15:17:14Z</time>
      </trkpt>
      <trkpt lat="43.51671" lon="2.44903">
        <ele>421.68</ele>
        <time>2020-10-18T15:17:21Z</time>
      </trkpt>
      <trkpt lat="43.51669" lon="2.44903">
        <ele>422.16</ele>
        <time>2020-10-18T15:17:28Z</time>
      </trkpt>
      <trkpt lat="43.51669" lon="2.44906">
        <ele>420.71</ele>
        <time>2020-10-18T15:17:45Z</time>
      </trkpt>
      <trkpt lat="43.51677" lon="2.44909">
        <ele>417.83</ele>
        <time>2020-10-18T15:17:53Z</time>
      </trkpt>
      <trkpt lat="43.51682" lon="2.4491">
        <ele>417.35</ele>
        <time>2020-10-18T15:17:59Z</time>
      </trkpt>
      <trkpt lat="43.51685" lon="2.44907">
        <ele>418.31</ele>
        <time>2020-10-18T15:18:04Z</time>
      </trkpt>
      <trkpt lat="43.51691" lon="2.44907">
        <ele>419.27</ele>
        <time>2020-10-18T15:18:11Z</time>
      </trkpt>
      <trkpt lat="43.51695" lon="2.44904">
        <ele>420.71</ele>
        <time>2020-10-18T15:18:17Z</time>
      </trkpt>
      <trkpt lat="43.51703" lon="2.44897">
        <ele>422.64</ele>
        <time>2020-10-18T15:18:24Z</time>
      </trkpt>
      <trkpt lat="43.51708" lon="2.4489">
        <ele>422.64</ele>
        <time>2020-10-18T15:18:31Z</time>
      </trkpt>
      <trkpt lat="43.51709" lon="2.44889">
        <ele>422.64</ele>
        <time>2020-10-18T15:18:32Z</time>
      </trkpt>
      <trkpt lat="43.5171" lon="2.44887">
        <ele>422.64</ele>
        <time>2020-10-18T15:18:33Z</time>
      </trkpt>
      <trkpt lat="43.51711" lon="2.44885">
        <ele>423.12</ele>
        <time>2020-10-18T15:18:34Z</time>
      </trkpt>
      <trkpt lat="43.51712" lon="2.44883">
        <ele>423.12</ele>
        <time>2020-10-18T15:18:35Z</time>
      </trkpt>
      <trkpt lat="43.51713" lon="2.44882">
        <ele>423.12</ele>
        <time>2020-10-18T15:18:36Z</time>
      </trkpt>
      <trkpt lat="43.51714" lon="2.44881">
        <ele>423.12</ele>
        <time>2020-10-18T15:18:37Z</time>
      </trkpt>
      <trkpt lat="43.51715" lon="2.44879">
        <ele>423.12</ele>
        <time>2020-10-18T15:18:38Z</time>
      </trkpt>
      <trkpt lat="43.51716" lon="2.44877">
        <ele>423.12</ele>
        <time>2020-10-18T15:18:39Z</time>
      </trkpt>
      <trkpt lat="43.51717" lon="2.44875">
        <ele>423.12</ele>
        <time>2020-10-18T15:18:40Z</time>
      </trkpt>
      <trkpt lat="43.51721" lon="2.44867">
        <ele>421.68</ele>
        <time>2020-10-18T15:18:46Z</time>
      </trkpt>
      <trkpt lat="43.51721" lon="2.44866">
        <ele>421.68</ele>
        <time>2020-10-18T15:18:47Z</time>
      </trkpt>
      <trkpt lat="43.51721" lon="2.44864">
        <ele>421.68</ele>
        <time>2020-10-18T15:18:48Z</time>
      </trkpt>
      <trkpt lat="43.51721" lon="2.44862">
        <ele>421.68</ele>
        <time>2020-10-18T15:18:49Z</time>
      </trkpt>
      <trkpt lat="43.51721" lon="2.4486">
        <ele>421.68</ele>
        <time>2020-10-18T15:18:50Z</time>
      </trkpt>
      <trkpt lat="43.51721" lon="2.44858">
        <ele>421.68</ele>
        <time>2020-10-18T15:18:51Z</time>
      </trkpt>
      <trkpt lat="43.51721" lon="2.44854">
        <ele>421.68</ele>
        <time>2020-10-18T15:18:53Z</time>
      </trkpt>
      <trkpt lat="43.51722" lon="2.44853">
        <ele>421.68</ele>
        <time>2020-10-18T15:18:54Z</time>
      </trkpt>
      <trkpt lat="43.51722" lon="2.44849">
        <ele>421.68</ele>
        <time>2020-10-18T15:18:56Z</time>
      </trkpt>
      <trkpt lat="43.51722" lon="2.44847">
        <ele>421.68</ele>
        <time>2020-10-18T15:18:57Z</time>
      </trkpt>
      <trkpt lat="43.51722" lon="2.44843">
        <ele>422.16</ele>
        <time>2020-10-18T15:18:59Z</time>
      </trkpt>
      <trkpt lat="43.51722" lon="2.44839">
        <ele>422.64</ele>
        <time>2020-10-18T15:19:02Z</time>
      </trkpt>
      <trkpt lat="43.51722" lon="2.44837">
        <ele>422.64</ele>
        <time>2020-10-18T15:19:03Z</time>
      </trkpt>
      <trkpt lat="43.51723" lon="2.44825">
        <ele>423.6</ele>
        <time>2020-10-18T15:19:11Z</time>
      </trkpt>
      <trkpt lat="43.51723" lon="2.44818">
        <ele>424.08</ele>
        <time>2020-10-18T15:19:15Z</time>
      </trkpt>
      <trkpt lat="43.51722" lon="2.44808">
        <ele>424.08</ele>
        <time>2020-10-18T15:19:21Z</time>
      </trkpt>
      <trkpt lat="43.51721" lon="2.44806">
        <ele>424.08</ele>
        <time>2020-10-18T15:19:22Z</time>
      </trkpt>
      <trkpt lat="43.5172" lon="2.44805">
        <ele>424.08</ele>
        <time>2020-10-18T15:19:23Z</time>
      </trkpt>
      <trkpt lat="43.51719" lon="2.44799">
        <ele>423.6</ele>
        <time>2020-10-18T15:19:28Z</time>
      </trkpt>
      <trkpt lat="43.51714" lon="2.4479">
        <ele>422.64</ele>
        <time>2020-10-18T15:19:34Z</time>
      </trkpt>
      <trkpt lat="43.51708" lon="2.44779">
        <ele>420.23</ele>
        <time>2020-10-18T15:19:43Z</time>
      </trkpt>
      <trkpt lat="43.51703" lon="2.44771">
        <ele>419.75</ele>
        <time>2020-10-18T15:19:50Z</time>
      </trkpt>
      <trkpt lat="43.51694" lon="2.44765">
        <ele>418.79</ele>
        <time>2020-10-18T15:19:59Z</time>
      </trkpt>
      <trkpt lat="43.51692" lon="2.44761">
        <ele>418.31</ele>
        <time>2020-10-18T15:20:04Z</time>
      </trkpt>
      <trkpt lat="43.51688" lon="2.44754">
        <ele>420.23</ele>
        <time>2020-10-18T15:20:10Z</time>
      </trkpt>
      <trkpt lat="43.51687" lon="2.44747">
        <ele>422.16</ele>
        <time>2020-10-18T15:20:16Z</time>
      </trkpt>
      <trkpt lat="43.51684" lon="2.44736">
        <ele>426</ele>
        <time>2020-10-18T15:20:23Z</time>
      </trkpt>
      <trkpt lat="43.51683" lon="2.4473">
        <ele>428.89</ele>
        <time>2020-10-18T15:20:27Z</time>
      </trkpt>
      <trkpt lat="43.51683" lon="2.44729">
        <ele>429.37</ele>
        <time>2020-10-18T15:20:28Z</time>
      </trkpt>
      <trkpt lat="43.51683" lon="2.44727">
        <ele>429.85</ele>
        <time>2020-10-18T15:20:29Z</time>
      </trkpt>
      <trkpt lat="43.51681" lon="2.44714">
        <ele>432.25</ele>
        <time>2020-10-18T15:20:37Z</time>
      </trkpt>
      <trkpt lat="43.51677" lon="2.44704">
        <ele>433.69</ele>
        <time>2020-10-18T15:20:44Z</time>
      </trkpt>
      <trkpt lat="43.51674" lon="2.44698">
        <ele>434.17</ele>
        <time>2020-10-18T15:20:50Z</time>
      </trkpt>
      <trkpt lat="43.51668" lon="2.44688">
        <ele>433.69</ele>
        <time>2020-10-18T15:20:58Z</time>
      </trkpt>
      <trkpt lat="43.51664" lon="2.44681">
        <ele>433.21</ele>
        <time>2020-10-18T15:21:04Z</time>
      </trkpt>
      <trkpt lat="43.51664" lon="2.44679">
        <ele>433.21</ele>
        <time>2020-10-18T15:21:05Z</time>
      </trkpt>
      <trkpt lat="43.51662" lon="2.44674">
        <ele>433.69</ele>
        <time>2020-10-18T15:21:08Z</time>
      </trkpt>
      <trkpt lat="43.51661" lon="2.44667">
        <ele>434.17</ele>
        <time>2020-10-18T15:21:12Z</time>
      </trkpt>
      <trkpt lat="43.5166" lon="2.44664">
        <ele>434.17</ele>
        <time>2020-10-18T15:21:14Z</time>
      </trkpt>
      <trkpt lat="43.51659" lon="2.44663">
        <ele>434.17</ele>
        <time>2020-10-18T15:21:15Z</time>
      </trkpt>
      <trkpt lat="43.51654" lon="2.44655">
        <ele>435.13</ele>
        <time>2020-10-18T15:21:22Z</time>
      </trkpt>
      <trkpt lat="43.51646" lon="2.44647">
        <ele>436.1</ele>
        <time>2020-10-18T15:21:30Z</time>
      </trkpt>
      <trkpt lat="43.51639" lon="2.44633">
        <ele>437.06</ele>
        <time>2020-10-18T15:21:39Z</time>
      </trkpt>
      <trkpt lat="43.51631" lon="2.44625">
        <ele>438.02</ele>
        <time>2020-10-18T15:21:48Z</time>
      </trkpt>
      <trkpt lat="43.51628" lon="2.44624">
        <ele>438.5</ele>
        <time>2020-10-18T15:21:55Z</time>
      </trkpt>
      <trkpt lat="43.51626" lon="2.44622">
        <ele>439.94</ele>
        <time>2020-10-18T15:22:05Z</time>
      </trkpt>
      <trkpt lat="43.51623" lon="2.4462">
        <ele>438.5</ele>
        <time>2020-10-18T15:22:15Z</time>
      </trkpt>
      <trkpt lat="43.51623" lon="2.44623">
        <ele>438.02</ele>
        <time>2020-10-18T15:22:27Z</time>
      </trkpt>
      <trkpt lat="43.51624" lon="2.44623">
        <ele>437.54</ele>
        <time>2020-10-18T15:22:28Z</time>
      </trkpt>
      <trkpt lat="43.51623" lon="2.4462">
        <ele>436.1</ele>
        <time>2020-10-18T15:22:31Z</time>
      </trkpt>
      <trkpt lat="43.51622" lon="2.44619">
        <ele>435.61</ele>
        <time>2020-10-18T15:22:32Z</time>
      </trkpt>
      <trkpt lat="43.51621" lon="2.44619">
        <ele>435.61</ele>
        <time>2020-10-18T15:22:33Z</time>
      </trkpt>
      <trkpt lat="43.51612" lon="2.44617">
        <ele>434.17</ele>
        <time>2020-10-18T15:22:42Z</time>
      </trkpt>
      <trkpt lat="43.51606" lon="2.44616">
        <ele>434.65</ele>
        <time>2020-10-18T15:22:48Z</time>
      </trkpt>
      <trkpt lat="43.51598" lon="2.44609">
        <ele>437.54</ele>
        <time>2020-10-18T15:22:56Z</time>
      </trkpt>
      <trkpt lat="43.51596" lon="2.44604">
        <ele>438.5</ele>
        <time>2020-10-18T15:22:59Z</time>
      </trkpt>
      <trkpt lat="43.51596" lon="2.44603">
        <ele>438.98</ele>
        <time>2020-10-18T15:23:00Z</time>
      </trkpt>
      <trkpt lat="43.51595" lon="2.44602">
        <ele>438.98</ele>
        <time>2020-10-18T15:23:01Z</time>
      </trkpt>
      <trkpt lat="43.51595" lon="2.446">
        <ele>438.98</ele>
        <time>2020-10-18T15:23:02Z</time>
      </trkpt>
      <trkpt lat="43.51595" lon="2.44599">
        <ele>438.98</ele>
        <time>2020-10-18T15:23:03Z</time>
      </trkpt>
      <trkpt lat="43.51594" lon="2.44597">
        <ele>438.98</ele>
        <time>2020-10-18T15:23:04Z</time>
      </trkpt>
      <trkpt lat="43.51594" lon="2.44595">
        <ele>439.46</ele>
        <time>2020-10-18T15:23:07Z</time>
      </trkpt>
      <trkpt lat="43.51595" lon="2.44593">
        <ele>439.94</ele>
        <time>2020-10-18T15:23:14Z</time>
      </trkpt>
      <trkpt lat="43.51593" lon="2.44591">
        <ele>439.94</ele>
        <time>2020-10-18T15:23:26Z</time>
      </trkpt>
      <trkpt lat="43.51594" lon="2.4459">
        <ele>439.94</ele>
        <time>2020-10-18T15:23:36Z</time>
      </trkpt>
      <trkpt lat="43.51597" lon="2.44584">
        <ele>440.42</ele>
        <time>2020-10-18T15:23:42Z</time>
      </trkpt>
      <trkpt lat="43.51602" lon="2.44576">
        <ele>440.9</ele>
        <time>2020-10-18T15:23:50Z</time>
      </trkpt>
      <trkpt lat="43.51608" lon="2.44567">
        <ele>441.86</ele>
        <time>2020-10-18T15:23:58Z</time>
      </trkpt>
      <trkpt lat="43.51612" lon="2.44554">
        <ele>441.38</ele>
        <time>2020-10-18T15:24:08Z</time>
      </trkpt>
      <trkpt lat="43.51618" lon="2.44543">
        <ele>442.34</ele>
        <time>2020-10-18T15:24:18Z</time>
      </trkpt>
      <trkpt lat="43.51625" lon="2.44528">
        <ele>444.27</ele>
        <time>2020-10-18T15:24:29Z</time>
      </trkpt>
      <trkpt lat="43.51632" lon="2.44517">
        <ele>446.19</ele>
        <time>2020-10-18T15:24:38Z</time>
      </trkpt>
      <trkpt lat="43.51635" lon="2.44511">
        <ele>447.15</ele>
        <time>2020-10-18T15:24:45Z</time>
      </trkpt>
      <trkpt lat="43.51636" lon="2.44506">
        <ele>446.19</ele>
        <time>2020-10-18T15:24:51Z</time>
      </trkpt>
      <trkpt lat="43.51637" lon="2.44504">
        <ele>446.19</ele>
        <time>2020-10-18T15:24:52Z</time>
      </trkpt>
      <trkpt lat="43.51638" lon="2.44502">
        <ele>446.19</ele>
        <time>2020-10-18T15:24:53Z</time>
      </trkpt>
      <trkpt lat="43.51642" lon="2.44488">
        <ele>448.59</ele>
        <time>2020-10-18T15:25:00Z</time>
      </trkpt>
      <trkpt lat="43.51644" lon="2.44479">
        <ele>451.48</ele>
        <time>2020-10-18T15:25:07Z</time>
      </trkpt>
      <trkpt lat="43.51643" lon="2.4447">
        <ele>454.36</ele>
        <time>2020-10-18T15:25:14Z</time>
      </trkpt>
      <trkpt lat="43.51644" lon="2.44458">
        <ele>456.76</ele>
        <time>2020-10-18T15:25:22Z</time>
      </trkpt>
      <trkpt lat="43.51647" lon="2.44443">
        <ele>462.05</ele>
        <time>2020-10-18T15:25:30Z</time>
      </trkpt>
      <trkpt lat="43.51649" lon="2.44433">
        <ele>466.38</ele>
        <time>2020-10-18T15:25:37Z</time>
      </trkpt>
      <trkpt lat="43.51651" lon="2.44422">
        <ele>470.22</ele>
        <time>2020-10-18T15:25:44Z</time>
      </trkpt>
      <trkpt lat="43.5165" lon="2.44412">
        <ele>475.51</ele>
        <time>2020-10-18T15:25:52Z</time>
      </trkpt>
      <trkpt lat="43.51651" lon="2.44403">
        <ele>480.8</ele>
        <time>2020-10-18T15:26:01Z</time>
      </trkpt>
      <trkpt lat="43.51652" lon="2.44394">
        <ele>483.68</ele>
        <time>2020-10-18T15:26:09Z</time>
      </trkpt>
      <trkpt lat="43.51657" lon="2.4438">
        <ele>483.68</ele>
        <time>2020-10-18T15:26:16Z</time>
      </trkpt>
      <trkpt lat="43.51664" lon="2.44368">
        <ele>481.76</ele>
        <time>2020-10-18T15:26:23Z</time>
      </trkpt>
      <trkpt lat="43.51672" lon="2.44352">
        <ele>479.35</ele>
        <time>2020-10-18T15:26:30Z</time>
      </trkpt>
      <trkpt lat="43.51675" lon="2.44344">
        <ele>476.95</ele>
        <time>2020-10-18T15:26:33Z</time>
      </trkpt>
      <trkpt lat="43.51684" lon="2.4433">
        <ele>472.63</ele>
        <time>2020-10-18T15:26:40Z</time>
      </trkpt>
      <trkpt lat="43.51694" lon="2.44324">
        <ele>472.63</ele>
        <time>2020-10-18T15:26:47Z</time>
      </trkpt>
      <trkpt lat="43.51701" lon="2.44321">
        <ele>475.51</ele>
        <time>2020-10-18T15:26:55Z</time>
      </trkpt>
      <trkpt lat="43.51709" lon="2.4432">
        <ele>476.95</ele>
        <time>2020-10-18T15:27:03Z</time>
      </trkpt>
      <trkpt lat="43.51715" lon="2.44319">
        <ele>476.95</ele>
        <time>2020-10-18T15:27:09Z</time>
      </trkpt>
      <trkpt lat="43.51719" lon="2.44324">
        <ele>479.35</ele>
        <time>2020-10-18T15:27:16Z</time>
      </trkpt>
      <trkpt lat="43.51727" lon="2.44333">
        <ele>480.8</ele>
        <time>2020-10-18T15:27:25Z</time>
      </trkpt>
      <trkpt lat="43.51731" lon="2.44337">
        <ele>483.68</ele>
        <time>2020-10-18T15:27:31Z</time>
      </trkpt>
      <trkpt lat="43.51732" lon="2.44342">
        <ele>487.53</ele>
        <time>2020-10-18T15:27:38Z</time>
      </trkpt>
      <trkpt lat="43.51737" lon="2.44349">
        <ele>492.81</ele>
        <time>2020-10-18T15:27:44Z</time>
      </trkpt>
      <trkpt lat="43.51744" lon="2.44359">
        <ele>499.06</ele>
        <time>2020-10-18T15:27:52Z</time>
      </trkpt>
      <trkpt lat="43.51749" lon="2.44368">
        <ele>504.83</ele>
        <time>2020-10-18T15:28:00Z</time>
      </trkpt>
      <trkpt lat="43.51752" lon="2.44377">
        <ele>510.12</ele>
        <time>2020-10-18T15:28:08Z</time>
      </trkpt>
      <trkpt lat="43.51758" lon="2.44382">
        <ele>514.44</ele>
        <time>2020-10-18T15:28:15Z</time>
      </trkpt>
      <trkpt lat="43.51762" lon="2.44386">
        <ele>517.33</ele>
        <time>2020-10-18T15:28:20Z</time>
      </trkpt>
      <trkpt lat="43.51764" lon="2.44393">
        <ele>517.81</ele>
        <time>2020-10-18T15:28:25Z</time>
      </trkpt>
      <trkpt lat="43.51766" lon="2.44397">
        <ele>518.29</ele>
        <time>2020-10-18T15:28:28Z</time>
      </trkpt>
      <trkpt lat="43.51769" lon="2.44405">
        <ele>518.77</ele>
        <time>2020-10-18T15:28:34Z</time>
      </trkpt>
      <trkpt lat="43.51773" lon="2.44415">
        <ele>520.21</ele>
        <time>2020-10-18T15:28:41Z</time>
      </trkpt>
      <trkpt lat="43.51778" lon="2.44418">
        <ele>519.73</ele>
        <time>2020-10-18T15:28:48Z</time>
      </trkpt>
      <trkpt lat="43.5178" lon="2.44421">
        <ele>514.92</ele>
        <time>2020-10-18T15:28:55Z</time>
      </trkpt>
      <trkpt lat="43.51782" lon="2.44423">
        <ele>512.04</ele>
        <time>2020-10-18T15:29:03Z</time>
      </trkpt>
      <trkpt lat="43.51793" lon="2.44428">
        <ele>508.19</ele>
        <time>2020-10-18T15:29:11Z</time>
      </trkpt>
      <trkpt lat="43.51797" lon="2.4443">
        <ele>506.27</ele>
        <time>2020-10-18T15:29:18Z</time>
      </trkpt>
      <trkpt lat="43.51799" lon="2.44433">
        <ele>503.87</ele>
        <time>2020-10-18T15:29:25Z</time>
      </trkpt>
      <trkpt lat="43.51806" lon="2.44445">
        <ele>492.81</ele>
        <time>2020-10-18T15:29:33Z</time>
      </trkpt>
      <trkpt lat="43.51807" lon="2.44443">
        <ele>485.12</ele>
        <time>2020-10-18T15:29:40Z</time>
      </trkpt>
      <trkpt lat="43.51809" lon="2.44444">
        <ele>482.72</ele>
        <time>2020-10-18T15:29:52Z</time>
      </trkpt>
      <trkpt lat="43.51808" lon="2.44441">
        <ele>480.32</ele>
        <time>2020-10-18T15:30:01Z</time>
      </trkpt>
      <trkpt lat="43.51811" lon="2.44444">
        <ele>478.87</ele>
        <time>2020-10-18T15:30:07Z</time>
      </trkpt>
      <trkpt lat="43.51814" lon="2.44447">
        <ele>477.43</ele>
        <time>2020-10-18T15:30:09Z</time>
      </trkpt>
      <trkpt lat="43.51815" lon="2.44448">
        <ele>475.99</ele>
        <time>2020-10-18T15:30:12Z</time>
      </trkpt>
      <trkpt lat="43.51819" lon="2.44446">
        <ele>475.51</ele>
        <time>2020-10-18T15:30:20Z</time>
      </trkpt>
      <trkpt lat="43.51821" lon="2.44444">
        <ele>475.51</ele>
        <time>2020-10-18T15:30:27Z</time>
      </trkpt>
      <trkpt lat="43.51823" lon="2.44439">
        <ele>475.99</ele>
        <time>2020-10-18T15:30:34Z</time>
      </trkpt>
      <trkpt lat="43.51825" lon="2.44435">
        <ele>475.51</ele>
        <time>2020-10-18T15:30:44Z</time>
      </trkpt>
      <trkpt lat="43.51829" lon="2.44426">
        <ele>475.51</ele>
        <time>2020-10-18T15:30:53Z</time>
      </trkpt>
      <trkpt lat="43.51834" lon="2.44415">
        <ele>475.51</ele>
        <time>2020-10-18T15:31:01Z</time>
      </trkpt>
      <trkpt lat="43.51839" lon="2.44406">
        <ele>476.47</ele>
        <time>2020-10-18T15:31:10Z</time>
      </trkpt>
      <trkpt lat="43.51845" lon="2.44397">
        <ele>478.39</ele>
        <time>2020-10-18T15:31:18Z</time>
      </trkpt>
      <trkpt lat="43.51852" lon="2.44388">
        <ele>479.35</ele>
        <time>2020-10-18T15:31:26Z</time>
      </trkpt>
      <trkpt lat="43.5186" lon="2.44379">
        <ele>479.35</ele>
        <time>2020-10-18T15:31:35Z</time>
      </trkpt>
      <trkpt lat="43.51868" lon="2.44371">
        <ele>479.84</ele>
        <time>2020-10-18T15:31:44Z</time>
      </trkpt>
      <trkpt lat="43.51873" lon="2.44365">
        <ele>479.84</ele>
        <time>2020-10-18T15:31:50Z</time>
      </trkpt>
      <trkpt lat="43.51882" lon="2.44356">
        <ele>480.32</ele>
        <time>2020-10-18T15:31:59Z</time>
      </trkpt>
      <trkpt lat="43.51894" lon="2.44347">
        <ele>480.8</ele>
        <time>2020-10-18T15:32:09Z</time>
      </trkpt>
      <trkpt lat="43.51903" lon="2.44342">
        <ele>480.32</ele>
        <time>2020-10-18T15:32:17Z</time>
      </trkpt>
      <trkpt lat="43.51904" lon="2.44342">
        <ele>480.8</ele>
        <time>2020-10-18T15:32:18Z</time>
      </trkpt>
      <trkpt lat="43.51906" lon="2.44342">
        <ele>480.32</ele>
        <time>2020-10-18T15:32:19Z</time>
      </trkpt>
      <trkpt lat="43.51907" lon="2.44341">
        <ele>480.32</ele>
        <time>2020-10-18T15:32:20Z</time>
      </trkpt>
      <trkpt lat="43.51908" lon="2.4434">
        <ele>480.32</ele>
        <time>2020-10-18T15:32:21Z</time>
      </trkpt>
      <trkpt lat="43.51909" lon="2.4434">
        <ele>480.32</ele>
        <time>2020-10-18T15:32:22Z</time>
      </trkpt>
      <trkpt lat="43.51919" lon="2.44336">
        <ele>480.32</ele>
        <time>2020-10-18T15:32:30Z</time>
      </trkpt>
      <trkpt lat="43.51928" lon="2.44333">
        <ele>480.32</ele>
        <time>2020-10-18T15:32:39Z</time>
      </trkpt>
      <trkpt lat="43.51935" lon="2.44331">
        <ele>481.76</ele>
        <time>2020-10-18T15:32:45Z</time>
      </trkpt>
      <trkpt lat="43.51942" lon="2.44329">
        <ele>482.24</ele>
        <time>2020-10-18T15:32:52Z</time>
      </trkpt>
      <trkpt lat="43.51944" lon="2.44329">
        <ele>482.24</ele>
        <time>2020-10-18T15:32:53Z</time>
      </trkpt>
      <trkpt lat="43.51945" lon="2.44328">
        <ele>482.24</ele>
        <time>2020-10-18T15:32:54Z</time>
      </trkpt>
      <trkpt lat="43.51946" lon="2.44328">
        <ele>481.76</ele>
        <time>2020-10-18T15:32:55Z</time>
      </trkpt>
      <trkpt lat="43.51947" lon="2.44328">
        <ele>482.24</ele>
        <time>2020-10-18T15:32:56Z</time>
      </trkpt>
      <trkpt lat="43.51948" lon="2.44327">
        <ele>482.24</ele>
        <time>2020-10-18T15:32:57Z</time>
      </trkpt>
      <trkpt lat="43.51955" lon="2.44325">
        <ele>481.76</ele>
        <time>2020-10-18T15:33:03Z</time>
      </trkpt>
      <trkpt lat="43.51956" lon="2.44325">
        <ele>481.76</ele>
        <time>2020-10-18T15:33:04Z</time>
      </trkpt>
      <trkpt lat="43.51966" lon="2.44324">
        <ele>481.76</ele>
        <time>2020-10-18T15:33:13Z</time>
      </trkpt>
      <trkpt lat="43.51975" lon="2.4432">
        <ele>481.28</ele>
        <time>2020-10-18T15:33:21Z</time>
      </trkpt>
      <trkpt lat="43.51984" lon="2.44318">
        <ele>482.24</ele>
        <time>2020-10-18T15:33:29Z</time>
      </trkpt>
      <trkpt lat="43.51995" lon="2.44317">
        <ele>485.12</ele>
        <time>2020-10-18T15:33:39Z</time>
      </trkpt>
      <trkpt lat="43.52007" lon="2.44313">
        <ele>486.56</ele>
        <time>2020-10-18T15:33:49Z</time>
      </trkpt>
      <trkpt lat="43.52018" lon="2.44308">
        <ele>487.05</ele>
        <time>2020-10-18T15:33:59Z</time>
      </trkpt>
      <trkpt lat="43.5203" lon="2.44303">
        <ele>487.53</ele>
        <time>2020-10-18T15:34:09Z</time>
      </trkpt>
      <trkpt lat="43.52045" lon="2.44296">
        <ele>487.53</ele>
        <time>2020-10-18T15:34:21Z</time>
      </trkpt>
      <trkpt lat="43.52057" lon="2.44292">
        <ele>488.01</ele>
        <time>2020-10-18T15:34:31Z</time>
      </trkpt>
      <trkpt lat="43.52069" lon="2.44288">
        <ele>489.45</ele>
        <time>2020-10-18T15:34:41Z</time>
      </trkpt>
      <trkpt lat="43.5208" lon="2.44282">
        <ele>490.89</ele>
        <time>2020-10-18T15:34:50Z</time>
      </trkpt>
      <trkpt lat="43.52094" lon="2.44277">
        <ele>491.37</ele>
        <time>2020-10-18T15:35:01Z</time>
      </trkpt>
      <trkpt lat="43.52102" lon="2.44273">
        <ele>492.33</ele>
        <time>2020-10-18T15:35:08Z</time>
      </trkpt>
      <trkpt lat="43.52111" lon="2.44266">
        <ele>492.81</ele>
        <time>2020-10-18T15:35:16Z</time>
      </trkpt>
      <trkpt lat="43.52116" lon="2.44263">
        <ele>493.29</ele>
        <time>2020-10-18T15:35:20Z</time>
      </trkpt>
      <trkpt lat="43.52117" lon="2.44263">
        <ele>493.29</ele>
        <time>2020-10-18T15:35:21Z</time>
      </trkpt>
      <trkpt lat="43.52118" lon="2.44262">
        <ele>493.77</ele>
        <time>2020-10-18T15:35:22Z</time>
      </trkpt>
      <trkpt lat="43.5212" lon="2.44261">
        <ele>493.77</ele>
        <time>2020-10-18T15:35:23Z</time>
      </trkpt>
      <trkpt lat="43.52121" lon="2.4426">
        <ele>493.29</ele>
        <time>2020-10-18T15:35:24Z</time>
      </trkpt>
      <trkpt lat="43.52122" lon="2.4426">
        <ele>493.29</ele>
        <time>2020-10-18T15:35:25Z</time>
      </trkpt>
      <trkpt lat="43.52127" lon="2.44255">
        <ele>493.29</ele>
        <time>2020-10-18T15:35:31Z</time>
      </trkpt>
      <trkpt lat="43.52134" lon="2.4425">
        <ele>493.77</ele>
        <time>2020-10-18T15:35:39Z</time>
      </trkpt>
      <trkpt lat="43.52136" lon="2.44248">
        <ele>494.74</ele>
        <time>2020-10-18T15:35:47Z</time>
      </trkpt>
      <trkpt lat="43.52137" lon="2.44245">
        <ele>495.22</ele>
        <time>2020-10-18T15:35:53Z</time>
      </trkpt>
      <trkpt lat="43.52137" lon="2.44246">
        <ele>495.7</ele>
        <time>2020-10-18T15:36:00Z</time>
      </trkpt>
      <trkpt lat="43.52135" lon="2.44246">
        <ele>496.18</ele>
        <time>2020-10-18T15:36:07Z</time>
      </trkpt>
      <trkpt lat="43.52134" lon="2.44246">
        <ele>497.14</ele>
        <time>2020-10-18T15:36:19Z</time>
      </trkpt>
      <trkpt lat="43.52135" lon="2.44245">
        <ele>496.66</ele>
        <time>2020-10-18T15:36:26Z</time>
      </trkpt>
      <trkpt lat="43.52136" lon="2.44242">
        <ele>497.62</ele>
        <time>2020-10-18T15:36:34Z</time>
      </trkpt>
      <trkpt lat="43.52135" lon="2.44236">
        <ele>496.66</ele>
        <time>2020-10-18T15:36:41Z</time>
      </trkpt>
      <trkpt lat="43.5213" lon="2.44226">
        <ele>494.74</ele>
        <time>2020-10-18T15:36:49Z</time>
      </trkpt>
      <trkpt lat="43.52128" lon="2.44219">
        <ele>495.22</ele>
        <time>2020-10-18T15:36:57Z</time>
      </trkpt>
      <trkpt lat="43.52128" lon="2.44213">
        <ele>495.7</ele>
        <time>2020-10-18T15:37:03Z</time>
      </trkpt>
      <trkpt lat="43.52124" lon="2.44206">
        <ele>496.66</ele>
        <time>2020-10-18T15:37:09Z</time>
      </trkpt>
      <trkpt lat="43.52121" lon="2.44199">
        <ele>497.14</ele>
        <time>2020-10-18T15:37:15Z</time>
      </trkpt>
      <trkpt lat="43.52117" lon="2.44192">
        <ele>498.1</ele>
        <time>2020-10-18T15:37:22Z</time>
      </trkpt>
      <trkpt lat="43.52114" lon="2.44183">
        <ele>500.98</ele>
        <time>2020-10-18T15:37:29Z</time>
      </trkpt>
      <trkpt lat="43.52112" lon="2.44179">
        <ele>502.43</ele>
        <time>2020-10-18T15:37:33Z</time>
      </trkpt>
      <trkpt lat="43.52111" lon="2.44177">
        <ele>502.91</ele>
        <time>2020-10-18T15:37:34Z</time>
      </trkpt>
      <trkpt lat="43.5211" lon="2.44176">
        <ele>503.39</ele>
        <time>2020-10-18T15:37:35Z</time>
      </trkpt>
      <trkpt lat="43.52108" lon="2.44168">
        <ele>506.75</ele>
        <time>2020-10-18T15:37:42Z</time>
      </trkpt>
      <trkpt lat="43.52105" lon="2.44157">
        <ele>507.23</ele>
        <time>2020-10-18T15:37:50Z</time>
      </trkpt>
      <trkpt lat="43.521" lon="2.44147">
        <ele>507.23</ele>
        <time>2020-10-18T15:37:58Z</time>
      </trkpt>
      <trkpt lat="43.52096" lon="2.44139">
        <ele>506.27</ele>
        <time>2020-10-18T15:38:06Z</time>
      </trkpt>
      <trkpt lat="43.52096" lon="2.44137">
        <ele>506.27</ele>
        <time>2020-10-18T15:38:08Z</time>
      </trkpt>
      <trkpt lat="43.5209" lon="2.4413">
        <ele>503.87</ele>
        <time>2020-10-18T15:38:14Z</time>
      </trkpt>
      <trkpt lat="43.52084" lon="2.44127">
        <ele>500.98</ele>
        <time>2020-10-18T15:38:20Z</time>
      </trkpt>
      <trkpt lat="43.52076" lon="2.44122">
        <ele>500.02</ele>
        <time>2020-10-18T15:38:30Z</time>
      </trkpt>
      <trkpt lat="43.52072" lon="2.44121">
        <ele>499.54</ele>
        <time>2020-10-18T15:38:35Z</time>
      </trkpt>
      <trkpt lat="43.52068" lon="2.44119">
        <ele>499.06</ele>
        <time>2020-10-18T15:38:41Z</time>
      </trkpt>
      <trkpt lat="43.52061" lon="2.44114">
        <ele>500.02</ele>
        <time>2020-10-18T15:38:48Z</time>
      </trkpt>
      <trkpt lat="43.52057" lon="2.44106">
        <ele>501.46</ele>
        <time>2020-10-18T15:38:54Z</time>
      </trkpt>
      <trkpt lat="43.52057" lon="2.44098">
        <ele>502.43</ele>
        <time>2020-10-18T15:39:01Z</time>
      </trkpt>
      <trkpt lat="43.52062" lon="2.44093">
        <ele>503.87</ele>
        <time>2020-10-18T15:39:08Z</time>
      </trkpt>
      <trkpt lat="43.52063" lon="2.44092">
        <ele>504.35</ele>
        <time>2020-10-18T15:39:09Z</time>
      </trkpt>
      <trkpt lat="43.52063" lon="2.44091">
        <ele>504.35</ele>
        <time>2020-10-18T15:39:10Z</time>
      </trkpt>
      <trkpt lat="43.52064" lon="2.44089">
        <ele>504.83</ele>
        <time>2020-10-18T15:39:11Z</time>
      </trkpt>
      <trkpt lat="43.52065" lon="2.44088">
        <ele>504.83</ele>
        <time>2020-10-18T15:39:12Z</time>
      </trkpt>
      <trkpt lat="43.52065" lon="2.44088">
        <ele>504.83</ele>
        <time>2020-10-18T15:39:13Z</time>
      </trkpt>
      <trkpt lat="43.52071" lon="2.44079">
        <ele>505.31</ele>
        <time>2020-10-18T15:39:21Z</time>
      </trkpt>
      <trkpt lat="43.52073" lon="2.4407">
        <ele>504.83</ele>
        <time>2020-10-18T15:39:27Z</time>
      </trkpt>
      <trkpt lat="43.52073" lon="2.44058">
        <ele>503.87</ele>
        <time>2020-10-18T15:39:33Z</time>
      </trkpt>
      <trkpt lat="43.52069" lon="2.44054">
        <ele>503.39</ele>
        <time>2020-10-18T15:39:40Z</time>
      </trkpt>
      <trkpt lat="43.52066" lon="2.44052">
        <ele>502.43</ele>
        <time>2020-10-18T15:39:47Z</time>
      </trkpt>
      <trkpt lat="43.52059" lon="2.44049">
        <ele>502.43</ele>
        <time>2020-10-18T15:39:56Z</time>
      </trkpt>
      <trkpt lat="43.52052" lon="2.44047">
        <ele>500.98</ele>
        <time>2020-10-18T15:40:03Z</time>
      </trkpt>
      <trkpt lat="43.52043" lon="2.44044">
        <ele>498.1</ele>
        <time>2020-10-18T15:40:10Z</time>
      </trkpt>
      <trkpt lat="43.52033" lon="2.44042">
        <ele>496.66</ele>
        <time>2020-10-18T15:40:18Z</time>
      </trkpt>
      <trkpt lat="43.52027" lon="2.44043">
        <ele>496.66</ele>
        <time>2020-10-18T15:40:25Z</time>
      </trkpt>
      <trkpt lat="43.52026" lon="2.44043">
        <ele>496.66</ele>
        <time>2020-10-18T15:40:26Z</time>
      </trkpt>
      <trkpt lat="43.52019" lon="2.44044">
        <ele>497.14</ele>
        <time>2020-10-18T15:40:34Z</time>
      </trkpt>
      <trkpt lat="43.52011" lon="2.44046">
        <ele>497.14</ele>
        <time>2020-10-18T15:40:41Z</time>
      </trkpt>
      <trkpt lat="43.52006" lon="2.44049">
        <ele>496.66</ele>
        <time>2020-10-18T15:40:47Z</time>
      </trkpt>
      <trkpt lat="43.51997" lon="2.44053">
        <ele>497.14</ele>
        <time>2020-10-18T15:40:54Z</time>
      </trkpt>
      <trkpt lat="43.5199" lon="2.44055">
        <ele>495.7</ele>
        <time>2020-10-18T15:41:01Z</time>
      </trkpt>
      <trkpt lat="43.51981" lon="2.44058">
        <ele>493.29</ele>
        <time>2020-10-18T15:41:08Z</time>
      </trkpt>
      <trkpt lat="43.51971" lon="2.44064">
        <ele>491.85</ele>
        <time>2020-10-18T15:41:17Z</time>
      </trkpt>
      <trkpt lat="43.51959" lon="2.44068">
        <ele>490.41</ele>
        <time>2020-10-18T15:41:25Z</time>
      </trkpt>
      <trkpt lat="43.51958" lon="2.44068">
        <ele>490.41</ele>
        <time>2020-10-18T15:41:26Z</time>
      </trkpt>
      <trkpt lat="43.51949" lon="2.4407">
        <ele>491.37</ele>
        <time>2020-10-18T15:41:33Z</time>
      </trkpt>
      <trkpt lat="43.51942" lon="2.44071">
        <ele>491.37</ele>
        <time>2020-10-18T15:41:40Z</time>
      </trkpt>
      <trkpt lat="43.51934" lon="2.44069">
        <ele>492.81</ele>
        <time>2020-10-18T15:41:48Z</time>
      </trkpt>
      <trkpt lat="43.51925" lon="2.44065">
        <ele>494.26</ele>
        <time>2020-10-18T15:41:55Z</time>
      </trkpt>
      <trkpt lat="43.5192" lon="2.4406">
        <ele>494.74</ele>
        <time>2020-10-18T15:42:01Z</time>
      </trkpt>
      <trkpt lat="43.51919" lon="2.44059">
        <ele>494.74</ele>
        <time>2020-10-18T15:42:02Z</time>
      </trkpt>
      <trkpt lat="43.51918" lon="2.44058">
        <ele>495.22</ele>
        <time>2020-10-18T15:42:03Z</time>
      </trkpt>
      <trkpt lat="43.51911" lon="2.4405">
        <ele>496.18</ele>
        <time>2020-10-18T15:42:09Z</time>
      </trkpt>
      <trkpt lat="43.51901" lon="2.44041">
        <ele>496.18</ele>
        <time>2020-10-18T15:42:17Z</time>
      </trkpt>
      <trkpt lat="43.51886" lon="2.44031">
        <ele>496.66</ele>
        <time>2020-10-18T15:42:27Z</time>
      </trkpt>
      <trkpt lat="43.51874" lon="2.44022">
        <ele>495.22</ele>
        <time>2020-10-18T15:42:36Z</time>
      </trkpt>
      <trkpt lat="43.51868" lon="2.44017">
        <ele>495.22</ele>
        <time>2020-10-18T15:42:41Z</time>
      </trkpt>
      <trkpt lat="43.51867" lon="2.44015">
        <ele>495.22</ele>
        <time>2020-10-18T15:42:42Z</time>
      </trkpt>
      <trkpt lat="43.51866" lon="2.44014">
        <ele>494.74</ele>
        <time>2020-10-18T15:42:43Z</time>
      </trkpt>
      <trkpt lat="43.51855" lon="2.44002">
        <ele>492.81</ele>
        <time>2020-10-18T15:42:54Z</time>
      </trkpt>
      <trkpt lat="43.51851" lon="2.43999">
        <ele>492.33</ele>
        <time>2020-10-18T15:43:01Z</time>
      </trkpt>
      <trkpt lat="43.51849" lon="2.43999">
        <ele>491.85</ele>
        <time>2020-10-18T15:43:06Z</time>
      </trkpt>
      <trkpt lat="43.51847" lon="2.43993">
        <ele>491.37</ele>
        <time>2020-10-18T15:43:13Z</time>
      </trkpt>
      <trkpt lat="43.51844" lon="2.43989">
        <ele>490.89</ele>
        <time>2020-10-18T15:43:19Z</time>
      </trkpt>
      <trkpt lat="43.51838" lon="2.43977">
        <ele>490.41</ele>
        <time>2020-10-18T15:43:28Z</time>
      </trkpt>
      <trkpt lat="43.51832" lon="2.43965">
        <ele>490.41</ele>
        <time>2020-10-18T15:43:37Z</time>
      </trkpt>
      <trkpt lat="43.51832" lon="2.43964">
        <ele>490.41</ele>
        <time>2020-10-18T15:43:38Z</time>
      </trkpt>
      <trkpt lat="43.51832" lon="2.43962">
        <ele>490.89</ele>
        <time>2020-10-18T15:43:45Z</time>
      </trkpt>
      <trkpt lat="43.51831" lon="2.4396">
        <ele>490.41</ele>
        <time>2020-10-18T15:43:51Z</time>
      </trkpt>
      <trkpt lat="43.51826" lon="2.43947">
        <ele>489.93</ele>
        <time>2020-10-18T15:44:00Z</time>
      </trkpt>
      <trkpt lat="43.51822" lon="2.43931">
        <ele>488.97</ele>
        <time>2020-10-18T15:44:09Z</time>
      </trkpt>
      <trkpt lat="43.5182" lon="2.4392">
        <ele>489.45</ele>
        <time>2020-10-18T15:44:16Z</time>
      </trkpt>
      <trkpt lat="43.5182" lon="2.43918">
        <ele>489.45</ele>
        <time>2020-10-18T15:44:17Z</time>
      </trkpt>
      <trkpt lat="43.5182" lon="2.43916">
        <ele>489.93</ele>
        <time>2020-10-18T15:44:18Z</time>
      </trkpt>
      <trkpt lat="43.5182" lon="2.43914">
        <ele>489.93</ele>
        <time>2020-10-18T15:44:19Z</time>
      </trkpt>
      <trkpt lat="43.51819" lon="2.43913">
        <ele>490.41</ele>
        <time>2020-10-18T15:44:20Z</time>
      </trkpt>
      <trkpt lat="43.51818" lon="2.43911">
        <ele>490.41</ele>
        <time>2020-10-18T15:44:21Z</time>
      </trkpt>
      <trkpt lat="43.51817" lon="2.4391">
        <ele>490.89</ele>
        <time>2020-10-18T15:44:22Z</time>
      </trkpt>
      <trkpt lat="43.51817" lon="2.43908">
        <ele>490.89</ele>
        <time>2020-10-18T15:44:23Z</time>
      </trkpt>
      <trkpt lat="43.51817" lon="2.43907">
        <ele>490.89</ele>
        <time>2020-10-18T15:44:24Z</time>
      </trkpt>
      <trkpt lat="43.51816" lon="2.43905">
        <ele>490.89</ele>
        <time>2020-10-18T15:44:25Z</time>
      </trkpt>
      <trkpt lat="43.51814" lon="2.43894">
        <ele>490.41</ele>
        <time>2020-10-18T15:44:33Z</time>
      </trkpt>
      <trkpt lat="43.51813" lon="2.43884">
        <ele>490.89</ele>
        <time>2020-10-18T15:44:40Z</time>
      </trkpt>
      <trkpt lat="43.5181" lon="2.43871">
        <ele>492.81</ele>
        <time>2020-10-18T15:44:50Z</time>
      </trkpt>
      <trkpt lat="43.51807" lon="2.43857">
        <ele>497.14</ele>
        <time>2020-10-18T15:44:58Z</time>
      </trkpt>
      <trkpt lat="43.51804" lon="2.43841">
        <ele>502.91</ele>
        <time>2020-10-18T15:45:07Z</time>
      </trkpt>
      <trkpt lat="43.51801" lon="2.43823">
        <ele>505.31</ele>
        <time>2020-10-18T15:45:15Z</time>
      </trkpt>
      <trkpt lat="43.518" lon="2.4382">
        <ele>505.31</ele>
        <time>2020-10-18T15:45:16Z</time>
      </trkpt>
      <trkpt lat="43.51797" lon="2.43812">
        <ele>507.23</ele>
        <time>2020-10-18T15:45:23Z</time>
      </trkpt>
      <trkpt lat="43.51795" lon="2.43801">
        <ele>508.19</ele>
        <time>2020-10-18T15:45:30Z</time>
      </trkpt>
      <trkpt lat="43.51789" lon="2.43781">
        <ele>510.12</ele>
        <time>2020-10-18T15:45:39Z</time>
      </trkpt>
      <trkpt lat="43.51785" lon="2.43766">
        <ele>507.23</ele>
        <time>2020-10-18T15:45:48Z</time>
      </trkpt>
      <trkpt lat="43.51782" lon="2.43753">
        <ele>504.83</ele>
        <time>2020-10-18T15:45:56Z</time>
      </trkpt>
      <trkpt lat="43.51779" lon="2.43746">
        <ele>504.35</ele>
        <time>2020-10-18T15:46:00Z</time>
      </trkpt>
      <trkpt lat="43.51778" lon="2.43742">
        <ele>502.43</ele>
        <time>2020-10-18T15:46:02Z</time>
      </trkpt>
      <trkpt lat="43.51778" lon="2.4374">
        <ele>501.95</ele>
        <time>2020-10-18T15:46:03Z</time>
      </trkpt>
      <trkpt lat="43.51777" lon="2.43738">
        <ele>501.46</ele>
        <time>2020-10-18T15:46:04Z</time>
      </trkpt>
      <trkpt lat="43.51777" lon="2.43735">
        <ele>500.5</ele>
        <time>2020-10-18T15:46:05Z</time>
      </trkpt>
      <trkpt lat="43.51776" lon="2.43733">
        <ele>499.54</ele>
        <time>2020-10-18T15:46:06Z</time>
      </trkpt>
      <trkpt lat="43.51771" lon="2.43717">
        <ele>500.5</ele>
        <time>2020-10-18T15:46:16Z</time>
      </trkpt>
      <trkpt lat="43.5177" lon="2.4371">
        <ele>497.14</ele>
        <time>2020-10-18T15:46:24Z</time>
      </trkpt>
      <trkpt lat="43.51768" lon="2.43701">
        <ele>493.77</ele>
        <time>2020-10-18T15:46:34Z</time>
      </trkpt>
      <trkpt lat="43.51765" lon="2.43685">
        <ele>493.29</ele>
        <time>2020-10-18T15:46:42Z</time>
      </trkpt>
      <trkpt lat="43.51762" lon="2.43677">
        <ele>495.22</ele>
        <time>2020-10-18T15:46:47Z</time>
      </trkpt>
      <trkpt lat="43.5176" lon="2.43671">
        <ele>496.18</ele>
        <time>2020-10-18T15:46:51Z</time>
      </trkpt>
      <trkpt lat="43.51758" lon="2.43666">
        <ele>497.62</ele>
        <time>2020-10-18T15:46:55Z</time>
      </trkpt>
      <trkpt lat="43.51752" lon="2.43652">
        <ele>500.5</ele>
        <time>2020-10-18T15:47:04Z</time>
      </trkpt>
      <trkpt lat="43.51748" lon="2.43638">
        <ele>501.46</ele>
        <time>2020-10-18T15:47:12Z</time>
      </trkpt>
      <trkpt lat="43.51747" lon="2.43635">
        <ele>501.95</ele>
        <time>2020-10-18T15:47:14Z</time>
      </trkpt>
      <trkpt lat="43.51747" lon="2.43633">
        <ele>502.43</ele>
        <time>2020-10-18T15:47:15Z</time>
      </trkpt>
      <trkpt lat="43.51747" lon="2.43632">
        <ele>502.43</ele>
        <time>2020-10-18T15:47:16Z</time>
      </trkpt>
      <trkpt lat="43.51743" lon="2.43613">
        <ele>502.43</ele>
        <time>2020-10-18T15:47:27Z</time>
      </trkpt>
      <trkpt lat="43.51738" lon="2.43599">
        <ele>499.06</ele>
        <time>2020-10-18T15:47:36Z</time>
      </trkpt>
      <trkpt lat="43.51738" lon="2.4359">
        <ele>495.7</ele>
        <time>2020-10-18T15:47:44Z</time>
      </trkpt>
      <trkpt lat="43.51739" lon="2.43585">
        <ele>493.77</ele>
        <time>2020-10-18T15:47:59Z</time>
      </trkpt>
      <trkpt lat="43.51738" lon="2.43582">
        <ele>490.89</ele>
        <time>2020-10-18T15:48:16Z</time>
      </trkpt>
      <trkpt lat="43.51737" lon="2.43583">
        <ele>485.12</ele>
        <time>2020-10-18T15:48:36Z</time>
      </trkpt>
      <trkpt lat="43.51736" lon="2.43581">
        <ele>485.12</ele>
        <time>2020-10-18T15:48:39Z</time>
      </trkpt>
      <trkpt lat="43.51735" lon="2.43579">
        <ele>484.64</ele>
        <time>2020-10-18T15:48:45Z</time>
      </trkpt>
      <trkpt lat="43.51734" lon="2.43576">
        <ele>483.68</ele>
        <time>2020-10-18T15:48:47Z</time>
      </trkpt>
      <trkpt lat="43.51732" lon="2.43568">
        <ele>482.72</ele>
        <time>2020-10-18T15:48:55Z</time>
      </trkpt>
      <trkpt lat="43.51728" lon="2.43557">
        <ele>481.76</ele>
        <time>2020-10-18T15:49:06Z</time>
      </trkpt>
      <trkpt lat="43.51723" lon="2.43545">
        <ele>484.64</ele>
        <time>2020-10-18T15:49:15Z</time>
      </trkpt>
      <trkpt lat="43.51717" lon="2.43534">
        <ele>489.45</ele>
        <time>2020-10-18T15:49:23Z</time>
      </trkpt>
      <trkpt lat="43.51712" lon="2.43521">
        <ele>492.33</ele>
        <time>2020-10-18T15:49:31Z</time>
      </trkpt>
      <trkpt lat="43.51706" lon="2.43507">
        <ele>494.26</ele>
        <time>2020-10-18T15:49:40Z</time>
      </trkpt>
      <trkpt lat="43.51699" lon="2.43491">
        <ele>496.18</ele>
        <time>2020-10-18T15:49:51Z</time>
      </trkpt>
      <trkpt lat="43.51697" lon="2.43483">
        <ele>495.7</ele>
        <time>2020-10-18T15:49:58Z</time>
      </trkpt>
      <trkpt lat="43.51696" lon="2.43481">
        <ele>495.22</ele>
        <time>2020-10-18T15:49:59Z</time>
      </trkpt>
      <trkpt lat="43.51692" lon="2.43467">
        <ele>494.74</ele>
        <time>2020-10-18T15:50:08Z</time>
      </trkpt>
      <trkpt lat="43.51691" lon="2.43458">
        <ele>494.74</ele>
        <time>2020-10-18T15:50:14Z</time>
      </trkpt>
      <trkpt lat="43.51689" lon="2.43447">
        <ele>494.74</ele>
        <time>2020-10-18T15:50:21Z</time>
      </trkpt>
      <trkpt lat="43.51688" lon="2.43443">
        <ele>493.77</ele>
        <time>2020-10-18T15:50:23Z</time>
      </trkpt>
      <trkpt lat="43.51687" lon="2.43441">
        <ele>493.77</ele>
        <time>2020-10-18T15:50:24Z</time>
      </trkpt>
      <trkpt lat="43.51687" lon="2.4344">
        <ele>494.26</ele>
        <time>2020-10-18T15:50:25Z</time>
      </trkpt>
      <trkpt lat="43.51684" lon="2.43432">
        <ele>495.7</ele>
        <time>2020-10-18T15:50:31Z</time>
      </trkpt>
      <trkpt lat="43.51681" lon="2.43423">
        <ele>499.54</ele>
        <time>2020-10-18T15:50:38Z</time>
      </trkpt>
      <trkpt lat="43.51676" lon="2.43408">
        <ele>504.35</ele>
        <time>2020-10-18T15:50:48Z</time>
      </trkpt>
      <trkpt lat="43.51671" lon="2.43397">
        <ele>505.79</ele>
        <time>2020-10-18T15:50:56Z</time>
      </trkpt>
      <trkpt lat="43.51667" lon="2.43387">
        <ele>507.71</ele>
        <time>2020-10-18T15:51:04Z</time>
      </trkpt>
      <trkpt lat="43.51664" lon="2.43378">
        <ele>509.16</ele>
        <time>2020-10-18T15:51:09Z</time>
      </trkpt>
      <trkpt lat="43.51663" lon="2.43376">
        <ele>509.16</ele>
        <time>2020-10-18T15:51:10Z</time>
      </trkpt>
      <trkpt lat="43.51658" lon="2.43359">
        <ele>507.71</ele>
        <time>2020-10-18T15:51:19Z</time>
      </trkpt>
      <trkpt lat="43.51655" lon="2.43348">
        <ele>508.67</ele>
        <time>2020-10-18T15:51:25Z</time>
      </trkpt>
      <trkpt lat="43.51655" lon="2.43346">
        <ele>508.67</ele>
        <time>2020-10-18T15:51:26Z</time>
      </trkpt>
      <trkpt lat="43.51654" lon="2.43344">
        <ele>508.19</ele>
        <time>2020-10-18T15:51:27Z</time>
      </trkpt>
      <trkpt lat="43.51654" lon="2.43343">
        <ele>508.19</ele>
        <time>2020-10-18T15:51:28Z</time>
      </trkpt>
      <trkpt lat="43.51653" lon="2.43341">
        <ele>508.19</ele>
        <time>2020-10-18T15:51:29Z</time>
      </trkpt>
      <trkpt lat="43.51653" lon="2.43339">
        <ele>508.19</ele>
        <time>2020-10-18T15:51:30Z</time>
      </trkpt>
      <trkpt lat="43.51646" lon="2.43322">
        <ele>508.19</ele>
        <time>2020-10-18T15:51:40Z</time>
      </trkpt>
      <trkpt lat="43.51642" lon="2.43306">
        <ele>508.19</ele>
        <time>2020-10-18T15:51:49Z</time>
      </trkpt>
      <trkpt lat="43.51642" lon="2.43304">
        <ele>508.19</ele>
        <time>2020-10-18T15:51:50Z</time>
      </trkpt>
      <trkpt lat="43.51638" lon="2.43292">
        <ele>507.71</ele>
        <time>2020-10-18T15:51:58Z</time>
      </trkpt>
      <trkpt lat="43.51634" lon="2.43281">
        <ele>510.12</ele>
        <time>2020-10-18T15:52:06Z</time>
      </trkpt>
      <trkpt lat="43.51632" lon="2.43274">
        <ele>511.08</ele>
        <time>2020-10-18T15:52:11Z</time>
      </trkpt>
      <trkpt lat="43.51628" lon="2.43262">
        <ele>511.08</ele>
        <time>2020-10-18T15:52:19Z</time>
      </trkpt>
      <trkpt lat="43.51627" lon="2.43253">
        <ele>510.12</ele>
        <time>2020-10-18T15:52:24Z</time>
      </trkpt>
      <trkpt lat="43.51621" lon="2.43237">
        <ele>509.64</ele>
        <time>2020-10-18T15:52:33Z</time>
      </trkpt>
      <trkpt lat="43.51616" lon="2.43225">
        <ele>509.16</ele>
        <time>2020-10-18T15:52:41Z</time>
      </trkpt>
      <trkpt lat="43.51611" lon="2.43212">
        <ele>506.75</ele>
        <time>2020-10-18T15:52:49Z</time>
      </trkpt>
      <trkpt lat="43.51607" lon="2.43198">
        <ele>506.27</ele>
        <time>2020-10-18T15:52:56Z</time>
      </trkpt>
      <trkpt lat="43.51606" lon="2.4319">
        <ele>505.79</ele>
        <time>2020-10-18T15:53:02Z</time>
      </trkpt>
      <trkpt lat="43.51603" lon="2.43186">
        <ele>505.31</ele>
        <time>2020-10-18T15:53:05Z</time>
      </trkpt>
      <trkpt lat="43.51603" lon="2.43184">
        <ele>505.31</ele>
        <time>2020-10-18T15:53:06Z</time>
      </trkpt>
      <trkpt lat="43.516" lon="2.43171">
        <ele>505.31</ele>
        <time>2020-10-18T15:53:14Z</time>
      </trkpt>
      <trkpt lat="43.51599" lon="2.4316">
        <ele>502.43</ele>
        <time>2020-10-18T15:53:21Z</time>
      </trkpt>
      <trkpt lat="43.51599" lon="2.43157">
        <ele>501.46</ele>
        <time>2020-10-18T15:53:23Z</time>
      </trkpt>
      <trkpt lat="43.51599" lon="2.43155">
        <ele>501.46</ele>
        <time>2020-10-18T15:53:24Z</time>
      </trkpt>
      <trkpt lat="43.51599" lon="2.43139">
        <ele>498.1</ele>
        <time>2020-10-18T15:53:32Z</time>
      </trkpt>
      <trkpt lat="43.516" lon="2.43131">
        <ele>495.7</ele>
        <time>2020-10-18T15:53:36Z</time>
      </trkpt>
      <trkpt lat="43.516" lon="2.43128">
        <ele>494.74</ele>
        <time>2020-10-18T15:53:39Z</time>
      </trkpt>
      <trkpt lat="43.51601" lon="2.43112">
        <ele>491.85</ele>
        <time>2020-10-18T15:53:47Z</time>
      </trkpt>
      <trkpt lat="43.51602" lon="2.43097">
        <ele>491.85</ele>
        <time>2020-10-18T15:53:55Z</time>
      </trkpt>
      <trkpt lat="43.51602" lon="2.43095">
        <ele>492.33</ele>
        <time>2020-10-18T15:53:56Z</time>
      </trkpt>
      <trkpt lat="43.51603" lon="2.43093">
        <ele>492.33</ele>
        <time>2020-10-18T15:53:57Z</time>
      </trkpt>
      <trkpt lat="43.51602" lon="2.4308">
        <ele>494.26</ele>
        <time>2020-10-18T15:54:05Z</time>
      </trkpt>
      <trkpt lat="43.51602" lon="2.43072">
        <ele>495.22</ele>
        <time>2020-10-18T15:54:10Z</time>
      </trkpt>
      <trkpt lat="43.51602" lon="2.43066">
        <ele>495.22</ele>
        <time>2020-10-18T15:54:13Z</time>
      </trkpt>
      <trkpt lat="43.51602" lon="2.43064">
        <ele>494.74</ele>
        <time>2020-10-18T15:54:14Z</time>
      </trkpt>
      <trkpt lat="43.51602" lon="2.43052">
        <ele>495.7</ele>
        <time>2020-10-18T15:54:20Z</time>
      </trkpt>
      <trkpt lat="43.51599" lon="2.43041">
        <ele>497.62</ele>
        <time>2020-10-18T15:54:27Z</time>
      </trkpt>
      <trkpt lat="43.51595" lon="2.43029">
        <ele>496.66</ele>
        <time>2020-10-18T15:54:34Z</time>
      </trkpt>
      <trkpt lat="43.51594" lon="2.43027">
        <ele>496.66</ele>
        <time>2020-10-18T15:54:35Z</time>
      </trkpt>
      <trkpt lat="43.51588" lon="2.43017">
        <ele>496.18</ele>
        <time>2020-10-18T15:54:42Z</time>
      </trkpt>
      <trkpt lat="43.51578" lon="2.4301">
        <ele>497.14</ele>
        <time>2020-10-18T15:54:50Z</time>
      </trkpt>
      <trkpt lat="43.51577" lon="2.43009">
        <ele>497.14</ele>
        <time>2020-10-18T15:54:51Z</time>
      </trkpt>
      <trkpt lat="43.51568" lon="2.42996">
        <ele>496.18</ele>
        <time>2020-10-18T15:55:00Z</time>
      </trkpt>
      <trkpt lat="43.51559" lon="2.42985">
        <ele>495.7</ele>
        <time>2020-10-18T15:55:09Z</time>
      </trkpt>
      <trkpt lat="43.51555" lon="2.42974">
        <ele>498.1</ele>
        <time>2020-10-18T15:55:16Z</time>
      </trkpt>
      <trkpt lat="43.51551" lon="2.4296">
        <ele>498.58</ele>
        <time>2020-10-18T15:55:24Z</time>
      </trkpt>
      <trkpt lat="43.51547" lon="2.42948">
        <ele>498.1</ele>
        <time>2020-10-18T15:55:32Z</time>
      </trkpt>
      <trkpt lat="43.51542" lon="2.42935">
        <ele>498.58</ele>
        <time>2020-10-18T15:55:40Z</time>
      </trkpt>
      <trkpt lat="43.51539" lon="2.42925">
        <ele>498.58</ele>
        <time>2020-10-18T15:55:46Z</time>
      </trkpt>
      <trkpt lat="43.51533" lon="2.42911">
        <ele>494.74</ele>
        <time>2020-10-18T15:55:54Z</time>
      </trkpt>
      <trkpt lat="43.51528" lon="2.42897">
        <ele>485.12</ele>
        <time>2020-10-18T15:56:01Z</time>
      </trkpt>
      <trkpt lat="43.51522" lon="2.42888">
        <ele>480.8</ele>
        <time>2020-10-18T15:56:08Z</time>
      </trkpt>
      <trkpt lat="43.51514" lon="2.42878">
        <ele>475.51</ele>
        <time>2020-10-18T15:56:15Z</time>
      </trkpt>
      <trkpt lat="43.51506" lon="2.42869">
        <ele>475.51</ele>
        <time>2020-10-18T15:56:23Z</time>
      </trkpt>
      <trkpt lat="43.51504" lon="2.42867">
        <ele>475.51</ele>
        <time>2020-10-18T15:56:24Z</time>
      </trkpt>
      <trkpt lat="43.51503" lon="2.42866">
        <ele>475.51</ele>
        <time>2020-10-18T15:56:25Z</time>
      </trkpt>
      <trkpt lat="43.51496" lon="2.42858">
        <ele>475.99</ele>
        <time>2020-10-18T15:56:32Z</time>
      </trkpt>
      <trkpt lat="43.51495" lon="2.42856">
        <ele>475.99</ele>
        <time>2020-10-18T15:56:33Z</time>
      </trkpt>
      <trkpt lat="43.51494" lon="2.42852">
        <ele>476.47</ele>
        <time>2020-10-18T15:56:36Z</time>
      </trkpt>
      <trkpt lat="43.51492" lon="2.42849">
        <ele>475.99</ele>
        <time>2020-10-18T15:56:38Z</time>
      </trkpt>
      <trkpt lat="43.51491" lon="2.42848">
        <ele>475.99</ele>
        <time>2020-10-18T15:56:39Z</time>
      </trkpt>
      <trkpt lat="43.5149" lon="2.42846">
        <ele>475.99</ele>
        <time>2020-10-18T15:56:40Z</time>
      </trkpt>
      <trkpt lat="43.51482" lon="2.42834">
        <ele>474.07</ele>
        <time>2020-10-18T15:56:48Z</time>
      </trkpt>
      <trkpt lat="43.51475" lon="2.42824">
        <ele>474.55</ele>
        <time>2020-10-18T15:56:56Z</time>
      </trkpt>
      <trkpt lat="43.51469" lon="2.42812">
        <ele>474.55</ele>
        <time>2020-10-18T15:57:05Z</time>
      </trkpt>
      <trkpt lat="43.51462" lon="2.42801">
        <ele>472.63</ele>
        <time>2020-10-18T15:57:13Z</time>
      </trkpt>
      <trkpt lat="43.51459" lon="2.42796">
        <ele>472.14</ele>
        <time>2020-10-18T15:57:16Z</time>
      </trkpt>
      <trkpt lat="43.51458" lon="2.42794">
        <ele>472.14</ele>
        <time>2020-10-18T15:57:17Z</time>
      </trkpt>
      <trkpt lat="43.51457" lon="2.42793">
        <ele>472.14</ele>
        <time>2020-10-18T15:57:18Z</time>
      </trkpt>
      <trkpt lat="43.51456" lon="2.42791">
        <ele>471.66</ele>
        <time>2020-10-18T15:57:19Z</time>
      </trkpt>
      <trkpt lat="43.51456" lon="2.42789">
        <ele>472.14</ele>
        <time>2020-10-18T15:57:20Z</time>
      </trkpt>
      <trkpt lat="43.51455" lon="2.42788">
        <ele>472.14</ele>
        <time>2020-10-18T15:57:21Z</time>
      </trkpt>
      <trkpt lat="43.51454" lon="2.42786">
        <ele>472.14</ele>
        <time>2020-10-18T15:57:22Z</time>
      </trkpt>
      <trkpt lat="43.51453" lon="2.42785">
        <ele>472.14</ele>
        <time>2020-10-18T15:57:23Z</time>
      </trkpt>
      <trkpt lat="43.51453" lon="2.42783">
        <ele>472.14</ele>
        <time>2020-10-18T15:57:24Z</time>
      </trkpt>
      <trkpt lat="43.51452" lon="2.42779">
        <ele>471.18</ele>
        <time>2020-10-18T15:57:28Z</time>
      </trkpt>
      <trkpt lat="43.51444" lon="2.42768">
        <ele>468.78</ele>
        <time>2020-10-18T15:57:37Z</time>
      </trkpt>
      <trkpt lat="43.51439" lon="2.42759">
        <ele>472.14</ele>
        <time>2020-10-18T15:57:46Z</time>
      </trkpt>
      <trkpt lat="43.51433" lon="2.42751">
        <ele>472.63</ele>
        <time>2020-10-18T15:57:53Z</time>
      </trkpt>
      <trkpt lat="43.51432" lon="2.42749">
        <ele>472.63</ele>
        <time>2020-10-18T15:57:54Z</time>
      </trkpt>
      <trkpt lat="43.51431" lon="2.42748">
        <ele>472.63</ele>
        <time>2020-10-18T15:57:55Z</time>
      </trkpt>
      <trkpt lat="43.51427" lon="2.4274">
        <ele>470.7</ele>
        <time>2020-10-18T15:58:00Z</time>
      </trkpt>
      <trkpt lat="43.51422" lon="2.42733">
        <ele>468.78</ele>
        <time>2020-10-18T15:58:06Z</time>
      </trkpt>
      <trkpt lat="43.51421" lon="2.42731">
        <ele>468.3</ele>
        <time>2020-10-18T15:58:08Z</time>
      </trkpt>
      <trkpt lat="43.51414" lon="2.42721">
        <ele>467.34</ele>
        <time>2020-10-18T15:58:17Z</time>
      </trkpt>
      <trkpt lat="43.51408" lon="2.42713">
        <ele>466.38</ele>
        <time>2020-10-18T15:58:25Z</time>
      </trkpt>
      <trkpt lat="43.51399" lon="2.42703">
        <ele>463.97</ele>
        <time>2020-10-18T15:58:34Z</time>
      </trkpt>
      <trkpt lat="43.51396" lon="2.42698">
        <ele>463.49</ele>
        <time>2020-10-18T15:58:38Z</time>
      </trkpt>
      <trkpt lat="43.51392" lon="2.4269">
        <ele>463.49</ele>
        <time>2020-10-18T15:58:46Z</time>
      </trkpt>
      <trkpt lat="43.51388" lon="2.42685">
        <ele>463.49</ele>
        <time>2020-10-18T15:58:51Z</time>
      </trkpt>
      <trkpt lat="43.51385" lon="2.4268">
        <ele>461.57</ele>
        <time>2020-10-18T15:58:55Z</time>
      </trkpt>
      <trkpt lat="43.51384" lon="2.42679">
        <ele>461.09</ele>
        <time>2020-10-18T15:58:56Z</time>
      </trkpt>
      <trkpt lat="43.51381" lon="2.42673">
        <ele>460.13</ele>
        <time>2020-10-18T15:59:00Z</time>
      </trkpt>
      <trkpt lat="43.5138" lon="2.42671">
        <ele>459.65</ele>
        <time>2020-10-18T15:59:01Z</time>
      </trkpt>
      <trkpt lat="43.51378" lon="2.42665">
        <ele>458.21</ele>
        <time>2020-10-18T15:59:05Z</time>
      </trkpt>
      <trkpt lat="43.51371" lon="2.42655">
        <ele>457.72</ele>
        <time>2020-10-18T15:59:13Z</time>
      </trkpt>
      <trkpt lat="43.51369" lon="2.42651">
        <ele>457.72</ele>
        <time>2020-10-18T15:59:16Z</time>
      </trkpt>
      <trkpt lat="43.51366" lon="2.42646">
        <ele>458.69</ele>
        <time>2020-10-18T15:59:20Z</time>
      </trkpt>
      <trkpt lat="43.51366" lon="2.42644">
        <ele>458.69</ele>
        <time>2020-10-18T15:59:21Z</time>
      </trkpt>
      <trkpt lat="43.51365" lon="2.42636">
        <ele>457.72</ele>
        <time>2020-10-18T15:59:28Z</time>
      </trkpt>
      <trkpt lat="43.51364" lon="2.42626">
        <ele>455.8</ele>
        <time>2020-10-18T15:59:35Z</time>
      </trkpt>
      <trkpt lat="43.51362" lon="2.42621">
        <ele>455.8</ele>
        <time>2020-10-18T15:59:41Z</time>
      </trkpt>
      <trkpt lat="43.51362" lon="2.42614">
        <ele>456.76</ele>
        <time>2020-10-18T15:59:47Z</time>
      </trkpt>
      <trkpt lat="43.51361" lon="2.42606">
        <ele>458.21</ele>
        <time>2020-10-18T15:59:53Z</time>
      </trkpt>
      <trkpt lat="43.51357" lon="2.42594">
        <ele>459.65</ele>
        <time>2020-10-18T16:00:01Z</time>
      </trkpt>
      <trkpt lat="43.51355" lon="2.42592">
        <ele>459.17</ele>
        <time>2020-10-18T16:00:04Z</time>
      </trkpt>
      <trkpt lat="43.51349" lon="2.42577">
        <ele>454.84</ele>
        <time>2020-10-18T16:00:13Z</time>
      </trkpt>
      <trkpt lat="43.51345" lon="2.42574">
        <ele>452.92</ele>
        <time>2020-10-18T16:00:18Z</time>
      </trkpt>
      <trkpt lat="43.5134" lon="2.42568">
        <ele>452.44</ele>
        <time>2020-10-18T16:00:24Z</time>
      </trkpt>
      <trkpt lat="43.51335" lon="2.42562">
        <ele>454.36</ele>
        <time>2020-10-18T16:00:31Z</time>
      </trkpt>
      <trkpt lat="43.51329" lon="2.42558">
        <ele>457.24</ele>
        <time>2020-10-18T16:00:38Z</time>
      </trkpt>
      <trkpt lat="43.51322" lon="2.42553">
        <ele>459.17</ele>
        <time>2020-10-18T16:00:45Z</time>
      </trkpt>
      <trkpt lat="43.51316" lon="2.42546">
        <ele>460.13</ele>
        <time>2020-10-18T16:00:52Z</time>
      </trkpt>
      <trkpt lat="43.51311" lon="2.42542">
        <ele>460.13</ele>
        <time>2020-10-18T16:00:59Z</time>
      </trkpt>
      <trkpt lat="43.51305" lon="2.42536">
        <ele>458.21</ele>
        <time>2020-10-18T16:01:06Z</time>
      </trkpt>
      <trkpt lat="43.51299" lon="2.4253">
        <ele>456.76</ele>
        <time>2020-10-18T16:01:13Z</time>
      </trkpt>
      <trkpt lat="43.51292" lon="2.42521">
        <ele>454.36</ele>
        <time>2020-10-18T16:01:20Z</time>
      </trkpt>
      <trkpt lat="43.51284" lon="2.42511">
        <ele>450.52</ele>
        <time>2020-10-18T16:01:28Z</time>
      </trkpt>
      <trkpt lat="43.51279" lon="2.42506">
        <ele>449.07</ele>
        <time>2020-10-18T16:01:33Z</time>
      </trkpt>
      <trkpt lat="43.51271" lon="2.42501">
        <ele>446.67</ele>
        <time>2020-10-18T16:01:38Z</time>
      </trkpt>
      <trkpt lat="43.51258" lon="2.42495">
        <ele>444.75</ele>
        <time>2020-10-18T16:01:47Z</time>
      </trkpt>
      <trkpt lat="43.51253" lon="2.42493">
        <ele>442.82</ele>
        <time>2020-10-18T16:01:57Z</time>
      </trkpt>
      <trkpt lat="43.51249" lon="2.42494">
        <ele>441.86</ele>
        <time>2020-10-18T16:02:08Z</time>
      </trkpt>
      <trkpt lat="43.51246" lon="2.42493">
        <ele>441.86</ele>
        <time>2020-10-18T16:02:18Z</time>
      </trkpt>
      <trkpt lat="43.5124" lon="2.42487">
        <ele>440.9</ele>
        <time>2020-10-18T16:02:27Z</time>
      </trkpt>
      <trkpt lat="43.51235" lon="2.42481">
        <ele>439.94</ele>
        <time>2020-10-18T16:02:35Z</time>
      </trkpt>
      <trkpt lat="43.5123" lon="2.42477">
        <ele>440.42</ele>
        <time>2020-10-18T16:02:41Z</time>
      </trkpt>
      <trkpt lat="43.51226" lon="2.42472">
        <ele>438.98</ele>
        <time>2020-10-18T16:02:48Z</time>
      </trkpt>
      <trkpt lat="43.51219" lon="2.42466">
        <ele>438.02</ele>
        <time>2020-10-18T16:02:56Z</time>
      </trkpt>
      <trkpt lat="43.5121" lon="2.42455">
        <ele>438.02</ele>
        <time>2020-10-18T16:03:05Z</time>
      </trkpt>
      <trkpt lat="43.51208" lon="2.42453">
        <ele>438.02</ele>
        <time>2020-10-18T16:03:08Z</time>
      </trkpt>
      <trkpt lat="43.512" lon="2.42443">
        <ele>438.98</ele>
        <time>2020-10-18T16:03:17Z</time>
      </trkpt>
      <trkpt lat="43.51194" lon="2.42434">
        <ele>439.46</ele>
        <time>2020-10-18T16:03:24Z</time>
      </trkpt>
      <trkpt lat="43.51189" lon="2.42425">
        <ele>438.5</ele>
        <time>2020-10-18T16:03:31Z</time>
      </trkpt>
      <trkpt lat="43.51186" lon="2.42412">
        <ele>438.98</ele>
        <time>2020-10-18T16:03:39Z</time>
      </trkpt>
      <trkpt lat="43.51178" lon="2.42395">
        <ele>440.42</ele>
        <time>2020-10-18T16:03:49Z</time>
      </trkpt>
      <trkpt lat="43.51173" lon="2.42381">
        <ele>440.42</ele>
        <time>2020-10-18T16:03:57Z</time>
      </trkpt>
      <trkpt lat="43.5117" lon="2.42377">
        <ele>440.42</ele>
        <time>2020-10-18T16:04:00Z</time>
      </trkpt>
      <trkpt lat="43.51168" lon="2.42375">
        <ele>440.9</ele>
        <time>2020-10-18T16:04:02Z</time>
      </trkpt>
      <trkpt lat="43.51162" lon="2.42366">
        <ele>442.34</ele>
        <time>2020-10-18T16:04:10Z</time>
      </trkpt>
      <trkpt lat="43.51154" lon="2.42358">
        <ele>443.31</ele>
        <time>2020-10-18T16:04:18Z</time>
      </trkpt>
      <trkpt lat="43.51152" lon="2.42354">
        <ele>443.31</ele>
        <time>2020-10-18T16:04:21Z</time>
      </trkpt>
      <trkpt lat="43.51144" lon="2.42343">
        <ele>443.31</ele>
        <time>2020-10-18T16:04:30Z</time>
      </trkpt>
      <trkpt lat="43.51139" lon="2.42334">
        <ele>442.82</ele>
        <time>2020-10-18T16:04:36Z</time>
      </trkpt>
      <trkpt lat="43.51131" lon="2.42323">
        <ele>438.98</ele>
        <time>2020-10-18T16:04:44Z</time>
      </trkpt>
      <trkpt lat="43.51126" lon="2.4231">
        <ele>432.73</ele>
        <time>2020-10-18T16:04:51Z</time>
      </trkpt>
      <trkpt lat="43.51122" lon="2.42302">
        <ele>428.4</ele>
        <time>2020-10-18T16:04:58Z</time>
      </trkpt>
      <trkpt lat="43.51121" lon="2.42301">
        <ele>427.44</ele>
        <time>2020-10-18T16:04:59Z</time>
      </trkpt>
      <trkpt lat="43.51111" lon="2.42281">
        <ele>424.56</ele>
        <time>2020-10-18T16:05:11Z</time>
      </trkpt>
      <trkpt lat="43.51106" lon="2.42271">
        <ele>422.64</ele>
        <time>2020-10-18T16:05:19Z</time>
      </trkpt>
      <trkpt lat="43.51101" lon="2.42258">
        <ele>421.19</ele>
        <time>2020-10-18T16:05:28Z</time>
      </trkpt>
      <trkpt lat="43.51098" lon="2.4225">
        <ele>421.68</ele>
        <time>2020-10-18T16:05:34Z</time>
      </trkpt>
      <trkpt lat="43.51091" lon="2.42229">
        <ele>421.19</ele>
        <time>2020-10-18T16:05:45Z</time>
      </trkpt>
      <trkpt lat="43.51086" lon="2.42219">
        <ele>421.19</ele>
        <time>2020-10-18T16:05:52Z</time>
      </trkpt>
      <trkpt lat="43.51082" lon="2.42206">
        <ele>421.19</ele>
        <time>2020-10-18T16:06:01Z</time>
      </trkpt>
      <trkpt lat="43.51081" lon="2.422">
        <ele>420.23</ele>
        <time>2020-10-18T16:06:08Z</time>
      </trkpt>
      <trkpt lat="43.51078" lon="2.42191">
        <ele>416.87</ele>
        <time>2020-10-18T16:06:26Z</time>
      </trkpt>
      <trkpt lat="43.51079" lon="2.42187">
        <ele>416.39</ele>
        <time>2020-10-18T16:06:52Z</time>
      </trkpt>
      <trkpt lat="43.51076" lon="2.42185">
        <ele>414.95</ele>
        <time>2020-10-18T16:07:12Z</time>
      </trkpt>
      <trkpt lat="43.51074" lon="2.42181">
        <ele>415.43</ele>
        <time>2020-10-18T16:07:17Z</time>
      </trkpt>
      <trkpt lat="43.51072" lon="2.42173">
        <ele>413.98</ele>
        <time>2020-10-18T16:07:26Z</time>
      </trkpt>
      <trkpt lat="43.51069" lon="2.42165">
        <ele>413.98</ele>
        <time>2020-10-18T16:07:34Z</time>
      </trkpt>
      <trkpt lat="43.51064" lon="2.42156">
        <ele>413.98</ele>
        <time>2020-10-18T16:07:42Z</time>
      </trkpt>
      <trkpt lat="43.51061" lon="2.4215">
        <ele>413.98</ele>
        <time>2020-10-18T16:07:47Z</time>
      </trkpt>
      <trkpt lat="43.51057" lon="2.42136">
        <ele>413.98</ele>
        <time>2020-10-18T16:07:56Z</time>
      </trkpt>
      <trkpt lat="43.51056" lon="2.42133">
        <ele>413.98</ele>
        <time>2020-10-18T16:07:58Z</time>
      </trkpt>
      <trkpt lat="43.51051" lon="2.42123">
        <ele>413.98</ele>
        <time>2020-10-18T16:08:07Z</time>
      </trkpt>
      <trkpt lat="43.51048" lon="2.42118">
        <ele>413.98</ele>
        <time>2020-10-18T16:08:11Z</time>
      </trkpt>
      <trkpt lat="43.5104" lon="2.42103">
        <ele>412.06</ele>
        <time>2020-10-18T16:08:20Z</time>
      </trkpt>
      <trkpt lat="43.5103" lon="2.42091">
        <ele>411.58</ele>
        <time>2020-10-18T16:08:30Z</time>
      </trkpt>
      <trkpt lat="43.51021" lon="2.42076">
        <ele>410.62</ele>
        <time>2020-10-18T16:08:40Z</time>
      </trkpt>
      <trkpt lat="43.51014" lon="2.42064">
        <ele>411.58</ele>
        <time>2020-10-18T16:08:49Z</time>
      </trkpt>
      <trkpt lat="43.5101" lon="2.42054">
        <ele>414.47</ele>
        <time>2020-10-18T16:08:58Z</time>
      </trkpt>
      <trkpt lat="43.51008" lon="2.42043">
        <ele>415.91</ele>
        <time>2020-10-18T16:09:05Z</time>
      </trkpt>
      <trkpt lat="43.51004" lon="2.42028">
        <ele>413.98</ele>
        <time>2020-10-18T16:09:14Z</time>
      </trkpt>
      <trkpt lat="43.51001" lon="2.42018">
        <ele>414.95</ele>
        <time>2020-10-18T16:09:21Z</time>
      </trkpt>
      <trkpt lat="43.50997" lon="2.42001">
        <ele>413.02</ele>
        <time>2020-10-18T16:09:30Z</time>
      </trkpt>
      <trkpt lat="43.50993" lon="2.41985">
        <ele>407.26</ele>
        <time>2020-10-18T16:09:38Z</time>
      </trkpt>
      <trkpt lat="43.50988" lon="2.41976">
        <ele>406.29</ele>
        <time>2020-10-18T16:09:45Z</time>
      </trkpt>
      <trkpt lat="43.50983" lon="2.41967">
        <ele>405.81</ele>
        <time>2020-10-18T16:09:53Z</time>
      </trkpt>
      <trkpt lat="43.50978" lon="2.41957">
        <ele>405.33</ele>
        <time>2020-10-18T16:10:00Z</time>
      </trkpt>
      <trkpt lat="43.50974" lon="2.41946">
        <ele>404.85</ele>
        <time>2020-10-18T16:10:09Z</time>
      </trkpt>
      <trkpt lat="43.50969" lon="2.41938">
        <ele>406.29</ele>
        <time>2020-10-18T16:10:17Z</time>
      </trkpt>
      <trkpt lat="43.50964" lon="2.41929">
        <ele>407.74</ele>
        <time>2020-10-18T16:10:25Z</time>
      </trkpt>
      <trkpt lat="43.50961" lon="2.41925">
        <ele>408.22</ele>
        <time>2020-10-18T16:10:29Z</time>
      </trkpt>
      <trkpt lat="43.50954" lon="2.41913">
        <ele>410.14</ele>
        <time>2020-10-18T16:10:38Z</time>
      </trkpt>
      <trkpt lat="43.50949" lon="2.41898">
        <ele>411.1</ele>
        <time>2020-10-18T16:10:45Z</time>
      </trkpt>
      <trkpt lat="43.50944" lon="2.41876">
        <ele>406.77</ele>
        <time>2020-10-18T16:10:53Z</time>
      </trkpt>
      <trkpt lat="43.50936" lon="2.41865">
        <ele>403.41</ele>
        <time>2020-10-18T16:11:00Z</time>
      </trkpt>
      <trkpt lat="43.50928" lon="2.41861">
        <ele>402.45</ele>
        <time>2020-10-18T16:11:07Z</time>
      </trkpt>
      <trkpt lat="43.50919" lon="2.41861">
        <ele>397.64</ele>
        <time>2020-10-18T16:11:14Z</time>
      </trkpt>
      <trkpt lat="43.50914" lon="2.41859">
        <ele>395.24</ele>
        <time>2020-10-18T16:11:17Z</time>
      </trkpt>
      <trkpt lat="43.50906" lon="2.41849">
        <ele>392.84</ele>
        <time>2020-10-18T16:11:25Z</time>
      </trkpt>
      <trkpt lat="43.50899" lon="2.4184">
        <ele>391.39</ele>
        <time>2020-10-18T16:11:33Z</time>
      </trkpt>
      <trkpt lat="43.50891" lon="2.41827">
        <ele>389.47</ele>
        <time>2020-10-18T16:11:42Z</time>
      </trkpt>
      <trkpt lat="43.50883" lon="2.41814">
        <ele>388.03</ele>
        <time>2020-10-18T16:11:51Z</time>
      </trkpt>
      <trkpt lat="43.50878" lon="2.41806">
        <ele>388.03</ele>
        <time>2020-10-18T16:12:00Z</time>
      </trkpt>
      <trkpt lat="43.50872" lon="2.41791">
        <ele>388.03</ele>
        <time>2020-10-18T16:12:11Z</time>
      </trkpt>
      <trkpt lat="43.50869" lon="2.41782">
        <ele>387.07</ele>
        <time>2020-10-18T16:12:18Z</time>
      </trkpt>
      <trkpt lat="43.50867" lon="2.41779">
        <ele>386.59</ele>
        <time>2020-10-18T16:12:21Z</time>
      </trkpt>
      <trkpt lat="43.50861" lon="2.4177">
        <ele>387.55</ele>
        <time>2020-10-18T16:12:30Z</time>
      </trkpt>
      <trkpt lat="43.50859" lon="2.41767">
        <ele>388.03</ele>
        <time>2020-10-18T16:12:33Z</time>
      </trkpt>
      <trkpt lat="43.50852" lon="2.41761">
        <ele>389.95</ele>
        <time>2020-10-18T16:12:42Z</time>
      </trkpt>
      <trkpt lat="43.50847" lon="2.4176">
        <ele>389.95</ele>
        <time>2020-10-18T16:12:48Z</time>
      </trkpt>
      <trkpt lat="43.50841" lon="2.41757">
        <ele>389.47</ele>
        <time>2020-10-18T16:12:56Z</time>
      </trkpt>
      <trkpt lat="43.50835" lon="2.41752">
        <ele>389.47</ele>
        <time>2020-10-18T16:13:04Z</time>
      </trkpt>
      <trkpt lat="43.50829" lon="2.41748">
        <ele>388.03</ele>
        <time>2020-10-18T16:13:09Z</time>
      </trkpt>
      <trkpt lat="43.50821" lon="2.41742">
        <ele>384.66</ele>
        <time>2020-10-18T16:13:14Z</time>
      </trkpt>
      <trkpt lat="43.50817" lon="2.41739">
        <ele>383.22</ele>
        <time>2020-10-18T16:13:18Z</time>
      </trkpt>
      <trkpt lat="43.50806" lon="2.41731">
        <ele>381.78</ele>
        <time>2020-10-18T16:13:28Z</time>
      </trkpt>
      <trkpt lat="43.50795" lon="2.41722">
        <ele>380.34</ele>
        <time>2020-10-18T16:13:38Z</time>
      </trkpt>
      <trkpt lat="43.50791" lon="2.41712">
        <ele>379.38</ele>
        <time>2020-10-18T16:13:45Z</time>
      </trkpt>
      <trkpt lat="43.50789" lon="2.41709">
        <ele>378.9</ele>
        <time>2020-10-18T16:13:47Z</time>
      </trkpt>
      <trkpt lat="43.50787" lon="2.41703">
        <ele>378.42</ele>
        <time>2020-10-18T16:13:51Z</time>
      </trkpt>
      <trkpt lat="43.50779" lon="2.41685">
        <ele>375.05</ele>
        <time>2020-10-18T16:14:01Z</time>
      </trkpt>
      <trkpt lat="43.50774" lon="2.41676">
        <ele>373.61</ele>
        <time>2020-10-18T16:14:07Z</time>
      </trkpt>
      <trkpt lat="43.50771" lon="2.41667">
        <ele>372.65</ele>
        <time>2020-10-18T16:14:14Z</time>
      </trkpt>
      <trkpt lat="43.50767" lon="2.41655">
        <ele>372.65</ele>
        <time>2020-10-18T16:14:22Z</time>
      </trkpt>
      <trkpt lat="43.50765" lon="2.41638">
        <ele>373.13</ele>
        <time>2020-10-18T16:14:32Z</time>
      </trkpt>
      <trkpt lat="43.50761" lon="2.41622">
        <ele>375.05</ele>
        <time>2020-10-18T16:14:42Z</time>
      </trkpt>
      <trkpt lat="43.50758" lon="2.41608">
        <ele>377.45</ele>
        <time>2020-10-18T16:14:51Z</time>
      </trkpt>
      <trkpt lat="43.50757" lon="2.41605">
        <ele>376.97</ele>
        <time>2020-10-18T16:14:56Z</time>
      </trkpt>
      <trkpt lat="43.50754" lon="2.41591">
        <ele>377.94</ele>
        <time>2020-10-18T16:15:04Z</time>
      </trkpt>
      <trkpt lat="43.50752" lon="2.41576">
        <ele>377.94</ele>
        <time>2020-10-18T16:15:14Z</time>
      </trkpt>
      <trkpt lat="43.50751" lon="2.41573">
        <ele>377.45</ele>
        <time>2020-10-18T16:15:16Z</time>
      </trkpt>
      <trkpt lat="43.50747" lon="2.41557">
        <ele>375.53</ele>
        <time>2020-10-18T16:15:26Z</time>
      </trkpt>
      <trkpt lat="43.50745" lon="2.41545">
        <ele>375.05</ele>
        <time>2020-10-18T16:15:34Z</time>
      </trkpt>
      <trkpt lat="43.50745" lon="2.41533">
        <ele>370.73</ele>
        <time>2020-10-18T16:15:40Z</time>
      </trkpt>
      <trkpt lat="43.50743" lon="2.41528">
        <ele>369.76</ele>
        <time>2020-10-18T16:15:43Z</time>
      </trkpt>
      <trkpt lat="43.50741" lon="2.41519">
        <ele>366.88</ele>
        <time>2020-10-18T16:15:49Z</time>
      </trkpt>
      <trkpt lat="43.50735" lon="2.41501">
        <ele>365.44</ele>
        <time>2020-10-18T16:15:59Z</time>
      </trkpt>
      <trkpt lat="43.50728" lon="2.41488">
        <ele>363.04</ele>
        <time>2020-10-18T16:16:08Z</time>
      </trkpt>
      <trkpt lat="43.50718" lon="2.41475">
        <ele>360.63</ele>
        <time>2020-10-18T16:16:17Z</time>
      </trkpt>
      <trkpt lat="43.50713" lon="2.41469">
        <ele>359.67</ele>
        <time>2020-10-18T16:16:22Z</time>
      </trkpt>
      <trkpt lat="43.50705" lon="2.4146">
        <ele>356.79</ele>
        <time>2020-10-18T16:16:31Z</time>
      </trkpt>
      <trkpt lat="43.50699" lon="2.41457">
        <ele>355.34</ele>
        <time>2020-10-18T16:16:38Z</time>
      </trkpt>
      <trkpt lat="43.50693" lon="2.41451">
        <ele>354.38</ele>
        <time>2020-10-18T16:16:45Z</time>
      </trkpt>
      <trkpt lat="43.50684" lon="2.4144">
        <ele>352.46</ele>
        <time>2020-10-18T16:16:54Z</time>
      </trkpt>
      <trkpt lat="43.50675" lon="2.41433">
        <ele>349.58</ele>
        <time>2020-10-18T16:17:01Z</time>
      </trkpt>
      <trkpt lat="43.50668" lon="2.41425">
        <ele>349.1</ele>
        <time>2020-10-18T16:17:09Z</time>
      </trkpt>
      <trkpt lat="43.50661" lon="2.41419">
        <ele>349.58</ele>
        <time>2020-10-18T16:17:18Z</time>
      </trkpt>
      <trkpt lat="43.50653" lon="2.41409">
        <ele>350.06</ele>
        <time>2020-10-18T16:17:26Z</time>
      </trkpt>
      <trkpt lat="43.50651" lon="2.41407">
        <ele>349.58</ele>
        <time>2020-10-18T16:17:28Z</time>
      </trkpt>
      <trkpt lat="43.50646" lon="2.41402">
        <ele>348.13</ele>
        <time>2020-10-18T16:17:35Z</time>
      </trkpt>
      <trkpt lat="43.5064" lon="2.41392">
        <ele>346.21</ele>
        <time>2020-10-18T16:17:43Z</time>
      </trkpt>
      <trkpt lat="43.50632" lon="2.41383">
        <ele>342.85</ele>
        <time>2020-10-18T16:17:52Z</time>
      </trkpt>
      <trkpt lat="43.50625" lon="2.41376">
        <ele>340.92</ele>
        <time>2020-10-18T16:17:58Z</time>
      </trkpt>
      <trkpt lat="43.50617" lon="2.41369">
        <ele>341.89</ele>
        <time>2020-10-18T16:18:06Z</time>
      </trkpt>
      <trkpt lat="43.50609" lon="2.41361">
        <ele>340.44</ele>
        <time>2020-10-18T16:18:16Z</time>
      </trkpt>
      <trkpt lat="43.506" lon="2.41357">
        <ele>336.12</ele>
        <time>2020-10-18T16:18:23Z</time>
      </trkpt>
      <trkpt lat="43.50595" lon="2.41353">
        <ele>335.64</ele>
        <time>2020-10-18T16:18:29Z</time>
      </trkpt>
      <trkpt lat="43.50589" lon="2.41348">
        <ele>334.2</ele>
        <time>2020-10-18T16:18:37Z</time>
      </trkpt>
      <trkpt lat="43.50583" lon="2.4134">
        <ele>332.75</ele>
        <time>2020-10-18T16:18:45Z</time>
      </trkpt>
      <trkpt lat="43.50577" lon="2.41333">
        <ele>331.31</ele>
        <time>2020-10-18T16:18:52Z</time>
      </trkpt>
      <trkpt lat="43.50573" lon="2.41328">
        <ele>330.83</ele>
        <time>2020-10-18T16:18:57Z</time>
      </trkpt>
      <trkpt lat="43.50566" lon="2.4132">
        <ele>327.95</ele>
        <time>2020-10-18T16:19:04Z</time>
      </trkpt>
      <trkpt lat="43.50558" lon="2.41311">
        <ele>326.02</ele>
        <time>2020-10-18T16:19:13Z</time>
      </trkpt>
      <trkpt lat="43.50553" lon="2.41305">
        <ele>324.58</ele>
        <time>2020-10-18T16:19:21Z</time>
      </trkpt>
      <trkpt lat="43.50545" lon="2.41295">
        <ele>324.1</ele>
        <time>2020-10-18T16:19:30Z</time>
      </trkpt>
      <trkpt lat="43.50538" lon="2.41285">
        <ele>323.14</ele>
        <time>2020-10-18T16:19:38Z</time>
      </trkpt>
      <trkpt lat="43.50535" lon="2.41283">
        <ele>322.66</ele>
        <time>2020-10-18T16:19:41Z</time>
      </trkpt>
      <trkpt lat="43.5053" lon="2.41281">
        <ele>320.74</ele>
        <time>2020-10-18T16:19:47Z</time>
      </trkpt>
      <trkpt lat="43.50527" lon="2.41283">
        <ele>319.3</ele>
        <time>2020-10-18T16:19:54Z</time>
      </trkpt>
      <trkpt lat="43.50524" lon="2.41279">
        <ele>317.37</ele>
        <time>2020-10-18T16:20:00Z</time>
      </trkpt>
      <trkpt lat="43.50522" lon="2.41274">
        <ele>316.89</ele>
        <time>2020-10-18T16:20:06Z</time>
      </trkpt>
      <trkpt lat="43.50518" lon="2.41267">
        <ele>315.93</ele>
        <time>2020-10-18T16:20:12Z</time>
      </trkpt>
      <trkpt lat="43.50518" lon="2.41266">
        <ele>315.93</ele>
        <time>2020-10-18T16:20:13Z</time>
      </trkpt>
      <trkpt lat="43.50511" lon="2.4125">
        <ele>316.89</ele>
        <time>2020-10-18T16:20:24Z</time>
      </trkpt>
      <trkpt lat="43.50509" lon="2.4124">
        <ele>315.93</ele>
        <time>2020-10-18T16:20:28Z</time>
      </trkpt>
      <trkpt lat="43.50505" lon="2.4123">
        <ele>314.49</ele>
        <time>2020-10-18T16:20:33Z</time>
      </trkpt>
      <trkpt lat="43.50502" lon="2.41219">
        <ele>312.57</ele>
        <time>2020-10-18T16:20:40Z</time>
      </trkpt>
      <trkpt lat="43.50502" lon="2.41217">
        <ele>312.09</ele>
        <time>2020-10-18T16:20:41Z</time>
      </trkpt>
      <trkpt lat="43.50498" lon="2.41206">
        <ele>311.12</ele>
        <time>2020-10-18T16:20:48Z</time>
      </trkpt>
      <trkpt lat="43.50497" lon="2.41203">
        <ele>310.16</ele>
        <time>2020-10-18T16:20:50Z</time>
      </trkpt>
      <trkpt lat="43.50495" lon="2.41197">
        <ele>308.72</ele>
        <time>2020-10-18T16:20:54Z</time>
      </trkpt>
      <trkpt lat="43.50488" lon="2.41184">
        <ele>307.76</ele>
        <time>2020-10-18T16:21:02Z</time>
      </trkpt>
      <trkpt lat="43.50485" lon="2.41173">
        <ele>306.8</ele>
        <time>2020-10-18T16:21:10Z</time>
      </trkpt>
      <trkpt lat="43.50484" lon="2.4117">
        <ele>307.28</ele>
        <time>2020-10-18T16:21:12Z</time>
      </trkpt>
      <trkpt lat="43.50477" lon="2.41155">
        <ele>307.28</ele>
        <time>2020-10-18T16:21:22Z</time>
      </trkpt>
      <trkpt lat="43.50475" lon="2.41149">
        <ele>307.28</ele>
        <time>2020-10-18T16:21:25Z</time>
      </trkpt>
      <trkpt lat="43.5047" lon="2.41136">
        <ele>305.84</ele>
        <time>2020-10-18T16:21:34Z</time>
      </trkpt>
      <trkpt lat="43.50469" lon="2.41131">
        <ele>304.39</ele>
        <time>2020-10-18T16:21:37Z</time>
      </trkpt>
      <trkpt lat="43.50464" lon="2.41125">
        <ele>302.47</ele>
        <time>2020-10-18T16:21:44Z</time>
      </trkpt>
      <trkpt lat="43.50462" lon="2.41123">
        <ele>301.99</ele>
        <time>2020-10-18T16:21:46Z</time>
      </trkpt>
      <trkpt lat="43.50457" lon="2.41111">
        <ele>298.63</ele>
        <time>2020-10-18T16:21:55Z</time>
      </trkpt>
      <trkpt lat="43.50456" lon="2.41108">
        <ele>298.15</ele>
        <time>2020-10-18T16:21:58Z</time>
      </trkpt>
      <trkpt lat="43.50453" lon="2.41097">
        <ele>295.74</ele>
        <time>2020-10-18T16:22:07Z</time>
      </trkpt>
      <trkpt lat="43.50451" lon="2.41086">
        <ele>295.26</ele>
        <time>2020-10-18T16:22:14Z</time>
      </trkpt>
      <trkpt lat="43.50445" lon="2.41069">
        <ele>291.42</ele>
        <time>2020-10-18T16:22:23Z</time>
      </trkpt>
      <trkpt lat="43.5044" lon="2.41056">
        <ele>288.53</ele>
        <time>2020-10-18T16:22:32Z</time>
      </trkpt>
      <trkpt lat="43.50435" lon="2.41044">
        <ele>285.17</ele>
        <time>2020-10-18T16:22:39Z</time>
      </trkpt>
      <trkpt lat="43.50432" lon="2.41037">
        <ele>282.77</ele>
        <time>2020-10-18T16:22:44Z</time>
      </trkpt>
      <trkpt lat="43.5043" lon="2.41031">
        <ele>281.32</ele>
        <time>2020-10-18T16:22:48Z</time>
      </trkpt>
      <trkpt lat="43.50427" lon="2.41027">
        <ele>279.88</ele>
        <time>2020-10-18T16:22:51Z</time>
      </trkpt>
      <trkpt lat="43.50423" lon="2.41015">
        <ele>276.04</ele>
        <time>2020-10-18T16:23:00Z</time>
      </trkpt>
      <trkpt lat="43.50425" lon="2.41006">
        <ele>273.15</ele>
        <time>2020-10-18T16:23:07Z</time>
      </trkpt>
      <trkpt lat="43.50425" lon="2.40993">
        <ele>273.15</ele>
        <time>2020-10-18T16:23:15Z</time>
      </trkpt>
      <trkpt lat="43.50423" lon="2.40985">
        <ele>272.67</ele>
        <time>2020-10-18T16:23:21Z</time>
      </trkpt>
      <trkpt lat="43.50419" lon="2.40975">
        <ele>269.79</ele>
        <time>2020-10-18T16:23:28Z</time>
      </trkpt>
      <trkpt lat="43.50417" lon="2.40966">
        <ele>267.38</ele>
        <time>2020-10-18T16:23:37Z</time>
      </trkpt>
      <trkpt lat="43.50416" lon="2.40962">
        <ele>265.94</ele>
        <time>2020-10-18T16:23:43Z</time>
      </trkpt>
      <trkpt lat="43.50412" lon="2.40954">
        <ele>265.94</ele>
        <time>2020-10-18T16:23:50Z</time>
      </trkpt>
      <trkpt lat="43.50412" lon="2.40945">
        <ele>265.94</ele>
        <time>2020-10-18T16:23:56Z</time>
      </trkpt>
      <trkpt lat="43.50413" lon="2.40931">
        <ele>269.31</ele>
        <time>2020-10-18T16:24:04Z</time>
      </trkpt>
      <trkpt lat="43.50415" lon="2.40913">
        <ele>270.75</ele>
        <time>2020-10-18T16:24:15Z</time>
      </trkpt>
      <trkpt lat="43.50418" lon="2.40906">
        <ele>270.75</ele>
        <time>2020-10-18T16:24:23Z</time>
      </trkpt>
      <trkpt lat="43.5042" lon="2.40903">
        <ele>267.38</ele>
        <time>2020-10-18T16:24:31Z</time>
      </trkpt>
      <trkpt lat="43.5043" lon="2.40903">
        <ele>268.35</ele>
        <time>2020-10-18T16:24:39Z</time>
      </trkpt>
      <trkpt lat="43.50435" lon="2.40901">
        <ele>269.79</ele>
        <time>2020-10-18T16:24:45Z</time>
      </trkpt>
      <trkpt lat="43.5044" lon="2.40899">
        <ele>271.71</ele>
        <time>2020-10-18T16:24:52Z</time>
      </trkpt>
      <trkpt lat="43.50448" lon="2.40898">
        <ele>272.19</ele>
        <time>2020-10-18T16:25:00Z</time>
      </trkpt>
      <trkpt lat="43.50453" lon="2.40904">
        <ele>272.19</ele>
        <time>2020-10-18T16:25:07Z</time>
      </trkpt>
      <trkpt lat="43.5046" lon="2.40914">
        <ele>272.67</ele>
        <time>2020-10-18T16:25:17Z</time>
      </trkpt>
      <trkpt lat="43.50467" lon="2.4092">
        <ele>274.11</ele>
        <time>2020-10-18T16:25:24Z</time>
      </trkpt>
      <trkpt lat="43.50472" lon="2.40924">
        <ele>272.67</ele>
        <time>2020-10-18T16:25:30Z</time>
      </trkpt>
      <trkpt lat="43.50473" lon="2.40923">
        <ele>272.19</ele>
        <time>2020-10-18T16:25:39Z</time>
      </trkpt>
      <trkpt lat="43.50475" lon="2.40926">
        <ele>269.31</ele>
        <time>2020-10-18T16:25:48Z</time>
      </trkpt>
      <trkpt lat="43.50473" lon="2.40924">
        <ele>269.79</ele>
        <time>2020-10-18T16:25:57Z</time>
      </trkpt>
    </trkseg>
  </trk>
</gpx>